<?xml version="1.0" encoding="UTF-8" standalone="no" ?>
<gpx xmlns="http://www.topografix.com/GPX/1/1" xmlns:xsi="http://www.w3.org/2001/XMLSchema-instance" xsi:schemaLocation="http://www.topografix.com/GPX/1/1 http://www.topografix.com/GPX/1/1/gpx.xsd" version="1.1" creator="VisuGPX - https://www.visugpx.com">
  <metadata>
    <name>Manival / Arces</name>
    <desc><![CDATA[Baraque forestière du Manival
Tour d'Arces
(=> Marsauze à faire dans l'autre sens)]]></desc>
  </metadata>
  <trk>
    <name><![CDATA[Manival / Arces_1]]></name>
    <trkseg>
      <trkpt lat="45.22648" lon="5.80269">
        <ele>304</ele>
        <time>2017-09-24T11:44:56Z</time>
      </trkpt>
      <trkpt lat="45.22645" lon="5.80261">
        <ele>305</ele>
        <time>2017-09-24T11:44:58Z</time>
      </trkpt>
      <trkpt lat="45.22644" lon="5.80252">
        <ele>305</ele>
        <time>2017-09-24T11:45:00Z</time>
      </trkpt>
      <trkpt lat="45.22643" lon="5.80244">
        <ele>305</ele>
        <time>2017-09-24T11:45:02Z</time>
      </trkpt>
      <trkpt lat="45.22641" lon="5.80237">
        <ele>305</ele>
        <time>2017-09-24T11:45:04Z</time>
      </trkpt>
      <trkpt lat="45.22646" lon="5.80232">
        <ele>306</ele>
        <time>2017-09-24T11:45:08Z</time>
      </trkpt>
      <trkpt lat="45.22652" lon="5.8023">
        <ele>306</ele>
        <time>2017-09-24T11:45:11Z</time>
      </trkpt>
      <trkpt lat="45.2266" lon="5.80226">
        <ele>306</ele>
        <time>2017-09-24T11:45:15Z</time>
      </trkpt>
      <trkpt lat="45.22664" lon="5.80223">
        <ele>307</ele>
        <time>2017-09-24T11:45:17Z</time>
      </trkpt>
      <trkpt lat="45.22669" lon="5.8022">
        <ele>307</ele>
        <time>2017-09-24T11:45:19Z</time>
      </trkpt>
      <trkpt lat="45.22673" lon="5.80218">
        <ele>307</ele>
        <time>2017-09-24T11:45:21Z</time>
      </trkpt>
      <trkpt lat="45.22678" lon="5.80215">
        <ele>308</ele>
        <time>2017-09-24T11:45:23Z</time>
      </trkpt>
      <trkpt lat="45.22681" lon="5.80212">
        <ele>308</ele>
        <time>2017-09-24T11:45:25Z</time>
      </trkpt>
      <trkpt lat="45.22685" lon="5.80206">
        <ele>308</ele>
        <time>2017-09-24T11:45:27Z</time>
      </trkpt>
      <trkpt lat="45.22688" lon="5.80199">
        <ele>309</ele>
        <time>2017-09-24T11:45:29Z</time>
      </trkpt>
      <trkpt lat="45.2269" lon="5.80192">
        <ele>309</ele>
        <time>2017-09-24T11:45:31Z</time>
      </trkpt>
      <trkpt lat="45.22693" lon="5.80185">
        <ele>309</ele>
        <time>2017-09-24T11:45:33Z</time>
      </trkpt>
      <trkpt lat="45.22695" lon="5.80178">
        <ele>310</ele>
        <time>2017-09-24T11:45:35Z</time>
      </trkpt>
      <trkpt lat="45.22697" lon="5.80173">
        <ele>310</ele>
        <time>2017-09-24T11:45:37Z</time>
      </trkpt>
      <trkpt lat="45.22701" lon="5.80168">
        <ele>310</ele>
        <time>2017-09-24T11:45:39Z</time>
      </trkpt>
      <trkpt lat="45.22704" lon="5.80164">
        <ele>311</ele>
        <time>2017-09-24T11:45:41Z</time>
      </trkpt>
      <trkpt lat="45.22711" lon="5.80161">
        <ele>311</ele>
        <time>2017-09-24T11:45:44Z</time>
      </trkpt>
      <trkpt lat="45.22717" lon="5.80159">
        <ele>312</ele>
        <time>2017-09-24T11:45:47Z</time>
      </trkpt>
      <trkpt lat="45.22723" lon="5.80154">
        <ele>312</ele>
        <time>2017-09-24T11:45:50Z</time>
      </trkpt>
      <trkpt lat="45.22728" lon="5.80148">
        <ele>312</ele>
        <time>2017-09-24T11:45:53Z</time>
      </trkpt>
      <trkpt lat="45.22731" lon="5.80141">
        <ele>313</ele>
        <time>2017-09-24T11:45:55Z</time>
      </trkpt>
      <trkpt lat="45.22735" lon="5.80137">
        <ele>313</ele>
        <time>2017-09-24T11:45:57Z</time>
      </trkpt>
      <trkpt lat="45.22741" lon="5.80132">
        <ele>314</ele>
        <time>2017-09-24T11:46:00Z</time>
      </trkpt>
      <trkpt lat="45.22746" lon="5.80128">
        <ele>315</ele>
        <time>2017-09-24T11:46:03Z</time>
      </trkpt>
      <trkpt lat="45.22752" lon="5.80123">
        <ele>315</ele>
        <time>2017-09-24T11:46:06Z</time>
      </trkpt>
      <trkpt lat="45.22756" lon="5.80118">
        <ele>316</ele>
        <time>2017-09-24T11:46:09Z</time>
      </trkpt>
      <trkpt lat="45.22761" lon="5.80115">
        <ele>316</ele>
        <time>2017-09-24T11:46:12Z</time>
      </trkpt>
      <trkpt lat="45.22766" lon="5.80109">
        <ele>317</ele>
        <time>2017-09-24T11:46:15Z</time>
      </trkpt>
      <trkpt lat="45.2277" lon="5.80102">
        <ele>317</ele>
        <time>2017-09-24T11:46:18Z</time>
      </trkpt>
      <trkpt lat="45.22775" lon="5.80097">
        <ele>318</ele>
        <time>2017-09-24T11:46:21Z</time>
      </trkpt>
      <trkpt lat="45.22781" lon="5.80093">
        <ele>318</ele>
        <time>2017-09-24T11:46:24Z</time>
      </trkpt>
      <trkpt lat="45.22787" lon="5.80091">
        <ele>319</ele>
        <time>2017-09-24T11:46:27Z</time>
      </trkpt>
      <trkpt lat="45.22792" lon="5.80086">
        <ele>319</ele>
        <time>2017-09-24T11:46:30Z</time>
      </trkpt>
      <trkpt lat="45.22795" lon="5.80081">
        <ele>319</ele>
        <time>2017-09-24T11:46:32Z</time>
      </trkpt>
      <trkpt lat="45.22798" lon="5.80076">
        <ele>320</ele>
        <time>2017-09-24T11:46:34Z</time>
      </trkpt>
      <trkpt lat="45.22801" lon="5.80071">
        <ele>320</ele>
        <time>2017-09-24T11:46:36Z</time>
      </trkpt>
      <trkpt lat="45.22804" lon="5.80066">
        <ele>320</ele>
        <time>2017-09-24T11:46:38Z</time>
      </trkpt>
      <trkpt lat="45.22807" lon="5.80061">
        <ele>320</ele>
        <time>2017-09-24T11:46:40Z</time>
      </trkpt>
      <trkpt lat="45.22812" lon="5.80054">
        <ele>321</ele>
        <time>2017-09-24T11:46:43Z</time>
      </trkpt>
      <trkpt lat="45.22816" lon="5.80051">
        <ele>321</ele>
        <time>2017-09-24T11:46:45Z</time>
      </trkpt>
      <trkpt lat="45.2282" lon="5.80046">
        <ele>321</ele>
        <time>2017-09-24T11:46:47Z</time>
      </trkpt>
      <trkpt lat="45.22823" lon="5.80041">
        <ele>322</ele>
        <time>2017-09-24T11:46:49Z</time>
      </trkpt>
      <trkpt lat="45.22827" lon="5.80038">
        <ele>322</ele>
        <time>2017-09-24T11:46:51Z</time>
      </trkpt>
      <trkpt lat="45.22832" lon="5.80036">
        <ele>322</ele>
        <time>2017-09-24T11:46:53Z</time>
      </trkpt>
      <trkpt lat="45.22837" lon="5.80032">
        <ele>323</ele>
        <time>2017-09-24T11:46:56Z</time>
      </trkpt>
      <trkpt lat="45.22842" lon="5.80027">
        <ele>323</ele>
        <time>2017-09-24T11:46:59Z</time>
      </trkpt>
      <trkpt lat="45.22847" lon="5.80025">
        <ele>324</ele>
        <time>2017-09-24T11:47:02Z</time>
      </trkpt>
      <trkpt lat="45.22853" lon="5.80022">
        <ele>324</ele>
        <time>2017-09-24T11:47:05Z</time>
      </trkpt>
      <trkpt lat="45.22858" lon="5.80018">
        <ele>325</ele>
        <time>2017-09-24T11:47:08Z</time>
      </trkpt>
      <trkpt lat="45.22863" lon="5.80014">
        <ele>325</ele>
        <time>2017-09-24T11:47:11Z</time>
      </trkpt>
      <trkpt lat="45.22869" lon="5.80012">
        <ele>326</ele>
        <time>2017-09-24T11:47:14Z</time>
      </trkpt>
      <trkpt lat="45.22874" lon="5.80009">
        <ele>326</ele>
        <time>2017-09-24T11:47:17Z</time>
      </trkpt>
      <trkpt lat="45.22879" lon="5.80005">
        <ele>327</ele>
        <time>2017-09-24T11:47:20Z</time>
      </trkpt>
      <trkpt lat="45.22884" lon="5.8">
        <ele>327</ele>
        <time>2017-09-24T11:47:23Z</time>
      </trkpt>
      <trkpt lat="45.2289" lon="5.79996">
        <ele>328</ele>
        <time>2017-09-24T11:47:26Z</time>
      </trkpt>
      <trkpt lat="45.22895" lon="5.79992">
        <ele>329</ele>
        <time>2017-09-24T11:47:29Z</time>
      </trkpt>
      <trkpt lat="45.22901" lon="5.79988">
        <ele>329</ele>
        <time>2017-09-24T11:47:32Z</time>
      </trkpt>
      <trkpt lat="45.22907" lon="5.79985">
        <ele>330</ele>
        <time>2017-09-24T11:47:35Z</time>
      </trkpt>
      <trkpt lat="45.22912" lon="5.79984">
        <ele>330</ele>
        <time>2017-09-24T11:47:38Z</time>
      </trkpt>
      <trkpt lat="45.22917" lon="5.79981">
        <ele>331</ele>
        <time>2017-09-24T11:47:42Z</time>
      </trkpt>
      <trkpt lat="45.22922" lon="5.79977">
        <ele>331</ele>
        <time>2017-09-24T11:47:45Z</time>
      </trkpt>
      <trkpt lat="45.22926" lon="5.79971">
        <ele>332</ele>
        <time>2017-09-24T11:47:48Z</time>
      </trkpt>
      <trkpt lat="45.2293" lon="5.79969">
        <ele>332</ele>
        <time>2017-09-24T11:47:51Z</time>
      </trkpt>
      <trkpt lat="45.22936" lon="5.79967">
        <ele>333</ele>
        <time>2017-09-24T11:47:54Z</time>
      </trkpt>
      <trkpt lat="45.22941" lon="5.79963">
        <ele>334</ele>
        <time>2017-09-24T11:47:57Z</time>
      </trkpt>
      <trkpt lat="45.22945" lon="5.79958">
        <ele>334</ele>
        <time>2017-09-24T11:48:00Z</time>
      </trkpt>
      <trkpt lat="45.22952" lon="5.79953">
        <ele>335</ele>
        <time>2017-09-24T11:48:04Z</time>
      </trkpt>
      <trkpt lat="45.22957" lon="5.79951">
        <ele>335</ele>
        <time>2017-09-24T11:48:07Z</time>
      </trkpt>
      <trkpt lat="45.22961" lon="5.79947">
        <ele>336</ele>
        <time>2017-09-24T11:48:10Z</time>
      </trkpt>
      <trkpt lat="45.22966" lon="5.79943">
        <ele>337</ele>
        <time>2017-09-24T11:48:13Z</time>
      </trkpt>
      <trkpt lat="45.22972" lon="5.79941">
        <ele>337</ele>
        <time>2017-09-24T11:48:16Z</time>
      </trkpt>
      <trkpt lat="45.22977" lon="5.79945">
        <ele>338</ele>
        <time>2017-09-24T11:48:19Z</time>
      </trkpt>
      <trkpt lat="45.22983" lon="5.79953">
        <ele>338</ele>
        <time>2017-09-24T11:48:23Z</time>
      </trkpt>
      <trkpt lat="45.22987" lon="5.79958">
        <ele>338</ele>
        <time>2017-09-24T11:48:25Z</time>
      </trkpt>
      <trkpt lat="45.2299" lon="5.79964">
        <ele>339</ele>
        <time>2017-09-24T11:48:27Z</time>
      </trkpt>
      <trkpt lat="45.22994" lon="5.79969">
        <ele>339</ele>
        <time>2017-09-24T11:48:29Z</time>
      </trkpt>
      <trkpt lat="45.22998" lon="5.79975">
        <ele>339</ele>
        <time>2017-09-24T11:48:31Z</time>
      </trkpt>
      <trkpt lat="45.23002" lon="5.79981">
        <ele>339</ele>
        <time>2017-09-24T11:48:33Z</time>
      </trkpt>
      <trkpt lat="45.23007" lon="5.79987">
        <ele>340</ele>
        <time>2017-09-24T11:48:35Z</time>
      </trkpt>
      <trkpt lat="45.23013" lon="5.79994">
        <ele>340</ele>
        <time>2017-09-24T11:48:37Z</time>
      </trkpt>
      <trkpt lat="45.23018" lon="5.8">
        <ele>340</ele>
        <time>2017-09-24T11:48:39Z</time>
      </trkpt>
      <trkpt lat="45.23023" lon="5.80007">
        <ele>340</ele>
        <time>2017-09-24T11:48:41Z</time>
      </trkpt>
      <trkpt lat="45.23028" lon="5.80014">
        <ele>340</ele>
        <time>2017-09-24T11:48:43Z</time>
      </trkpt>
      <trkpt lat="45.23032" lon="5.80022">
        <ele>340</ele>
        <time>2017-09-24T11:48:45Z</time>
      </trkpt>
      <trkpt lat="45.23036" lon="5.8003">
        <ele>340</ele>
        <time>2017-09-24T11:48:47Z</time>
      </trkpt>
      <trkpt lat="45.2304" lon="5.80037">
        <ele>340</ele>
        <time>2017-09-24T11:48:49Z</time>
      </trkpt>
      <trkpt lat="45.23045" lon="5.80045">
        <ele>340</ele>
        <time>2017-09-24T11:48:51Z</time>
      </trkpt>
      <trkpt lat="45.23051" lon="5.80053">
        <ele>340</ele>
        <time>2017-09-24T11:48:53Z</time>
      </trkpt>
      <trkpt lat="45.23058" lon="5.80061">
        <ele>340</ele>
        <time>2017-09-24T11:48:55Z</time>
      </trkpt>
      <trkpt lat="45.23064" lon="5.80068">
        <ele>340</ele>
        <time>2017-09-24T11:48:57Z</time>
      </trkpt>
      <trkpt lat="45.23071" lon="5.80075">
        <ele>341</ele>
        <time>2017-09-24T11:48:59Z</time>
      </trkpt>
      <trkpt lat="45.23077" lon="5.80083">
        <ele>341</ele>
        <time>2017-09-24T11:49:01Z</time>
      </trkpt>
      <trkpt lat="45.23084" lon="5.8009">
        <ele>340</ele>
        <time>2017-09-24T11:49:03Z</time>
      </trkpt>
      <trkpt lat="45.2309" lon="5.80097">
        <ele>340</ele>
        <time>2017-09-24T11:49:05Z</time>
      </trkpt>
      <trkpt lat="45.23096" lon="5.80105">
        <ele>340</ele>
        <time>2017-09-24T11:49:07Z</time>
      </trkpt>
      <trkpt lat="45.23103" lon="5.80112">
        <ele>340</ele>
        <time>2017-09-24T11:49:09Z</time>
      </trkpt>
      <trkpt lat="45.23109" lon="5.80119">
        <ele>340</ele>
        <time>2017-09-24T11:49:11Z</time>
      </trkpt>
      <trkpt lat="45.23116" lon="5.80126">
        <ele>340</ele>
        <time>2017-09-24T11:49:13Z</time>
      </trkpt>
      <trkpt lat="45.23122" lon="5.80133">
        <ele>340</ele>
        <time>2017-09-24T11:49:15Z</time>
      </trkpt>
      <trkpt lat="45.23129" lon="5.80141">
        <ele>339</ele>
        <time>2017-09-24T11:49:17Z</time>
      </trkpt>
      <trkpt lat="45.23135" lon="5.80149">
        <ele>339</ele>
        <time>2017-09-24T11:49:19Z</time>
      </trkpt>
      <trkpt lat="45.23142" lon="5.80157">
        <ele>339</ele>
        <time>2017-09-24T11:49:21Z</time>
      </trkpt>
      <trkpt lat="45.23145" lon="5.80161">
        <ele>339</ele>
        <time>2017-09-24T11:49:22Z</time>
      </trkpt>
      <trkpt lat="45.23149" lon="5.80165">
        <ele>338</ele>
        <time>2017-09-24T11:49:23Z</time>
      </trkpt>
      <trkpt lat="45.23156" lon="5.80173">
        <ele>338</ele>
        <time>2017-09-24T11:49:25Z</time>
      </trkpt>
      <trkpt lat="45.2316" lon="5.80179">
        <ele>338</ele>
        <time>2017-09-24T11:49:26Z</time>
      </trkpt>
      <trkpt lat="45.23164" lon="5.80184">
        <ele>337</ele>
        <time>2017-09-24T11:49:27Z</time>
      </trkpt>
      <trkpt lat="45.23167" lon="5.80188">
        <ele>337</ele>
        <time>2017-09-24T11:49:28Z</time>
      </trkpt>
      <trkpt lat="45.23172" lon="5.80192">
        <ele>337</ele>
        <time>2017-09-24T11:49:29Z</time>
      </trkpt>
      <trkpt lat="45.23175" lon="5.80197">
        <ele>336</ele>
        <time>2017-09-24T11:49:30Z</time>
      </trkpt>
      <trkpt lat="45.23181" lon="5.80202">
        <ele>336</ele>
        <time>2017-09-24T11:49:31Z</time>
      </trkpt>
      <trkpt lat="45.23185" lon="5.80206">
        <ele>336</ele>
        <time>2017-09-24T11:49:32Z</time>
      </trkpt>
      <trkpt lat="45.2319" lon="5.80212">
        <ele>336</ele>
        <time>2017-09-24T11:49:33Z</time>
      </trkpt>
      <trkpt lat="45.23194" lon="5.80217">
        <ele>335</ele>
        <time>2017-09-24T11:49:34Z</time>
      </trkpt>
      <trkpt lat="45.23198" lon="5.80222">
        <ele>335</ele>
        <time>2017-09-24T11:49:35Z</time>
      </trkpt>
      <trkpt lat="45.23207" lon="5.80233">
        <ele>334</ele>
        <time>2017-09-24T11:49:37Z</time>
      </trkpt>
      <trkpt lat="45.23211" lon="5.80236">
        <ele>334</ele>
        <time>2017-09-24T11:49:38Z</time>
      </trkpt>
      <trkpt lat="45.23217" lon="5.80235">
        <ele>334</ele>
        <time>2017-09-24T11:49:40Z</time>
      </trkpt>
      <trkpt lat="45.2322" lon="5.80231">
        <ele>335</ele>
        <time>2017-09-24T11:49:42Z</time>
      </trkpt>
      <trkpt lat="45.23224" lon="5.80226">
        <ele>335</ele>
        <time>2017-09-24T11:49:44Z</time>
      </trkpt>
      <trkpt lat="45.23229" lon="5.80221">
        <ele>336</ele>
        <time>2017-09-24T11:49:47Z</time>
      </trkpt>
      <trkpt lat="45.23232" lon="5.80214">
        <ele>336</ele>
        <time>2017-09-24T11:49:51Z</time>
      </trkpt>
      <trkpt lat="45.23236" lon="5.80207">
        <ele>337</ele>
        <time>2017-09-24T11:49:54Z</time>
      </trkpt>
      <trkpt lat="45.23239" lon="5.80202">
        <ele>337</ele>
        <time>2017-09-24T11:49:56Z</time>
      </trkpt>
      <trkpt lat="45.23243" lon="5.80198">
        <ele>338</ele>
        <time>2017-09-24T11:49:58Z</time>
      </trkpt>
      <trkpt lat="45.23247" lon="5.80191">
        <ele>339</ele>
        <time>2017-09-24T11:50:01Z</time>
      </trkpt>
      <trkpt lat="45.23256" lon="5.80188">
        <ele>339</ele>
        <time>2017-09-24T11:50:05Z</time>
      </trkpt>
      <trkpt lat="45.2326" lon="5.8019">
        <ele>339</ele>
        <time>2017-09-24T11:50:07Z</time>
      </trkpt>
      <trkpt lat="45.23264" lon="5.80195">
        <ele>339</ele>
        <time>2017-09-24T11:50:09Z</time>
      </trkpt>
      <trkpt lat="45.2327" lon="5.80202">
        <ele>338</ele>
        <time>2017-09-24T11:50:11Z</time>
      </trkpt>
      <trkpt lat="45.23274" lon="5.80207">
        <ele>338</ele>
        <time>2017-09-24T11:50:12Z</time>
      </trkpt>
      <trkpt lat="45.23277" lon="5.80211">
        <ele>338</ele>
        <time>2017-09-24T11:50:13Z</time>
      </trkpt>
      <trkpt lat="45.23284" lon="5.80218">
        <ele>338</ele>
        <time>2017-09-24T11:50:15Z</time>
      </trkpt>
      <trkpt lat="45.23291" lon="5.80225">
        <ele>337</ele>
        <time>2017-09-24T11:50:17Z</time>
      </trkpt>
      <trkpt lat="45.23298" lon="5.80232">
        <ele>337</ele>
        <time>2017-09-24T11:50:19Z</time>
      </trkpt>
      <trkpt lat="45.23302" lon="5.80238">
        <ele>337</ele>
        <time>2017-09-24T11:50:20Z</time>
      </trkpt>
      <trkpt lat="45.23306" lon="5.80242">
        <ele>337</ele>
        <time>2017-09-24T11:50:21Z</time>
      </trkpt>
      <trkpt lat="45.23313" lon="5.80249">
        <ele>337</ele>
        <time>2017-09-24T11:50:23Z</time>
      </trkpt>
      <trkpt lat="45.2332" lon="5.80256">
        <ele>337</ele>
        <time>2017-09-24T11:50:25Z</time>
      </trkpt>
      <trkpt lat="45.23325" lon="5.8026">
        <ele>337</ele>
        <time>2017-09-24T11:50:27Z</time>
      </trkpt>
      <trkpt lat="45.23332" lon="5.80257">
        <ele>337</ele>
        <time>2017-09-24T11:50:30Z</time>
      </trkpt>
      <trkpt lat="45.23336" lon="5.80252">
        <ele>338</ele>
        <time>2017-09-24T11:50:33Z</time>
      </trkpt>
      <trkpt lat="45.23341" lon="5.80246">
        <ele>338</ele>
        <time>2017-09-24T11:50:36Z</time>
      </trkpt>
      <trkpt lat="45.23345" lon="5.80243">
        <ele>339</ele>
        <time>2017-09-24T11:50:39Z</time>
      </trkpt>
      <trkpt lat="45.2335" lon="5.80239">
        <ele>339</ele>
        <time>2017-09-24T11:50:43Z</time>
      </trkpt>
      <trkpt lat="45.23351" lon="5.80232">
        <ele>340</ele>
        <time>2017-09-24T11:50:46Z</time>
      </trkpt>
      <trkpt lat="45.23353" lon="5.80225">
        <ele>340</ele>
        <time>2017-09-24T11:50:49Z</time>
      </trkpt>
      <trkpt lat="45.23356" lon="5.80218">
        <ele>341</ele>
        <time>2017-09-24T11:50:54Z</time>
      </trkpt>
      <trkpt lat="45.2336" lon="5.80214">
        <ele>342</ele>
        <time>2017-09-24T11:50:58Z</time>
      </trkpt>
      <trkpt lat="45.23365" lon="5.80212">
        <ele>342</ele>
        <time>2017-09-24T11:51:02Z</time>
      </trkpt>
      <trkpt lat="45.2337" lon="5.80208">
        <ele>343</ele>
        <time>2017-09-24T11:51:05Z</time>
      </trkpt>
      <trkpt lat="45.23375" lon="5.80203">
        <ele>343</ele>
        <time>2017-09-24T11:51:08Z</time>
      </trkpt>
      <trkpt lat="45.23379" lon="5.80198">
        <ele>344</ele>
        <time>2017-09-24T11:51:11Z</time>
      </trkpt>
      <trkpt lat="45.23381" lon="5.80192">
        <ele>345</ele>
        <time>2017-09-24T11:51:14Z</time>
      </trkpt>
      <trkpt lat="45.23383" lon="5.80185">
        <ele>345</ele>
        <time>2017-09-24T11:51:17Z</time>
      </trkpt>
      <trkpt lat="45.23388" lon="5.8018">
        <ele>346</ele>
        <time>2017-09-24T11:51:20Z</time>
      </trkpt>
      <trkpt lat="45.23389" lon="5.80172">
        <ele>346</ele>
        <time>2017-09-24T11:51:22Z</time>
      </trkpt>
      <trkpt lat="45.23389" lon="5.80165">
        <ele>347</ele>
        <time>2017-09-24T11:51:24Z</time>
      </trkpt>
      <trkpt lat="45.2339" lon="5.80156">
        <ele>347</ele>
        <time>2017-09-24T11:51:27Z</time>
      </trkpt>
      <trkpt lat="45.23393" lon="5.80147">
        <ele>348</ele>
        <time>2017-09-24T11:51:30Z</time>
      </trkpt>
      <trkpt lat="45.23395" lon="5.8014">
        <ele>349</ele>
        <time>2017-09-24T11:51:32Z</time>
      </trkpt>
      <trkpt lat="45.23397" lon="5.80133">
        <ele>349</ele>
        <time>2017-09-24T11:51:34Z</time>
      </trkpt>
      <trkpt lat="45.23399" lon="5.80126">
        <ele>350</ele>
        <time>2017-09-24T11:51:36Z</time>
      </trkpt>
      <trkpt lat="45.23402" lon="5.8012">
        <ele>350</ele>
        <time>2017-09-24T11:51:39Z</time>
      </trkpt>
      <trkpt lat="45.23404" lon="5.80114">
        <ele>351</ele>
        <time>2017-09-24T11:51:42Z</time>
      </trkpt>
      <trkpt lat="45.23407" lon="5.8011">
        <ele>351</ele>
        <time>2017-09-24T11:51:45Z</time>
      </trkpt>
      <trkpt lat="45.2341" lon="5.80104">
        <ele>352</ele>
        <time>2017-09-24T11:51:48Z</time>
      </trkpt>
      <trkpt lat="45.23412" lon="5.80098">
        <ele>352</ele>
        <time>2017-09-24T11:51:52Z</time>
      </trkpt>
      <trkpt lat="45.23416" lon="5.80094">
        <ele>353</ele>
        <time>2017-09-24T11:51:57Z</time>
      </trkpt>
      <trkpt lat="45.23419" lon="5.80089">
        <ele>353</ele>
        <time>2017-09-24T11:52:02Z</time>
      </trkpt>
      <trkpt lat="45.23422" lon="5.80081">
        <ele>354</ele>
        <time>2017-09-24T11:52:06Z</time>
      </trkpt>
      <trkpt lat="45.23425" lon="5.80077">
        <ele>354</ele>
        <time>2017-09-24T11:52:10Z</time>
      </trkpt>
      <trkpt lat="45.23428" lon="5.80069">
        <ele>355</ele>
        <time>2017-09-24T11:52:16Z</time>
      </trkpt>
      <trkpt lat="45.23432" lon="5.80063">
        <ele>355</ele>
        <time>2017-09-24T11:52:19Z</time>
      </trkpt>
      <trkpt lat="45.23436" lon="5.80057">
        <ele>356</ele>
        <time>2017-09-24T11:52:22Z</time>
      </trkpt>
      <trkpt lat="45.23435" lon="5.80047">
        <ele>357</ele>
        <time>2017-09-24T11:52:25Z</time>
      </trkpt>
      <trkpt lat="45.23436" lon="5.80038">
        <ele>357</ele>
        <time>2017-09-24T11:52:28Z</time>
      </trkpt>
      <trkpt lat="45.23438" lon="5.80031">
        <ele>358</ele>
        <time>2017-09-24T11:52:31Z</time>
      </trkpt>
      <trkpt lat="45.23436" lon="5.80025">
        <ele>358</ele>
        <time>2017-09-24T11:52:34Z</time>
      </trkpt>
      <trkpt lat="45.23435" lon="5.80017">
        <ele>359</ele>
        <time>2017-09-24T11:52:38Z</time>
      </trkpt>
      <trkpt lat="45.23434" lon="5.80011">
        <ele>359</ele>
        <time>2017-09-24T11:52:41Z</time>
      </trkpt>
      <trkpt lat="45.23431" lon="5.80004">
        <ele>360</ele>
        <time>2017-09-24T11:52:44Z</time>
      </trkpt>
      <trkpt lat="45.23429" lon="5.79995">
        <ele>360</ele>
        <time>2017-09-24T11:52:47Z</time>
      </trkpt>
      <trkpt lat="45.23431" lon="5.79981">
        <ele>362</ele>
        <time>2017-09-24T11:52:54Z</time>
      </trkpt>
      <trkpt lat="45.23435" lon="5.79978">
        <ele>362</ele>
        <time>2017-09-24T11:53:00Z</time>
      </trkpt>
      <trkpt lat="45.2344" lon="5.7998">
        <ele>362</ele>
        <time>2017-09-24T11:53:05Z</time>
      </trkpt>
      <trkpt lat="45.23444" lon="5.79985">
        <ele>362</ele>
        <time>2017-09-24T11:53:09Z</time>
      </trkpt>
      <trkpt lat="45.2345" lon="5.79987">
        <ele>362</ele>
        <time>2017-09-24T11:53:13Z</time>
      </trkpt>
      <trkpt lat="45.23456" lon="5.79986">
        <ele>362</ele>
        <time>2017-09-24T11:53:16Z</time>
      </trkpt>
      <trkpt lat="45.23461" lon="5.79984">
        <ele>362</ele>
        <time>2017-09-24T11:53:19Z</time>
      </trkpt>
      <trkpt lat="45.23467" lon="5.79983">
        <ele>362</ele>
        <time>2017-09-24T11:53:22Z</time>
      </trkpt>
      <trkpt lat="45.23472" lon="5.79985">
        <ele>362</ele>
        <time>2017-09-24T11:53:26Z</time>
      </trkpt>
      <trkpt lat="45.23477" lon="5.79985">
        <ele>362</ele>
        <time>2017-09-24T11:53:29Z</time>
      </trkpt>
      <trkpt lat="45.23482" lon="5.79984">
        <ele>363</ele>
        <time>2017-09-24T11:53:32Z</time>
      </trkpt>
      <trkpt lat="45.23488" lon="5.79984">
        <ele>363</ele>
        <time>2017-09-24T11:53:35Z</time>
      </trkpt>
      <trkpt lat="45.23492" lon="5.79983">
        <ele>364</ele>
        <time>2017-09-24T11:53:37Z</time>
      </trkpt>
      <trkpt lat="45.23498" lon="5.79981">
        <ele>364</ele>
        <time>2017-09-24T11:53:39Z</time>
      </trkpt>
      <trkpt lat="45.23504" lon="5.7998">
        <ele>365</ele>
        <time>2017-09-24T11:53:41Z</time>
      </trkpt>
      <trkpt lat="45.23509" lon="5.79979">
        <ele>366</ele>
        <time>2017-09-24T11:53:43Z</time>
      </trkpt>
      <trkpt lat="45.23513" lon="5.79978">
        <ele>366</ele>
        <time>2017-09-24T11:53:45Z</time>
      </trkpt>
      <trkpt lat="45.23518" lon="5.79981">
        <ele>366</ele>
        <time>2017-09-24T11:53:48Z</time>
      </trkpt>
      <trkpt lat="45.23523" lon="5.79983">
        <ele>367</ele>
        <time>2017-09-24T11:53:51Z</time>
      </trkpt>
      <trkpt lat="45.23529" lon="5.79982">
        <ele>367</ele>
        <time>2017-09-24T11:53:55Z</time>
      </trkpt>
      <trkpt lat="45.23534" lon="5.79978">
        <ele>368</ele>
        <time>2017-09-24T11:53:59Z</time>
      </trkpt>
      <trkpt lat="45.23539" lon="5.79977">
        <ele>369</ele>
        <time>2017-09-24T11:54:02Z</time>
      </trkpt>
      <trkpt lat="45.23545" lon="5.79977">
        <ele>369</ele>
        <time>2017-09-24T11:54:05Z</time>
      </trkpt>
      <trkpt lat="45.23551" lon="5.79977">
        <ele>370</ele>
        <time>2017-09-24T11:54:08Z</time>
      </trkpt>
      <trkpt lat="45.23556" lon="5.79975">
        <ele>371</ele>
        <time>2017-09-24T11:54:10Z</time>
      </trkpt>
      <trkpt lat="45.23561" lon="5.79975">
        <ele>371</ele>
        <time>2017-09-24T11:54:12Z</time>
      </trkpt>
      <trkpt lat="45.23567" lon="5.79975">
        <ele>372</ele>
        <time>2017-09-24T11:54:14Z</time>
      </trkpt>
      <trkpt lat="45.23573" lon="5.79975">
        <ele>373</ele>
        <time>2017-09-24T11:54:16Z</time>
      </trkpt>
      <trkpt lat="45.2358" lon="5.79975">
        <ele>373</ele>
        <time>2017-09-24T11:54:18Z</time>
      </trkpt>
      <trkpt lat="45.23587" lon="5.79974">
        <ele>374</ele>
        <time>2017-09-24T11:54:20Z</time>
      </trkpt>
      <trkpt lat="45.23593" lon="5.79975">
        <ele>375</ele>
        <time>2017-09-24T11:54:22Z</time>
      </trkpt>
      <trkpt lat="45.23597" lon="5.79975">
        <ele>376</ele>
        <time>2017-09-24T11:54:24Z</time>
      </trkpt>
      <trkpt lat="45.23603" lon="5.79975">
        <ele>376</ele>
        <time>2017-09-24T11:54:27Z</time>
      </trkpt>
      <trkpt lat="45.23608" lon="5.79976">
        <ele>377</ele>
        <time>2017-09-24T11:54:30Z</time>
      </trkpt>
      <trkpt lat="45.23615" lon="5.79978">
        <ele>378</ele>
        <time>2017-09-24T11:54:33Z</time>
      </trkpt>
      <trkpt lat="45.23621" lon="5.79981">
        <ele>378</ele>
        <time>2017-09-24T11:54:36Z</time>
      </trkpt>
      <trkpt lat="45.23626" lon="5.79986">
        <ele>379</ele>
        <time>2017-09-24T11:54:39Z</time>
      </trkpt>
      <trkpt lat="45.23631" lon="5.7999">
        <ele>379</ele>
        <time>2017-09-24T11:54:42Z</time>
      </trkpt>
      <trkpt lat="45.23636" lon="5.79995">
        <ele>380</ele>
        <time>2017-09-24T11:54:45Z</time>
      </trkpt>
      <trkpt lat="45.2364" lon="5.8">
        <ele>380</ele>
        <time>2017-09-24T11:54:48Z</time>
      </trkpt>
      <trkpt lat="45.23643" lon="5.80007">
        <ele>380</ele>
        <time>2017-09-24T11:54:52Z</time>
      </trkpt>
      <trkpt lat="45.23646" lon="5.80012">
        <ele>380</ele>
        <time>2017-09-24T11:54:55Z</time>
      </trkpt>
      <trkpt lat="45.23651" lon="5.80016">
        <ele>381</ele>
        <time>2017-09-24T11:54:58Z</time>
      </trkpt>
      <trkpt lat="45.23653" lon="5.80022">
        <ele>381</ele>
        <time>2017-09-24T11:55:03Z</time>
      </trkpt>
      <trkpt lat="45.23654" lon="5.80029">
        <ele>381</ele>
        <time>2017-09-24T11:55:07Z</time>
      </trkpt>
      <trkpt lat="45.23653" lon="5.80037">
        <ele>380</ele>
        <time>2017-09-24T11:55:10Z</time>
      </trkpt>
      <trkpt lat="45.23654" lon="5.80046">
        <ele>380</ele>
        <time>2017-09-24T11:55:13Z</time>
      </trkpt>
      <trkpt lat="45.23657" lon="5.80053">
        <ele>380</ele>
        <time>2017-09-24T11:55:16Z</time>
      </trkpt>
      <trkpt lat="45.2366" lon="5.8006">
        <ele>381</ele>
        <time>2017-09-24T11:55:19Z</time>
      </trkpt>
      <trkpt lat="45.23662" lon="5.80068">
        <ele>381</ele>
        <time>2017-09-24T11:55:22Z</time>
      </trkpt>
      <trkpt lat="45.23663" lon="5.80076">
        <ele>380</ele>
        <time>2017-09-24T11:55:25Z</time>
      </trkpt>
      <trkpt lat="45.23663" lon="5.80083">
        <ele>380</ele>
        <time>2017-09-24T11:55:28Z</time>
      </trkpt>
      <trkpt lat="45.23666" lon="5.80088">
        <ele>380</ele>
        <time>2017-09-24T11:55:31Z</time>
      </trkpt>
      <trkpt lat="45.2367" lon="5.80097">
        <ele>380</ele>
        <time>2017-09-24T11:55:34Z</time>
      </trkpt>
      <trkpt lat="45.23672" lon="5.80104">
        <ele>380</ele>
        <time>2017-09-24T11:55:37Z</time>
      </trkpt>
      <trkpt lat="45.23673" lon="5.80111">
        <ele>380</ele>
        <time>2017-09-24T11:55:40Z</time>
      </trkpt>
      <trkpt lat="45.23678" lon="5.80122">
        <ele>380</ele>
        <time>2017-09-24T11:55:44Z</time>
      </trkpt>
      <trkpt lat="45.23677" lon="5.80129">
        <ele>380</ele>
        <time>2017-09-24T11:55:47Z</time>
      </trkpt>
      <trkpt lat="45.23677" lon="5.80138">
        <ele>379</ele>
        <time>2017-09-24T11:55:50Z</time>
      </trkpt>
      <trkpt lat="45.2368" lon="5.80147">
        <ele>379</ele>
        <time>2017-09-24T11:55:52Z</time>
      </trkpt>
      <trkpt lat="45.23684" lon="5.80155">
        <ele>379</ele>
        <time>2017-09-24T11:55:54Z</time>
      </trkpt>
      <trkpt lat="45.23688" lon="5.80163">
        <ele>380</ele>
        <time>2017-09-24T11:55:56Z</time>
      </trkpt>
      <trkpt lat="45.23692" lon="5.80173">
        <ele>380</ele>
        <time>2017-09-24T11:55:58Z</time>
      </trkpt>
      <trkpt lat="45.23695" lon="5.80179">
        <ele>381</ele>
        <time>2017-09-24T11:55:59Z</time>
      </trkpt>
      <trkpt lat="45.23699" lon="5.80186">
        <ele>381</ele>
        <time>2017-09-24T11:56:00Z</time>
      </trkpt>
      <trkpt lat="45.23703" lon="5.80192">
        <ele>382</ele>
        <time>2017-09-24T11:56:01Z</time>
      </trkpt>
      <trkpt lat="45.23706" lon="5.80198">
        <ele>382</ele>
        <time>2017-09-24T11:56:02Z</time>
      </trkpt>
      <trkpt lat="45.23709" lon="5.80204">
        <ele>382</ele>
        <time>2017-09-24T11:56:03Z</time>
      </trkpt>
      <trkpt lat="45.23714" lon="5.80216">
        <ele>383</ele>
        <time>2017-09-24T11:56:05Z</time>
      </trkpt>
      <trkpt lat="45.23716" lon="5.80223">
        <ele>383</ele>
        <time>2017-09-24T11:56:06Z</time>
      </trkpt>
      <trkpt lat="45.23718" lon="5.8023">
        <ele>383</ele>
        <time>2017-09-24T11:56:07Z</time>
      </trkpt>
      <trkpt lat="45.23721" lon="5.80236">
        <ele>383</ele>
        <time>2017-09-24T11:56:08Z</time>
      </trkpt>
      <trkpt lat="45.23723" lon="5.80243">
        <ele>383</ele>
        <time>2017-09-24T11:56:09Z</time>
      </trkpt>
      <trkpt lat="45.2373" lon="5.80256">
        <ele>384</ele>
        <time>2017-09-24T11:56:10Z</time>
      </trkpt>
      <trkpt lat="45.23733" lon="5.80264">
        <ele>384</ele>
        <time>2017-09-24T11:56:11Z</time>
      </trkpt>
      <trkpt lat="45.23737" lon="5.80268">
        <ele>385</ele>
        <time>2017-09-24T11:56:12Z</time>
      </trkpt>
      <trkpt lat="45.2374" lon="5.80274">
        <ele>385</ele>
        <time>2017-09-24T11:56:13Z</time>
      </trkpt>
      <trkpt lat="45.23741" lon="5.80286">
        <ele>384</ele>
        <time>2017-09-24T11:56:15Z</time>
      </trkpt>
      <trkpt lat="45.23742" lon="5.80296">
        <ele>384</ele>
        <time>2017-09-24T11:56:17Z</time>
      </trkpt>
      <trkpt lat="45.23746" lon="5.80304">
        <ele>384</ele>
        <time>2017-09-24T11:56:19Z</time>
      </trkpt>
      <trkpt lat="45.2375" lon="5.80314">
        <ele>385</ele>
        <time>2017-09-24T11:56:21Z</time>
      </trkpt>
      <trkpt lat="45.23756" lon="5.80322">
        <ele>385</ele>
        <time>2017-09-24T11:56:23Z</time>
      </trkpt>
      <trkpt lat="45.23762" lon="5.80332">
        <ele>386</ele>
        <time>2017-09-24T11:56:25Z</time>
      </trkpt>
      <trkpt lat="45.23767" lon="5.80341">
        <ele>386</ele>
        <time>2017-09-24T11:56:27Z</time>
      </trkpt>
      <trkpt lat="45.23771" lon="5.8035">
        <ele>386</ele>
        <time>2017-09-24T11:56:29Z</time>
      </trkpt>
      <trkpt lat="45.23774" lon="5.80357">
        <ele>386</ele>
        <time>2017-09-24T11:56:31Z</time>
      </trkpt>
      <trkpt lat="45.23776" lon="5.80363">
        <ele>386</ele>
        <time>2017-09-24T11:56:33Z</time>
      </trkpt>
      <trkpt lat="45.23779" lon="5.80369">
        <ele>386</ele>
        <time>2017-09-24T11:56:35Z</time>
      </trkpt>
      <trkpt lat="45.23785" lon="5.80372">
        <ele>386</ele>
        <time>2017-09-24T11:56:38Z</time>
      </trkpt>
      <trkpt lat="45.23789" lon="5.80368">
        <ele>387</ele>
        <time>2017-09-24T11:56:41Z</time>
      </trkpt>
      <trkpt lat="45.23791" lon="5.80361">
        <ele>388</ele>
        <time>2017-09-24T11:56:44Z</time>
      </trkpt>
      <trkpt lat="45.23791" lon="5.80354">
        <ele>388</ele>
        <time>2017-09-24T11:56:46Z</time>
      </trkpt>
      <trkpt lat="45.23793" lon="5.80347">
        <ele>389</ele>
        <time>2017-09-24T11:56:49Z</time>
      </trkpt>
      <trkpt lat="45.23799" lon="5.80345">
        <ele>390</ele>
        <time>2017-09-24T11:56:54Z</time>
      </trkpt>
      <trkpt lat="45.23805" lon="5.80348">
        <ele>390</ele>
        <time>2017-09-24T11:56:58Z</time>
      </trkpt>
      <trkpt lat="45.2381" lon="5.80345">
        <ele>391</ele>
        <time>2017-09-24T11:57:02Z</time>
      </trkpt>
      <trkpt lat="45.23814" lon="5.80341">
        <ele>392</ele>
        <time>2017-09-24T11:57:05Z</time>
      </trkpt>
      <trkpt lat="45.23818" lon="5.80337">
        <ele>393</ele>
        <time>2017-09-24T11:57:08Z</time>
      </trkpt>
      <trkpt lat="45.23822" lon="5.80333">
        <ele>393</ele>
        <time>2017-09-24T11:57:11Z</time>
      </trkpt>
      <trkpt lat="45.23824" lon="5.80326">
        <ele>394</ele>
        <time>2017-09-24T11:57:14Z</time>
      </trkpt>
      <trkpt lat="45.23825" lon="5.80319">
        <ele>395</ele>
        <time>2017-09-24T11:57:17Z</time>
      </trkpt>
      <trkpt lat="45.23826" lon="5.80313">
        <ele>395</ele>
        <time>2017-09-24T11:57:21Z</time>
      </trkpt>
      <trkpt lat="45.2383" lon="5.80308">
        <ele>396</ele>
        <time>2017-09-24T11:57:26Z</time>
      </trkpt>
      <trkpt lat="45.23835" lon="5.80305">
        <ele>397</ele>
        <time>2017-09-24T11:57:29Z</time>
      </trkpt>
      <trkpt lat="45.2384" lon="5.80302">
        <ele>398</ele>
        <time>2017-09-24T11:57:32Z</time>
      </trkpt>
      <trkpt lat="45.23844" lon="5.80298">
        <ele>399</ele>
        <time>2017-09-24T11:57:35Z</time>
      </trkpt>
      <trkpt lat="45.23846" lon="5.8029">
        <ele>400</ele>
        <time>2017-09-24T11:57:39Z</time>
      </trkpt>
      <trkpt lat="45.23848" lon="5.80282">
        <ele>400</ele>
        <time>2017-09-24T11:57:43Z</time>
      </trkpt>
      <trkpt lat="45.23847" lon="5.80274">
        <ele>401</ele>
        <time>2017-09-24T11:57:47Z</time>
      </trkpt>
      <trkpt lat="45.23848" lon="5.8026">
        <ele>402</ele>
        <time>2017-09-24T11:57:54Z</time>
      </trkpt>
      <trkpt lat="45.23849" lon="5.80253">
        <ele>403</ele>
        <time>2017-09-24T11:57:57Z</time>
      </trkpt>
      <trkpt lat="45.23851" lon="5.80248">
        <ele>403</ele>
        <time>2017-09-24T11:58:00Z</time>
      </trkpt>
      <trkpt lat="45.23853" lon="5.80241">
        <ele>404</ele>
        <time>2017-09-24T11:58:03Z</time>
      </trkpt>
      <trkpt lat="45.23853" lon="5.80234">
        <ele>404</ele>
        <time>2017-09-24T11:58:07Z</time>
      </trkpt>
      <trkpt lat="45.23854" lon="5.80225">
        <ele>405</ele>
        <time>2017-09-24T11:58:12Z</time>
      </trkpt>
      <trkpt lat="45.23857" lon="5.80219">
        <ele>406</ele>
        <time>2017-09-24T11:58:16Z</time>
      </trkpt>
      <trkpt lat="45.23861" lon="5.80216">
        <ele>407</ele>
        <time>2017-09-24T11:58:20Z</time>
      </trkpt>
      <trkpt lat="45.23863" lon="5.80208">
        <ele>408</ele>
        <time>2017-09-24T11:58:24Z</time>
      </trkpt>
      <trkpt lat="45.23867" lon="5.80202">
        <ele>409</ele>
        <time>2017-09-24T11:58:28Z</time>
      </trkpt>
      <trkpt lat="45.23869" lon="5.80196">
        <ele>410</ele>
        <time>2017-09-24T11:58:32Z</time>
      </trkpt>
      <trkpt lat="45.23872" lon="5.8019">
        <ele>411</ele>
        <time>2017-09-24T11:58:37Z</time>
      </trkpt>
      <trkpt lat="45.23875" lon="5.80185">
        <ele>412</ele>
        <time>2017-09-24T11:58:41Z</time>
      </trkpt>
      <trkpt lat="45.23877" lon="5.80178">
        <ele>413</ele>
        <time>2017-09-24T11:58:44Z</time>
      </trkpt>
      <trkpt lat="45.23881" lon="5.80173">
        <ele>414</ele>
        <time>2017-09-24T11:58:48Z</time>
      </trkpt>
      <trkpt lat="45.23885" lon="5.80168">
        <ele>415</ele>
        <time>2017-09-24T11:58:52Z</time>
      </trkpt>
      <trkpt lat="45.23889" lon="5.80165">
        <ele>416</ele>
        <time>2017-09-24T11:58:57Z</time>
      </trkpt>
      <trkpt lat="45.23891" lon="5.80156">
        <ele>417</ele>
        <time>2017-09-24T11:59:01Z</time>
      </trkpt>
      <trkpt lat="45.2389" lon="5.80138">
        <ele>418</ele>
        <time>2017-09-24T11:59:07Z</time>
      </trkpt>
      <trkpt lat="45.23889" lon="5.8013">
        <ele>419</ele>
        <time>2017-09-24T11:59:10Z</time>
      </trkpt>
      <trkpt lat="45.23888" lon="5.80118">
        <ele>420</ele>
        <time>2017-09-24T11:59:14Z</time>
      </trkpt>
      <trkpt lat="45.23885" lon="5.80113">
        <ele>419</ele>
        <time>2017-09-24T11:59:16Z</time>
      </trkpt>
      <trkpt lat="45.23883" lon="5.80106">
        <ele>420</ele>
        <time>2017-09-24T11:59:18Z</time>
      </trkpt>
      <trkpt lat="45.23882" lon="5.80098">
        <ele>420</ele>
        <time>2017-09-24T11:59:20Z</time>
      </trkpt>
      <trkpt lat="45.23881" lon="5.80091">
        <ele>421</ele>
        <time>2017-09-24T11:59:22Z</time>
      </trkpt>
      <trkpt lat="45.23882" lon="5.80083">
        <ele>421</ele>
        <time>2017-09-24T11:59:24Z</time>
      </trkpt>
      <trkpt lat="45.23881" lon="5.80075">
        <ele>422</ele>
        <time>2017-09-24T11:59:27Z</time>
      </trkpt>
      <trkpt lat="45.23877" lon="5.80068">
        <ele>422</ele>
        <time>2017-09-24T11:59:31Z</time>
      </trkpt>
      <trkpt lat="45.23874" lon="5.80063">
        <ele>421</ele>
        <time>2017-09-24T11:59:34Z</time>
      </trkpt>
      <trkpt lat="45.23875" lon="5.80046">
        <ele>423</ele>
        <time>2017-09-24T11:59:41Z</time>
      </trkpt>
      <trkpt lat="45.23873" lon="5.80038">
        <ele>423</ele>
        <time>2017-09-24T11:59:44Z</time>
      </trkpt>
      <trkpt lat="45.2387" lon="5.80032">
        <ele>423</ele>
        <time>2017-09-24T11:59:46Z</time>
      </trkpt>
      <trkpt lat="45.23868" lon="5.80024">
        <ele>424</ele>
        <time>2017-09-24T11:59:49Z</time>
      </trkpt>
      <trkpt lat="45.23871" lon="5.80015">
        <ele>425</ele>
        <time>2017-09-24T11:59:53Z</time>
      </trkpt>
      <trkpt lat="45.23874" lon="5.80008">
        <ele>426</ele>
        <time>2017-09-24T11:59:56Z</time>
      </trkpt>
      <trkpt lat="45.23875" lon="5.79994">
        <ele>428</ele>
        <time>2017-09-24T12:00:02Z</time>
      </trkpt>
      <trkpt lat="45.23874" lon="5.79985">
        <ele>429</ele>
        <time>2017-09-24T12:00:05Z</time>
      </trkpt>
      <trkpt lat="45.23873" lon="5.7997">
        <ele>431</ele>
        <time>2017-09-24T12:00:11Z</time>
      </trkpt>
      <trkpt lat="45.23872" lon="5.79956">
        <ele>433</ele>
        <time>2017-09-24T12:00:19Z</time>
      </trkpt>
      <trkpt lat="45.23873" lon="5.79948">
        <ele>434</ele>
        <time>2017-09-24T12:00:22Z</time>
      </trkpt>
      <trkpt lat="45.23875" lon="5.79939">
        <ele>436</ele>
        <time>2017-09-24T12:00:25Z</time>
      </trkpt>
      <trkpt lat="45.23876" lon="5.79928">
        <ele>438</ele>
        <time>2017-09-24T12:00:29Z</time>
      </trkpt>
      <trkpt lat="45.23873" lon="5.79916">
        <ele>439</ele>
        <time>2017-09-24T12:00:35Z</time>
      </trkpt>
      <trkpt lat="45.23871" lon="5.79906">
        <ele>440</ele>
        <time>2017-09-24T12:00:40Z</time>
      </trkpt>
      <trkpt lat="45.23868" lon="5.79901">
        <ele>441</ele>
        <time>2017-09-24T12:00:43Z</time>
      </trkpt>
      <trkpt lat="45.23864" lon="5.79896">
        <ele>441</ele>
        <time>2017-09-24T12:00:46Z</time>
      </trkpt>
      <trkpt lat="45.23862" lon="5.79889">
        <ele>441</ele>
        <time>2017-09-24T12:00:50Z</time>
      </trkpt>
      <trkpt lat="45.2386" lon="5.79881">
        <ele>442</ele>
        <time>2017-09-24T12:00:56Z</time>
      </trkpt>
      <trkpt lat="45.23857" lon="5.79874">
        <ele>443</ele>
        <time>2017-09-24T12:00:59Z</time>
      </trkpt>
      <trkpt lat="45.23856" lon="5.79868">
        <ele>444</ele>
        <time>2017-09-24T12:01:01Z</time>
      </trkpt>
      <trkpt lat="45.23855" lon="5.79861">
        <ele>445</ele>
        <time>2017-09-24T12:01:03Z</time>
      </trkpt>
      <trkpt lat="45.23852" lon="5.79855">
        <ele>445</ele>
        <time>2017-09-24T12:01:05Z</time>
      </trkpt>
      <trkpt lat="45.23847" lon="5.7985">
        <ele>445</ele>
        <time>2017-09-24T12:01:07Z</time>
      </trkpt>
      <trkpt lat="45.23843" lon="5.79848">
        <ele>445</ele>
        <time>2017-09-24T12:01:09Z</time>
      </trkpt>
      <trkpt lat="45.23836" lon="5.79843">
        <ele>445</ele>
        <time>2017-09-24T12:01:12Z</time>
      </trkpt>
      <trkpt lat="45.23829" lon="5.79841">
        <ele>444</ele>
        <time>2017-09-24T12:01:14Z</time>
      </trkpt>
      <trkpt lat="45.23824" lon="5.79838">
        <ele>444</ele>
        <time>2017-09-24T12:01:16Z</time>
      </trkpt>
      <trkpt lat="45.2382" lon="5.79831">
        <ele>444</ele>
        <time>2017-09-24T12:01:19Z</time>
      </trkpt>
      <trkpt lat="45.23816" lon="5.79827">
        <ele>444</ele>
        <time>2017-09-24T12:01:23Z</time>
      </trkpt>
      <trkpt lat="45.23815" lon="5.79821">
        <ele>445</ele>
        <time>2017-09-24T12:01:26Z</time>
      </trkpt>
      <trkpt lat="45.23813" lon="5.79814">
        <ele>446</ele>
        <time>2017-09-24T12:01:30Z</time>
      </trkpt>
      <trkpt lat="45.23808" lon="5.7981">
        <ele>446</ele>
        <time>2017-09-24T12:01:33Z</time>
      </trkpt>
      <trkpt lat="45.23804" lon="5.79806">
        <ele>446</ele>
        <time>2017-09-24T12:01:36Z</time>
      </trkpt>
      <trkpt lat="45.23803" lon="5.798">
        <ele>447</ele>
        <time>2017-09-24T12:01:39Z</time>
      </trkpt>
      <trkpt lat="45.23809" lon="5.79799">
        <ele>448</ele>
        <time>2017-09-24T12:01:44Z</time>
      </trkpt>
      <trkpt lat="45.23813" lon="5.79803">
        <ele>448</ele>
        <time>2017-09-24T12:01:47Z</time>
      </trkpt>
      <trkpt lat="45.23816" lon="5.79807">
        <ele>448</ele>
        <time>2017-09-24T12:01:49Z</time>
      </trkpt>
      <trkpt lat="45.23822" lon="5.79811">
        <ele>448</ele>
        <time>2017-09-24T12:01:52Z</time>
      </trkpt>
      <trkpt lat="45.23828" lon="5.79815">
        <ele>448</ele>
        <time>2017-09-24T12:01:55Z</time>
      </trkpt>
      <trkpt lat="45.23834" lon="5.79817">
        <ele>448</ele>
        <time>2017-09-24T12:01:58Z</time>
      </trkpt>
      <trkpt lat="45.2384" lon="5.79821">
        <ele>449</ele>
        <time>2017-09-24T12:02:01Z</time>
      </trkpt>
      <trkpt lat="45.23845" lon="5.79822">
        <ele>449</ele>
        <time>2017-09-24T12:02:04Z</time>
      </trkpt>
      <trkpt lat="45.23851" lon="5.79823">
        <ele>450</ele>
        <time>2017-09-24T12:02:07Z</time>
      </trkpt>
      <trkpt lat="45.23856" lon="5.79825">
        <ele>450</ele>
        <time>2017-09-24T12:02:10Z</time>
      </trkpt>
      <trkpt lat="45.2386" lon="5.79828">
        <ele>450</ele>
        <time>2017-09-24T12:02:13Z</time>
      </trkpt>
      <trkpt lat="45.23865" lon="5.79831">
        <ele>451</ele>
        <time>2017-09-24T12:02:16Z</time>
      </trkpt>
      <trkpt lat="45.23869" lon="5.79837">
        <ele>450</ele>
        <time>2017-09-24T12:02:19Z</time>
      </trkpt>
      <trkpt lat="45.23874" lon="5.79841">
        <ele>450</ele>
        <time>2017-09-24T12:02:21Z</time>
      </trkpt>
      <trkpt lat="45.2388" lon="5.79844">
        <ele>451</ele>
        <time>2017-09-24T12:02:24Z</time>
      </trkpt>
      <trkpt lat="45.23885" lon="5.79846">
        <ele>451</ele>
        <time>2017-09-24T12:02:27Z</time>
      </trkpt>
      <trkpt lat="45.2389" lon="5.79848">
        <ele>452</ele>
        <time>2017-09-24T12:02:30Z</time>
      </trkpt>
      <trkpt lat="45.23895" lon="5.79852">
        <ele>452</ele>
        <time>2017-09-24T12:02:33Z</time>
      </trkpt>
      <trkpt lat="45.23901" lon="5.79853">
        <ele>453</ele>
        <time>2017-09-24T12:02:36Z</time>
      </trkpt>
      <trkpt lat="45.23906" lon="5.79856">
        <ele>453</ele>
        <time>2017-09-24T12:02:39Z</time>
      </trkpt>
      <trkpt lat="45.23911" lon="5.79858">
        <ele>454</ele>
        <time>2017-09-24T12:02:42Z</time>
      </trkpt>
      <trkpt lat="45.23917" lon="5.79859">
        <ele>454</ele>
        <time>2017-09-24T12:02:45Z</time>
      </trkpt>
      <trkpt lat="45.23922" lon="5.79863">
        <ele>455</ele>
        <time>2017-09-24T12:02:48Z</time>
      </trkpt>
      <trkpt lat="45.23927" lon="5.79865">
        <ele>455</ele>
        <time>2017-09-24T12:02:52Z</time>
      </trkpt>
      <trkpt lat="45.23932" lon="5.79866">
        <ele>456</ele>
        <time>2017-09-24T12:02:56Z</time>
      </trkpt>
      <trkpt lat="45.23936" lon="5.79869">
        <ele>456</ele>
        <time>2017-09-24T12:02:59Z</time>
      </trkpt>
      <trkpt lat="45.23941" lon="5.79873">
        <ele>456</ele>
        <time>2017-09-24T12:03:01Z</time>
      </trkpt>
      <trkpt lat="45.23946" lon="5.79875">
        <ele>457</ele>
        <time>2017-09-24T12:03:03Z</time>
      </trkpt>
      <trkpt lat="45.23951" lon="5.79877">
        <ele>457</ele>
        <time>2017-09-24T12:03:05Z</time>
      </trkpt>
      <trkpt lat="45.23955" lon="5.79881">
        <ele>457</ele>
        <time>2017-09-24T12:03:07Z</time>
      </trkpt>
      <trkpt lat="45.23961" lon="5.79885">
        <ele>458</ele>
        <time>2017-09-24T12:03:09Z</time>
      </trkpt>
      <trkpt lat="45.23966" lon="5.7989">
        <ele>458</ele>
        <time>2017-09-24T12:03:11Z</time>
      </trkpt>
      <trkpt lat="45.23969" lon="5.79895">
        <ele>458</ele>
        <time>2017-09-24T12:03:13Z</time>
      </trkpt>
      <trkpt lat="45.23974" lon="5.79899">
        <ele>458</ele>
        <time>2017-09-24T12:03:15Z</time>
      </trkpt>
      <trkpt lat="45.23978" lon="5.79903">
        <ele>458</ele>
        <time>2017-09-24T12:03:18Z</time>
      </trkpt>
      <trkpt lat="45.23983" lon="5.79906">
        <ele>459</ele>
        <time>2017-09-24T12:03:20Z</time>
      </trkpt>
      <trkpt lat="45.23988" lon="5.7991">
        <ele>459</ele>
        <time>2017-09-24T12:03:22Z</time>
      </trkpt>
      <trkpt lat="45.23993" lon="5.79915">
        <ele>459</ele>
        <time>2017-09-24T12:03:24Z</time>
      </trkpt>
      <trkpt lat="45.23997" lon="5.79921">
        <ele>459</ele>
        <time>2017-09-24T12:03:26Z</time>
      </trkpt>
      <trkpt lat="45.24" lon="5.79928">
        <ele>459</ele>
        <time>2017-09-24T12:03:28Z</time>
      </trkpt>
      <trkpt lat="45.24003" lon="5.79934">
        <ele>458</ele>
        <time>2017-09-24T12:03:30Z</time>
      </trkpt>
      <trkpt lat="45.24006" lon="5.79939">
        <ele>458</ele>
        <time>2017-09-24T12:03:32Z</time>
      </trkpt>
      <trkpt lat="45.24011" lon="5.79944">
        <ele>459</ele>
        <time>2017-09-24T12:03:34Z</time>
      </trkpt>
      <trkpt lat="45.24015" lon="5.79954">
        <ele>458</ele>
        <time>2017-09-24T12:03:36Z</time>
      </trkpt>
      <trkpt lat="45.24023" lon="5.79966">
        <ele>458</ele>
        <time>2017-09-24T12:03:37Z</time>
      </trkpt>
      <trkpt lat="45.24027" lon="5.79974">
        <ele>458</ele>
        <time>2017-09-24T12:03:38Z</time>
      </trkpt>
      <trkpt lat="45.24031" lon="5.79982">
        <ele>457</ele>
        <time>2017-09-24T12:03:39Z</time>
      </trkpt>
      <trkpt lat="45.24034" lon="5.7999">
        <ele>457</ele>
        <time>2017-09-24T12:03:40Z</time>
      </trkpt>
      <trkpt lat="45.24043" lon="5.80006">
        <ele>457</ele>
        <time>2017-09-24T12:03:42Z</time>
      </trkpt>
      <trkpt lat="45.24045" lon="5.80014">
        <ele>456</ele>
        <time>2017-09-24T12:03:43Z</time>
      </trkpt>
      <trkpt lat="45.24049" lon="5.80021">
        <ele>456</ele>
        <time>2017-09-24T12:03:44Z</time>
      </trkpt>
      <trkpt lat="45.24052" lon="5.80028">
        <ele>456</ele>
        <time>2017-09-24T12:03:45Z</time>
      </trkpt>
      <trkpt lat="45.24057" lon="5.80034">
        <ele>456</ele>
        <time>2017-09-24T12:03:46Z</time>
      </trkpt>
      <trkpt lat="45.24064" lon="5.80041">
        <ele>456</ele>
        <time>2017-09-24T12:03:47Z</time>
      </trkpt>
      <trkpt lat="45.2407" lon="5.80047">
        <ele>457</ele>
        <time>2017-09-24T12:03:48Z</time>
      </trkpt>
      <trkpt lat="45.24076" lon="5.80054">
        <ele>457</ele>
        <time>2017-09-24T12:03:49Z</time>
      </trkpt>
      <trkpt lat="45.24082" lon="5.80061">
        <ele>457</ele>
        <time>2017-09-24T12:03:50Z</time>
      </trkpt>
      <trkpt lat="45.24087" lon="5.80069">
        <ele>456</ele>
        <time>2017-09-24T12:03:51Z</time>
      </trkpt>
      <trkpt lat="45.24091" lon="5.80075">
        <ele>456</ele>
        <time>2017-09-24T12:03:52Z</time>
      </trkpt>
      <trkpt lat="45.24097" lon="5.80081">
        <ele>456</ele>
        <time>2017-09-24T12:03:53Z</time>
      </trkpt>
      <trkpt lat="45.24103" lon="5.80087">
        <ele>456</ele>
        <time>2017-09-24T12:03:54Z</time>
      </trkpt>
      <trkpt lat="45.24108" lon="5.80094">
        <ele>456</ele>
        <time>2017-09-24T12:03:55Z</time>
      </trkpt>
      <trkpt lat="45.24113" lon="5.80099">
        <ele>456</ele>
        <time>2017-09-24T12:03:56Z</time>
      </trkpt>
      <trkpt lat="45.24118" lon="5.80103">
        <ele>456</ele>
        <time>2017-09-24T12:03:57Z</time>
      </trkpt>
      <trkpt lat="45.24122" lon="5.80108">
        <ele>456</ele>
        <time>2017-09-24T12:03:58Z</time>
      </trkpt>
      <trkpt lat="45.24127" lon="5.80113">
        <ele>456</ele>
        <time>2017-09-24T12:03:59Z</time>
      </trkpt>
      <trkpt lat="45.24131" lon="5.80118">
        <ele>456</ele>
        <time>2017-09-24T12:04:00Z</time>
      </trkpt>
      <trkpt lat="45.24136" lon="5.80122">
        <ele>456</ele>
        <time>2017-09-24T12:04:01Z</time>
      </trkpt>
      <trkpt lat="45.24139" lon="5.80126">
        <ele>456</ele>
        <time>2017-09-24T12:04:02Z</time>
      </trkpt>
      <trkpt lat="45.24144" lon="5.80128">
        <ele>456</ele>
        <time>2017-09-24T12:04:03Z</time>
      </trkpt>
      <trkpt lat="45.24149" lon="5.80131">
        <ele>457</ele>
        <time>2017-09-24T12:04:04Z</time>
      </trkpt>
      <trkpt lat="45.24155" lon="5.80134">
        <ele>457</ele>
        <time>2017-09-24T12:04:06Z</time>
      </trkpt>
      <trkpt lat="45.24161" lon="5.80138">
        <ele>457</ele>
        <time>2017-09-24T12:04:08Z</time>
      </trkpt>
      <trkpt lat="45.24167" lon="5.80144">
        <ele>457</ele>
        <time>2017-09-24T12:04:10Z</time>
      </trkpt>
      <trkpt lat="45.24171" lon="5.80149">
        <ele>457</ele>
        <time>2017-09-24T12:04:12Z</time>
      </trkpt>
      <trkpt lat="45.24175" lon="5.80154">
        <ele>457</ele>
        <time>2017-09-24T12:04:14Z</time>
      </trkpt>
      <trkpt lat="45.24179" lon="5.8016">
        <ele>457</ele>
        <time>2017-09-24T12:04:16Z</time>
      </trkpt>
      <trkpt lat="45.24184" lon="5.80165">
        <ele>457</ele>
        <time>2017-09-24T12:04:18Z</time>
      </trkpt>
      <trkpt lat="45.24189" lon="5.8017">
        <ele>457</ele>
        <time>2017-09-24T12:04:20Z</time>
      </trkpt>
      <trkpt lat="45.24194" lon="5.80174">
        <ele>457</ele>
        <time>2017-09-24T12:04:22Z</time>
      </trkpt>
      <trkpt lat="45.242" lon="5.80179">
        <ele>457</ele>
        <time>2017-09-24T12:04:24Z</time>
      </trkpt>
      <trkpt lat="45.24205" lon="5.80183">
        <ele>457</ele>
        <time>2017-09-24T12:04:26Z</time>
      </trkpt>
      <trkpt lat="45.2421" lon="5.80188">
        <ele>457</ele>
        <time>2017-09-24T12:04:28Z</time>
      </trkpt>
      <trkpt lat="45.24217" lon="5.80194">
        <ele>457</ele>
        <time>2017-09-24T12:04:30Z</time>
      </trkpt>
      <trkpt lat="45.24221" lon="5.80197">
        <ele>457</ele>
        <time>2017-09-24T12:04:31Z</time>
      </trkpt>
      <trkpt lat="45.24225" lon="5.802">
        <ele>458</ele>
        <time>2017-09-24T12:04:32Z</time>
      </trkpt>
      <trkpt lat="45.2423" lon="5.80204">
        <ele>458</ele>
        <time>2017-09-24T12:04:33Z</time>
      </trkpt>
      <trkpt lat="45.24237" lon="5.80209">
        <ele>458</ele>
        <time>2017-09-24T12:04:35Z</time>
      </trkpt>
      <trkpt lat="45.24242" lon="5.80215">
        <ele>458</ele>
        <time>2017-09-24T12:04:37Z</time>
      </trkpt>
      <trkpt lat="45.24246" lon="5.8022">
        <ele>458</ele>
        <time>2017-09-24T12:04:39Z</time>
      </trkpt>
      <trkpt lat="45.24252" lon="5.80221">
        <ele>459</ele>
        <time>2017-09-24T12:04:41Z</time>
      </trkpt>
      <trkpt lat="45.24256" lon="5.80225">
        <ele>460</ele>
        <time>2017-09-24T12:04:43Z</time>
      </trkpt>
      <trkpt lat="45.24263" lon="5.80227">
        <ele>461</ele>
        <time>2017-09-24T12:04:46Z</time>
      </trkpt>
      <trkpt lat="45.24268" lon="5.80225">
        <ele>462</ele>
        <time>2017-09-24T12:04:48Z</time>
      </trkpt>
      <trkpt lat="45.24273" lon="5.80224">
        <ele>463</ele>
        <time>2017-09-24T12:04:50Z</time>
      </trkpt>
      <trkpt lat="45.24278" lon="5.80223">
        <ele>464</ele>
        <time>2017-09-24T12:04:53Z</time>
      </trkpt>
      <trkpt lat="45.24283" lon="5.80222">
        <ele>465</ele>
        <time>2017-09-24T12:04:57Z</time>
      </trkpt>
      <trkpt lat="45.24289" lon="5.80222">
        <ele>466</ele>
        <time>2017-09-24T12:05:00Z</time>
      </trkpt>
      <trkpt lat="45.24294" lon="5.80222">
        <ele>467</ele>
        <time>2017-09-24T12:05:02Z</time>
      </trkpt>
      <trkpt lat="45.24298" lon="5.80225">
        <ele>467</ele>
        <time>2017-09-24T12:05:04Z</time>
      </trkpt>
      <trkpt lat="45.24303" lon="5.8023">
        <ele>468</ele>
        <time>2017-09-24T12:05:07Z</time>
      </trkpt>
      <trkpt lat="45.24307" lon="5.80234">
        <ele>468</ele>
        <time>2017-09-24T12:05:09Z</time>
      </trkpt>
      <trkpt lat="45.24313" lon="5.80238">
        <ele>469</ele>
        <time>2017-09-24T12:05:12Z</time>
      </trkpt>
      <trkpt lat="45.24318" lon="5.80242">
        <ele>469</ele>
        <time>2017-09-24T12:05:15Z</time>
      </trkpt>
      <trkpt lat="45.24324" lon="5.80245">
        <ele>470</ele>
        <time>2017-09-24T12:05:18Z</time>
      </trkpt>
      <trkpt lat="45.24331" lon="5.80248">
        <ele>471</ele>
        <time>2017-09-24T12:05:21Z</time>
      </trkpt>
      <trkpt lat="45.24335" lon="5.80249">
        <ele>471</ele>
        <time>2017-09-24T12:05:23Z</time>
      </trkpt>
      <trkpt lat="45.24342" lon="5.80251">
        <ele>472</ele>
        <time>2017-09-24T12:05:26Z</time>
      </trkpt>
      <trkpt lat="45.24348" lon="5.80252">
        <ele>473</ele>
        <time>2017-09-24T12:05:29Z</time>
      </trkpt>
      <trkpt lat="45.24353" lon="5.80254">
        <ele>474</ele>
        <time>2017-09-24T12:05:32Z</time>
      </trkpt>
      <trkpt lat="45.24358" lon="5.80258">
        <ele>474</ele>
        <time>2017-09-24T12:05:35Z</time>
      </trkpt>
      <trkpt lat="45.24365" lon="5.80262">
        <ele>475</ele>
        <time>2017-09-24T12:05:39Z</time>
      </trkpt>
      <trkpt lat="45.2437" lon="5.80266">
        <ele>475</ele>
        <time>2017-09-24T12:05:42Z</time>
      </trkpt>
      <trkpt lat="45.24374" lon="5.80271">
        <ele>475</ele>
        <time>2017-09-24T12:05:45Z</time>
      </trkpt>
      <trkpt lat="45.2438" lon="5.80275">
        <ele>476</ele>
        <time>2017-09-24T12:05:48Z</time>
      </trkpt>
      <trkpt lat="45.24385" lon="5.80278">
        <ele>476</ele>
        <time>2017-09-24T12:05:51Z</time>
      </trkpt>
      <trkpt lat="45.2439" lon="5.80281">
        <ele>477</ele>
        <time>2017-09-24T12:05:54Z</time>
      </trkpt>
      <trkpt lat="45.24394" lon="5.80286">
        <ele>477</ele>
        <time>2017-09-24T12:05:57Z</time>
      </trkpt>
      <trkpt lat="45.24398" lon="5.80291">
        <ele>477</ele>
        <time>2017-09-24T12:06:00Z</time>
      </trkpt>
      <trkpt lat="45.244" lon="5.80298">
        <ele>477</ele>
        <time>2017-09-24T12:06:03Z</time>
      </trkpt>
      <trkpt lat="45.24402" lon="5.80305">
        <ele>477</ele>
        <time>2017-09-24T12:06:06Z</time>
      </trkpt>
      <trkpt lat="45.24404" lon="5.80313">
        <ele>476</ele>
        <time>2017-09-24T12:06:09Z</time>
      </trkpt>
      <trkpt lat="45.24405" lon="5.80322">
        <ele>476</ele>
        <time>2017-09-24T12:06:12Z</time>
      </trkpt>
      <trkpt lat="45.24408" lon="5.80331">
        <ele>475</ele>
        <time>2017-09-24T12:06:14Z</time>
      </trkpt>
      <trkpt lat="45.2441" lon="5.80341">
        <ele>474</ele>
        <time>2017-09-24T12:06:16Z</time>
      </trkpt>
      <trkpt lat="45.24412" lon="5.80352">
        <ele>474</ele>
        <time>2017-09-24T12:06:18Z</time>
      </trkpt>
      <trkpt lat="45.24414" lon="5.80359">
        <ele>473</ele>
        <time>2017-09-24T12:06:19Z</time>
      </trkpt>
      <trkpt lat="45.24421" lon="5.8037">
        <ele>473</ele>
        <time>2017-09-24T12:06:20Z</time>
      </trkpt>
      <trkpt lat="45.24424" lon="5.80376">
        <ele>473</ele>
        <time>2017-09-24T12:06:21Z</time>
      </trkpt>
      <trkpt lat="45.24427" lon="5.80381">
        <ele>473</ele>
        <time>2017-09-24T12:06:22Z</time>
      </trkpt>
      <trkpt lat="45.24431" lon="5.80391">
        <ele>473</ele>
        <time>2017-09-24T12:06:24Z</time>
      </trkpt>
      <trkpt lat="45.24435" lon="5.804">
        <ele>473</ele>
        <time>2017-09-24T12:06:26Z</time>
      </trkpt>
      <trkpt lat="45.24439" lon="5.80406">
        <ele>473</ele>
        <time>2017-09-24T12:06:28Z</time>
      </trkpt>
      <trkpt lat="45.24444" lon="5.80415">
        <ele>473</ele>
        <time>2017-09-24T12:06:30Z</time>
      </trkpt>
      <trkpt lat="45.2445" lon="5.80423">
        <ele>473</ele>
        <time>2017-09-24T12:06:32Z</time>
      </trkpt>
      <trkpt lat="45.24455" lon="5.80434">
        <ele>472</ele>
        <time>2017-09-24T12:06:34Z</time>
      </trkpt>
      <trkpt lat="45.2446" lon="5.80441">
        <ele>472</ele>
        <time>2017-09-24T12:06:35Z</time>
      </trkpt>
      <trkpt lat="45.24465" lon="5.80448">
        <ele>472</ele>
        <time>2017-09-24T12:06:36Z</time>
      </trkpt>
      <trkpt lat="45.24469" lon="5.80454">
        <ele>472</ele>
        <time>2017-09-24T12:06:37Z</time>
      </trkpt>
      <trkpt lat="45.24474" lon="5.80459">
        <ele>472</ele>
        <time>2017-09-24T12:06:38Z</time>
      </trkpt>
      <trkpt lat="45.24479" lon="5.80468">
        <ele>472</ele>
        <time>2017-09-24T12:06:39Z</time>
      </trkpt>
      <trkpt lat="45.24483" lon="5.80474">
        <ele>472</ele>
        <time>2017-09-24T12:06:40Z</time>
      </trkpt>
      <trkpt lat="45.24489" lon="5.80485">
        <ele>472</ele>
        <time>2017-09-24T12:06:42Z</time>
      </trkpt>
      <trkpt lat="45.24493" lon="5.8049">
        <ele>471</ele>
        <time>2017-09-24T12:06:43Z</time>
      </trkpt>
      <trkpt lat="45.24496" lon="5.80496">
        <ele>471</ele>
        <time>2017-09-24T12:06:44Z</time>
      </trkpt>
      <trkpt lat="45.245" lon="5.80502">
        <ele>471</ele>
        <time>2017-09-24T12:06:45Z</time>
      </trkpt>
      <trkpt lat="45.24503" lon="5.80509">
        <ele>471</ele>
        <time>2017-09-24T12:06:46Z</time>
      </trkpt>
      <trkpt lat="45.24507" lon="5.80515">
        <ele>470</ele>
        <time>2017-09-24T12:06:47Z</time>
      </trkpt>
      <trkpt lat="45.24511" lon="5.80521">
        <ele>470</ele>
        <time>2017-09-24T12:06:48Z</time>
      </trkpt>
      <trkpt lat="45.24514" lon="5.80527">
        <ele>470</ele>
        <time>2017-09-24T12:06:49Z</time>
      </trkpt>
      <trkpt lat="45.24518" lon="5.80532">
        <ele>470</ele>
        <time>2017-09-24T12:06:50Z</time>
      </trkpt>
      <trkpt lat="45.24522" lon="5.80537">
        <ele>470</ele>
        <time>2017-09-24T12:06:51Z</time>
      </trkpt>
      <trkpt lat="45.24526" lon="5.80546">
        <ele>469</ele>
        <time>2017-09-24T12:06:53Z</time>
      </trkpt>
      <trkpt lat="45.2453" lon="5.80552">
        <ele>469</ele>
        <time>2017-09-24T12:07:12Z</time>
      </trkpt>
      <trkpt lat="45.24535" lon="5.80555">
        <ele>469</ele>
        <time>2017-09-24T12:07:14Z</time>
      </trkpt>
      <trkpt lat="45.24538" lon="5.8055">
        <ele>470</ele>
        <time>2017-09-24T12:07:19Z</time>
      </trkpt>
      <trkpt lat="45.2454" lon="5.80545">
        <ele>471</ele>
        <time>2017-09-24T12:07:23Z</time>
      </trkpt>
      <trkpt lat="45.24545" lon="5.80541">
        <ele>472</ele>
        <time>2017-09-24T12:07:27Z</time>
      </trkpt>
      <trkpt lat="45.2455" lon="5.80538">
        <ele>473</ele>
        <time>2017-09-24T12:07:31Z</time>
      </trkpt>
      <trkpt lat="45.24554" lon="5.80534">
        <ele>473</ele>
        <time>2017-09-24T12:07:35Z</time>
      </trkpt>
      <trkpt lat="45.24559" lon="5.80536">
        <ele>474</ele>
        <time>2017-09-24T12:07:39Z</time>
      </trkpt>
      <trkpt lat="45.24562" lon="5.80541">
        <ele>473</ele>
        <time>2017-09-24T12:07:42Z</time>
      </trkpt>
      <trkpt lat="45.24565" lon="5.80547">
        <ele>473</ele>
        <time>2017-09-24T12:07:45Z</time>
      </trkpt>
      <trkpt lat="45.24569" lon="5.80553">
        <ele>473</ele>
        <time>2017-09-24T12:07:47Z</time>
      </trkpt>
      <trkpt lat="45.24573" lon="5.80559">
        <ele>473</ele>
        <time>2017-09-24T12:07:49Z</time>
      </trkpt>
      <trkpt lat="45.24578" lon="5.80566">
        <ele>473</ele>
        <time>2017-09-24T12:07:51Z</time>
      </trkpt>
      <trkpt lat="45.24585" lon="5.80574">
        <ele>473</ele>
        <time>2017-09-24T12:07:53Z</time>
      </trkpt>
      <trkpt lat="45.24593" lon="5.8058">
        <ele>474</ele>
        <time>2017-09-24T12:07:55Z</time>
      </trkpt>
      <trkpt lat="45.246" lon="5.80586">
        <ele>475</ele>
        <time>2017-09-24T12:07:57Z</time>
      </trkpt>
      <trkpt lat="45.24608" lon="5.80593">
        <ele>475</ele>
        <time>2017-09-24T12:07:59Z</time>
      </trkpt>
      <trkpt lat="45.24615" lon="5.806">
        <ele>476</ele>
        <time>2017-09-24T12:08:01Z</time>
      </trkpt>
      <trkpt lat="45.24621" lon="5.80607">
        <ele>477</ele>
        <time>2017-09-24T12:08:03Z</time>
      </trkpt>
      <trkpt lat="45.24627" lon="5.80614">
        <ele>478</ele>
        <time>2017-09-24T12:08:05Z</time>
      </trkpt>
      <trkpt lat="45.24632" lon="5.80621">
        <ele>478</ele>
        <time>2017-09-24T12:08:07Z</time>
      </trkpt>
      <trkpt lat="45.24637" lon="5.80629">
        <ele>479</ele>
        <time>2017-09-24T12:08:09Z</time>
      </trkpt>
      <trkpt lat="45.24639" lon="5.80636">
        <ele>479</ele>
        <time>2017-09-24T12:08:11Z</time>
      </trkpt>
      <trkpt lat="45.24641" lon="5.80644">
        <ele>479</ele>
        <time>2017-09-24T12:08:14Z</time>
      </trkpt>
      <trkpt lat="45.24644" lon="5.80653">
        <ele>480</ele>
        <time>2017-09-24T12:08:18Z</time>
      </trkpt>
      <trkpt lat="45.24647" lon="5.8066">
        <ele>480</ele>
        <time>2017-09-24T12:08:22Z</time>
      </trkpt>
      <trkpt lat="45.2465" lon="5.80667">
        <ele>481</ele>
        <time>2017-09-24T12:08:25Z</time>
      </trkpt>
      <trkpt lat="45.24654" lon="5.80671">
        <ele>482</ele>
        <time>2017-09-24T12:08:28Z</time>
      </trkpt>
      <trkpt lat="45.24656" lon="5.80678">
        <ele>482</ele>
        <time>2017-09-24T12:08:33Z</time>
      </trkpt>
      <trkpt lat="45.24659" lon="5.80684">
        <ele>482</ele>
        <time>2017-09-24T12:08:38Z</time>
      </trkpt>
      <trkpt lat="45.24662" lon="5.80688">
        <ele>483</ele>
        <time>2017-09-24T12:08:42Z</time>
      </trkpt>
      <trkpt lat="45.24667" lon="5.80691">
        <ele>484</ele>
        <time>2017-09-24T12:08:47Z</time>
      </trkpt>
      <trkpt lat="45.24669" lon="5.80698">
        <ele>484</ele>
        <time>2017-09-24T12:08:53Z</time>
      </trkpt>
      <trkpt lat="45.24672" lon="5.80705">
        <ele>485</ele>
        <time>2017-09-24T12:08:57Z</time>
      </trkpt>
      <trkpt lat="45.24676" lon="5.8071">
        <ele>485</ele>
        <time>2017-09-24T12:09:01Z</time>
      </trkpt>
      <trkpt lat="45.2468" lon="5.80715">
        <ele>486</ele>
        <time>2017-09-24T12:09:04Z</time>
      </trkpt>
      <trkpt lat="45.24685" lon="5.80717">
        <ele>487</ele>
        <time>2017-09-24T12:09:07Z</time>
      </trkpt>
      <trkpt lat="45.24691" lon="5.80718">
        <ele>488</ele>
        <time>2017-09-24T12:09:11Z</time>
      </trkpt>
      <trkpt lat="45.24696" lon="5.80718">
        <ele>489</ele>
        <time>2017-09-24T12:09:14Z</time>
      </trkpt>
      <trkpt lat="45.24701" lon="5.80719">
        <ele>490</ele>
        <time>2017-09-24T12:09:17Z</time>
      </trkpt>
      <trkpt lat="45.24707" lon="5.80716">
        <ele>491</ele>
        <time>2017-09-24T12:09:20Z</time>
      </trkpt>
      <trkpt lat="45.24712" lon="5.80717">
        <ele>492</ele>
        <time>2017-09-24T12:09:24Z</time>
      </trkpt>
      <trkpt lat="45.24717" lon="5.80721">
        <ele>493</ele>
        <time>2017-09-24T12:09:28Z</time>
      </trkpt>
      <trkpt lat="45.24723" lon="5.80718">
        <ele>494</ele>
        <time>2017-09-24T12:09:32Z</time>
      </trkpt>
      <trkpt lat="45.24727" lon="5.80722">
        <ele>495</ele>
        <time>2017-09-24T12:09:35Z</time>
      </trkpt>
      <trkpt lat="45.24732" lon="5.80727">
        <ele>496</ele>
        <time>2017-09-24T12:09:39Z</time>
      </trkpt>
      <trkpt lat="45.24736" lon="5.80728">
        <ele>497</ele>
        <time>2017-09-24T12:09:43Z</time>
      </trkpt>
      <trkpt lat="45.24741" lon="5.80732">
        <ele>498</ele>
        <time>2017-09-24T12:09:47Z</time>
      </trkpt>
      <trkpt lat="45.24743" lon="5.80738">
        <ele>498</ele>
        <time>2017-09-24T12:09:51Z</time>
      </trkpt>
      <trkpt lat="45.24747" lon="5.80742">
        <ele>499</ele>
        <time>2017-09-24T12:09:57Z</time>
      </trkpt>
      <trkpt lat="45.24752" lon="5.80743">
        <ele>500</ele>
        <time>2017-09-24T12:10:02Z</time>
      </trkpt>
      <trkpt lat="45.24756" lon="5.80749">
        <ele>500</ele>
        <time>2017-09-24T12:10:07Z</time>
      </trkpt>
      <trkpt lat="45.24759" lon="5.80754">
        <ele>501</ele>
        <time>2017-09-24T12:10:11Z</time>
      </trkpt>
      <trkpt lat="45.24764" lon="5.80757">
        <ele>501</ele>
        <time>2017-09-24T12:10:15Z</time>
      </trkpt>
      <trkpt lat="45.24768" lon="5.80755">
        <ele>502</ele>
        <time>2017-09-24T12:10:20Z</time>
      </trkpt>
      <trkpt lat="45.24773" lon="5.80759">
        <ele>503</ele>
        <time>2017-09-24T12:10:24Z</time>
      </trkpt>
      <trkpt lat="45.24778" lon="5.8076">
        <ele>504</ele>
        <time>2017-09-24T12:10:28Z</time>
      </trkpt>
      <trkpt lat="45.24783" lon="5.8076">
        <ele>505</ele>
        <time>2017-09-24T12:10:31Z</time>
      </trkpt>
      <trkpt lat="45.24787" lon="5.80763">
        <ele>505</ele>
        <time>2017-09-24T12:10:35Z</time>
      </trkpt>
      <trkpt lat="45.24791" lon="5.80767">
        <ele>506</ele>
        <time>2017-09-24T12:10:39Z</time>
      </trkpt>
      <trkpt lat="45.24795" lon="5.80771">
        <ele>507</ele>
        <time>2017-09-24T12:10:43Z</time>
      </trkpt>
      <trkpt lat="45.24798" lon="5.80777">
        <ele>507</ele>
        <time>2017-09-24T12:10:47Z</time>
      </trkpt>
      <trkpt lat="45.24801" lon="5.80783">
        <ele>508</ele>
        <time>2017-09-24T12:10:51Z</time>
      </trkpt>
      <trkpt lat="45.24802" lon="5.8079">
        <ele>508</ele>
        <time>2017-09-24T12:10:55Z</time>
      </trkpt>
      <trkpt lat="45.24804" lon="5.80796">
        <ele>508</ele>
        <time>2017-09-24T12:10:59Z</time>
      </trkpt>
      <trkpt lat="45.24809" lon="5.80799">
        <ele>509</ele>
        <time>2017-09-24T12:11:02Z</time>
      </trkpt>
      <trkpt lat="45.24814" lon="5.80805">
        <ele>509</ele>
        <time>2017-09-24T12:11:05Z</time>
      </trkpt>
      <trkpt lat="45.24817" lon="5.8081">
        <ele>510</ele>
        <time>2017-09-24T12:11:07Z</time>
      </trkpt>
      <trkpt lat="45.24822" lon="5.80815">
        <ele>510</ele>
        <time>2017-09-24T12:11:09Z</time>
      </trkpt>
      <trkpt lat="45.24826" lon="5.8082">
        <ele>510</ele>
        <time>2017-09-24T12:11:11Z</time>
      </trkpt>
      <trkpt lat="45.24832" lon="5.80824">
        <ele>511</ele>
        <time>2017-09-24T12:11:13Z</time>
      </trkpt>
      <trkpt lat="45.24838" lon="5.8083">
        <ele>512</ele>
        <time>2017-09-24T12:11:15Z</time>
      </trkpt>
      <trkpt lat="45.24845" lon="5.80836">
        <ele>512</ele>
        <time>2017-09-24T12:11:17Z</time>
      </trkpt>
      <trkpt lat="45.2485" lon="5.8084">
        <ele>512</ele>
        <time>2017-09-24T12:11:18Z</time>
      </trkpt>
      <trkpt lat="45.24856" lon="5.80846">
        <ele>512</ele>
        <time>2017-09-24T12:11:19Z</time>
      </trkpt>
      <trkpt lat="45.24859" lon="5.80851">
        <ele>512</ele>
        <time>2017-09-24T12:11:20Z</time>
      </trkpt>
      <trkpt lat="45.24864" lon="5.8086">
        <ele>511</ele>
        <time>2017-09-24T12:11:22Z</time>
      </trkpt>
      <trkpt lat="45.24871" lon="5.80869">
        <ele>511</ele>
        <time>2017-09-24T12:11:24Z</time>
      </trkpt>
      <trkpt lat="45.24875" lon="5.80875">
        <ele>511</ele>
        <time>2017-09-24T12:11:26Z</time>
      </trkpt>
      <trkpt lat="45.24878" lon="5.80879">
        <ele>511</ele>
        <time>2017-09-24T12:11:28Z</time>
      </trkpt>
      <trkpt lat="45.24881" lon="5.80885">
        <ele>511</ele>
        <time>2017-09-24T12:11:30Z</time>
      </trkpt>
      <trkpt lat="45.24883" lon="5.80891">
        <ele>511</ele>
        <time>2017-09-24T12:11:32Z</time>
      </trkpt>
      <trkpt lat="45.24885" lon="5.80897">
        <ele>510</ele>
        <time>2017-09-24T12:11:34Z</time>
      </trkpt>
      <trkpt lat="45.24887" lon="5.80903">
        <ele>510</ele>
        <time>2017-09-24T12:11:36Z</time>
      </trkpt>
      <trkpt lat="45.24889" lon="5.80909">
        <ele>510</ele>
        <time>2017-09-24T12:11:38Z</time>
      </trkpt>
      <trkpt lat="45.2489" lon="5.80917">
        <ele>509</ele>
        <time>2017-09-24T12:11:40Z</time>
      </trkpt>
      <trkpt lat="45.24891" lon="5.80924">
        <ele>509</ele>
        <time>2017-09-24T12:11:42Z</time>
      </trkpt>
      <trkpt lat="45.24894" lon="5.80934">
        <ele>509</ele>
        <time>2017-09-24T12:11:44Z</time>
      </trkpt>
      <trkpt lat="45.24896" lon="5.8094">
        <ele>508</ele>
        <time>2017-09-24T12:11:45Z</time>
      </trkpt>
      <trkpt lat="45.24901" lon="5.80956">
        <ele>508</ele>
        <time>2017-09-24T12:11:48Z</time>
      </trkpt>
      <trkpt lat="45.24904" lon="5.80966">
        <ele>508</ele>
        <time>2017-09-24T12:11:50Z</time>
      </trkpt>
      <trkpt lat="45.24907" lon="5.80973">
        <ele>508</ele>
        <time>2017-09-24T12:11:52Z</time>
      </trkpt>
      <trkpt lat="45.24908" lon="5.80979">
        <ele>509</ele>
        <time>2017-09-24T12:11:55Z</time>
      </trkpt>
      <trkpt lat="45.2491" lon="5.80988">
        <ele>509</ele>
        <time>2017-09-24T12:11:58Z</time>
      </trkpt>
      <trkpt lat="45.24911" lon="5.80996">
        <ele>509</ele>
        <time>2017-09-24T12:12:01Z</time>
      </trkpt>
      <trkpt lat="45.24912" lon="5.81004">
        <ele>509</ele>
        <time>2017-09-24T12:12:04Z</time>
      </trkpt>
      <trkpt lat="45.24913" lon="5.81012">
        <ele>509</ele>
        <time>2017-09-24T12:12:07Z</time>
      </trkpt>
      <trkpt lat="45.24915" lon="5.8102">
        <ele>509</ele>
        <time>2017-09-24T12:12:10Z</time>
      </trkpt>
      <trkpt lat="45.24918" lon="5.81027">
        <ele>510</ele>
        <time>2017-09-24T12:12:13Z</time>
      </trkpt>
      <trkpt lat="45.24924" lon="5.81036">
        <ele>511</ele>
        <time>2017-09-24T12:12:17Z</time>
      </trkpt>
      <trkpt lat="45.24928" lon="5.81041">
        <ele>512</ele>
        <time>2017-09-24T12:12:20Z</time>
      </trkpt>
      <trkpt lat="45.24933" lon="5.81047">
        <ele>512</ele>
        <time>2017-09-24T12:12:23Z</time>
      </trkpt>
      <trkpt lat="45.24937" lon="5.81053">
        <ele>513</ele>
        <time>2017-09-24T12:12:26Z</time>
      </trkpt>
      <trkpt lat="45.24941" lon="5.81059">
        <ele>513</ele>
        <time>2017-09-24T12:12:29Z</time>
      </trkpt>
      <trkpt lat="45.24945" lon="5.81065">
        <ele>513</ele>
        <time>2017-09-24T12:12:32Z</time>
      </trkpt>
      <trkpt lat="45.24951" lon="5.81072">
        <ele>513</ele>
        <time>2017-09-24T12:12:35Z</time>
      </trkpt>
      <trkpt lat="45.24954" lon="5.81077">
        <ele>513</ele>
        <time>2017-09-24T12:12:37Z</time>
      </trkpt>
      <trkpt lat="45.24957" lon="5.81082">
        <ele>513</ele>
        <time>2017-09-24T12:12:39Z</time>
      </trkpt>
      <trkpt lat="45.24961" lon="5.81085">
        <ele>513</ele>
        <time>2017-09-24T12:12:41Z</time>
      </trkpt>
      <trkpt lat="45.24966" lon="5.81089">
        <ele>514</ele>
        <time>2017-09-24T12:12:44Z</time>
      </trkpt>
      <trkpt lat="45.24971" lon="5.81092">
        <ele>514</ele>
        <time>2017-09-24T12:12:47Z</time>
      </trkpt>
      <trkpt lat="45.24977" lon="5.81096">
        <ele>514</ele>
        <time>2017-09-24T12:12:50Z</time>
      </trkpt>
      <trkpt lat="45.24982" lon="5.81098">
        <ele>514</ele>
        <time>2017-09-24T12:12:53Z</time>
      </trkpt>
      <trkpt lat="45.24987" lon="5.81099">
        <ele>515</ele>
        <time>2017-09-24T12:12:56Z</time>
      </trkpt>
      <trkpt lat="45.24993" lon="5.81099">
        <ele>516</ele>
        <time>2017-09-24T12:12:59Z</time>
      </trkpt>
      <trkpt lat="45.24998" lon="5.811">
        <ele>515</ele>
        <time>2017-09-24T12:13:02Z</time>
      </trkpt>
      <trkpt lat="45.24998" lon="5.81103">
        <ele>515</ele>
        <time>2017-09-24T12:14:52Z</time>
      </trkpt>
      <trkpt lat="45.25008" lon="5.81103">
        <ele>514</ele>
        <time>2017-09-24T12:15:23Z</time>
      </trkpt>
      <trkpt lat="45.25014" lon="5.81099">
        <ele>514</ele>
        <time>2017-09-24T12:15:26Z</time>
      </trkpt>
      <trkpt lat="45.25021" lon="5.81096">
        <ele>514</ele>
        <time>2017-09-24T12:15:28Z</time>
      </trkpt>
      <trkpt lat="45.2503" lon="5.81092">
        <ele>514</ele>
        <time>2017-09-24T12:15:30Z</time>
      </trkpt>
      <trkpt lat="45.25038" lon="5.81089">
        <ele>514</ele>
        <time>2017-09-24T12:15:32Z</time>
      </trkpt>
      <trkpt lat="45.25045" lon="5.81085">
        <ele>514</ele>
        <time>2017-09-24T12:15:34Z</time>
      </trkpt>
      <trkpt lat="45.25049" lon="5.81088">
        <ele>513</ele>
        <time>2017-09-24T12:15:40Z</time>
      </trkpt>
      <trkpt lat="45.25054" lon="5.81087">
        <ele>513</ele>
        <time>2017-09-24T12:15:47Z</time>
      </trkpt>
      <trkpt lat="45.25058" lon="5.8109">
        <ele>512</ele>
        <time>2017-09-24T12:15:50Z</time>
      </trkpt>
      <trkpt lat="45.25063" lon="5.81088">
        <ele>512</ele>
        <time>2017-09-24T12:15:54Z</time>
      </trkpt>
      <trkpt lat="45.25068" lon="5.8108">
        <ele>513</ele>
        <time>2017-09-24T12:16:04Z</time>
      </trkpt>
      <trkpt lat="45.25074" lon="5.81078">
        <ele>514</ele>
        <time>2017-09-24T12:16:07Z</time>
      </trkpt>
      <trkpt lat="45.25077" lon="5.81073">
        <ele>514</ele>
        <time>2017-09-24T12:16:10Z</time>
      </trkpt>
      <trkpt lat="45.25083" lon="5.8107">
        <ele>515</ele>
        <time>2017-09-24T12:16:15Z</time>
      </trkpt>
      <trkpt lat="45.25087" lon="5.81069">
        <ele>515</ele>
        <time>2017-09-24T12:16:18Z</time>
      </trkpt>
      <trkpt lat="45.2509" lon="5.81062">
        <ele>516</ele>
        <time>2017-09-24T12:16:22Z</time>
      </trkpt>
      <trkpt lat="45.25093" lon="5.81056">
        <ele>517</ele>
        <time>2017-09-24T12:16:27Z</time>
      </trkpt>
      <trkpt lat="45.25094" lon="5.81048">
        <ele>518</ele>
        <time>2017-09-24T12:16:32Z</time>
      </trkpt>
      <trkpt lat="45.25097" lon="5.81032">
        <ele>520</ele>
        <time>2017-09-24T12:16:36Z</time>
      </trkpt>
      <trkpt lat="45.25105" lon="5.81023">
        <ele>521</ele>
        <time>2017-09-24T12:16:37Z</time>
      </trkpt>
      <trkpt lat="45.25107" lon="5.81016">
        <ele>522</ele>
        <time>2017-09-24T12:16:38Z</time>
      </trkpt>
      <trkpt lat="45.25108" lon="5.81007">
        <ele>523</ele>
        <time>2017-09-24T12:16:40Z</time>
      </trkpt>
      <trkpt lat="45.2511" lon="5.81">
        <ele>524</ele>
        <time>2017-09-24T12:16:42Z</time>
      </trkpt>
      <trkpt lat="45.25111" lon="5.80994">
        <ele>525</ele>
        <time>2017-09-24T12:16:44Z</time>
      </trkpt>
      <trkpt lat="45.25115" lon="5.80988">
        <ele>526</ele>
        <time>2017-09-24T12:16:46Z</time>
      </trkpt>
      <trkpt lat="45.25121" lon="5.80985">
        <ele>526</ele>
        <time>2017-09-24T12:16:51Z</time>
      </trkpt>
      <trkpt lat="45.25127" lon="5.80984">
        <ele>526</ele>
        <time>2017-09-24T12:16:54Z</time>
      </trkpt>
      <trkpt lat="45.25132" lon="5.80984">
        <ele>526</ele>
        <time>2017-09-24T12:16:56Z</time>
      </trkpt>
      <trkpt lat="45.25135" lon="5.80991">
        <ele>525</ele>
        <time>2017-09-24T12:16:59Z</time>
      </trkpt>
      <trkpt lat="45.25137" lon="5.80998">
        <ele>524</ele>
        <time>2017-09-24T12:17:01Z</time>
      </trkpt>
      <trkpt lat="45.25142" lon="5.81002">
        <ele>523</ele>
        <time>2017-09-24T12:17:04Z</time>
      </trkpt>
      <trkpt lat="45.25147" lon="5.81001">
        <ele>524</ele>
        <time>2017-09-24T12:17:07Z</time>
      </trkpt>
      <trkpt lat="45.25151" lon="5.81007">
        <ele>523</ele>
        <time>2017-09-24T12:17:12Z</time>
      </trkpt>
      <trkpt lat="45.25154" lon="5.81014">
        <ele>522</ele>
        <time>2017-09-24T12:17:15Z</time>
      </trkpt>
      <trkpt lat="45.25156" lon="5.81022">
        <ele>521</ele>
        <time>2017-09-24T12:17:18Z</time>
      </trkpt>
      <trkpt lat="45.25156" lon="5.81029">
        <ele>520</ele>
        <time>2017-09-24T12:17:20Z</time>
      </trkpt>
      <trkpt lat="45.25155" lon="5.81037">
        <ele>519</ele>
        <time>2017-09-24T12:17:22Z</time>
      </trkpt>
      <trkpt lat="45.25152" lon="5.81046">
        <ele>518</ele>
        <time>2017-09-24T12:17:24Z</time>
      </trkpt>
      <trkpt lat="45.25155" lon="5.81053">
        <ele>517</ele>
        <time>2017-09-24T12:17:26Z</time>
      </trkpt>
      <trkpt lat="45.25159" lon="5.81056">
        <ele>517</ele>
        <time>2017-09-24T12:17:28Z</time>
      </trkpt>
      <trkpt lat="45.25164" lon="5.81061">
        <ele>517</ele>
        <time>2017-09-24T12:17:31Z</time>
      </trkpt>
      <trkpt lat="45.2517" lon="5.81064">
        <ele>518</ele>
        <time>2017-09-24T12:17:34Z</time>
      </trkpt>
      <trkpt lat="45.25176" lon="5.81066">
        <ele>518</ele>
        <time>2017-09-24T12:17:38Z</time>
      </trkpt>
      <trkpt lat="45.2518" lon="5.81071">
        <ele>518</ele>
        <time>2017-09-24T12:17:42Z</time>
      </trkpt>
      <trkpt lat="45.25185" lon="5.81075">
        <ele>518</ele>
        <time>2017-09-24T12:17:45Z</time>
      </trkpt>
      <trkpt lat="45.2519" lon="5.81077">
        <ele>518</ele>
        <time>2017-09-24T12:17:48Z</time>
      </trkpt>
      <trkpt lat="45.25198" lon="5.81079">
        <ele>518</ele>
        <time>2017-09-24T12:17:52Z</time>
      </trkpt>
      <trkpt lat="45.25203" lon="5.8108">
        <ele>519</ele>
        <time>2017-09-24T12:17:54Z</time>
      </trkpt>
      <trkpt lat="45.25208" lon="5.81081">
        <ele>520</ele>
        <time>2017-09-24T12:17:56Z</time>
      </trkpt>
      <trkpt lat="45.25213" lon="5.81084">
        <ele>520</ele>
        <time>2017-09-24T12:17:59Z</time>
      </trkpt>
      <trkpt lat="45.25217" lon="5.81088">
        <ele>520</ele>
        <time>2017-09-24T12:18:02Z</time>
      </trkpt>
      <trkpt lat="45.25221" lon="5.81092">
        <ele>521</ele>
        <time>2017-09-24T12:18:07Z</time>
      </trkpt>
      <trkpt lat="45.25227" lon="5.81094">
        <ele>521</ele>
        <time>2017-09-24T12:18:11Z</time>
      </trkpt>
      <trkpt lat="45.25232" lon="5.81096">
        <ele>522</ele>
        <time>2017-09-24T12:18:14Z</time>
      </trkpt>
      <trkpt lat="45.25237" lon="5.81099">
        <ele>522</ele>
        <time>2017-09-24T12:18:17Z</time>
      </trkpt>
      <trkpt lat="45.25242" lon="5.81103">
        <ele>522</ele>
        <time>2017-09-24T12:18:22Z</time>
      </trkpt>
      <trkpt lat="45.25245" lon="5.81109">
        <ele>522</ele>
        <time>2017-09-24T12:18:25Z</time>
      </trkpt>
      <trkpt lat="45.25247" lon="5.81115">
        <ele>522</ele>
        <time>2017-09-24T12:18:28Z</time>
      </trkpt>
      <trkpt lat="45.25249" lon="5.81122">
        <ele>522</ele>
        <time>2017-09-24T12:18:31Z</time>
      </trkpt>
      <trkpt lat="45.25252" lon="5.81128">
        <ele>523</ele>
        <time>2017-09-24T12:18:34Z</time>
      </trkpt>
      <trkpt lat="45.25256" lon="5.81133">
        <ele>523</ele>
        <time>2017-09-24T12:18:37Z</time>
      </trkpt>
      <trkpt lat="45.2526" lon="5.81137">
        <ele>523</ele>
        <time>2017-09-24T12:18:40Z</time>
      </trkpt>
      <trkpt lat="45.25263" lon="5.81146">
        <ele>523</ele>
        <time>2017-09-24T12:18:43Z</time>
      </trkpt>
      <trkpt lat="45.25266" lon="5.81155">
        <ele>524</ele>
        <time>2017-09-24T12:18:45Z</time>
      </trkpt>
      <trkpt lat="45.25267" lon="5.81163">
        <ele>524</ele>
        <time>2017-09-24T12:18:47Z</time>
      </trkpt>
      <trkpt lat="45.25268" lon="5.81173">
        <ele>524</ele>
        <time>2017-09-24T12:18:49Z</time>
      </trkpt>
      <trkpt lat="45.25268" lon="5.81182">
        <ele>524</ele>
        <time>2017-09-24T12:18:51Z</time>
      </trkpt>
      <trkpt lat="45.2527" lon="5.8119">
        <ele>524</ele>
        <time>2017-09-24T12:18:53Z</time>
      </trkpt>
      <trkpt lat="45.25271" lon="5.81197">
        <ele>524</ele>
        <time>2017-09-24T12:18:55Z</time>
      </trkpt>
      <trkpt lat="45.25265" lon="5.81201">
        <ele>524</ele>
        <time>2017-09-24T12:18:58Z</time>
      </trkpt>
      <trkpt lat="45.25264" lon="5.81208">
        <ele>524</ele>
        <time>2017-09-24T12:19:02Z</time>
      </trkpt>
      <trkpt lat="45.25265" lon="5.81215">
        <ele>524</ele>
        <time>2017-09-24T12:19:04Z</time>
      </trkpt>
      <trkpt lat="45.25267" lon="5.81223">
        <ele>525</ele>
        <time>2017-09-24T12:19:06Z</time>
      </trkpt>
      <trkpt lat="45.25267" lon="5.81231">
        <ele>525</ele>
        <time>2017-09-24T12:19:08Z</time>
      </trkpt>
      <trkpt lat="45.25264" lon="5.81239">
        <ele>524</ele>
        <time>2017-09-24T12:19:10Z</time>
      </trkpt>
      <trkpt lat="45.2526" lon="5.81246">
        <ele>524</ele>
        <time>2017-09-24T12:19:12Z</time>
      </trkpt>
      <trkpt lat="45.25258" lon="5.81252">
        <ele>523</ele>
        <time>2017-09-24T12:19:14Z</time>
      </trkpt>
      <trkpt lat="45.25256" lon="5.8126">
        <ele>523</ele>
        <time>2017-09-24T12:19:17Z</time>
      </trkpt>
      <trkpt lat="45.25256" lon="5.81266">
        <ele>523</ele>
        <time>2017-09-24T12:19:20Z</time>
      </trkpt>
      <trkpt lat="45.25254" lon="5.81274">
        <ele>522</ele>
        <time>2017-09-24T12:19:23Z</time>
      </trkpt>
      <trkpt lat="45.25249" lon="5.81279">
        <ele>521</ele>
        <time>2017-09-24T12:19:26Z</time>
      </trkpt>
      <trkpt lat="45.25245" lon="5.81286">
        <ele>520</ele>
        <time>2017-09-24T12:19:29Z</time>
      </trkpt>
      <trkpt lat="45.25246" lon="5.81295">
        <ele>520</ele>
        <time>2017-09-24T12:19:32Z</time>
      </trkpt>
      <trkpt lat="45.25249" lon="5.81302">
        <ele>521</ele>
        <time>2017-09-24T12:19:34Z</time>
      </trkpt>
      <trkpt lat="45.25253" lon="5.81309">
        <ele>521</ele>
        <time>2017-09-24T12:19:36Z</time>
      </trkpt>
      <trkpt lat="45.25257" lon="5.81316">
        <ele>522</ele>
        <time>2017-09-24T12:19:38Z</time>
      </trkpt>
      <trkpt lat="45.25261" lon="5.81323">
        <ele>522</ele>
        <time>2017-09-24T12:19:40Z</time>
      </trkpt>
      <trkpt lat="45.25264" lon="5.8133">
        <ele>522</ele>
        <time>2017-09-24T12:19:42Z</time>
      </trkpt>
      <trkpt lat="45.25267" lon="5.81338">
        <ele>522</ele>
        <time>2017-09-24T12:19:44Z</time>
      </trkpt>
      <trkpt lat="45.2527" lon="5.81346">
        <ele>522</ele>
        <time>2017-09-24T12:19:46Z</time>
      </trkpt>
      <trkpt lat="45.25274" lon="5.81355">
        <ele>523</ele>
        <time>2017-09-24T12:19:48Z</time>
      </trkpt>
      <trkpt lat="45.25277" lon="5.81363">
        <ele>523</ele>
        <time>2017-09-24T12:19:49Z</time>
      </trkpt>
      <trkpt lat="45.25274" lon="5.8137">
        <ele>522</ele>
        <time>2017-09-24T12:19:50Z</time>
      </trkpt>
      <trkpt lat="45.25276" lon="5.81379">
        <ele>521</ele>
        <time>2017-09-24T12:19:52Z</time>
      </trkpt>
      <trkpt lat="45.2528" lon="5.81391">
        <ele>521</ele>
        <time>2017-09-24T12:19:54Z</time>
      </trkpt>
      <trkpt lat="45.25282" lon="5.81401">
        <ele>521</ele>
        <time>2017-09-24T12:19:56Z</time>
      </trkpt>
      <trkpt lat="45.25288" lon="5.81412">
        <ele>521</ele>
        <time>2017-09-24T12:19:59Z</time>
      </trkpt>
      <trkpt lat="45.25292" lon="5.81419">
        <ele>521</ele>
        <time>2017-09-24T12:20:01Z</time>
      </trkpt>
      <trkpt lat="45.25298" lon="5.81427">
        <ele>522</ele>
        <time>2017-09-24T12:20:03Z</time>
      </trkpt>
      <trkpt lat="45.25304" lon="5.81436">
        <ele>522</ele>
        <time>2017-09-24T12:20:05Z</time>
      </trkpt>
      <trkpt lat="45.25308" lon="5.81445">
        <ele>522</ele>
        <time>2017-09-24T12:20:07Z</time>
      </trkpt>
      <trkpt lat="45.25308" lon="5.81452">
        <ele>522</ele>
        <time>2017-09-24T12:20:09Z</time>
      </trkpt>
      <trkpt lat="45.2531" lon="5.8146">
        <ele>522</ele>
        <time>2017-09-24T12:20:12Z</time>
      </trkpt>
      <trkpt lat="45.25314" lon="5.81465">
        <ele>522</ele>
        <time>2017-09-24T12:20:14Z</time>
      </trkpt>
      <trkpt lat="45.25318" lon="5.81468">
        <ele>523</ele>
        <time>2017-09-24T12:20:16Z</time>
      </trkpt>
      <trkpt lat="45.25321" lon="5.81473">
        <ele>523</ele>
        <time>2017-09-24T12:20:18Z</time>
      </trkpt>
      <trkpt lat="45.25325" lon="5.81477">
        <ele>524</ele>
        <time>2017-09-24T12:20:21Z</time>
      </trkpt>
      <trkpt lat="45.25328" lon="5.81481">
        <ele>524</ele>
        <time>2017-09-24T12:20:25Z</time>
      </trkpt>
      <trkpt lat="45.2533" lon="5.81489">
        <ele>524</ele>
        <time>2017-09-24T12:20:40Z</time>
      </trkpt>
      <trkpt lat="45.25335" lon="5.81497">
        <ele>525</ele>
        <time>2017-09-24T12:20:42Z</time>
      </trkpt>
      <trkpt lat="45.25341" lon="5.81504">
        <ele>525</ele>
        <time>2017-09-24T12:20:44Z</time>
      </trkpt>
      <trkpt lat="45.2535" lon="5.81513">
        <ele>526</ele>
        <time>2017-09-24T12:20:47Z</time>
      </trkpt>
      <trkpt lat="45.25353" lon="5.81522">
        <ele>526</ele>
        <time>2017-09-24T12:20:49Z</time>
      </trkpt>
      <trkpt lat="45.25356" lon="5.81533">
        <ele>525</ele>
        <time>2017-09-24T12:20:51Z</time>
      </trkpt>
      <trkpt lat="45.2536" lon="5.81542">
        <ele>525</ele>
        <time>2017-09-24T12:20:53Z</time>
      </trkpt>
      <trkpt lat="45.25365" lon="5.81551">
        <ele>524</ele>
        <time>2017-09-24T12:20:55Z</time>
      </trkpt>
      <trkpt lat="45.25372" lon="5.81557">
        <ele>525</ele>
        <time>2017-09-24T12:20:57Z</time>
      </trkpt>
      <trkpt lat="45.25379" lon="5.81562">
        <ele>525</ele>
        <time>2017-09-24T12:20:59Z</time>
      </trkpt>
      <trkpt lat="45.25383" lon="5.81566">
        <ele>525</ele>
        <time>2017-09-24T12:21:01Z</time>
      </trkpt>
      <trkpt lat="45.25388" lon="5.81572">
        <ele>525</ele>
        <time>2017-09-24T12:21:04Z</time>
      </trkpt>
      <trkpt lat="45.25392" lon="5.81575">
        <ele>525</ele>
        <time>2017-09-24T12:21:06Z</time>
      </trkpt>
      <trkpt lat="45.25399" lon="5.81577">
        <ele>525</ele>
        <time>2017-09-24T12:21:09Z</time>
      </trkpt>
      <trkpt lat="45.25405" lon="5.81578">
        <ele>526</ele>
        <time>2017-09-24T12:21:12Z</time>
      </trkpt>
      <trkpt lat="45.25409" lon="5.81586">
        <ele>525</ele>
        <time>2017-09-24T12:21:15Z</time>
      </trkpt>
      <trkpt lat="45.25411" lon="5.81592">
        <ele>524</ele>
        <time>2017-09-24T12:21:16Z</time>
      </trkpt>
      <trkpt lat="45.25413" lon="5.81598">
        <ele>524</ele>
        <time>2017-09-24T12:21:17Z</time>
      </trkpt>
      <trkpt lat="45.25416" lon="5.81605">
        <ele>523</ele>
        <time>2017-09-24T12:21:18Z</time>
      </trkpt>
      <trkpt lat="45.25422" lon="5.81627">
        <ele>521</ele>
        <time>2017-09-24T12:21:19Z</time>
      </trkpt>
      <trkpt lat="45.25426" lon="5.81637">
        <ele>520</ele>
        <time>2017-09-24T12:21:20Z</time>
      </trkpt>
      <trkpt lat="45.25432" lon="5.81646">
        <ele>519</ele>
        <time>2017-09-24T12:21:21Z</time>
      </trkpt>
      <trkpt lat="45.25437" lon="5.81675">
        <ele>516</ele>
        <time>2017-09-24T12:21:23Z</time>
      </trkpt>
      <trkpt lat="45.25442" lon="5.81689">
        <ele>514</ele>
        <time>2017-09-24T12:21:24Z</time>
      </trkpt>
      <trkpt lat="45.25445" lon="5.81704">
        <ele>512</ele>
        <time>2017-09-24T12:21:25Z</time>
      </trkpt>
      <trkpt lat="45.2545" lon="5.81718">
        <ele>511</ele>
        <time>2017-09-24T12:21:26Z</time>
      </trkpt>
      <trkpt lat="45.25456" lon="5.81728">
        <ele>510</ele>
        <time>2017-09-24T12:21:27Z</time>
      </trkpt>
      <trkpt lat="45.25462" lon="5.81736">
        <ele>509</ele>
        <time>2017-09-24T12:21:28Z</time>
      </trkpt>
      <trkpt lat="45.25465" lon="5.81745">
        <ele>509</ele>
        <time>2017-09-24T12:21:29Z</time>
      </trkpt>
      <trkpt lat="45.25468" lon="5.81759">
        <ele>507</ele>
        <time>2017-09-24T12:21:30Z</time>
      </trkpt>
      <trkpt lat="45.25471" lon="5.81767">
        <ele>507</ele>
        <time>2017-09-24T12:21:31Z</time>
      </trkpt>
      <trkpt lat="45.25476" lon="5.81777">
        <ele>506</ele>
        <time>2017-09-24T12:21:33Z</time>
      </trkpt>
      <trkpt lat="45.25478" lon="5.81786">
        <ele>505</ele>
        <time>2017-09-24T12:21:34Z</time>
      </trkpt>
      <trkpt lat="45.2548" lon="5.81793">
        <ele>505</ele>
        <time>2017-09-24T12:21:35Z</time>
      </trkpt>
      <trkpt lat="45.25483" lon="5.818">
        <ele>504</ele>
        <time>2017-09-24T12:21:36Z</time>
      </trkpt>
      <trkpt lat="45.25487" lon="5.81807">
        <ele>503</ele>
        <time>2017-09-24T12:21:37Z</time>
      </trkpt>
      <trkpt lat="45.25491" lon="5.81813">
        <ele>503</ele>
        <time>2017-09-24T12:21:38Z</time>
      </trkpt>
      <trkpt lat="45.2549" lon="5.81823">
        <ele>502</ele>
        <time>2017-09-24T12:21:39Z</time>
      </trkpt>
      <trkpt lat="45.25489" lon="5.81835">
        <ele>500</ele>
        <time>2017-09-24T12:21:40Z</time>
      </trkpt>
      <trkpt lat="45.25491" lon="5.81844">
        <ele>499</ele>
        <time>2017-09-24T12:21:41Z</time>
      </trkpt>
      <trkpt lat="45.25498" lon="5.81845">
        <ele>499</ele>
        <time>2017-09-24T12:21:42Z</time>
      </trkpt>
      <trkpt lat="45.25503" lon="5.8185">
        <ele>499</ele>
        <time>2017-09-24T12:21:43Z</time>
      </trkpt>
      <trkpt lat="45.2551" lon="5.81851">
        <ele>499</ele>
        <time>2017-09-24T12:21:44Z</time>
      </trkpt>
      <trkpt lat="45.2552" lon="5.81854">
        <ele>499</ele>
        <time>2017-09-24T12:21:45Z</time>
      </trkpt>
      <trkpt lat="45.25526" lon="5.81863">
        <ele>498</ele>
        <time>2017-09-24T12:21:46Z</time>
      </trkpt>
      <trkpt lat="45.25534" lon="5.81871">
        <ele>497</ele>
        <time>2017-09-24T12:21:47Z</time>
      </trkpt>
      <trkpt lat="45.25538" lon="5.81881">
        <ele>496</ele>
        <time>2017-09-24T12:21:48Z</time>
      </trkpt>
      <trkpt lat="45.25544" lon="5.81891">
        <ele>495</ele>
        <time>2017-09-24T12:21:49Z</time>
      </trkpt>
      <trkpt lat="45.2555" lon="5.81897">
        <ele>495</ele>
        <time>2017-09-24T12:21:50Z</time>
      </trkpt>
      <trkpt lat="45.25555" lon="5.81903">
        <ele>495</ele>
        <time>2017-09-24T12:21:51Z</time>
      </trkpt>
      <trkpt lat="45.25562" lon="5.81911">
        <ele>495</ele>
        <time>2017-09-24T12:21:52Z</time>
      </trkpt>
      <trkpt lat="45.25568" lon="5.81917">
        <ele>494</ele>
        <time>2017-09-24T12:21:53Z</time>
      </trkpt>
      <trkpt lat="45.25575" lon="5.81925">
        <ele>494</ele>
        <time>2017-09-24T12:21:54Z</time>
      </trkpt>
      <trkpt lat="45.25582" lon="5.8193">
        <ele>494</ele>
        <time>2017-09-24T12:21:55Z</time>
      </trkpt>
      <trkpt lat="45.25588" lon="5.8194">
        <ele>494</ele>
        <time>2017-09-24T12:21:56Z</time>
      </trkpt>
      <trkpt lat="45.25594" lon="5.8195">
        <ele>493</ele>
        <time>2017-09-24T12:21:57Z</time>
      </trkpt>
      <trkpt lat="45.25602" lon="5.81957">
        <ele>493</ele>
        <time>2017-09-24T12:21:58Z</time>
      </trkpt>
      <trkpt lat="45.25608" lon="5.8196">
        <ele>494</ele>
        <time>2017-09-24T12:21:59Z</time>
      </trkpt>
      <trkpt lat="45.25613" lon="5.81963">
        <ele>494</ele>
        <time>2017-09-24T12:22:00Z</time>
      </trkpt>
      <trkpt lat="45.25609" lon="5.81967">
        <ele>493</ele>
        <time>2017-09-24T12:22:03Z</time>
      </trkpt>
      <trkpt lat="45.25605" lon="5.81972">
        <ele>492</ele>
        <time>2017-09-24T12:22:05Z</time>
      </trkpt>
      <trkpt lat="45.256" lon="5.81982">
        <ele>491</ele>
        <time>2017-09-24T12:22:07Z</time>
      </trkpt>
      <trkpt lat="45.25592" lon="5.8199">
        <ele>489</ele>
        <time>2017-09-24T12:22:09Z</time>
      </trkpt>
      <trkpt lat="45.25586" lon="5.82">
        <ele>488</ele>
        <time>2017-09-24T12:22:10Z</time>
      </trkpt>
      <trkpt lat="45.25583" lon="5.82007">
        <ele>486</ele>
        <time>2017-09-24T12:22:11Z</time>
      </trkpt>
      <trkpt lat="45.25578" lon="5.82016">
        <ele>485</ele>
        <time>2017-09-24T12:22:12Z</time>
      </trkpt>
      <trkpt lat="45.25571" lon="5.82025">
        <ele>483</ele>
        <time>2017-09-24T12:22:14Z</time>
      </trkpt>
      <trkpt lat="45.25568" lon="5.82031">
        <ele>482</ele>
        <time>2017-09-24T12:22:15Z</time>
      </trkpt>
      <trkpt lat="45.25564" lon="5.8204">
        <ele>481</ele>
        <time>2017-09-24T12:22:17Z</time>
      </trkpt>
      <trkpt lat="45.25566" lon="5.82047">
        <ele>480</ele>
        <time>2017-09-24T12:22:18Z</time>
      </trkpt>
      <trkpt lat="45.25561" lon="5.82055">
        <ele>479</ele>
        <time>2017-09-24T12:22:20Z</time>
      </trkpt>
      <trkpt lat="45.25557" lon="5.82059">
        <ele>478</ele>
        <time>2017-09-24T12:22:21Z</time>
      </trkpt>
      <trkpt lat="45.25551" lon="5.82065">
        <ele>477</ele>
        <time>2017-09-24T12:22:23Z</time>
      </trkpt>
      <trkpt lat="45.25546" lon="5.82066">
        <ele>476</ele>
        <time>2017-09-24T12:22:24Z</time>
      </trkpt>
      <trkpt lat="45.25541" lon="5.82068">
        <ele>475</ele>
        <time>2017-09-24T12:22:25Z</time>
      </trkpt>
      <trkpt lat="45.25538" lon="5.82074">
        <ele>474</ele>
        <time>2017-09-24T12:22:26Z</time>
      </trkpt>
      <trkpt lat="45.25531" lon="5.82079">
        <ele>473</ele>
        <time>2017-09-24T12:22:27Z</time>
      </trkpt>
      <trkpt lat="45.25525" lon="5.82083">
        <ele>472</ele>
        <time>2017-09-24T12:22:28Z</time>
      </trkpt>
      <trkpt lat="45.25517" lon="5.8208">
        <ele>472</ele>
        <time>2017-09-24T12:22:29Z</time>
      </trkpt>
      <trkpt lat="45.25511" lon="5.82079">
        <ele>471</ele>
        <time>2017-09-24T12:22:30Z</time>
      </trkpt>
      <trkpt lat="45.25505" lon="5.82082">
        <ele>470</ele>
        <time>2017-09-24T12:22:31Z</time>
      </trkpt>
      <trkpt lat="45.255" lon="5.82083">
        <ele>469</ele>
        <time>2017-09-24T12:22:32Z</time>
      </trkpt>
      <trkpt lat="45.25494" lon="5.82084">
        <ele>468</ele>
        <time>2017-09-24T12:22:33Z</time>
      </trkpt>
      <trkpt lat="45.25485" lon="5.82086">
        <ele>467</ele>
        <time>2017-09-24T12:22:34Z</time>
      </trkpt>
      <trkpt lat="45.2548" lon="5.82089">
        <ele>466</ele>
        <time>2017-09-24T12:22:35Z</time>
      </trkpt>
      <trkpt lat="45.25473" lon="5.82089">
        <ele>466</ele>
        <time>2017-09-24T12:22:36Z</time>
      </trkpt>
      <trkpt lat="45.25468" lon="5.82094">
        <ele>465</ele>
        <time>2017-09-24T12:22:37Z</time>
      </trkpt>
      <trkpt lat="45.25459" lon="5.82096">
        <ele>463</ele>
        <time>2017-09-24T12:22:38Z</time>
      </trkpt>
      <trkpt lat="45.25454" lon="5.82099">
        <ele>462</ele>
        <time>2017-09-24T12:22:39Z</time>
      </trkpt>
      <trkpt lat="45.25446" lon="5.82095">
        <ele>462</ele>
        <time>2017-09-24T12:22:40Z</time>
      </trkpt>
      <trkpt lat="45.25441" lon="5.82097">
        <ele>461</ele>
        <time>2017-09-24T12:22:41Z</time>
      </trkpt>
      <trkpt lat="45.25432" lon="5.82102">
        <ele>459</ele>
        <time>2017-09-24T12:22:43Z</time>
      </trkpt>
      <trkpt lat="45.25428" lon="5.82109">
        <ele>458</ele>
        <time>2017-09-24T12:22:44Z</time>
      </trkpt>
      <trkpt lat="45.25427" lon="5.82119">
        <ele>457</ele>
        <time>2017-09-24T12:22:45Z</time>
      </trkpt>
      <trkpt lat="45.25422" lon="5.82119">
        <ele>456</ele>
        <time>2017-09-24T12:22:46Z</time>
      </trkpt>
      <trkpt lat="45.2542" lon="5.82126">
        <ele>456</ele>
        <time>2017-09-24T12:22:47Z</time>
      </trkpt>
      <trkpt lat="45.25416" lon="5.82136">
        <ele>454</ele>
        <time>2017-09-24T12:22:49Z</time>
      </trkpt>
      <trkpt lat="45.25414" lon="5.82152">
        <ele>453</ele>
        <time>2017-09-24T12:22:51Z</time>
      </trkpt>
      <trkpt lat="45.25415" lon="5.82164">
        <ele>452</ele>
        <time>2017-09-24T12:22:52Z</time>
      </trkpt>
      <trkpt lat="45.25413" lon="5.82174">
        <ele>451</ele>
        <time>2017-09-24T12:22:53Z</time>
      </trkpt>
      <trkpt lat="45.25415" lon="5.82191">
        <ele>450</ele>
        <time>2017-09-24T12:22:54Z</time>
      </trkpt>
      <trkpt lat="45.25412" lon="5.82202">
        <ele>449</ele>
        <time>2017-09-24T12:22:55Z</time>
      </trkpt>
      <trkpt lat="45.25412" lon="5.82212">
        <ele>448</ele>
        <time>2017-09-24T12:22:56Z</time>
      </trkpt>
      <trkpt lat="45.25415" lon="5.82223">
        <ele>447</ele>
        <time>2017-09-24T12:22:57Z</time>
      </trkpt>
      <trkpt lat="45.25414" lon="5.82234">
        <ele>446</ele>
        <time>2017-09-24T12:22:58Z</time>
      </trkpt>
      <trkpt lat="45.25414" lon="5.82244">
        <ele>445</ele>
        <time>2017-09-24T12:22:59Z</time>
      </trkpt>
      <trkpt lat="45.25414" lon="5.82253">
        <ele>444</ele>
        <time>2017-09-24T12:23:00Z</time>
      </trkpt>
      <trkpt lat="45.25412" lon="5.82259">
        <ele>444</ele>
        <time>2017-09-24T12:23:01Z</time>
      </trkpt>
      <trkpt lat="45.25411" lon="5.82267">
        <ele>443</ele>
        <time>2017-09-24T12:23:03Z</time>
      </trkpt>
      <trkpt lat="45.25412" lon="5.82278">
        <ele>442</ele>
        <time>2017-09-24T12:23:05Z</time>
      </trkpt>
      <trkpt lat="45.25417" lon="5.82288">
        <ele>442</ele>
        <time>2017-09-24T12:23:07Z</time>
      </trkpt>
      <trkpt lat="45.25419" lon="5.82295">
        <ele>441</ele>
        <time>2017-09-24T12:23:08Z</time>
      </trkpt>
      <trkpt lat="45.25423" lon="5.82301">
        <ele>441</ele>
        <time>2017-09-24T12:23:09Z</time>
      </trkpt>
      <trkpt lat="45.25426" lon="5.82309">
        <ele>441</ele>
        <time>2017-09-24T12:23:10Z</time>
      </trkpt>
      <trkpt lat="45.25431" lon="5.82312">
        <ele>441</ele>
        <time>2017-09-24T12:23:11Z</time>
      </trkpt>
      <trkpt lat="45.25438" lon="5.82321">
        <ele>441</ele>
        <time>2017-09-24T12:23:13Z</time>
      </trkpt>
      <trkpt lat="45.25441" lon="5.82327">
        <ele>441</ele>
        <time>2017-09-24T12:23:14Z</time>
      </trkpt>
      <trkpt lat="45.25445" lon="5.82334">
        <ele>440</ele>
        <time>2017-09-24T12:23:15Z</time>
      </trkpt>
      <trkpt lat="45.25449" lon="5.82347">
        <ele>440</ele>
        <time>2017-09-24T12:23:17Z</time>
      </trkpt>
      <trkpt lat="45.25454" lon="5.82355">
        <ele>439</ele>
        <time>2017-09-24T12:23:18Z</time>
      </trkpt>
      <trkpt lat="45.25457" lon="5.82363">
        <ele>439</ele>
        <time>2017-09-24T12:23:19Z</time>
      </trkpt>
      <trkpt lat="45.2546" lon="5.82374">
        <ele>438</ele>
        <time>2017-09-24T12:23:21Z</time>
      </trkpt>
      <trkpt lat="45.25463" lon="5.82384">
        <ele>437</ele>
        <time>2017-09-24T12:23:23Z</time>
      </trkpt>
      <trkpt lat="45.2546" lon="5.82394">
        <ele>436</ele>
        <time>2017-09-24T12:23:24Z</time>
      </trkpt>
      <trkpt lat="45.25468" lon="5.82412">
        <ele>435</ele>
        <time>2017-09-24T12:23:26Z</time>
      </trkpt>
      <trkpt lat="45.2547" lon="5.82423">
        <ele>434</ele>
        <time>2017-09-24T12:23:27Z</time>
      </trkpt>
      <trkpt lat="45.25472" lon="5.8243">
        <ele>434</ele>
        <time>2017-09-24T12:23:28Z</time>
      </trkpt>
      <trkpt lat="45.25481" lon="5.82446">
        <ele>433</ele>
        <time>2017-09-24T12:23:30Z</time>
      </trkpt>
      <trkpt lat="45.25485" lon="5.82455">
        <ele>432</ele>
        <time>2017-09-24T12:23:31Z</time>
      </trkpt>
      <trkpt lat="45.2549" lon="5.82467">
        <ele>431</ele>
        <time>2017-09-24T12:23:32Z</time>
      </trkpt>
      <trkpt lat="45.25491" lon="5.82477">
        <ele>431</ele>
        <time>2017-09-24T12:23:33Z</time>
      </trkpt>
      <trkpt lat="45.25491" lon="5.82484">
        <ele>430</ele>
        <time>2017-09-24T12:23:34Z</time>
      </trkpt>
      <trkpt lat="45.25494" lon="5.8249">
        <ele>429</ele>
        <time>2017-09-24T12:23:35Z</time>
      </trkpt>
      <trkpt lat="45.25498" lon="5.82495">
        <ele>429</ele>
        <time>2017-09-24T12:23:36Z</time>
      </trkpt>
      <trkpt lat="45.25505" lon="5.82503">
        <ele>428</ele>
        <time>2017-09-24T12:23:37Z</time>
      </trkpt>
      <trkpt lat="45.25512" lon="5.82513">
        <ele>428</ele>
        <time>2017-09-24T12:23:38Z</time>
      </trkpt>
      <trkpt lat="45.25514" lon="5.8252">
        <ele>427</ele>
        <time>2017-09-24T12:23:39Z</time>
      </trkpt>
      <trkpt lat="45.25518" lon="5.82527">
        <ele>426</ele>
        <time>2017-09-24T12:23:40Z</time>
      </trkpt>
      <trkpt lat="45.25528" lon="5.8254">
        <ele>425</ele>
        <time>2017-09-24T12:23:42Z</time>
      </trkpt>
      <trkpt lat="45.25525" lon="5.82558">
        <ele>423</ele>
        <time>2017-09-24T12:23:44Z</time>
      </trkpt>
      <trkpt lat="45.25529" lon="5.82567">
        <ele>422</ele>
        <time>2017-09-24T12:23:45Z</time>
      </trkpt>
      <trkpt lat="45.2553" lon="5.82577">
        <ele>421</ele>
        <time>2017-09-24T12:23:47Z</time>
      </trkpt>
      <trkpt lat="45.25536" lon="5.82578">
        <ele>421</ele>
        <time>2017-09-24T12:23:48Z</time>
      </trkpt>
      <trkpt lat="45.25543" lon="5.82581">
        <ele>421</ele>
        <time>2017-09-24T12:23:51Z</time>
      </trkpt>
      <trkpt lat="45.25546" lon="5.82576">
        <ele>422</ele>
        <time>2017-09-24T12:23:52Z</time>
      </trkpt>
      <trkpt lat="45.25548" lon="5.82569">
        <ele>423</ele>
        <time>2017-09-24T12:23:53Z</time>
      </trkpt>
      <trkpt lat="45.25555" lon="5.82567">
        <ele>423</ele>
        <time>2017-09-24T12:23:56Z</time>
      </trkpt>
      <trkpt lat="45.2556" lon="5.82563">
        <ele>424</ele>
        <time>2017-09-24T12:23:58Z</time>
      </trkpt>
      <trkpt lat="45.25565" lon="5.82557">
        <ele>424</ele>
        <time>2017-09-24T12:24:00Z</time>
      </trkpt>
      <trkpt lat="45.25568" lon="5.82552">
        <ele>425</ele>
        <time>2017-09-24T12:24:03Z</time>
      </trkpt>
      <trkpt lat="45.25572" lon="5.82548">
        <ele>425</ele>
        <time>2017-09-24T12:24:06Z</time>
      </trkpt>
      <trkpt lat="45.25576" lon="5.82544">
        <ele>426</ele>
        <time>2017-09-24T12:24:08Z</time>
      </trkpt>
      <trkpt lat="45.2558" lon="5.82538">
        <ele>426</ele>
        <time>2017-09-24T12:24:11Z</time>
      </trkpt>
      <trkpt lat="45.25582" lon="5.82532">
        <ele>427</ele>
        <time>2017-09-24T12:24:13Z</time>
      </trkpt>
      <trkpt lat="45.25589" lon="5.82528">
        <ele>428</ele>
        <time>2017-09-24T12:24:15Z</time>
      </trkpt>
      <trkpt lat="45.25596" lon="5.82527">
        <ele>428</ele>
        <time>2017-09-24T12:24:17Z</time>
      </trkpt>
      <trkpt lat="45.25604" lon="5.82529">
        <ele>428</ele>
        <time>2017-09-24T12:24:19Z</time>
      </trkpt>
      <trkpt lat="45.25612" lon="5.82531">
        <ele>427</ele>
        <time>2017-09-24T12:24:21Z</time>
      </trkpt>
      <trkpt lat="45.25619" lon="5.82534">
        <ele>427</ele>
        <time>2017-09-24T12:24:23Z</time>
      </trkpt>
      <trkpt lat="45.25625" lon="5.82537">
        <ele>427</ele>
        <time>2017-09-24T12:24:25Z</time>
      </trkpt>
      <trkpt lat="45.25631" lon="5.82539">
        <ele>427</ele>
        <time>2017-09-24T12:24:27Z</time>
      </trkpt>
      <trkpt lat="45.25637" lon="5.8254">
        <ele>426</ele>
        <time>2017-09-24T12:24:29Z</time>
      </trkpt>
      <trkpt lat="45.25642" lon="5.8254">
        <ele>426</ele>
        <time>2017-09-24T12:24:31Z</time>
      </trkpt>
      <trkpt lat="45.25647" lon="5.82541">
        <ele>426</ele>
        <time>2017-09-24T12:24:33Z</time>
      </trkpt>
      <trkpt lat="45.25652" lon="5.82541">
        <ele>426</ele>
        <time>2017-09-24T12:24:35Z</time>
      </trkpt>
      <trkpt lat="45.25649" lon="5.82542">
        <ele>426</ele>
        <time>2017-09-24T12:24:51Z</time>
      </trkpt>
      <trkpt lat="45.2565" lon="5.82544">
        <ele>426</ele>
        <time>2017-09-24T12:24:52Z</time>
      </trkpt>
      <trkpt lat="45.25654" lon="5.82542">
        <ele>426</ele>
        <time>2017-09-24T12:25:21Z</time>
      </trkpt>
      <trkpt lat="45.25659" lon="5.82541">
        <ele>426</ele>
        <time>2017-09-24T12:25:49Z</time>
      </trkpt>
      <trkpt lat="45.25666" lon="5.82542">
        <ele>426</ele>
        <time>2017-09-24T12:25:51Z</time>
      </trkpt>
      <trkpt lat="45.25671" lon="5.82543">
        <ele>426</ele>
        <time>2017-09-24T12:25:53Z</time>
      </trkpt>
      <trkpt lat="45.25676" lon="5.82542">
        <ele>426</ele>
        <time>2017-09-24T12:25:56Z</time>
      </trkpt>
      <trkpt lat="45.25681" lon="5.82544">
        <ele>426</ele>
        <time>2017-09-24T12:25:58Z</time>
      </trkpt>
      <trkpt lat="45.25686" lon="5.82545">
        <ele>427</ele>
        <time>2017-09-24T12:26:00Z</time>
      </trkpt>
      <trkpt lat="45.25692" lon="5.82546">
        <ele>427</ele>
        <time>2017-09-24T12:26:04Z</time>
      </trkpt>
      <trkpt lat="45.25696" lon="5.82545">
        <ele>428</ele>
        <time>2017-09-24T12:26:07Z</time>
      </trkpt>
      <trkpt lat="45.25701" lon="5.82545">
        <ele>428</ele>
        <time>2017-09-24T12:26:12Z</time>
      </trkpt>
      <trkpt lat="45.25695" lon="5.82549">
        <ele>427</ele>
        <time>2017-09-24T12:26:18Z</time>
      </trkpt>
      <trkpt lat="45.25672" lon="5.82538">
        <ele>427</ele>
        <time>2017-09-24T12:26:20Z</time>
      </trkpt>
      <trkpt lat="45.25666" lon="5.82537">
        <ele>427</ele>
        <time>2017-09-24T12:26:21Z</time>
      </trkpt>
      <trkpt lat="45.25658" lon="5.8254">
        <ele>426</ele>
        <time>2017-09-24T12:26:23Z</time>
      </trkpt>
      <trkpt lat="45.25654" lon="5.82535">
        <ele>427</ele>
        <time>2017-09-24T12:26:24Z</time>
      </trkpt>
      <trkpt lat="45.25647" lon="5.82537">
        <ele>427</ele>
        <time>2017-09-24T12:26:26Z</time>
      </trkpt>
      <trkpt lat="45.25641" lon="5.82533">
        <ele>427</ele>
        <time>2017-09-24T12:26:28Z</time>
      </trkpt>
      <trkpt lat="45.25633" lon="5.8253">
        <ele>427</ele>
        <time>2017-09-24T12:26:30Z</time>
      </trkpt>
      <trkpt lat="45.25626" lon="5.82527">
        <ele>428</ele>
        <time>2017-09-24T12:26:32Z</time>
      </trkpt>
      <trkpt lat="45.25618" lon="5.82526">
        <ele>428</ele>
        <time>2017-09-24T12:26:34Z</time>
      </trkpt>
      <trkpt lat="45.25612" lon="5.82524">
        <ele>428</ele>
        <time>2017-09-24T12:26:36Z</time>
      </trkpt>
      <trkpt lat="45.25604" lon="5.82522">
        <ele>428</ele>
        <time>2017-09-24T12:26:38Z</time>
      </trkpt>
      <trkpt lat="45.25596" lon="5.82524">
        <ele>428</ele>
        <time>2017-09-24T12:26:40Z</time>
      </trkpt>
      <trkpt lat="45.2559" lon="5.82533">
        <ele>427</ele>
        <time>2017-09-24T12:26:41Z</time>
      </trkpt>
      <trkpt lat="45.25584" lon="5.82537">
        <ele>427</ele>
        <time>2017-09-24T12:26:42Z</time>
      </trkpt>
      <trkpt lat="45.25579" lon="5.82542">
        <ele>426</ele>
        <time>2017-09-24T12:26:43Z</time>
      </trkpt>
      <trkpt lat="45.25574" lon="5.82548">
        <ele>425</ele>
        <time>2017-09-24T12:26:44Z</time>
      </trkpt>
      <trkpt lat="45.25568" lon="5.82551">
        <ele>425</ele>
        <time>2017-09-24T12:26:45Z</time>
      </trkpt>
      <trkpt lat="45.25562" lon="5.82556">
        <ele>424</ele>
        <time>2017-09-24T12:26:46Z</time>
      </trkpt>
      <trkpt lat="45.25555" lon="5.82561">
        <ele>424</ele>
        <time>2017-09-24T12:26:47Z</time>
      </trkpt>
      <trkpt lat="45.25549" lon="5.82567">
        <ele>423</ele>
        <time>2017-09-24T12:26:48Z</time>
      </trkpt>
      <trkpt lat="45.25544" lon="5.82571">
        <ele>422</ele>
        <time>2017-09-24T12:26:49Z</time>
      </trkpt>
      <trkpt lat="45.2554" lon="5.82579">
        <ele>421</ele>
        <time>2017-09-24T12:26:50Z</time>
      </trkpt>
      <trkpt lat="45.25536" lon="5.82584">
        <ele>421</ele>
        <time>2017-09-24T12:26:51Z</time>
      </trkpt>
      <trkpt lat="45.25533" lon="5.82589">
        <ele>420</ele>
        <time>2017-09-24T12:26:52Z</time>
      </trkpt>
      <trkpt lat="45.25528" lon="5.82593">
        <ele>420</ele>
        <time>2017-09-24T12:26:53Z</time>
      </trkpt>
      <trkpt lat="45.25526" lon="5.82599">
        <ele>419</ele>
        <time>2017-09-24T12:26:54Z</time>
      </trkpt>
      <trkpt lat="45.25523" lon="5.82608">
        <ele>418</ele>
        <time>2017-09-24T12:26:56Z</time>
      </trkpt>
      <trkpt lat="45.25527" lon="5.8262">
        <ele>417</ele>
        <time>2017-09-24T12:26:58Z</time>
      </trkpt>
      <trkpt lat="45.25531" lon="5.82626">
        <ele>416</ele>
        <time>2017-09-24T12:26:59Z</time>
      </trkpt>
      <trkpt lat="45.25536" lon="5.82633">
        <ele>416</ele>
        <time>2017-09-24T12:27:00Z</time>
      </trkpt>
      <trkpt lat="45.25541" lon="5.8264">
        <ele>415</ele>
        <time>2017-09-24T12:27:01Z</time>
      </trkpt>
      <trkpt lat="45.25553" lon="5.82653">
        <ele>414</ele>
        <time>2017-09-24T12:27:03Z</time>
      </trkpt>
      <trkpt lat="45.25563" lon="5.82666">
        <ele>412</ele>
        <time>2017-09-24T12:27:05Z</time>
      </trkpt>
      <trkpt lat="45.25568" lon="5.82674">
        <ele>411</ele>
        <time>2017-09-24T12:27:06Z</time>
      </trkpt>
      <trkpt lat="45.25573" lon="5.8268">
        <ele>411</ele>
        <time>2017-09-24T12:27:07Z</time>
      </trkpt>
      <trkpt lat="45.2558" lon="5.82688">
        <ele>410</ele>
        <time>2017-09-24T12:27:08Z</time>
      </trkpt>
      <trkpt lat="45.25586" lon="5.82696">
        <ele>409</ele>
        <time>2017-09-24T12:27:09Z</time>
      </trkpt>
      <trkpt lat="45.25597" lon="5.82711">
        <ele>408</ele>
        <time>2017-09-24T12:27:11Z</time>
      </trkpt>
      <trkpt lat="45.25604" lon="5.8272">
        <ele>407</ele>
        <time>2017-09-24T12:27:12Z</time>
      </trkpt>
      <trkpt lat="45.2561" lon="5.82729">
        <ele>406</ele>
        <time>2017-09-24T12:27:13Z</time>
      </trkpt>
      <trkpt lat="45.25617" lon="5.82739">
        <ele>406</ele>
        <time>2017-09-24T12:27:14Z</time>
      </trkpt>
      <trkpt lat="45.25624" lon="5.82747">
        <ele>405</ele>
        <time>2017-09-24T12:27:15Z</time>
      </trkpt>
      <trkpt lat="45.25629" lon="5.82757">
        <ele>404</ele>
        <time>2017-09-24T12:27:16Z</time>
      </trkpt>
      <trkpt lat="45.25636" lon="5.82767">
        <ele>404</ele>
        <time>2017-09-24T12:27:17Z</time>
      </trkpt>
      <trkpt lat="45.25642" lon="5.82778">
        <ele>403</ele>
        <time>2017-09-24T12:27:18Z</time>
      </trkpt>
      <trkpt lat="45.25647" lon="5.82789">
        <ele>403</ele>
        <time>2017-09-24T12:27:19Z</time>
      </trkpt>
      <trkpt lat="45.25652" lon="5.828">
        <ele>402</ele>
        <time>2017-09-24T12:27:20Z</time>
      </trkpt>
      <trkpt lat="45.25657" lon="5.82811">
        <ele>402</ele>
        <time>2017-09-24T12:27:21Z</time>
      </trkpt>
      <trkpt lat="45.25663" lon="5.8282">
        <ele>402</ele>
        <time>2017-09-24T12:27:22Z</time>
      </trkpt>
      <trkpt lat="45.25667" lon="5.82833">
        <ele>401</ele>
        <time>2017-09-24T12:27:23Z</time>
      </trkpt>
      <trkpt lat="45.25673" lon="5.82844">
        <ele>401</ele>
        <time>2017-09-24T12:27:24Z</time>
      </trkpt>
      <trkpt lat="45.25679" lon="5.82852">
        <ele>400</ele>
        <time>2017-09-24T12:27:25Z</time>
      </trkpt>
      <trkpt lat="45.25683" lon="5.82861">
        <ele>400</ele>
        <time>2017-09-24T12:27:26Z</time>
      </trkpt>
      <trkpt lat="45.2569" lon="5.82869">
        <ele>401</ele>
        <time>2017-09-24T12:27:27Z</time>
      </trkpt>
      <trkpt lat="45.25694" lon="5.82876">
        <ele>401</ele>
        <time>2017-09-24T12:27:28Z</time>
      </trkpt>
      <trkpt lat="45.25699" lon="5.82881">
        <ele>401</ele>
        <time>2017-09-24T12:27:29Z</time>
      </trkpt>
      <trkpt lat="45.25704" lon="5.82887">
        <ele>401</ele>
        <time>2017-09-24T12:27:30Z</time>
      </trkpt>
      <trkpt lat="45.25708" lon="5.82893">
        <ele>401</ele>
        <time>2017-09-24T12:27:31Z</time>
      </trkpt>
      <trkpt lat="45.25712" lon="5.82899">
        <ele>401</ele>
        <time>2017-09-24T12:27:32Z</time>
      </trkpt>
      <trkpt lat="45.25715" lon="5.82904">
        <ele>401</ele>
        <time>2017-09-24T12:27:33Z</time>
      </trkpt>
      <trkpt lat="45.25718" lon="5.82911">
        <ele>401</ele>
        <time>2017-09-24T12:27:34Z</time>
      </trkpt>
      <trkpt lat="45.25722" lon="5.82917">
        <ele>401</ele>
        <time>2017-09-24T12:27:35Z</time>
      </trkpt>
      <trkpt lat="45.25726" lon="5.82923">
        <ele>401</ele>
        <time>2017-09-24T12:27:36Z</time>
      </trkpt>
      <trkpt lat="45.25729" lon="5.82927">
        <ele>402</ele>
        <time>2017-09-24T12:27:37Z</time>
      </trkpt>
      <trkpt lat="45.25732" lon="5.82932">
        <ele>402</ele>
        <time>2017-09-24T12:27:38Z</time>
      </trkpt>
      <trkpt lat="45.25736" lon="5.82936">
        <ele>402</ele>
        <time>2017-09-24T12:27:39Z</time>
      </trkpt>
      <trkpt lat="45.25742" lon="5.82944">
        <ele>402</ele>
        <time>2017-09-24T12:27:41Z</time>
      </trkpt>
      <trkpt lat="45.25748" lon="5.82954">
        <ele>402</ele>
        <time>2017-09-24T12:27:43Z</time>
      </trkpt>
      <trkpt lat="45.25753" lon="5.82962">
        <ele>402</ele>
        <time>2017-09-24T12:27:45Z</time>
      </trkpt>
      <trkpt lat="45.25757" lon="5.82966">
        <ele>403</ele>
        <time>2017-09-24T12:27:47Z</time>
      </trkpt>
      <trkpt lat="45.25763" lon="5.82973">
        <ele>403</ele>
        <time>2017-09-24T12:27:49Z</time>
      </trkpt>
      <trkpt lat="45.25767" lon="5.8298">
        <ele>403</ele>
        <time>2017-09-24T12:27:51Z</time>
      </trkpt>
      <trkpt lat="45.25771" lon="5.82984">
        <ele>404</ele>
        <time>2017-09-24T12:27:53Z</time>
      </trkpt>
      <trkpt lat="45.25775" lon="5.82989">
        <ele>404</ele>
        <time>2017-09-24T12:27:55Z</time>
      </trkpt>
      <trkpt lat="45.25778" lon="5.82995">
        <ele>404</ele>
        <time>2017-09-24T12:27:57Z</time>
      </trkpt>
      <trkpt lat="45.25782" lon="5.83">
        <ele>405</ele>
        <time>2017-09-24T12:27:59Z</time>
      </trkpt>
      <trkpt lat="45.25787" lon="5.83005">
        <ele>405</ele>
        <time>2017-09-24T12:28:01Z</time>
      </trkpt>
      <trkpt lat="45.25791" lon="5.83012">
        <ele>405</ele>
        <time>2017-09-24T12:28:03Z</time>
      </trkpt>
      <trkpt lat="45.25795" lon="5.83018">
        <ele>406</ele>
        <time>2017-09-24T12:28:05Z</time>
      </trkpt>
      <trkpt lat="45.258" lon="5.83023">
        <ele>406</ele>
        <time>2017-09-24T12:28:07Z</time>
      </trkpt>
      <trkpt lat="45.25806" lon="5.83031">
        <ele>407</ele>
        <time>2017-09-24T12:28:10Z</time>
      </trkpt>
      <trkpt lat="45.25811" lon="5.83036">
        <ele>407</ele>
        <time>2017-09-24T12:28:12Z</time>
      </trkpt>
      <trkpt lat="45.25815" lon="5.83041">
        <ele>407</ele>
        <time>2017-09-24T12:28:14Z</time>
      </trkpt>
      <trkpt lat="45.25819" lon="5.83045">
        <ele>408</ele>
        <time>2017-09-24T12:28:16Z</time>
      </trkpt>
      <trkpt lat="45.25825" lon="5.83049">
        <ele>408</ele>
        <time>2017-09-24T12:28:19Z</time>
      </trkpt>
      <trkpt lat="45.25831" lon="5.83052">
        <ele>409</ele>
        <time>2017-09-24T12:28:22Z</time>
      </trkpt>
      <trkpt lat="45.25835" lon="5.83055">
        <ele>409</ele>
        <time>2017-09-24T12:28:24Z</time>
      </trkpt>
      <trkpt lat="45.25839" lon="5.83059">
        <ele>409</ele>
        <time>2017-09-24T12:28:26Z</time>
      </trkpt>
      <trkpt lat="45.25843" lon="5.83062">
        <ele>410</ele>
        <time>2017-09-24T12:28:28Z</time>
      </trkpt>
      <trkpt lat="45.25848" lon="5.83065">
        <ele>410</ele>
        <time>2017-09-24T12:28:30Z</time>
      </trkpt>
      <trkpt lat="45.25852" lon="5.83068">
        <ele>411</ele>
        <time>2017-09-24T12:28:32Z</time>
      </trkpt>
      <trkpt lat="45.25857" lon="5.8307">
        <ele>411</ele>
        <time>2017-09-24T12:28:34Z</time>
      </trkpt>
      <trkpt lat="45.25861" lon="5.83073">
        <ele>411</ele>
        <time>2017-09-24T12:28:36Z</time>
      </trkpt>
      <trkpt lat="45.25865" lon="5.83076">
        <ele>412</ele>
        <time>2017-09-24T12:28:38Z</time>
      </trkpt>
      <trkpt lat="45.25871" lon="5.8308">
        <ele>412</ele>
        <time>2017-09-24T12:28:41Z</time>
      </trkpt>
      <trkpt lat="45.25877" lon="5.83084">
        <ele>412</ele>
        <time>2017-09-24T12:28:44Z</time>
      </trkpt>
      <trkpt lat="45.25882" lon="5.83087">
        <ele>413</ele>
        <time>2017-09-24T12:28:46Z</time>
      </trkpt>
      <trkpt lat="45.25886" lon="5.83091">
        <ele>413</ele>
        <time>2017-09-24T12:28:48Z</time>
      </trkpt>
      <trkpt lat="45.2589" lon="5.83095">
        <ele>413</ele>
        <time>2017-09-24T12:28:50Z</time>
      </trkpt>
      <trkpt lat="45.25895" lon="5.83099">
        <ele>414</ele>
        <time>2017-09-24T12:28:52Z</time>
      </trkpt>
      <trkpt lat="45.259" lon="5.83102">
        <ele>414</ele>
        <time>2017-09-24T12:28:54Z</time>
      </trkpt>
      <trkpt lat="45.25904" lon="5.83105">
        <ele>414</ele>
        <time>2017-09-24T12:28:56Z</time>
      </trkpt>
      <trkpt lat="45.25908" lon="5.83109">
        <ele>415</ele>
        <time>2017-09-24T12:28:58Z</time>
      </trkpt>
      <trkpt lat="45.25913" lon="5.83114">
        <ele>415</ele>
        <time>2017-09-24T12:29:00Z</time>
      </trkpt>
      <trkpt lat="45.25918" lon="5.83117">
        <ele>415</ele>
        <time>2017-09-24T12:29:02Z</time>
      </trkpt>
      <trkpt lat="45.25922" lon="5.8312">
        <ele>416</ele>
        <time>2017-09-24T12:29:04Z</time>
      </trkpt>
      <trkpt lat="45.25927" lon="5.83124">
        <ele>416</ele>
        <time>2017-09-24T12:29:06Z</time>
      </trkpt>
      <trkpt lat="45.25931" lon="5.83128">
        <ele>416</ele>
        <time>2017-09-24T12:29:08Z</time>
      </trkpt>
      <trkpt lat="45.25936" lon="5.83134">
        <ele>416</ele>
        <time>2017-09-24T12:29:11Z</time>
      </trkpt>
      <trkpt lat="45.25941" lon="5.8314">
        <ele>417</ele>
        <time>2017-09-24T12:29:14Z</time>
      </trkpt>
      <trkpt lat="45.25945" lon="5.83143">
        <ele>417</ele>
        <time>2017-09-24T12:29:16Z</time>
      </trkpt>
      <trkpt lat="45.25951" lon="5.83146">
        <ele>418</ele>
        <time>2017-09-24T12:29:19Z</time>
      </trkpt>
      <trkpt lat="45.25958" lon="5.83154">
        <ele>418</ele>
        <time>2017-09-24T12:29:23Z</time>
      </trkpt>
      <trkpt lat="45.25962" lon="5.83158">
        <ele>418</ele>
        <time>2017-09-24T12:29:25Z</time>
      </trkpt>
      <trkpt lat="45.25967" lon="5.83163">
        <ele>418</ele>
        <time>2017-09-24T12:29:27Z</time>
      </trkpt>
      <trkpt lat="45.25972" lon="5.83168">
        <ele>418</ele>
        <time>2017-09-24T12:29:29Z</time>
      </trkpt>
      <trkpt lat="45.25976" lon="5.83173">
        <ele>419</ele>
        <time>2017-09-24T12:29:31Z</time>
      </trkpt>
      <trkpt lat="45.2598" lon="5.83178">
        <ele>419</ele>
        <time>2017-09-24T12:29:33Z</time>
      </trkpt>
      <trkpt lat="45.25984" lon="5.83183">
        <ele>419</ele>
        <time>2017-09-24T12:29:35Z</time>
      </trkpt>
      <trkpt lat="45.25989" lon="5.83187">
        <ele>420</ele>
        <time>2017-09-24T12:29:37Z</time>
      </trkpt>
      <trkpt lat="45.25994" lon="5.83191">
        <ele>420</ele>
        <time>2017-09-24T12:29:39Z</time>
      </trkpt>
      <trkpt lat="45.25999" lon="5.83194">
        <ele>420</ele>
        <time>2017-09-24T12:29:41Z</time>
      </trkpt>
      <trkpt lat="45.26004" lon="5.83198">
        <ele>421</ele>
        <time>2017-09-24T12:29:43Z</time>
      </trkpt>
      <trkpt lat="45.2601" lon="5.83201">
        <ele>421</ele>
        <time>2017-09-24T12:29:45Z</time>
      </trkpt>
      <trkpt lat="45.26016" lon="5.83202">
        <ele>422</ele>
        <time>2017-09-24T12:29:47Z</time>
      </trkpt>
      <trkpt lat="45.26021" lon="5.83203">
        <ele>423</ele>
        <time>2017-09-24T12:29:49Z</time>
      </trkpt>
      <trkpt lat="45.26027" lon="5.83203">
        <ele>423</ele>
        <time>2017-09-24T12:29:51Z</time>
      </trkpt>
      <trkpt lat="45.26032" lon="5.83204">
        <ele>424</ele>
        <time>2017-09-24T12:29:53Z</time>
      </trkpt>
      <trkpt lat="45.26038" lon="5.83203">
        <ele>425</ele>
        <time>2017-09-24T12:29:55Z</time>
      </trkpt>
      <trkpt lat="45.26043" lon="5.83202">
        <ele>425</ele>
        <time>2017-09-24T12:29:57Z</time>
      </trkpt>
      <trkpt lat="45.26049" lon="5.832">
        <ele>426</ele>
        <time>2017-09-24T12:29:59Z</time>
      </trkpt>
      <trkpt lat="45.26056" lon="5.83198">
        <ele>427</ele>
        <time>2017-09-24T12:30:02Z</time>
      </trkpt>
      <trkpt lat="45.26062" lon="5.83197">
        <ele>428</ele>
        <time>2017-09-24T12:30:05Z</time>
      </trkpt>
      <trkpt lat="45.26069" lon="5.83195">
        <ele>429</ele>
        <time>2017-09-24T12:30:08Z</time>
      </trkpt>
      <trkpt lat="45.26075" lon="5.8319">
        <ele>429</ele>
        <time>2017-09-24T12:30:11Z</time>
      </trkpt>
      <trkpt lat="45.2608" lon="5.83185">
        <ele>430</ele>
        <time>2017-09-24T12:30:14Z</time>
      </trkpt>
      <trkpt lat="45.26085" lon="5.8318">
        <ele>431</ele>
        <time>2017-09-24T12:30:17Z</time>
      </trkpt>
      <trkpt lat="45.2609" lon="5.83176">
        <ele>432</ele>
        <time>2017-09-24T12:30:20Z</time>
      </trkpt>
      <trkpt lat="45.26095" lon="5.83175">
        <ele>432</ele>
        <time>2017-09-24T12:30:23Z</time>
      </trkpt>
      <trkpt lat="45.26101" lon="5.83176">
        <ele>433</ele>
        <time>2017-09-24T12:30:26Z</time>
      </trkpt>
      <trkpt lat="45.26107" lon="5.83175">
        <ele>434</ele>
        <time>2017-09-24T12:30:29Z</time>
      </trkpt>
      <trkpt lat="45.26113" lon="5.83176">
        <ele>434</ele>
        <time>2017-09-24T12:30:32Z</time>
      </trkpt>
      <trkpt lat="45.26119" lon="5.83176">
        <ele>435</ele>
        <time>2017-09-24T12:30:35Z</time>
      </trkpt>
      <trkpt lat="45.26124" lon="5.83178">
        <ele>435</ele>
        <time>2017-09-24T12:30:38Z</time>
      </trkpt>
      <trkpt lat="45.26129" lon="5.83182">
        <ele>435</ele>
        <time>2017-09-24T12:30:41Z</time>
      </trkpt>
      <trkpt lat="45.26134" lon="5.83184">
        <ele>436</ele>
        <time>2017-09-24T12:30:44Z</time>
      </trkpt>
      <trkpt lat="45.2614" lon="5.83185">
        <ele>436</ele>
        <time>2017-09-24T12:30:47Z</time>
      </trkpt>
      <trkpt lat="45.26145" lon="5.83185">
        <ele>437</ele>
        <time>2017-09-24T12:30:50Z</time>
      </trkpt>
      <trkpt lat="45.2615" lon="5.83186">
        <ele>437</ele>
        <time>2017-09-24T12:30:53Z</time>
      </trkpt>
      <trkpt lat="45.26155" lon="5.83188">
        <ele>438</ele>
        <time>2017-09-24T12:30:56Z</time>
      </trkpt>
      <trkpt lat="45.2616" lon="5.8319">
        <ele>438</ele>
        <time>2017-09-24T12:30:59Z</time>
      </trkpt>
      <trkpt lat="45.26165" lon="5.83191">
        <ele>438</ele>
        <time>2017-09-24T12:31:02Z</time>
      </trkpt>
      <trkpt lat="45.26169" lon="5.83192">
        <ele>439</ele>
        <time>2017-09-24T12:31:05Z</time>
      </trkpt>
      <trkpt lat="45.26174" lon="5.83195">
        <ele>439</ele>
        <time>2017-09-24T12:31:08Z</time>
      </trkpt>
      <trkpt lat="45.26179" lon="5.83198">
        <ele>440</ele>
        <time>2017-09-24T12:31:11Z</time>
      </trkpt>
      <trkpt lat="45.26184" lon="5.832">
        <ele>440</ele>
        <time>2017-09-24T12:31:14Z</time>
      </trkpt>
      <trkpt lat="45.26189" lon="5.832">
        <ele>441</ele>
        <time>2017-09-24T12:31:17Z</time>
      </trkpt>
      <trkpt lat="45.26194" lon="5.83202">
        <ele>441</ele>
        <time>2017-09-24T12:31:20Z</time>
      </trkpt>
      <trkpt lat="45.26198" lon="5.83207">
        <ele>442</ele>
        <time>2017-09-24T12:31:23Z</time>
      </trkpt>
      <trkpt lat="45.26203" lon="5.83209">
        <ele>442</ele>
        <time>2017-09-24T12:31:26Z</time>
      </trkpt>
      <trkpt lat="45.26208" lon="5.83208">
        <ele>443</ele>
        <time>2017-09-24T12:31:29Z</time>
      </trkpt>
      <trkpt lat="45.26213" lon="5.83207">
        <ele>443</ele>
        <time>2017-09-24T12:31:32Z</time>
      </trkpt>
      <trkpt lat="45.26218" lon="5.83212">
        <ele>444</ele>
        <time>2017-09-24T12:31:35Z</time>
      </trkpt>
      <trkpt lat="45.26222" lon="5.83216">
        <ele>444</ele>
        <time>2017-09-24T12:31:38Z</time>
      </trkpt>
      <trkpt lat="45.26229" lon="5.83216">
        <ele>445</ele>
        <time>2017-09-24T12:31:42Z</time>
      </trkpt>
      <trkpt lat="45.26234" lon="5.83222">
        <ele>446</ele>
        <time>2017-09-24T12:31:45Z</time>
      </trkpt>
      <trkpt lat="45.26237" lon="5.83229">
        <ele>446</ele>
        <time>2017-09-24T12:31:48Z</time>
      </trkpt>
      <trkpt lat="45.26238" lon="5.83236">
        <ele>446</ele>
        <time>2017-09-24T12:31:50Z</time>
      </trkpt>
      <trkpt lat="45.2624" lon="5.83243">
        <ele>447</ele>
        <time>2017-09-24T12:31:52Z</time>
      </trkpt>
      <trkpt lat="45.26241" lon="5.83251">
        <ele>447</ele>
        <time>2017-09-24T12:31:55Z</time>
      </trkpt>
      <trkpt lat="45.26243" lon="5.8326">
        <ele>447</ele>
        <time>2017-09-24T12:31:58Z</time>
      </trkpt>
      <trkpt lat="45.26245" lon="5.83268">
        <ele>448</ele>
        <time>2017-09-24T12:32:00Z</time>
      </trkpt>
      <trkpt lat="45.26246" lon="5.83277">
        <ele>448</ele>
        <time>2017-09-24T12:32:02Z</time>
      </trkpt>
      <trkpt lat="45.26247" lon="5.83286">
        <ele>448</ele>
        <time>2017-09-24T12:32:04Z</time>
      </trkpt>
      <trkpt lat="45.26247" lon="5.83294">
        <ele>448</ele>
        <time>2017-09-24T12:32:06Z</time>
      </trkpt>
      <trkpt lat="45.26248" lon="5.83303">
        <ele>449</ele>
        <time>2017-09-24T12:32:08Z</time>
      </trkpt>
      <trkpt lat="45.26249" lon="5.83312">
        <ele>449</ele>
        <time>2017-09-24T12:32:10Z</time>
      </trkpt>
      <trkpt lat="45.2625" lon="5.8332">
        <ele>449</ele>
        <time>2017-09-24T12:32:12Z</time>
      </trkpt>
      <trkpt lat="45.26251" lon="5.83327">
        <ele>449</ele>
        <time>2017-09-24T12:32:14Z</time>
      </trkpt>
      <trkpt lat="45.26252" lon="5.83333">
        <ele>449</ele>
        <time>2017-09-24T12:32:16Z</time>
      </trkpt>
      <trkpt lat="45.26254" lon="5.8334">
        <ele>449</ele>
        <time>2017-09-24T12:32:18Z</time>
      </trkpt>
      <trkpt lat="45.26255" lon="5.83347">
        <ele>449</ele>
        <time>2017-09-24T12:32:20Z</time>
      </trkpt>
      <trkpt lat="45.26256" lon="5.83354">
        <ele>450</ele>
        <time>2017-09-24T12:32:22Z</time>
      </trkpt>
      <trkpt lat="45.26257" lon="5.83361">
        <ele>450</ele>
        <time>2017-09-24T12:32:24Z</time>
      </trkpt>
      <trkpt lat="45.26259" lon="5.83367">
        <ele>450</ele>
        <time>2017-09-24T12:32:26Z</time>
      </trkpt>
      <trkpt lat="45.2626" lon="5.83374">
        <ele>450</ele>
        <time>2017-09-24T12:32:28Z</time>
      </trkpt>
      <trkpt lat="45.26262" lon="5.8338">
        <ele>450</ele>
        <time>2017-09-24T12:32:30Z</time>
      </trkpt>
      <trkpt lat="45.26263" lon="5.83387">
        <ele>450</ele>
        <time>2017-09-24T12:32:32Z</time>
      </trkpt>
      <trkpt lat="45.26265" lon="5.83394">
        <ele>450</ele>
        <time>2017-09-24T12:32:34Z</time>
      </trkpt>
      <trkpt lat="45.26267" lon="5.83401">
        <ele>450</ele>
        <time>2017-09-24T12:32:36Z</time>
      </trkpt>
      <trkpt lat="45.26268" lon="5.83409">
        <ele>450</ele>
        <time>2017-09-24T12:32:38Z</time>
      </trkpt>
      <trkpt lat="45.26269" lon="5.83417">
        <ele>450</ele>
        <time>2017-09-24T12:32:40Z</time>
      </trkpt>
      <trkpt lat="45.26271" lon="5.83426">
        <ele>451</ele>
        <time>2017-09-24T12:32:42Z</time>
      </trkpt>
      <trkpt lat="45.26273" lon="5.83435">
        <ele>451</ele>
        <time>2017-09-24T12:32:44Z</time>
      </trkpt>
      <trkpt lat="45.26275" lon="5.83445">
        <ele>451</ele>
        <time>2017-09-24T12:32:46Z</time>
      </trkpt>
      <trkpt lat="45.26276" lon="5.83455">
        <ele>450</ele>
        <time>2017-09-24T12:32:48Z</time>
      </trkpt>
      <trkpt lat="45.26278" lon="5.83465">
        <ele>450</ele>
        <time>2017-09-24T12:32:50Z</time>
      </trkpt>
      <trkpt lat="45.26281" lon="5.83475">
        <ele>450</ele>
        <time>2017-09-24T12:32:52Z</time>
      </trkpt>
      <trkpt lat="45.26284" lon="5.83485">
        <ele>450</ele>
        <time>2017-09-24T12:32:54Z</time>
      </trkpt>
      <trkpt lat="45.26288" lon="5.83494">
        <ele>450</ele>
        <time>2017-09-24T12:32:56Z</time>
      </trkpt>
      <trkpt lat="45.26291" lon="5.83503">
        <ele>450</ele>
        <time>2017-09-24T12:32:58Z</time>
      </trkpt>
      <trkpt lat="45.26294" lon="5.83513">
        <ele>450</ele>
        <time>2017-09-24T12:33:00Z</time>
      </trkpt>
      <trkpt lat="45.26296" lon="5.83523">
        <ele>450</ele>
        <time>2017-09-24T12:33:02Z</time>
      </trkpt>
      <trkpt lat="45.26297" lon="5.83533">
        <ele>450</ele>
        <time>2017-09-24T12:33:04Z</time>
      </trkpt>
      <trkpt lat="45.26298" lon="5.83543">
        <ele>450</ele>
        <time>2017-09-24T12:33:06Z</time>
      </trkpt>
      <trkpt lat="45.263" lon="5.83553">
        <ele>449</ele>
        <time>2017-09-24T12:33:08Z</time>
      </trkpt>
      <trkpt lat="45.26302" lon="5.83562">
        <ele>449</ele>
        <time>2017-09-24T12:33:10Z</time>
      </trkpt>
      <trkpt lat="45.26304" lon="5.83572">
        <ele>449</ele>
        <time>2017-09-24T12:33:12Z</time>
      </trkpt>
      <trkpt lat="45.26305" lon="5.83582">
        <ele>449</ele>
        <time>2017-09-24T12:33:14Z</time>
      </trkpt>
      <trkpt lat="45.26306" lon="5.83592">
        <ele>449</ele>
        <time>2017-09-24T12:33:16Z</time>
      </trkpt>
      <trkpt lat="45.26307" lon="5.836">
        <ele>449</ele>
        <time>2017-09-24T12:33:18Z</time>
      </trkpt>
      <trkpt lat="45.26305" lon="5.83608">
        <ele>448</ele>
        <time>2017-09-24T12:33:21Z</time>
      </trkpt>
      <trkpt lat="45.26302" lon="5.83613">
        <ele>448</ele>
        <time>2017-09-24T12:33:23Z</time>
      </trkpt>
      <trkpt lat="45.26299" lon="5.8362">
        <ele>447</ele>
        <time>2017-09-24T12:33:25Z</time>
      </trkpt>
      <trkpt lat="45.26297" lon="5.83627">
        <ele>446</ele>
        <time>2017-09-24T12:33:27Z</time>
      </trkpt>
      <trkpt lat="45.26298" lon="5.83633">
        <ele>446</ele>
        <time>2017-09-24T12:33:29Z</time>
      </trkpt>
      <trkpt lat="45.26302" lon="5.83638">
        <ele>446</ele>
        <time>2017-09-24T12:33:31Z</time>
      </trkpt>
      <trkpt lat="45.26304" lon="5.83643">
        <ele>447</ele>
        <time>2017-09-24T12:33:33Z</time>
      </trkpt>
      <trkpt lat="45.26304" lon="5.83651">
        <ele>446</ele>
        <time>2017-09-24T12:33:35Z</time>
      </trkpt>
      <trkpt lat="45.26302" lon="5.83657">
        <ele>446</ele>
        <time>2017-09-24T12:33:37Z</time>
      </trkpt>
      <trkpt lat="45.26304" lon="5.83665">
        <ele>446</ele>
        <time>2017-09-24T12:33:40Z</time>
      </trkpt>
      <trkpt lat="45.26308" lon="5.83669">
        <ele>447</ele>
        <time>2017-09-24T12:33:43Z</time>
      </trkpt>
      <trkpt lat="45.26307" lon="5.8367">
        <ele>446</ele>
        <time>2017-09-24T12:34:12Z</time>
      </trkpt>
      <trkpt lat="45.26307" lon="5.8367">
        <ele>446</ele>
        <time>2017-09-24T12:34:32Z</time>
      </trkpt>
      <trkpt lat="45.26311" lon="5.83673">
        <ele>447</ele>
        <time>2017-09-24T12:35:01Z</time>
      </trkpt>
      <trkpt lat="45.26314" lon="5.83668">
        <ele>447</ele>
        <time>2017-09-24T12:35:04Z</time>
      </trkpt>
      <trkpt lat="45.26318" lon="5.83662">
        <ele>448</ele>
        <time>2017-09-24T12:35:07Z</time>
      </trkpt>
      <trkpt lat="45.26321" lon="5.83655">
        <ele>449</ele>
        <time>2017-09-24T12:35:11Z</time>
      </trkpt>
      <trkpt lat="45.26325" lon="5.8365">
        <ele>449</ele>
        <time>2017-09-24T12:35:15Z</time>
      </trkpt>
      <trkpt lat="45.26328" lon="5.83644">
        <ele>450</ele>
        <time>2017-09-24T12:35:19Z</time>
      </trkpt>
      <trkpt lat="45.26332" lon="5.83641">
        <ele>451</ele>
        <time>2017-09-24T12:35:23Z</time>
      </trkpt>
      <trkpt lat="45.26336" lon="5.83636">
        <ele>451</ele>
        <time>2017-09-24T12:35:27Z</time>
      </trkpt>
      <trkpt lat="45.2634" lon="5.83632">
        <ele>452</ele>
        <time>2017-09-24T12:35:31Z</time>
      </trkpt>
      <trkpt lat="45.26345" lon="5.83628">
        <ele>453</ele>
        <time>2017-09-24T12:35:35Z</time>
      </trkpt>
      <trkpt lat="45.2635" lon="5.83625">
        <ele>454</ele>
        <time>2017-09-24T12:35:39Z</time>
      </trkpt>
      <trkpt lat="45.26355" lon="5.83622">
        <ele>455</ele>
        <time>2017-09-24T12:35:43Z</time>
      </trkpt>
      <trkpt lat="45.2636" lon="5.83619">
        <ele>455</ele>
        <time>2017-09-24T12:35:47Z</time>
      </trkpt>
      <trkpt lat="45.26365" lon="5.83618">
        <ele>456</ele>
        <time>2017-09-24T12:35:51Z</time>
      </trkpt>
      <trkpt lat="45.26369" lon="5.83616">
        <ele>457</ele>
        <time>2017-09-24T12:35:55Z</time>
      </trkpt>
      <trkpt lat="45.26374" lon="5.83613">
        <ele>458</ele>
        <time>2017-09-24T12:35:59Z</time>
      </trkpt>
      <trkpt lat="45.26378" lon="5.8361">
        <ele>458</ele>
        <time>2017-09-24T12:36:03Z</time>
      </trkpt>
      <trkpt lat="45.26382" lon="5.83607">
        <ele>459</ele>
        <time>2017-09-24T12:36:07Z</time>
      </trkpt>
      <trkpt lat="45.26387" lon="5.83605">
        <ele>460</ele>
        <time>2017-09-24T12:36:11Z</time>
      </trkpt>
      <trkpt lat="45.26392" lon="5.83603">
        <ele>460</ele>
        <time>2017-09-24T12:36:15Z</time>
      </trkpt>
      <trkpt lat="45.26397" lon="5.836">
        <ele>461</ele>
        <time>2017-09-24T12:36:19Z</time>
      </trkpt>
      <trkpt lat="45.26401" lon="5.83598">
        <ele>462</ele>
        <time>2017-09-24T12:36:23Z</time>
      </trkpt>
      <trkpt lat="45.26407" lon="5.83595">
        <ele>463</ele>
        <time>2017-09-24T12:36:27Z</time>
      </trkpt>
      <trkpt lat="45.26411" lon="5.83592">
        <ele>464</ele>
        <time>2017-09-24T12:36:31Z</time>
      </trkpt>
      <trkpt lat="45.26416" lon="5.8359">
        <ele>464</ele>
        <time>2017-09-24T12:36:35Z</time>
      </trkpt>
      <trkpt lat="45.26421" lon="5.8359">
        <ele>465</ele>
        <time>2017-09-24T12:36:39Z</time>
      </trkpt>
      <trkpt lat="45.26427" lon="5.83589">
        <ele>466</ele>
        <time>2017-09-24T12:36:43Z</time>
      </trkpt>
      <trkpt lat="45.26432" lon="5.83588">
        <ele>467</ele>
        <time>2017-09-24T12:36:47Z</time>
      </trkpt>
      <trkpt lat="45.26437" lon="5.83588">
        <ele>467</ele>
        <time>2017-09-24T12:36:51Z</time>
      </trkpt>
      <trkpt lat="45.26442" lon="5.83588">
        <ele>468</ele>
        <time>2017-09-24T12:36:55Z</time>
      </trkpt>
      <trkpt lat="45.26447" lon="5.83587">
        <ele>469</ele>
        <time>2017-09-24T12:36:59Z</time>
      </trkpt>
      <trkpt lat="45.26451" lon="5.83586">
        <ele>469</ele>
        <time>2017-09-24T12:37:03Z</time>
      </trkpt>
      <trkpt lat="45.26456" lon="5.83584">
        <ele>470</ele>
        <time>2017-09-24T12:37:07Z</time>
      </trkpt>
      <trkpt lat="45.26461" lon="5.83584">
        <ele>471</ele>
        <time>2017-09-24T12:37:11Z</time>
      </trkpt>
      <trkpt lat="45.26465" lon="5.83582">
        <ele>471</ele>
        <time>2017-09-24T12:37:15Z</time>
      </trkpt>
      <trkpt lat="45.2647" lon="5.83578">
        <ele>472</ele>
        <time>2017-09-24T12:37:19Z</time>
      </trkpt>
      <trkpt lat="45.26474" lon="5.83575">
        <ele>473</ele>
        <time>2017-09-24T12:37:23Z</time>
      </trkpt>
      <trkpt lat="45.26479" lon="5.83571">
        <ele>473</ele>
        <time>2017-09-24T12:37:27Z</time>
      </trkpt>
      <trkpt lat="45.26483" lon="5.83566">
        <ele>474</ele>
        <time>2017-09-24T12:37:31Z</time>
      </trkpt>
      <trkpt lat="45.26489" lon="5.83564">
        <ele>475</ele>
        <time>2017-09-24T12:37:35Z</time>
      </trkpt>
      <trkpt lat="45.26493" lon="5.83562">
        <ele>476</ele>
        <time>2017-09-24T12:37:39Z</time>
      </trkpt>
      <trkpt lat="45.26498" lon="5.8356">
        <ele>476</ele>
        <time>2017-09-24T12:37:43Z</time>
      </trkpt>
      <trkpt lat="45.26502" lon="5.83556">
        <ele>477</ele>
        <time>2017-09-24T12:37:47Z</time>
      </trkpt>
      <trkpt lat="45.26508" lon="5.83554">
        <ele>478</ele>
        <time>2017-09-24T12:37:51Z</time>
      </trkpt>
      <trkpt lat="45.26513" lon="5.83551">
        <ele>478</ele>
        <time>2017-09-24T12:37:55Z</time>
      </trkpt>
      <trkpt lat="45.26518" lon="5.83546">
        <ele>479</ele>
        <time>2017-09-24T12:37:59Z</time>
      </trkpt>
      <trkpt lat="45.26523" lon="5.83544">
        <ele>480</ele>
        <time>2017-09-24T12:38:03Z</time>
      </trkpt>
      <trkpt lat="45.2653" lon="5.83541">
        <ele>480</ele>
        <time>2017-09-24T12:38:08Z</time>
      </trkpt>
      <trkpt lat="45.26535" lon="5.83538">
        <ele>481</ele>
        <time>2017-09-24T12:38:12Z</time>
      </trkpt>
      <trkpt lat="45.2654" lon="5.83536">
        <ele>482</ele>
        <time>2017-09-24T12:38:16Z</time>
      </trkpt>
      <trkpt lat="45.26545" lon="5.83535">
        <ele>482</ele>
        <time>2017-09-24T12:38:20Z</time>
      </trkpt>
      <trkpt lat="45.26551" lon="5.83536">
        <ele>483</ele>
        <time>2017-09-24T12:38:24Z</time>
      </trkpt>
      <trkpt lat="45.26555" lon="5.83536">
        <ele>483</ele>
        <time>2017-09-24T12:38:28Z</time>
      </trkpt>
      <trkpt lat="45.2656" lon="5.83538">
        <ele>484</ele>
        <time>2017-09-24T12:38:32Z</time>
      </trkpt>
      <trkpt lat="45.26565" lon="5.83539">
        <ele>484</ele>
        <time>2017-09-24T12:38:35Z</time>
      </trkpt>
      <trkpt lat="45.26571" lon="5.83542">
        <ele>485</ele>
        <time>2017-09-24T12:38:39Z</time>
      </trkpt>
      <trkpt lat="45.26576" lon="5.83544">
        <ele>485</ele>
        <time>2017-09-24T12:38:43Z</time>
      </trkpt>
      <trkpt lat="45.2658" lon="5.83542">
        <ele>486</ele>
        <time>2017-09-24T12:38:47Z</time>
      </trkpt>
      <trkpt lat="45.26586" lon="5.83542">
        <ele>487</ele>
        <time>2017-09-24T12:38:52Z</time>
      </trkpt>
      <trkpt lat="45.26591" lon="5.83541">
        <ele>487</ele>
        <time>2017-09-24T12:38:56Z</time>
      </trkpt>
      <trkpt lat="45.26596" lon="5.83539">
        <ele>488</ele>
        <time>2017-09-24T12:39:00Z</time>
      </trkpt>
      <trkpt lat="45.26601" lon="5.83537">
        <ele>489</ele>
        <time>2017-09-24T12:39:04Z</time>
      </trkpt>
      <trkpt lat="45.26606" lon="5.83535">
        <ele>489</ele>
        <time>2017-09-24T12:39:08Z</time>
      </trkpt>
      <trkpt lat="45.26612" lon="5.83534">
        <ele>490</ele>
        <time>2017-09-24T12:39:12Z</time>
      </trkpt>
      <trkpt lat="45.26617" lon="5.83531">
        <ele>491</ele>
        <time>2017-09-24T12:39:16Z</time>
      </trkpt>
      <trkpt lat="45.26622" lon="5.83529">
        <ele>491</ele>
        <time>2017-09-24T12:39:20Z</time>
      </trkpt>
      <trkpt lat="45.26627" lon="5.83526">
        <ele>492</ele>
        <time>2017-09-24T12:39:24Z</time>
      </trkpt>
      <trkpt lat="45.26632" lon="5.83525">
        <ele>493</ele>
        <time>2017-09-24T12:39:28Z</time>
      </trkpt>
      <trkpt lat="45.26637" lon="5.83521">
        <ele>494</ele>
        <time>2017-09-24T12:39:33Z</time>
      </trkpt>
      <trkpt lat="45.26641" lon="5.83518">
        <ele>494</ele>
        <time>2017-09-24T12:39:36Z</time>
      </trkpt>
      <trkpt lat="45.26645" lon="5.83514">
        <ele>495</ele>
        <time>2017-09-24T12:39:39Z</time>
      </trkpt>
      <trkpt lat="45.2665" lon="5.8351">
        <ele>496</ele>
        <time>2017-09-24T12:39:43Z</time>
      </trkpt>
      <trkpt lat="45.26655" lon="5.83506">
        <ele>496</ele>
        <time>2017-09-24T12:39:47Z</time>
      </trkpt>
      <trkpt lat="45.2666" lon="5.83503">
        <ele>497</ele>
        <time>2017-09-24T12:39:51Z</time>
      </trkpt>
      <trkpt lat="45.26666" lon="5.83504">
        <ele>498</ele>
        <time>2017-09-24T12:39:55Z</time>
      </trkpt>
      <trkpt lat="45.26671" lon="5.83503">
        <ele>499</ele>
        <time>2017-09-24T12:39:59Z</time>
      </trkpt>
      <trkpt lat="45.26676" lon="5.83501">
        <ele>499</ele>
        <time>2017-09-24T12:40:03Z</time>
      </trkpt>
      <trkpt lat="45.2668" lon="5.83499">
        <ele>500</ele>
        <time>2017-09-24T12:40:07Z</time>
      </trkpt>
      <trkpt lat="45.26685" lon="5.83498">
        <ele>501</ele>
        <time>2017-09-24T12:40:11Z</time>
      </trkpt>
      <trkpt lat="45.2669" lon="5.83496">
        <ele>501</ele>
        <time>2017-09-24T12:40:15Z</time>
      </trkpt>
      <trkpt lat="45.26694" lon="5.83495">
        <ele>502</ele>
        <time>2017-09-24T12:40:19Z</time>
      </trkpt>
      <trkpt lat="45.26698" lon="5.83492">
        <ele>502</ele>
        <time>2017-09-24T12:40:23Z</time>
      </trkpt>
      <trkpt lat="45.26703" lon="5.8349">
        <ele>503</ele>
        <time>2017-09-24T12:40:27Z</time>
      </trkpt>
      <trkpt lat="45.26708" lon="5.83488">
        <ele>504</ele>
        <time>2017-09-24T12:40:32Z</time>
      </trkpt>
      <trkpt lat="45.26714" lon="5.83487">
        <ele>505</ele>
        <time>2017-09-24T12:40:37Z</time>
      </trkpt>
      <trkpt lat="45.26718" lon="5.83484">
        <ele>505</ele>
        <time>2017-09-24T12:40:41Z</time>
      </trkpt>
      <trkpt lat="45.26722" lon="5.83484">
        <ele>506</ele>
        <time>2017-09-24T12:40:45Z</time>
      </trkpt>
      <trkpt lat="45.26727" lon="5.83481">
        <ele>507</ele>
        <time>2017-09-24T12:40:49Z</time>
      </trkpt>
      <trkpt lat="45.26732" lon="5.83481">
        <ele>507</ele>
        <time>2017-09-24T12:40:53Z</time>
      </trkpt>
      <trkpt lat="45.26736" lon="5.83478">
        <ele>508</ele>
        <time>2017-09-24T12:40:57Z</time>
      </trkpt>
      <trkpt lat="45.2674" lon="5.83473">
        <ele>509</ele>
        <time>2017-09-24T12:41:01Z</time>
      </trkpt>
      <trkpt lat="45.26743" lon="5.83469">
        <ele>510</ele>
        <time>2017-09-24T12:41:05Z</time>
      </trkpt>
      <trkpt lat="45.26748" lon="5.83466">
        <ele>510</ele>
        <time>2017-09-24T12:41:09Z</time>
      </trkpt>
      <trkpt lat="45.26752" lon="5.83462">
        <ele>511</ele>
        <time>2017-09-24T12:41:13Z</time>
      </trkpt>
      <trkpt lat="45.26757" lon="5.83459">
        <ele>512</ele>
        <time>2017-09-24T12:41:17Z</time>
      </trkpt>
      <trkpt lat="45.26761" lon="5.83455">
        <ele>513</ele>
        <time>2017-09-24T12:41:21Z</time>
      </trkpt>
      <trkpt lat="45.26767" lon="5.83453">
        <ele>514</ele>
        <time>2017-09-24T12:41:26Z</time>
      </trkpt>
      <trkpt lat="45.26771" lon="5.8345">
        <ele>515</ele>
        <time>2017-09-24T12:41:31Z</time>
      </trkpt>
      <trkpt lat="45.26776" lon="5.83448">
        <ele>516</ele>
        <time>2017-09-24T12:41:36Z</time>
      </trkpt>
      <trkpt lat="45.26781" lon="5.83446">
        <ele>517</ele>
        <time>2017-09-24T12:41:40Z</time>
      </trkpt>
      <trkpt lat="45.26785" lon="5.83444">
        <ele>517</ele>
        <time>2017-09-24T12:41:44Z</time>
      </trkpt>
      <trkpt lat="45.2679" lon="5.83442">
        <ele>518</ele>
        <time>2017-09-24T12:41:48Z</time>
      </trkpt>
      <trkpt lat="45.26794" lon="5.83439">
        <ele>519</ele>
        <time>2017-09-24T12:41:52Z</time>
      </trkpt>
      <trkpt lat="45.26799" lon="5.83437">
        <ele>520</ele>
        <time>2017-09-24T12:41:56Z</time>
      </trkpt>
      <trkpt lat="45.26804" lon="5.83436">
        <ele>520</ele>
        <time>2017-09-24T12:42:00Z</time>
      </trkpt>
      <trkpt lat="45.26809" lon="5.83434">
        <ele>521</ele>
        <time>2017-09-24T12:42:04Z</time>
      </trkpt>
      <trkpt lat="45.26813" lon="5.8343">
        <ele>522</ele>
        <time>2017-09-24T12:42:08Z</time>
      </trkpt>
      <trkpt lat="45.26817" lon="5.83429">
        <ele>523</ele>
        <time>2017-09-24T12:42:12Z</time>
      </trkpt>
      <trkpt lat="45.26822" lon="5.83425">
        <ele>524</ele>
        <time>2017-09-24T12:42:17Z</time>
      </trkpt>
      <trkpt lat="45.26827" lon="5.83423">
        <ele>525</ele>
        <time>2017-09-24T12:42:21Z</time>
      </trkpt>
      <trkpt lat="45.26832" lon="5.83424">
        <ele>525</ele>
        <time>2017-09-24T12:42:25Z</time>
      </trkpt>
      <trkpt lat="45.26837" lon="5.83423">
        <ele>526</ele>
        <time>2017-09-24T12:42:30Z</time>
      </trkpt>
      <trkpt lat="45.2684" lon="5.83418">
        <ele>527</ele>
        <time>2017-09-24T12:42:34Z</time>
      </trkpt>
      <trkpt lat="45.26844" lon="5.83415">
        <ele>528</ele>
        <time>2017-09-24T12:42:38Z</time>
      </trkpt>
      <trkpt lat="45.26848" lon="5.83413">
        <ele>529</ele>
        <time>2017-09-24T12:42:42Z</time>
      </trkpt>
      <trkpt lat="45.26853" lon="5.83409">
        <ele>530</ele>
        <time>2017-09-24T12:42:47Z</time>
      </trkpt>
      <trkpt lat="45.26858" lon="5.83406">
        <ele>530</ele>
        <time>2017-09-24T12:42:52Z</time>
      </trkpt>
      <trkpt lat="45.26862" lon="5.83404">
        <ele>531</ele>
        <time>2017-09-24T12:42:56Z</time>
      </trkpt>
      <trkpt lat="45.26867" lon="5.83402">
        <ele>532</ele>
        <time>2017-09-24T12:43:00Z</time>
      </trkpt>
      <trkpt lat="45.26872" lon="5.83402">
        <ele>532</ele>
        <time>2017-09-24T12:43:04Z</time>
      </trkpt>
      <trkpt lat="45.26876" lon="5.83399">
        <ele>533</ele>
        <time>2017-09-24T12:43:09Z</time>
      </trkpt>
      <trkpt lat="45.26881" lon="5.83398">
        <ele>533</ele>
        <time>2017-09-24T12:43:14Z</time>
      </trkpt>
      <trkpt lat="45.26886" lon="5.83396">
        <ele>534</ele>
        <time>2017-09-24T12:43:18Z</time>
      </trkpt>
      <trkpt lat="45.26891" lon="5.83394">
        <ele>535</ele>
        <time>2017-09-24T12:43:22Z</time>
      </trkpt>
      <trkpt lat="45.26896" lon="5.83391">
        <ele>535</ele>
        <time>2017-09-24T12:43:26Z</time>
      </trkpt>
      <trkpt lat="45.26901" lon="5.83389">
        <ele>536</ele>
        <time>2017-09-24T12:43:30Z</time>
      </trkpt>
      <trkpt lat="45.26905" lon="5.83386">
        <ele>537</ele>
        <time>2017-09-24T12:43:34Z</time>
      </trkpt>
      <trkpt lat="45.26909" lon="5.83382">
        <ele>537</ele>
        <time>2017-09-24T12:43:38Z</time>
      </trkpt>
      <trkpt lat="45.26914" lon="5.8338">
        <ele>538</ele>
        <time>2017-09-24T12:43:42Z</time>
      </trkpt>
      <trkpt lat="45.26918" lon="5.83378">
        <ele>538</ele>
        <time>2017-09-24T12:43:46Z</time>
      </trkpt>
      <trkpt lat="45.26922" lon="5.83374">
        <ele>539</ele>
        <time>2017-09-24T12:43:50Z</time>
      </trkpt>
      <trkpt lat="45.26926" lon="5.83369">
        <ele>540</ele>
        <time>2017-09-24T12:43:54Z</time>
      </trkpt>
      <trkpt lat="45.26931" lon="5.83367">
        <ele>541</ele>
        <time>2017-09-24T12:43:58Z</time>
      </trkpt>
      <trkpt lat="45.26935" lon="5.83364">
        <ele>541</ele>
        <time>2017-09-24T12:44:02Z</time>
      </trkpt>
      <trkpt lat="45.26939" lon="5.83363">
        <ele>542</ele>
        <time>2017-09-24T12:44:06Z</time>
      </trkpt>
      <trkpt lat="45.26944" lon="5.83361">
        <ele>542</ele>
        <time>2017-09-24T12:44:10Z</time>
      </trkpt>
      <trkpt lat="45.26949" lon="5.83361">
        <ele>543</ele>
        <time>2017-09-24T12:44:14Z</time>
      </trkpt>
      <trkpt lat="45.26954" lon="5.83359">
        <ele>544</ele>
        <time>2017-09-24T12:44:19Z</time>
      </trkpt>
      <trkpt lat="45.26958" lon="5.83356">
        <ele>544</ele>
        <time>2017-09-24T12:44:24Z</time>
      </trkpt>
      <trkpt lat="45.26959" lon="5.83353">
        <ele>545</ele>
        <time>2017-09-24T12:44:42Z</time>
      </trkpt>
      <trkpt lat="45.26959" lon="5.83353">
        <ele>545</ele>
        <time>2017-09-24T12:44:44Z</time>
      </trkpt>
      <trkpt lat="45.26959" lon="5.83354">
        <ele>545</ele>
        <time>2017-09-24T12:45:22Z</time>
      </trkpt>
      <trkpt lat="45.26959" lon="5.83352">
        <ele>545</ele>
        <time>2017-09-24T12:45:37Z</time>
      </trkpt>
      <trkpt lat="45.2696" lon="5.83352">
        <ele>545</ele>
        <time>2017-09-24T12:45:39Z</time>
      </trkpt>
      <trkpt lat="45.26961" lon="5.8335">
        <ele>545</ele>
        <time>2017-09-24T12:48:53Z</time>
      </trkpt>
      <trkpt lat="45.26962" lon="5.83352">
        <ele>545</ele>
        <time>2017-09-24T12:49:11Z</time>
      </trkpt>
      <trkpt lat="45.26967" lon="5.83351">
        <ele>546</ele>
        <time>2017-09-24T12:49:23Z</time>
      </trkpt>
      <trkpt lat="45.26971" lon="5.83348">
        <ele>546</ele>
        <time>2017-09-24T12:49:27Z</time>
      </trkpt>
      <trkpt lat="45.26976" lon="5.8335">
        <ele>547</ele>
        <time>2017-09-24T12:49:31Z</time>
      </trkpt>
      <trkpt lat="45.26981" lon="5.83349">
        <ele>547</ele>
        <time>2017-09-24T12:49:36Z</time>
      </trkpt>
      <trkpt lat="45.26986" lon="5.83347">
        <ele>548</ele>
        <time>2017-09-24T12:49:41Z</time>
      </trkpt>
      <trkpt lat="45.26995" lon="5.83345">
        <ele>549</ele>
        <time>2017-09-24T12:49:51Z</time>
      </trkpt>
      <trkpt lat="45.27" lon="5.83346">
        <ele>550</ele>
        <time>2017-09-24T12:49:56Z</time>
      </trkpt>
      <trkpt lat="45.27005" lon="5.83344">
        <ele>551</ele>
        <time>2017-09-24T12:50:01Z</time>
      </trkpt>
      <trkpt lat="45.2701" lon="5.83344">
        <ele>552</ele>
        <time>2017-09-24T12:50:06Z</time>
      </trkpt>
      <trkpt lat="45.27015" lon="5.83342">
        <ele>552</ele>
        <time>2017-09-24T12:50:11Z</time>
      </trkpt>
      <trkpt lat="45.2702" lon="5.83338">
        <ele>553</ele>
        <time>2017-09-24T12:50:16Z</time>
      </trkpt>
      <trkpt lat="45.27023" lon="5.83335">
        <ele>554</ele>
        <time>2017-09-24T12:50:20Z</time>
      </trkpt>
      <trkpt lat="45.27028" lon="5.83333">
        <ele>555</ele>
        <time>2017-09-24T12:50:24Z</time>
      </trkpt>
      <trkpt lat="45.27033" lon="5.83329">
        <ele>555</ele>
        <time>2017-09-24T12:50:28Z</time>
      </trkpt>
      <trkpt lat="45.27038" lon="5.83327">
        <ele>556</ele>
        <time>2017-09-24T12:50:33Z</time>
      </trkpt>
      <trkpt lat="45.27042" lon="5.83325">
        <ele>557</ele>
        <time>2017-09-24T12:50:37Z</time>
      </trkpt>
      <trkpt lat="45.27047" lon="5.83325">
        <ele>557</ele>
        <time>2017-09-24T12:50:41Z</time>
      </trkpt>
      <trkpt lat="45.27052" lon="5.83324">
        <ele>558</ele>
        <time>2017-09-24T12:50:47Z</time>
      </trkpt>
      <trkpt lat="45.27057" lon="5.83321">
        <ele>559</ele>
        <time>2017-09-24T12:50:52Z</time>
      </trkpt>
      <trkpt lat="45.27062" lon="5.8332">
        <ele>560</ele>
        <time>2017-09-24T12:50:57Z</time>
      </trkpt>
      <trkpt lat="45.27067" lon="5.83322">
        <ele>560</ele>
        <time>2017-09-24T12:51:01Z</time>
      </trkpt>
      <trkpt lat="45.27072" lon="5.83321">
        <ele>561</ele>
        <time>2017-09-24T12:51:05Z</time>
      </trkpt>
      <trkpt lat="45.27077" lon="5.83319">
        <ele>562</ele>
        <time>2017-09-24T12:51:09Z</time>
      </trkpt>
      <trkpt lat="45.27081" lon="5.83317">
        <ele>562</ele>
        <time>2017-09-24T12:51:13Z</time>
      </trkpt>
      <trkpt lat="45.27087" lon="5.83319">
        <ele>563</ele>
        <time>2017-09-24T12:51:19Z</time>
      </trkpt>
      <trkpt lat="45.27091" lon="5.83322">
        <ele>563</ele>
        <time>2017-09-24T12:51:23Z</time>
      </trkpt>
      <trkpt lat="45.27096" lon="5.83324">
        <ele>564</ele>
        <time>2017-09-24T12:51:28Z</time>
      </trkpt>
      <trkpt lat="45.271" lon="5.83323">
        <ele>565</ele>
        <time>2017-09-24T12:51:32Z</time>
      </trkpt>
      <trkpt lat="45.27105" lon="5.83319">
        <ele>565</ele>
        <time>2017-09-24T12:51:36Z</time>
      </trkpt>
      <trkpt lat="45.2711" lon="5.83318">
        <ele>566</ele>
        <time>2017-09-24T12:51:40Z</time>
      </trkpt>
      <trkpt lat="45.27114" lon="5.83317">
        <ele>567</ele>
        <time>2017-09-24T12:51:44Z</time>
      </trkpt>
      <trkpt lat="45.27124" lon="5.83318">
        <ele>568</ele>
        <time>2017-09-24T12:51:52Z</time>
      </trkpt>
      <trkpt lat="45.27128" lon="5.83319">
        <ele>568</ele>
        <time>2017-09-24T12:51:56Z</time>
      </trkpt>
      <trkpt lat="45.27133" lon="5.83321">
        <ele>569</ele>
        <time>2017-09-24T12:52:00Z</time>
      </trkpt>
      <trkpt lat="45.27138" lon="5.83322">
        <ele>569</ele>
        <time>2017-09-24T12:52:04Z</time>
      </trkpt>
      <trkpt lat="45.27143" lon="5.83321">
        <ele>570</ele>
        <time>2017-09-24T12:52:09Z</time>
      </trkpt>
      <trkpt lat="45.27148" lon="5.8332">
        <ele>571</ele>
        <time>2017-09-24T12:52:13Z</time>
      </trkpt>
      <trkpt lat="45.27152" lon="5.83316">
        <ele>571</ele>
        <time>2017-09-24T12:52:17Z</time>
      </trkpt>
      <trkpt lat="45.27156" lon="5.83312">
        <ele>572</ele>
        <time>2017-09-24T12:52:21Z</time>
      </trkpt>
      <trkpt lat="45.27156" lon="5.83313">
        <ele>572</ele>
        <time>2017-09-24T12:54:06Z</time>
      </trkpt>
      <trkpt lat="45.27161" lon="5.83314">
        <ele>573</ele>
        <time>2017-09-24T12:54:09Z</time>
      </trkpt>
      <trkpt lat="45.27166" lon="5.83316">
        <ele>573</ele>
        <time>2017-09-24T12:54:12Z</time>
      </trkpt>
      <trkpt lat="45.27172" lon="5.83315">
        <ele>574</ele>
        <time>2017-09-24T12:54:15Z</time>
      </trkpt>
      <trkpt lat="45.27178" lon="5.83315">
        <ele>575</ele>
        <time>2017-09-24T12:54:19Z</time>
      </trkpt>
      <trkpt lat="45.27184" lon="5.83316">
        <ele>575</ele>
        <time>2017-09-24T12:54:23Z</time>
      </trkpt>
      <trkpt lat="45.27189" lon="5.83316">
        <ele>576</ele>
        <time>2017-09-24T12:54:27Z</time>
      </trkpt>
      <trkpt lat="45.27194" lon="5.83318">
        <ele>576</ele>
        <time>2017-09-24T12:54:31Z</time>
      </trkpt>
      <trkpt lat="45.27199" lon="5.83318">
        <ele>577</ele>
        <time>2017-09-24T12:54:35Z</time>
      </trkpt>
      <trkpt lat="45.27204" lon="5.83316">
        <ele>578</ele>
        <time>2017-09-24T12:54:39Z</time>
      </trkpt>
      <trkpt lat="45.27208" lon="5.83316">
        <ele>578</ele>
        <time>2017-09-24T12:54:43Z</time>
      </trkpt>
      <trkpt lat="45.27213" lon="5.83315">
        <ele>579</ele>
        <time>2017-09-24T12:54:47Z</time>
      </trkpt>
      <trkpt lat="45.27218" lon="5.83318">
        <ele>579</ele>
        <time>2017-09-24T12:54:51Z</time>
      </trkpt>
      <trkpt lat="45.27222" lon="5.8332">
        <ele>580</ele>
        <time>2017-09-24T12:54:55Z</time>
      </trkpt>
      <trkpt lat="45.27227" lon="5.83319">
        <ele>580</ele>
        <time>2017-09-24T12:54:59Z</time>
      </trkpt>
      <trkpt lat="45.27232" lon="5.83319">
        <ele>581</ele>
        <time>2017-09-24T12:55:03Z</time>
      </trkpt>
      <trkpt lat="45.27237" lon="5.8332">
        <ele>582</ele>
        <time>2017-09-24T12:55:07Z</time>
      </trkpt>
      <trkpt lat="45.27242" lon="5.83321">
        <ele>582</ele>
        <time>2017-09-24T12:55:12Z</time>
      </trkpt>
      <trkpt lat="45.27247" lon="5.83322">
        <ele>583</ele>
        <time>2017-09-24T12:55:16Z</time>
      </trkpt>
      <trkpt lat="45.27251" lon="5.83324">
        <ele>583</ele>
        <time>2017-09-24T12:55:20Z</time>
      </trkpt>
      <trkpt lat="45.27256" lon="5.83324">
        <ele>584</ele>
        <time>2017-09-24T12:55:25Z</time>
      </trkpt>
      <trkpt lat="45.27261" lon="5.83323">
        <ele>585</ele>
        <time>2017-09-24T12:55:29Z</time>
      </trkpt>
      <trkpt lat="45.27266" lon="5.83322">
        <ele>585</ele>
        <time>2017-09-24T12:55:33Z</time>
      </trkpt>
      <trkpt lat="45.27271" lon="5.83323">
        <ele>586</ele>
        <time>2017-09-24T12:55:37Z</time>
      </trkpt>
      <trkpt lat="45.27276" lon="5.83323">
        <ele>587</ele>
        <time>2017-09-24T12:55:41Z</time>
      </trkpt>
      <trkpt lat="45.27281" lon="5.83324">
        <ele>587</ele>
        <time>2017-09-24T12:55:45Z</time>
      </trkpt>
      <trkpt lat="45.27287" lon="5.83324">
        <ele>588</ele>
        <time>2017-09-24T12:55:50Z</time>
      </trkpt>
      <trkpt lat="45.27291" lon="5.83323">
        <ele>589</ele>
        <time>2017-09-24T12:55:54Z</time>
      </trkpt>
      <trkpt lat="45.27295" lon="5.83321">
        <ele>590</ele>
        <time>2017-09-24T12:55:58Z</time>
      </trkpt>
      <trkpt lat="45.273" lon="5.8332">
        <ele>590</ele>
        <time>2017-09-24T12:56:02Z</time>
      </trkpt>
      <trkpt lat="45.27305" lon="5.83319">
        <ele>591</ele>
        <time>2017-09-24T12:56:06Z</time>
      </trkpt>
      <trkpt lat="45.2731" lon="5.83318">
        <ele>592</ele>
        <time>2017-09-24T12:56:10Z</time>
      </trkpt>
      <trkpt lat="45.27314" lon="5.83318">
        <ele>593</ele>
        <time>2017-09-24T12:56:14Z</time>
      </trkpt>
      <trkpt lat="45.2732" lon="5.83317">
        <ele>594</ele>
        <time>2017-09-24T12:56:19Z</time>
      </trkpt>
      <trkpt lat="45.27324" lon="5.83316">
        <ele>594</ele>
        <time>2017-09-24T12:56:23Z</time>
      </trkpt>
      <trkpt lat="45.2733" lon="5.83316">
        <ele>595</ele>
        <time>2017-09-24T12:56:28Z</time>
      </trkpt>
      <trkpt lat="45.27335" lon="5.83315">
        <ele>596</ele>
        <time>2017-09-24T12:56:33Z</time>
      </trkpt>
      <trkpt lat="45.2734" lon="5.83314">
        <ele>597</ele>
        <time>2017-09-24T12:56:38Z</time>
      </trkpt>
      <trkpt lat="45.27345" lon="5.8331">
        <ele>598</ele>
        <time>2017-09-24T12:56:42Z</time>
      </trkpt>
      <trkpt lat="45.2735" lon="5.83309">
        <ele>599</ele>
        <time>2017-09-24T12:56:47Z</time>
      </trkpt>
      <trkpt lat="45.27355" lon="5.83306">
        <ele>600</ele>
        <time>2017-09-24T12:56:52Z</time>
      </trkpt>
      <trkpt lat="45.2736" lon="5.83305">
        <ele>601</ele>
        <time>2017-09-24T12:56:57Z</time>
      </trkpt>
      <trkpt lat="45.27365" lon="5.83304">
        <ele>601</ele>
        <time>2017-09-24T12:57:01Z</time>
      </trkpt>
      <trkpt lat="45.27369" lon="5.83308">
        <ele>602</ele>
        <time>2017-09-24T12:57:05Z</time>
      </trkpt>
      <trkpt lat="45.27373" lon="5.8331">
        <ele>603</ele>
        <time>2017-09-24T12:57:09Z</time>
      </trkpt>
      <trkpt lat="45.27378" lon="5.83308">
        <ele>603</ele>
        <time>2017-09-24T12:57:14Z</time>
      </trkpt>
      <trkpt lat="45.27383" lon="5.83308">
        <ele>604</ele>
        <time>2017-09-24T12:57:19Z</time>
      </trkpt>
      <trkpt lat="45.27389" lon="5.83309">
        <ele>605</ele>
        <time>2017-09-24T12:57:24Z</time>
      </trkpt>
      <trkpt lat="45.27394" lon="5.83309">
        <ele>606</ele>
        <time>2017-09-24T12:57:28Z</time>
      </trkpt>
      <trkpt lat="45.27399" lon="5.83308">
        <ele>607</ele>
        <time>2017-09-24T12:57:32Z</time>
      </trkpt>
      <trkpt lat="45.27404" lon="5.83308">
        <ele>608</ele>
        <time>2017-09-24T12:57:37Z</time>
      </trkpt>
      <trkpt lat="45.27409" lon="5.83307">
        <ele>609</ele>
        <time>2017-09-24T12:57:42Z</time>
      </trkpt>
      <trkpt lat="45.27414" lon="5.83306">
        <ele>609</ele>
        <time>2017-09-24T12:57:46Z</time>
      </trkpt>
      <trkpt lat="45.27419" lon="5.83303">
        <ele>610</ele>
        <time>2017-09-24T12:57:50Z</time>
      </trkpt>
      <trkpt lat="45.27423" lon="5.83299">
        <ele>611</ele>
        <time>2017-09-24T12:57:54Z</time>
      </trkpt>
      <trkpt lat="45.27428" lon="5.833">
        <ele>612</ele>
        <time>2017-09-24T12:57:58Z</time>
      </trkpt>
      <trkpt lat="45.27433" lon="5.83303">
        <ele>613</ele>
        <time>2017-09-24T12:58:02Z</time>
      </trkpt>
      <trkpt lat="45.27436" lon="5.83309">
        <ele>614</ele>
        <time>2017-09-24T12:58:05Z</time>
      </trkpt>
      <trkpt lat="45.27441" lon="5.83312">
        <ele>615</ele>
        <time>2017-09-24T12:58:08Z</time>
      </trkpt>
      <trkpt lat="45.27447" lon="5.83313">
        <ele>616</ele>
        <time>2017-09-24T12:58:12Z</time>
      </trkpt>
      <trkpt lat="45.27449" lon="5.83307">
        <ele>616</ele>
        <time>2017-09-24T12:58:16Z</time>
      </trkpt>
      <trkpt lat="45.27453" lon="5.8331">
        <ele>617</ele>
        <time>2017-09-24T12:58:21Z</time>
      </trkpt>
      <trkpt lat="45.27457" lon="5.83314">
        <ele>618</ele>
        <time>2017-09-24T12:58:27Z</time>
      </trkpt>
      <trkpt lat="45.27462" lon="5.83317">
        <ele>619</ele>
        <time>2017-09-24T12:58:31Z</time>
      </trkpt>
      <trkpt lat="45.27466" lon="5.83319">
        <ele>620</ele>
        <time>2017-09-24T12:58:35Z</time>
      </trkpt>
      <trkpt lat="45.2747" lon="5.83323">
        <ele>621</ele>
        <time>2017-09-24T12:58:40Z</time>
      </trkpt>
      <trkpt lat="45.27475" lon="5.83326">
        <ele>622</ele>
        <time>2017-09-24T12:58:45Z</time>
      </trkpt>
      <trkpt lat="45.27479" lon="5.83328">
        <ele>623</ele>
        <time>2017-09-24T12:58:50Z</time>
      </trkpt>
      <trkpt lat="45.27484" lon="5.83329">
        <ele>624</ele>
        <time>2017-09-24T12:58:54Z</time>
      </trkpt>
      <trkpt lat="45.27488" lon="5.83332">
        <ele>625</ele>
        <time>2017-09-24T12:58:58Z</time>
      </trkpt>
      <trkpt lat="45.27493" lon="5.83333">
        <ele>627</ele>
        <time>2017-09-24T12:59:02Z</time>
      </trkpt>
      <trkpt lat="45.27498" lon="5.83335">
        <ele>628</ele>
        <time>2017-09-24T12:59:05Z</time>
      </trkpt>
      <trkpt lat="45.27502" lon="5.83336">
        <ele>629</ele>
        <time>2017-09-24T12:59:08Z</time>
      </trkpt>
      <trkpt lat="45.27505" lon="5.83342">
        <ele>630</ele>
        <time>2017-09-24T12:59:12Z</time>
      </trkpt>
      <trkpt lat="45.2751" lon="5.83344">
        <ele>631</ele>
        <time>2017-09-24T12:59:17Z</time>
      </trkpt>
      <trkpt lat="45.27513" lon="5.83339">
        <ele>631</ele>
        <time>2017-09-24T12:59:21Z</time>
      </trkpt>
      <trkpt lat="45.27517" lon="5.83338">
        <ele>632</ele>
        <time>2017-09-24T12:59:25Z</time>
      </trkpt>
      <trkpt lat="45.27524" lon="5.8334">
        <ele>633</ele>
        <time>2017-09-24T12:59:30Z</time>
      </trkpt>
      <trkpt lat="45.27528" lon="5.83344">
        <ele>635</ele>
        <time>2017-09-24T12:59:34Z</time>
      </trkpt>
      <trkpt lat="45.27533" lon="5.83344">
        <ele>636</ele>
        <time>2017-09-24T12:59:37Z</time>
      </trkpt>
      <trkpt lat="45.27538" lon="5.83348">
        <ele>637</ele>
        <time>2017-09-24T12:59:41Z</time>
      </trkpt>
      <trkpt lat="45.27542" lon="5.83352">
        <ele>639</ele>
        <time>2017-09-24T12:59:43Z</time>
      </trkpt>
      <trkpt lat="45.27545" lon="5.83346">
        <ele>639</ele>
        <time>2017-09-24T12:59:47Z</time>
      </trkpt>
      <trkpt lat="45.27546" lon="5.83339">
        <ele>638</ele>
        <time>2017-09-24T12:59:50Z</time>
      </trkpt>
      <trkpt lat="45.27552" lon="5.83332">
        <ele>638</ele>
        <time>2017-09-24T12:59:57Z</time>
      </trkpt>
      <trkpt lat="45.27556" lon="5.83338">
        <ele>640</ele>
        <time>2017-09-24T12:59:59Z</time>
      </trkpt>
      <trkpt lat="45.27559" lon="5.83343">
        <ele>641</ele>
        <time>2017-09-24T13:00:01Z</time>
      </trkpt>
      <trkpt lat="45.27564" lon="5.83345">
        <ele>643</ele>
        <time>2017-09-24T13:00:03Z</time>
      </trkpt>
      <trkpt lat="45.27568" lon="5.83346">
        <ele>644</ele>
        <time>2017-09-24T13:00:06Z</time>
      </trkpt>
      <trkpt lat="45.27573" lon="5.83347">
        <ele>645</ele>
        <time>2017-09-24T13:00:13Z</time>
      </trkpt>
      <trkpt lat="45.27579" lon="5.83343">
        <ele>646</ele>
        <time>2017-09-24T13:00:17Z</time>
      </trkpt>
      <trkpt lat="45.27584" lon="5.83341">
        <ele>647</ele>
        <time>2017-09-24T13:00:20Z</time>
      </trkpt>
      <trkpt lat="45.27587" lon="5.83336">
        <ele>646</ele>
        <time>2017-09-24T13:00:24Z</time>
      </trkpt>
      <trkpt lat="45.27592" lon="5.83331">
        <ele>647</ele>
        <time>2017-09-24T13:00:28Z</time>
      </trkpt>
      <trkpt lat="45.27595" lon="5.83326">
        <ele>646</ele>
        <time>2017-09-24T13:00:32Z</time>
      </trkpt>
      <trkpt lat="45.276" lon="5.83323">
        <ele>647</ele>
        <time>2017-09-24T13:00:39Z</time>
      </trkpt>
      <trkpt lat="45.27607" lon="5.83317">
        <ele>648</ele>
        <time>2017-09-24T13:00:51Z</time>
      </trkpt>
      <trkpt lat="45.27607" lon="5.8331">
        <ele>647</ele>
        <time>2017-09-24T13:00:54Z</time>
      </trkpt>
      <trkpt lat="45.27609" lon="5.83302">
        <ele>646</ele>
        <time>2017-09-24T13:00:56Z</time>
      </trkpt>
      <trkpt lat="45.27612" lon="5.83297">
        <ele>647</ele>
        <time>2017-09-24T13:00:58Z</time>
      </trkpt>
      <trkpt lat="45.27617" lon="5.83296">
        <ele>648</ele>
        <time>2017-09-24T13:01:00Z</time>
      </trkpt>
      <trkpt lat="45.27622" lon="5.83298">
        <ele>650</ele>
        <time>2017-09-24T13:01:02Z</time>
      </trkpt>
      <trkpt lat="45.27626" lon="5.83298">
        <ele>651</ele>
        <time>2017-09-24T13:01:09Z</time>
      </trkpt>
      <trkpt lat="45.27625" lon="5.8329">
        <ele>650</ele>
        <time>2017-09-24T13:01:15Z</time>
      </trkpt>
      <trkpt lat="45.27628" lon="5.83285">
        <ele>651</ele>
        <time>2017-09-24T13:01:18Z</time>
      </trkpt>
      <trkpt lat="45.27632" lon="5.83281">
        <ele>652</ele>
        <time>2017-09-24T13:01:20Z</time>
      </trkpt>
      <trkpt lat="45.27636" lon="5.83278">
        <ele>652</ele>
        <time>2017-09-24T13:01:24Z</time>
      </trkpt>
      <trkpt lat="45.27641" lon="5.83275">
        <ele>654</ele>
        <time>2017-09-24T13:01:29Z</time>
      </trkpt>
      <trkpt lat="45.27645" lon="5.83272">
        <ele>654</ele>
        <time>2017-09-24T13:01:35Z</time>
      </trkpt>
      <trkpt lat="45.27646" lon="5.83265">
        <ele>654</ele>
        <time>2017-09-24T13:01:38Z</time>
      </trkpt>
      <trkpt lat="45.27646" lon="5.83258">
        <ele>653</ele>
        <time>2017-09-24T13:01:42Z</time>
      </trkpt>
      <trkpt lat="45.27652" lon="5.83258">
        <ele>655</ele>
        <time>2017-09-24T13:01:47Z</time>
      </trkpt>
      <trkpt lat="45.27657" lon="5.83261">
        <ele>656</ele>
        <time>2017-09-24T13:01:52Z</time>
      </trkpt>
      <trkpt lat="45.27664" lon="5.83265">
        <ele>659</ele>
        <time>2017-09-24T13:01:56Z</time>
      </trkpt>
      <trkpt lat="45.27669" lon="5.83265">
        <ele>660</ele>
        <time>2017-09-24T13:01:58Z</time>
      </trkpt>
      <trkpt lat="45.27673" lon="5.83262">
        <ele>660</ele>
        <time>2017-09-24T13:02:04Z</time>
      </trkpt>
      <trkpt lat="45.27677" lon="5.83257">
        <ele>661</ele>
        <time>2017-09-24T13:02:11Z</time>
      </trkpt>
      <trkpt lat="45.27682" lon="5.83257">
        <ele>662</ele>
        <time>2017-09-24T13:02:16Z</time>
      </trkpt>
      <trkpt lat="45.27686" lon="5.83259">
        <ele>663</ele>
        <time>2017-09-24T13:02:20Z</time>
      </trkpt>
      <trkpt lat="45.27692" lon="5.83262">
        <ele>665</ele>
        <time>2017-09-24T13:02:24Z</time>
      </trkpt>
      <trkpt lat="45.27696" lon="5.83263">
        <ele>666</ele>
        <time>2017-09-24T13:02:26Z</time>
      </trkpt>
      <trkpt lat="45.277" lon="5.83257">
        <ele>666</ele>
        <time>2017-09-24T13:02:28Z</time>
      </trkpt>
      <trkpt lat="45.27702" lon="5.83248">
        <ele>665</ele>
        <time>2017-09-24T13:02:30Z</time>
      </trkpt>
      <trkpt lat="45.27703" lon="5.83241">
        <ele>664</ele>
        <time>2017-09-24T13:02:32Z</time>
      </trkpt>
      <trkpt lat="45.27709" lon="5.83243">
        <ele>666</ele>
        <time>2017-09-24T13:02:40Z</time>
      </trkpt>
      <trkpt lat="45.27718" lon="5.83273">
        <ele>674</ele>
        <time>2017-09-24T13:02:41Z</time>
      </trkpt>
      <trkpt lat="45.27723" lon="5.83279">
        <ele>676</ele>
        <time>2017-09-24T13:02:44Z</time>
      </trkpt>
      <trkpt lat="45.27725" lon="5.83285">
        <ele>678</ele>
        <time>2017-09-24T13:02:46Z</time>
      </trkpt>
      <trkpt lat="45.27728" lon="5.8329">
        <ele>680</ele>
        <time>2017-09-24T13:02:48Z</time>
      </trkpt>
      <trkpt lat="45.27729" lon="5.83282">
        <ele>678</ele>
        <time>2017-09-24T13:02:51Z</time>
      </trkpt>
      <trkpt lat="45.27731" lon="5.83276">
        <ele>678</ele>
        <time>2017-09-24T13:02:53Z</time>
      </trkpt>
      <trkpt lat="45.27735" lon="5.83271">
        <ele>678</ele>
        <time>2017-09-24T13:02:56Z</time>
      </trkpt>
      <trkpt lat="45.2774" lon="5.83268">
        <ele>678</ele>
        <time>2017-09-24T13:02:59Z</time>
      </trkpt>
      <trkpt lat="45.27744" lon="5.83269">
        <ele>680</ele>
        <time>2017-09-24T13:03:03Z</time>
      </trkpt>
      <trkpt lat="45.27749" lon="5.83263">
        <ele>679</ele>
        <time>2017-09-24T13:03:07Z</time>
      </trkpt>
      <trkpt lat="45.27753" lon="5.83257">
        <ele>679</ele>
        <time>2017-09-24T13:03:10Z</time>
      </trkpt>
      <trkpt lat="45.27756" lon="5.8325">
        <ele>678</ele>
        <time>2017-09-24T13:03:13Z</time>
      </trkpt>
      <trkpt lat="45.27755" lon="5.83243">
        <ele>676</ele>
        <time>2017-09-24T13:03:15Z</time>
      </trkpt>
      <trkpt lat="45.2776" lon="5.8324">
        <ele>677</ele>
        <time>2017-09-24T13:03:20Z</time>
      </trkpt>
      <trkpt lat="45.27764" lon="5.83244">
        <ele>679</ele>
        <time>2017-09-24T13:03:22Z</time>
      </trkpt>
      <trkpt lat="45.27768" lon="5.83248">
        <ele>681</ele>
        <time>2017-09-24T13:03:25Z</time>
      </trkpt>
      <trkpt lat="45.27773" lon="5.83249">
        <ele>682</ele>
        <time>2017-09-24T13:03:28Z</time>
      </trkpt>
      <trkpt lat="45.27778" lon="5.83248">
        <ele>683</ele>
        <time>2017-09-24T13:03:33Z</time>
      </trkpt>
      <trkpt lat="45.2778" lon="5.83239">
        <ele>681</ele>
        <time>2017-09-24T13:03:36Z</time>
      </trkpt>
      <trkpt lat="45.27776" lon="5.83234">
        <ele>680</ele>
        <time>2017-09-24T13:03:53Z</time>
      </trkpt>
      <trkpt lat="45.27775" lon="5.83235">
        <ele>679</ele>
        <time>2017-09-24T13:04:18Z</time>
      </trkpt>
      <trkpt lat="45.27777" lon="5.83236">
        <ele>680</ele>
        <time>2017-09-24T13:07:02Z</time>
      </trkpt>
      <trkpt lat="45.27783" lon="5.83235">
        <ele>681</ele>
        <time>2017-09-24T13:07:05Z</time>
      </trkpt>
      <trkpt lat="45.27789" lon="5.83236">
        <ele>683</ele>
        <time>2017-09-24T13:07:07Z</time>
      </trkpt>
      <trkpt lat="45.27794" lon="5.83236">
        <ele>684</ele>
        <time>2017-09-24T13:07:09Z</time>
      </trkpt>
      <trkpt lat="45.278" lon="5.83236">
        <ele>685</ele>
        <time>2017-09-24T13:07:12Z</time>
      </trkpt>
      <trkpt lat="45.27805" lon="5.83236">
        <ele>686</ele>
        <time>2017-09-24T13:07:15Z</time>
      </trkpt>
      <trkpt lat="45.27808" lon="5.8324">
        <ele>688</ele>
        <time>2017-09-24T13:07:19Z</time>
      </trkpt>
      <trkpt lat="45.27813" lon="5.83243">
        <ele>691</ele>
        <time>2017-09-24T13:07:25Z</time>
      </trkpt>
      <trkpt lat="45.27819" lon="5.83239">
        <ele>691</ele>
        <time>2017-09-24T13:07:29Z</time>
      </trkpt>
      <trkpt lat="45.27823" lon="5.83235">
        <ele>690</ele>
        <time>2017-09-24T13:07:32Z</time>
      </trkpt>
      <trkpt lat="45.27826" lon="5.8323">
        <ele>691</ele>
        <time>2017-09-24T13:07:35Z</time>
      </trkpt>
      <trkpt lat="45.27831" lon="5.83226">
        <ele>691</ele>
        <time>2017-09-24T13:07:39Z</time>
      </trkpt>
      <trkpt lat="45.27835" lon="5.83223">
        <ele>692</ele>
        <time>2017-09-24T13:07:43Z</time>
      </trkpt>
      <trkpt lat="45.27839" lon="5.8322">
        <ele>692</ele>
        <time>2017-09-24T13:07:47Z</time>
      </trkpt>
      <trkpt lat="45.27844" lon="5.83218">
        <ele>693</ele>
        <time>2017-09-24T13:07:51Z</time>
      </trkpt>
      <trkpt lat="45.27849" lon="5.83216">
        <ele>694</ele>
        <time>2017-09-24T13:07:56Z</time>
      </trkpt>
      <trkpt lat="45.27859" lon="5.83216">
        <ele>696</ele>
        <time>2017-09-24T13:08:07Z</time>
      </trkpt>
      <trkpt lat="45.27863" lon="5.83218">
        <ele>698</ele>
        <time>2017-09-24T13:08:11Z</time>
      </trkpt>
      <trkpt lat="45.27867" lon="5.83221">
        <ele>699</ele>
        <time>2017-09-24T13:08:16Z</time>
      </trkpt>
      <trkpt lat="45.27872" lon="5.8322">
        <ele>700</ele>
        <time>2017-09-24T13:08:21Z</time>
      </trkpt>
      <trkpt lat="45.27874" lon="5.83215">
        <ele>700</ele>
        <time>2017-09-24T13:08:33Z</time>
      </trkpt>
      <trkpt lat="45.27878" lon="5.83215">
        <ele>700</ele>
        <time>2017-09-24T13:08:54Z</time>
      </trkpt>
      <trkpt lat="45.27879" lon="5.83217">
        <ele>701</ele>
        <time>2017-09-24T13:08:55Z</time>
      </trkpt>
      <trkpt lat="45.27884" lon="5.8322">
        <ele>703</ele>
        <time>2017-09-24T13:08:58Z</time>
      </trkpt>
      <trkpt lat="45.2789" lon="5.83222">
        <ele>704</ele>
        <time>2017-09-24T13:09:02Z</time>
      </trkpt>
      <trkpt lat="45.27895" lon="5.83223">
        <ele>706</ele>
        <time>2017-09-24T13:09:05Z</time>
      </trkpt>
      <trkpt lat="45.279" lon="5.8322">
        <ele>706</ele>
        <time>2017-09-24T13:09:08Z</time>
      </trkpt>
      <trkpt lat="45.27905" lon="5.83223">
        <ele>708</ele>
        <time>2017-09-24T13:09:12Z</time>
      </trkpt>
      <trkpt lat="45.27909" lon="5.83227">
        <ele>710</ele>
        <time>2017-09-24T13:09:16Z</time>
      </trkpt>
      <trkpt lat="45.27914" lon="5.83223">
        <ele>710</ele>
        <time>2017-09-24T13:09:20Z</time>
      </trkpt>
      <trkpt lat="45.27918" lon="5.83221">
        <ele>710</ele>
        <time>2017-09-24T13:09:24Z</time>
      </trkpt>
      <trkpt lat="45.27922" lon="5.83218">
        <ele>711</ele>
        <time>2017-09-24T13:09:28Z</time>
      </trkpt>
      <trkpt lat="45.27927" lon="5.83215">
        <ele>711</ele>
        <time>2017-09-24T13:09:32Z</time>
      </trkpt>
      <trkpt lat="45.27932" lon="5.83213">
        <ele>712</ele>
        <time>2017-09-24T13:09:36Z</time>
      </trkpt>
      <trkpt lat="45.27937" lon="5.83211">
        <ele>712</ele>
        <time>2017-09-24T13:09:40Z</time>
      </trkpt>
      <trkpt lat="45.27941" lon="5.83209">
        <ele>712</ele>
        <time>2017-09-24T13:09:44Z</time>
      </trkpt>
      <trkpt lat="45.27946" lon="5.83206">
        <ele>713</ele>
        <time>2017-09-24T13:09:49Z</time>
      </trkpt>
      <trkpt lat="45.27951" lon="5.83207">
        <ele>714</ele>
        <time>2017-09-24T13:09:55Z</time>
      </trkpt>
      <trkpt lat="45.27955" lon="5.8321">
        <ele>716</ele>
        <time>2017-09-24T13:09:59Z</time>
      </trkpt>
      <trkpt lat="45.27961" lon="5.83211">
        <ele>717</ele>
        <time>2017-09-24T13:10:04Z</time>
      </trkpt>
      <trkpt lat="45.27966" lon="5.83213">
        <ele>719</ele>
        <time>2017-09-24T13:10:08Z</time>
      </trkpt>
      <trkpt lat="45.27971" lon="5.83213">
        <ele>720</ele>
        <time>2017-09-24T13:10:13Z</time>
      </trkpt>
      <trkpt lat="45.27975" lon="5.83214">
        <ele>721</ele>
        <time>2017-09-24T13:10:18Z</time>
      </trkpt>
      <trkpt lat="45.2798" lon="5.83213">
        <ele>721</ele>
        <time>2017-09-24T13:10:23Z</time>
      </trkpt>
      <trkpt lat="45.27984" lon="5.83209">
        <ele>721</ele>
        <time>2017-09-24T13:10:27Z</time>
      </trkpt>
      <trkpt lat="45.27988" lon="5.83204">
        <ele>721</ele>
        <time>2017-09-24T13:10:31Z</time>
      </trkpt>
      <trkpt lat="45.27993" lon="5.832">
        <ele>721</ele>
        <time>2017-09-24T13:10:36Z</time>
      </trkpt>
      <trkpt lat="45.27998" lon="5.83198">
        <ele>721</ele>
        <time>2017-09-24T13:10:41Z</time>
      </trkpt>
      <trkpt lat="45.28003" lon="5.83198">
        <ele>722</ele>
        <time>2017-09-24T13:10:47Z</time>
      </trkpt>
      <trkpt lat="45.28008" lon="5.83196">
        <ele>723</ele>
        <time>2017-09-24T13:10:52Z</time>
      </trkpt>
      <trkpt lat="45.28013" lon="5.83197">
        <ele>724</ele>
        <time>2017-09-24T13:10:57Z</time>
      </trkpt>
      <trkpt lat="45.28018" lon="5.83197">
        <ele>725</ele>
        <time>2017-09-24T13:11:02Z</time>
      </trkpt>
      <trkpt lat="45.28022" lon="5.83196">
        <ele>726</ele>
        <time>2017-09-24T13:11:07Z</time>
      </trkpt>
      <trkpt lat="45.28028" lon="5.83196">
        <ele>727</ele>
        <time>2017-09-24T13:11:13Z</time>
      </trkpt>
      <trkpt lat="45.28032" lon="5.83194">
        <ele>728</ele>
        <time>2017-09-24T13:11:18Z</time>
      </trkpt>
      <trkpt lat="45.28037" lon="5.83193">
        <ele>729</ele>
        <time>2017-09-24T13:11:24Z</time>
      </trkpt>
      <trkpt lat="45.28043" lon="5.83191">
        <ele>729</ele>
        <time>2017-09-24T13:11:29Z</time>
      </trkpt>
      <trkpt lat="45.28047" lon="5.83186">
        <ele>729</ele>
        <time>2017-09-24T13:11:32Z</time>
      </trkpt>
      <trkpt lat="45.28051" lon="5.83181">
        <ele>729</ele>
        <time>2017-09-24T13:11:35Z</time>
      </trkpt>
      <trkpt lat="45.28054" lon="5.83173">
        <ele>727</ele>
        <time>2017-09-24T13:11:38Z</time>
      </trkpt>
      <trkpt lat="45.28057" lon="5.83168">
        <ele>727</ele>
        <time>2017-09-24T13:11:42Z</time>
      </trkpt>
      <trkpt lat="45.2806" lon="5.8316">
        <ele>727</ele>
        <time>2017-09-24T13:11:51Z</time>
      </trkpt>
      <trkpt lat="45.28062" lon="5.83153">
        <ele>727</ele>
        <time>2017-09-24T13:11:54Z</time>
      </trkpt>
      <trkpt lat="45.28066" lon="5.83147">
        <ele>728</ele>
        <time>2017-09-24T13:11:57Z</time>
      </trkpt>
      <trkpt lat="45.28069" lon="5.83142">
        <ele>729</ele>
        <time>2017-09-24T13:12:00Z</time>
      </trkpt>
      <trkpt lat="45.28071" lon="5.83136">
        <ele>729</ele>
        <time>2017-09-24T13:12:03Z</time>
      </trkpt>
      <trkpt lat="45.28073" lon="5.83129">
        <ele>729</ele>
        <time>2017-09-24T13:12:06Z</time>
      </trkpt>
      <trkpt lat="45.28075" lon="5.83122">
        <ele>729</ele>
        <time>2017-09-24T13:12:09Z</time>
      </trkpt>
      <trkpt lat="45.28077" lon="5.83115">
        <ele>730</ele>
        <time>2017-09-24T13:12:12Z</time>
      </trkpt>
      <trkpt lat="45.2808" lon="5.83109">
        <ele>730</ele>
        <time>2017-09-24T13:12:15Z</time>
      </trkpt>
      <trkpt lat="45.28082" lon="5.83102">
        <ele>730</ele>
        <time>2017-09-24T13:12:18Z</time>
      </trkpt>
      <trkpt lat="45.28084" lon="5.83097">
        <ele>731</ele>
        <time>2017-09-24T13:12:21Z</time>
      </trkpt>
      <trkpt lat="45.28086" lon="5.8309">
        <ele>731</ele>
        <time>2017-09-24T13:12:25Z</time>
      </trkpt>
      <trkpt lat="45.28088" lon="5.83083">
        <ele>732</ele>
        <time>2017-09-24T13:12:30Z</time>
      </trkpt>
      <trkpt lat="45.2809" lon="5.83075">
        <ele>733</ele>
        <time>2017-09-24T13:12:36Z</time>
      </trkpt>
      <trkpt lat="45.28091" lon="5.83068">
        <ele>733</ele>
        <time>2017-09-24T13:12:41Z</time>
      </trkpt>
      <trkpt lat="45.28092" lon="5.8306">
        <ele>734</ele>
        <time>2017-09-24T13:12:45Z</time>
      </trkpt>
      <trkpt lat="45.28093" lon="5.83053">
        <ele>734</ele>
        <time>2017-09-24T13:12:49Z</time>
      </trkpt>
      <trkpt lat="45.28095" lon="5.83045">
        <ele>735</ele>
        <time>2017-09-24T13:12:53Z</time>
      </trkpt>
      <trkpt lat="45.28095" lon="5.83037">
        <ele>735</ele>
        <time>2017-09-24T13:12:57Z</time>
      </trkpt>
      <trkpt lat="45.28095" lon="5.83029">
        <ele>736</ele>
        <time>2017-09-24T13:13:01Z</time>
      </trkpt>
      <trkpt lat="45.28096" lon="5.83023">
        <ele>737</ele>
        <time>2017-09-24T13:13:04Z</time>
      </trkpt>
      <trkpt lat="45.28096" lon="5.83016">
        <ele>737</ele>
        <time>2017-09-24T13:13:07Z</time>
      </trkpt>
      <trkpt lat="45.28097" lon="5.82994">
        <ele>740</ele>
        <time>2017-09-24T13:13:17Z</time>
      </trkpt>
      <trkpt lat="45.28096" lon="5.82986">
        <ele>740</ele>
        <time>2017-09-24T13:13:21Z</time>
      </trkpt>
      <trkpt lat="45.28095" lon="5.82979">
        <ele>741</ele>
        <time>2017-09-24T13:13:25Z</time>
      </trkpt>
      <trkpt lat="45.28096" lon="5.8297">
        <ele>742</ele>
        <time>2017-09-24T13:13:29Z</time>
      </trkpt>
      <trkpt lat="45.28095" lon="5.82977">
        <ele>741</ele>
        <time>2017-09-24T13:14:11Z</time>
      </trkpt>
      <trkpt lat="45.28095" lon="5.82985">
        <ele>740</ele>
        <time>2017-09-24T13:14:13Z</time>
      </trkpt>
      <trkpt lat="45.28099" lon="5.82991">
        <ele>740</ele>
        <time>2017-09-24T13:14:16Z</time>
      </trkpt>
      <trkpt lat="45.28104" lon="5.82987">
        <ele>741</ele>
        <time>2017-09-24T13:14:20Z</time>
      </trkpt>
      <trkpt lat="45.28108" lon="5.82982">
        <ele>743</ele>
        <time>2017-09-24T13:14:24Z</time>
      </trkpt>
      <trkpt lat="45.28113" lon="5.82982">
        <ele>743</ele>
        <time>2017-09-24T13:14:30Z</time>
      </trkpt>
      <trkpt lat="45.28123" lon="5.82981">
        <ele>745</ele>
        <time>2017-09-24T13:14:43Z</time>
      </trkpt>
      <trkpt lat="45.28127" lon="5.82977">
        <ele>746</ele>
        <time>2017-09-24T13:14:50Z</time>
      </trkpt>
      <trkpt lat="45.28129" lon="5.82971">
        <ele>747</ele>
        <time>2017-09-24T13:14:56Z</time>
      </trkpt>
      <trkpt lat="45.28134" lon="5.82967">
        <ele>748</ele>
        <time>2017-09-24T13:15:03Z</time>
      </trkpt>
      <trkpt lat="45.28133" lon="5.82969">
        <ele>748</ele>
        <time>2017-09-24T13:15:35Z</time>
      </trkpt>
      <trkpt lat="45.28138" lon="5.82969">
        <ele>749</ele>
        <time>2017-09-24T13:15:49Z</time>
      </trkpt>
      <trkpt lat="45.28144" lon="5.82969">
        <ele>750</ele>
        <time>2017-09-24T13:15:53Z</time>
      </trkpt>
      <trkpt lat="45.28149" lon="5.82968">
        <ele>751</ele>
        <time>2017-09-24T13:15:57Z</time>
      </trkpt>
      <trkpt lat="45.28154" lon="5.82969">
        <ele>751</ele>
        <time>2017-09-24T13:16:01Z</time>
      </trkpt>
      <trkpt lat="45.28159" lon="5.82969">
        <ele>752</ele>
        <time>2017-09-24T13:16:05Z</time>
      </trkpt>
      <trkpt lat="45.28164" lon="5.8297">
        <ele>753</ele>
        <time>2017-09-24T13:16:10Z</time>
      </trkpt>
      <trkpt lat="45.28169" lon="5.8297">
        <ele>754</ele>
        <time>2017-09-24T13:16:15Z</time>
      </trkpt>
      <trkpt lat="45.28173" lon="5.82971">
        <ele>754</ele>
        <time>2017-09-24T13:16:20Z</time>
      </trkpt>
      <trkpt lat="45.28179" lon="5.82972">
        <ele>755</ele>
        <time>2017-09-24T13:16:25Z</time>
      </trkpt>
      <trkpt lat="45.28184" lon="5.82972">
        <ele>756</ele>
        <time>2017-09-24T13:16:30Z</time>
      </trkpt>
      <trkpt lat="45.28189" lon="5.82973">
        <ele>757</ele>
        <time>2017-09-24T13:16:35Z</time>
      </trkpt>
      <trkpt lat="45.28194" lon="5.82974">
        <ele>757</ele>
        <time>2017-09-24T13:16:40Z</time>
      </trkpt>
      <trkpt lat="45.28199" lon="5.82973">
        <ele>758</ele>
        <time>2017-09-24T13:16:45Z</time>
      </trkpt>
      <trkpt lat="45.28204" lon="5.82973">
        <ele>759</ele>
        <time>2017-09-24T13:16:50Z</time>
      </trkpt>
      <trkpt lat="45.28209" lon="5.82975">
        <ele>760</ele>
        <time>2017-09-24T13:16:55Z</time>
      </trkpt>
      <trkpt lat="45.28214" lon="5.82977">
        <ele>760</ele>
        <time>2017-09-24T13:17:01Z</time>
      </trkpt>
      <trkpt lat="45.28219" lon="5.8298">
        <ele>761</ele>
        <time>2017-09-24T13:17:09Z</time>
      </trkpt>
      <trkpt lat="45.28223" lon="5.82984">
        <ele>762</ele>
        <time>2017-09-24T13:17:19Z</time>
      </trkpt>
      <trkpt lat="45.28227" lon="5.82988">
        <ele>762</ele>
        <time>2017-09-24T13:17:26Z</time>
      </trkpt>
      <trkpt lat="45.28232" lon="5.82989">
        <ele>763</ele>
        <time>2017-09-24T13:17:32Z</time>
      </trkpt>
      <trkpt lat="45.28238" lon="5.8299">
        <ele>764</ele>
        <time>2017-09-24T13:17:38Z</time>
      </trkpt>
      <trkpt lat="45.28243" lon="5.8299">
        <ele>765</ele>
        <time>2017-09-24T13:17:44Z</time>
      </trkpt>
      <trkpt lat="45.28248" lon="5.8299">
        <ele>766</ele>
        <time>2017-09-24T13:17:49Z</time>
      </trkpt>
      <trkpt lat="45.28253" lon="5.82992">
        <ele>767</ele>
        <time>2017-09-24T13:17:55Z</time>
      </trkpt>
      <trkpt lat="45.28258" lon="5.82992">
        <ele>768</ele>
        <time>2017-09-24T13:18:01Z</time>
      </trkpt>
      <trkpt lat="45.28262" lon="5.82993">
        <ele>769</ele>
        <time>2017-09-24T13:18:08Z</time>
      </trkpt>
      <trkpt lat="45.28268" lon="5.82994">
        <ele>770</ele>
        <time>2017-09-24T13:18:16Z</time>
      </trkpt>
      <trkpt lat="45.28272" lon="5.82993">
        <ele>771</ele>
        <time>2017-09-24T13:18:22Z</time>
      </trkpt>
      <trkpt lat="45.28276" lon="5.82991">
        <ele>772</ele>
        <time>2017-09-24T13:18:29Z</time>
      </trkpt>
      <trkpt lat="45.28282" lon="5.82992">
        <ele>773</ele>
        <time>2017-09-24T13:18:36Z</time>
      </trkpt>
      <trkpt lat="45.28286" lon="5.82992">
        <ele>773</ele>
        <time>2017-09-24T13:18:42Z</time>
      </trkpt>
      <trkpt lat="45.28291" lon="5.82991">
        <ele>775</ele>
        <time>2017-09-24T13:18:49Z</time>
      </trkpt>
      <trkpt lat="45.28296" lon="5.8299">
        <ele>776</ele>
        <time>2017-09-24T13:18:56Z</time>
      </trkpt>
      <trkpt lat="45.283" lon="5.82989">
        <ele>777</ele>
        <time>2017-09-24T13:19:03Z</time>
      </trkpt>
      <trkpt lat="45.28305" lon="5.82988">
        <ele>778</ele>
        <time>2017-09-24T13:19:10Z</time>
      </trkpt>
      <trkpt lat="45.28309" lon="5.82987">
        <ele>779</ele>
        <time>2017-09-24T13:19:17Z</time>
      </trkpt>
      <trkpt lat="45.28314" lon="5.82986">
        <ele>780</ele>
        <time>2017-09-24T13:19:27Z</time>
      </trkpt>
      <trkpt lat="45.28319" lon="5.82984">
        <ele>781</ele>
        <time>2017-09-24T13:19:35Z</time>
      </trkpt>
      <trkpt lat="45.28324" lon="5.82985">
        <ele>783</ele>
        <time>2017-09-24T13:19:41Z</time>
      </trkpt>
      <trkpt lat="45.28329" lon="5.82986">
        <ele>784</ele>
        <time>2017-09-24T13:19:47Z</time>
      </trkpt>
      <trkpt lat="45.28334" lon="5.82985">
        <ele>785</ele>
        <time>2017-09-24T13:19:54Z</time>
      </trkpt>
      <trkpt lat="45.28339" lon="5.82985">
        <ele>786</ele>
        <time>2017-09-24T13:20:02Z</time>
      </trkpt>
      <trkpt lat="45.28344" lon="5.82986">
        <ele>787</ele>
        <time>2017-09-24T13:20:10Z</time>
      </trkpt>
      <trkpt lat="45.28348" lon="5.82987">
        <ele>788</ele>
        <time>2017-09-24T13:20:18Z</time>
      </trkpt>
      <trkpt lat="45.28353" lon="5.82989">
        <ele>789</ele>
        <time>2017-09-24T13:20:26Z</time>
      </trkpt>
      <trkpt lat="45.28357" lon="5.82992">
        <ele>790</ele>
        <time>2017-09-24T13:20:32Z</time>
      </trkpt>
      <trkpt lat="45.28362" lon="5.82992">
        <ele>791</ele>
        <time>2017-09-24T13:20:40Z</time>
      </trkpt>
      <trkpt lat="45.28367" lon="5.82995">
        <ele>792</ele>
        <time>2017-09-24T13:20:47Z</time>
      </trkpt>
      <trkpt lat="45.28371" lon="5.82994">
        <ele>793</ele>
        <time>2017-09-24T13:20:54Z</time>
      </trkpt>
      <trkpt lat="45.28376" lon="5.82994">
        <ele>795</ele>
        <time>2017-09-24T13:21:02Z</time>
      </trkpt>
      <trkpt lat="45.28381" lon="5.82995">
        <ele>796</ele>
        <time>2017-09-24T13:21:11Z</time>
      </trkpt>
      <trkpt lat="45.28386" lon="5.82998">
        <ele>797</ele>
        <time>2017-09-24T13:21:18Z</time>
      </trkpt>
      <trkpt lat="45.2839" lon="5.82996">
        <ele>798</ele>
        <time>2017-09-24T13:21:26Z</time>
      </trkpt>
      <trkpt lat="45.28393" lon="5.82996">
        <ele>799</ele>
        <time>2017-09-24T13:21:55Z</time>
      </trkpt>
      <trkpt lat="45.28396" lon="5.82997">
        <ele>800</ele>
        <time>2017-09-24T13:24:03Z</time>
      </trkpt>
      <trkpt lat="45.28398" lon="5.82998">
        <ele>800</ele>
        <time>2017-09-24T13:24:05Z</time>
      </trkpt>
      <trkpt lat="45.28402" lon="5.82998">
        <ele>801</ele>
        <time>2017-09-24T13:24:10Z</time>
      </trkpt>
      <trkpt lat="45.28407" lon="5.83001">
        <ele>802</ele>
        <time>2017-09-24T13:24:16Z</time>
      </trkpt>
      <trkpt lat="45.28408" lon="5.83004">
        <ele>802</ele>
        <time>2017-09-24T13:24:35Z</time>
      </trkpt>
      <trkpt lat="45.28414" lon="5.83004">
        <ele>804</ele>
        <time>2017-09-24T13:26:25Z</time>
      </trkpt>
      <trkpt lat="45.2842" lon="5.83005">
        <ele>805</ele>
        <time>2017-09-24T13:26:28Z</time>
      </trkpt>
      <trkpt lat="45.28425" lon="5.83008">
        <ele>806</ele>
        <time>2017-09-24T13:26:32Z</time>
      </trkpt>
      <trkpt lat="45.28429" lon="5.83012">
        <ele>806</ele>
        <time>2017-09-24T13:26:36Z</time>
      </trkpt>
      <trkpt lat="45.28434" lon="5.83015">
        <ele>807</ele>
        <time>2017-09-24T13:26:40Z</time>
      </trkpt>
      <trkpt lat="45.28439" lon="5.83017">
        <ele>809</ele>
        <time>2017-09-24T13:26:44Z</time>
      </trkpt>
      <trkpt lat="45.28443" lon="5.83018">
        <ele>810</ele>
        <time>2017-09-24T13:26:49Z</time>
      </trkpt>
      <trkpt lat="45.28448" lon="5.83017">
        <ele>811</ele>
        <time>2017-09-24T13:26:55Z</time>
      </trkpt>
      <trkpt lat="45.28453" lon="5.83018">
        <ele>812</ele>
        <time>2017-09-24T13:27:02Z</time>
      </trkpt>
      <trkpt lat="45.28457" lon="5.83018">
        <ele>813</ele>
        <time>2017-09-24T13:27:08Z</time>
      </trkpt>
      <trkpt lat="45.28463" lon="5.8302">
        <ele>815</ele>
        <time>2017-09-24T13:27:14Z</time>
      </trkpt>
      <trkpt lat="45.28468" lon="5.83019">
        <ele>816</ele>
        <time>2017-09-24T13:27:19Z</time>
      </trkpt>
      <trkpt lat="45.28472" lon="5.83021">
        <ele>817</ele>
        <time>2017-09-24T13:27:29Z</time>
      </trkpt>
      <trkpt lat="45.28477" lon="5.83022">
        <ele>818</ele>
        <time>2017-09-24T13:27:33Z</time>
      </trkpt>
      <trkpt lat="45.28482" lon="5.83023">
        <ele>819</ele>
        <time>2017-09-24T13:27:37Z</time>
      </trkpt>
      <trkpt lat="45.28488" lon="5.83025">
        <ele>821</ele>
        <time>2017-09-24T13:27:42Z</time>
      </trkpt>
      <trkpt lat="45.28492" lon="5.83028">
        <ele>821</ele>
        <time>2017-09-24T13:27:44Z</time>
      </trkpt>
      <trkpt lat="45.28498" lon="5.83029">
        <ele>822</ele>
        <time>2017-09-24T13:27:47Z</time>
      </trkpt>
      <trkpt lat="45.28502" lon="5.83032">
        <ele>823</ele>
        <time>2017-09-24T13:27:50Z</time>
      </trkpt>
      <trkpt lat="45.28508" lon="5.83033">
        <ele>825</ele>
        <time>2017-09-24T13:27:54Z</time>
      </trkpt>
      <trkpt lat="45.28512" lon="5.83036">
        <ele>826</ele>
        <time>2017-09-24T13:27:59Z</time>
      </trkpt>
      <trkpt lat="45.28517" lon="5.83035">
        <ele>827</ele>
        <time>2017-09-24T13:28:07Z</time>
      </trkpt>
      <trkpt lat="45.28522" lon="5.83035">
        <ele>828</ele>
        <time>2017-09-24T13:28:13Z</time>
      </trkpt>
      <trkpt lat="45.28527" lon="5.83034">
        <ele>829</ele>
        <time>2017-09-24T13:28:26Z</time>
      </trkpt>
      <trkpt lat="45.28532" lon="5.83036">
        <ele>830</ele>
        <time>2017-09-24T13:28:33Z</time>
      </trkpt>
      <trkpt lat="45.28537" lon="5.83037">
        <ele>832</ele>
        <time>2017-09-24T13:28:39Z</time>
      </trkpt>
      <trkpt lat="45.28542" lon="5.83035">
        <ele>833</ele>
        <time>2017-09-24T13:28:47Z</time>
      </trkpt>
      <trkpt lat="45.28547" lon="5.83035">
        <ele>834</ele>
        <time>2017-09-24T13:28:52Z</time>
      </trkpt>
      <trkpt lat="45.28552" lon="5.83035">
        <ele>835</ele>
        <time>2017-09-24T13:28:58Z</time>
      </trkpt>
      <trkpt lat="45.28555" lon="5.83041">
        <ele>836</ele>
        <time>2017-09-24T13:29:04Z</time>
      </trkpt>
      <trkpt lat="45.28558" lon="5.83045">
        <ele>837</ele>
        <time>2017-09-24T13:29:14Z</time>
      </trkpt>
      <trkpt lat="45.28563" lon="5.83049">
        <ele>838</ele>
        <time>2017-09-24T13:29:22Z</time>
      </trkpt>
      <trkpt lat="45.28568" lon="5.83049">
        <ele>839</ele>
        <time>2017-09-24T13:29:26Z</time>
      </trkpt>
      <trkpt lat="45.28573" lon="5.83045">
        <ele>841</ele>
        <time>2017-09-24T13:29:32Z</time>
      </trkpt>
      <trkpt lat="45.28578" lon="5.83044">
        <ele>842</ele>
        <time>2017-09-24T13:29:37Z</time>
      </trkpt>
      <trkpt lat="45.28583" lon="5.83046">
        <ele>844</ele>
        <time>2017-09-24T13:29:43Z</time>
      </trkpt>
      <trkpt lat="45.28588" lon="5.83046">
        <ele>845</ele>
        <time>2017-09-24T13:29:55Z</time>
      </trkpt>
      <trkpt lat="45.28592" lon="5.83045">
        <ele>846</ele>
        <time>2017-09-24T13:29:59Z</time>
      </trkpt>
      <trkpt lat="45.28598" lon="5.83046">
        <ele>848</ele>
        <time>2017-09-24T13:30:05Z</time>
      </trkpt>
      <trkpt lat="45.28602" lon="5.83045">
        <ele>849</ele>
        <time>2017-09-24T13:30:10Z</time>
      </trkpt>
      <trkpt lat="45.28605" lon="5.8305">
        <ele>850</ele>
        <time>2017-09-24T13:30:18Z</time>
      </trkpt>
      <trkpt lat="45.28607" lon="5.83054">
        <ele>850</ele>
        <time>2017-09-24T13:30:37Z</time>
      </trkpt>
      <trkpt lat="45.28606" lon="5.83054">
        <ele>850</ele>
        <time>2017-09-24T13:30:39Z</time>
      </trkpt>
      <trkpt lat="45.28611" lon="5.83058">
        <ele>851</ele>
        <time>2017-09-24T13:30:52Z</time>
      </trkpt>
      <trkpt lat="45.28616" lon="5.83062">
        <ele>853</ele>
        <time>2017-09-24T13:30:55Z</time>
      </trkpt>
      <trkpt lat="45.28621" lon="5.83067">
        <ele>854</ele>
        <time>2017-09-24T13:30:58Z</time>
      </trkpt>
      <trkpt lat="45.28622" lon="5.83073">
        <ele>854</ele>
        <time>2017-09-24T13:31:05Z</time>
      </trkpt>
      <trkpt lat="45.28627" lon="5.83074">
        <ele>856</ele>
        <time>2017-09-24T13:31:11Z</time>
      </trkpt>
      <trkpt lat="45.28632" lon="5.83077">
        <ele>857</ele>
        <time>2017-09-24T13:31:15Z</time>
      </trkpt>
      <trkpt lat="45.28636" lon="5.83079">
        <ele>858</ele>
        <time>2017-09-24T13:31:20Z</time>
      </trkpt>
      <trkpt lat="45.28641" lon="5.83083">
        <ele>860</ele>
        <time>2017-09-24T13:31:27Z</time>
      </trkpt>
      <trkpt lat="45.28645" lon="5.83086">
        <ele>861</ele>
        <time>2017-09-24T13:31:33Z</time>
      </trkpt>
      <trkpt lat="45.28649" lon="5.83082">
        <ele>862</ele>
        <time>2017-09-24T13:31:48Z</time>
      </trkpt>
      <trkpt lat="45.28651" lon="5.83082">
        <ele>863</ele>
        <time>2017-09-24T13:32:03Z</time>
      </trkpt>
      <trkpt lat="45.28651" lon="5.83082">
        <ele>863</ele>
        <time>2017-09-24T13:32:37Z</time>
      </trkpt>
      <trkpt lat="45.28651" lon="5.83082">
        <ele>863</ele>
        <time>2017-09-24T13:33:55Z</time>
      </trkpt>
      <trkpt lat="45.28656" lon="5.83081">
        <ele>864</ele>
        <time>2017-09-24T13:34:17Z</time>
      </trkpt>
      <trkpt lat="45.28656" lon="5.83081">
        <ele>864</ele>
        <time>2017-09-24T13:34:43Z</time>
      </trkpt>
      <trkpt lat="45.2866" lon="5.83077">
        <ele>865</ele>
        <time>2017-09-24T13:34:50Z</time>
      </trkpt>
      <trkpt lat="45.28664" lon="5.83078">
        <ele>867</ele>
        <time>2017-09-24T13:34:54Z</time>
      </trkpt>
      <trkpt lat="45.28669" lon="5.83076">
        <ele>868</ele>
        <time>2017-09-24T13:34:58Z</time>
      </trkpt>
      <trkpt lat="45.28675" lon="5.83078">
        <ele>870</ele>
        <time>2017-09-24T13:35:05Z</time>
      </trkpt>
      <trkpt lat="45.28679" lon="5.83075">
        <ele>871</ele>
        <time>2017-09-24T13:35:12Z</time>
      </trkpt>
      <trkpt lat="45.28679" lon="5.83075">
        <ele>871</ele>
        <time>2017-09-24T13:35:37Z</time>
      </trkpt>
      <trkpt lat="45.28679" lon="5.83075">
        <ele>871</ele>
        <time>2017-09-24T13:36:12Z</time>
      </trkpt>
      <trkpt lat="45.2868" lon="5.83076">
        <ele>871</ele>
        <time>2017-09-24T13:36:50Z</time>
      </trkpt>
      <trkpt lat="45.28685" lon="5.83074">
        <ele>873</ele>
        <time>2017-09-24T13:37:12Z</time>
      </trkpt>
      <trkpt lat="45.28689" lon="5.83073">
        <ele>874</ele>
        <time>2017-09-24T13:37:16Z</time>
      </trkpt>
      <trkpt lat="45.28693" lon="5.83071">
        <ele>875</ele>
        <time>2017-09-24T13:37:23Z</time>
      </trkpt>
      <trkpt lat="45.28696" lon="5.83072">
        <ele>876</ele>
        <time>2017-09-24T13:37:45Z</time>
      </trkpt>
      <trkpt lat="45.28697" lon="5.83072">
        <ele>876</ele>
        <time>2017-09-24T13:37:47Z</time>
      </trkpt>
      <trkpt lat="45.28701" lon="5.83077">
        <ele>878</ele>
        <time>2017-09-24T13:37:54Z</time>
      </trkpt>
      <trkpt lat="45.28705" lon="5.8308">
        <ele>879</ele>
        <time>2017-09-24T13:38:01Z</time>
      </trkpt>
      <trkpt lat="45.2871" lon="5.83081">
        <ele>881</ele>
        <time>2017-09-24T13:38:06Z</time>
      </trkpt>
      <trkpt lat="45.28715" lon="5.83083">
        <ele>882</ele>
        <time>2017-09-24T13:38:14Z</time>
      </trkpt>
      <trkpt lat="45.2872" lon="5.83083">
        <ele>884</ele>
        <time>2017-09-24T13:38:19Z</time>
      </trkpt>
      <trkpt lat="45.28724" lon="5.83083">
        <ele>885</ele>
        <time>2017-09-24T13:38:38Z</time>
      </trkpt>
      <trkpt lat="45.28724" lon="5.83083">
        <ele>885</ele>
        <time>2017-09-24T13:39:08Z</time>
      </trkpt>
      <trkpt lat="45.28724" lon="5.83082">
        <ele>885</ele>
        <time>2017-09-24T13:41:03Z</time>
      </trkpt>
      <trkpt lat="45.28719" lon="5.83081">
        <ele>883</ele>
        <time>2017-09-24T13:41:51Z</time>
      </trkpt>
      <trkpt lat="45.28715" lon="5.83078">
        <ele>882</ele>
        <time>2017-09-24T13:42:11Z</time>
      </trkpt>
      <trkpt lat="45.28715" lon="5.83077">
        <ele>882</ele>
        <time>2017-09-24T13:42:13Z</time>
      </trkpt>
      <trkpt lat="45.28714" lon="5.83076">
        <ele>882</ele>
        <time>2017-09-24T13:42:41Z</time>
      </trkpt>
      <trkpt lat="45.28714" lon="5.83076">
        <ele>882</ele>
        <time>2017-09-24T13:43:11Z</time>
      </trkpt>
      <trkpt lat="45.28715" lon="5.83076">
        <ele>882</ele>
        <time>2017-09-24T13:43:13Z</time>
      </trkpt>
      <trkpt lat="45.28713" lon="5.8307">
        <ele>881</ele>
        <time>2017-09-24T13:43:19Z</time>
      </trkpt>
      <trkpt lat="45.2871" lon="5.83064">
        <ele>880</ele>
        <time>2017-09-24T13:43:24Z</time>
      </trkpt>
      <trkpt lat="45.28709" lon="5.83061">
        <ele>880</ele>
        <time>2017-09-24T13:43:41Z</time>
      </trkpt>
      <trkpt lat="45.28704" lon="5.83059">
        <ele>878</ele>
        <time>2017-09-24T13:45:16Z</time>
      </trkpt>
      <trkpt lat="45.28701" lon="5.83054">
        <ele>877</ele>
        <time>2017-09-24T13:45:18Z</time>
      </trkpt>
      <trkpt lat="45.28696" lon="5.83046">
        <ele>875</ele>
        <time>2017-09-24T13:45:20Z</time>
      </trkpt>
      <trkpt lat="45.28692" lon="5.83039">
        <ele>874</ele>
        <time>2017-09-24T13:45:22Z</time>
      </trkpt>
      <trkpt lat="45.28688" lon="5.83034">
        <ele>873</ele>
        <time>2017-09-24T13:45:25Z</time>
      </trkpt>
      <trkpt lat="45.28685" lon="5.83029">
        <ele>872</ele>
        <time>2017-09-24T13:45:28Z</time>
      </trkpt>
      <trkpt lat="45.28681" lon="5.83023">
        <ele>873</ele>
        <time>2017-09-24T13:45:32Z</time>
      </trkpt>
      <trkpt lat="45.28679" lon="5.83017">
        <ele>874</ele>
        <time>2017-09-24T13:45:41Z</time>
      </trkpt>
      <trkpt lat="45.28674" lon="5.83024">
        <ele>871</ele>
        <time>2017-09-24T13:45:46Z</time>
      </trkpt>
      <trkpt lat="45.28671" lon="5.83029">
        <ele>868</ele>
        <time>2017-09-24T13:45:49Z</time>
      </trkpt>
      <trkpt lat="45.28669" lon="5.83023">
        <ele>870</ele>
        <time>2017-09-24T13:45:55Z</time>
      </trkpt>
      <trkpt lat="45.2867" lon="5.83031">
        <ele>868</ele>
        <time>2017-09-24T13:45:58Z</time>
      </trkpt>
      <trkpt lat="45.28669" lon="5.83028">
        <ele>868</ele>
        <time>2017-09-24T13:46:14Z</time>
      </trkpt>
      <trkpt lat="45.28666" lon="5.83026">
        <ele>868</ele>
        <time>2017-09-24T13:46:34Z</time>
      </trkpt>
      <trkpt lat="45.28664" lon="5.83024">
        <ele>868</ele>
        <time>2017-09-24T13:46:35Z</time>
      </trkpt>
      <trkpt lat="45.2866" lon="5.83021">
        <ele>868</ele>
        <time>2017-09-24T13:46:37Z</time>
      </trkpt>
      <trkpt lat="45.28651" lon="5.8302">
        <ele>865</ele>
        <time>2017-09-24T13:46:39Z</time>
      </trkpt>
      <trkpt lat="45.28646" lon="5.8302">
        <ele>864</ele>
        <time>2017-09-24T13:46:40Z</time>
      </trkpt>
      <trkpt lat="45.28637" lon="5.8302">
        <ele>861</ele>
        <time>2017-09-24T13:46:42Z</time>
      </trkpt>
      <trkpt lat="45.28631" lon="5.83021">
        <ele>859</ele>
        <time>2017-09-24T13:46:44Z</time>
      </trkpt>
      <trkpt lat="45.28626" lon="5.83023">
        <ele>858</ele>
        <time>2017-09-24T13:46:48Z</time>
      </trkpt>
      <trkpt lat="45.28622" lon="5.83024">
        <ele>856</ele>
        <time>2017-09-24T13:46:52Z</time>
      </trkpt>
      <trkpt lat="45.28617" lon="5.83018">
        <ele>856</ele>
        <time>2017-09-24T13:46:57Z</time>
      </trkpt>
      <trkpt lat="45.28613" lon="5.83016">
        <ele>856</ele>
        <time>2017-09-24T13:47:09Z</time>
      </trkpt>
      <trkpt lat="45.28608" lon="5.83013">
        <ele>855</ele>
        <time>2017-09-24T13:47:24Z</time>
      </trkpt>
      <trkpt lat="45.28602" lon="5.83014">
        <ele>853</ele>
        <time>2017-09-24T13:47:26Z</time>
      </trkpt>
      <trkpt lat="45.28595" lon="5.83016">
        <ele>851</ele>
        <time>2017-09-24T13:47:28Z</time>
      </trkpt>
      <trkpt lat="45.28589" lon="5.83018">
        <ele>849</ele>
        <time>2017-09-24T13:47:31Z</time>
      </trkpt>
      <trkpt lat="45.28584" lon="5.83016">
        <ele>848</ele>
        <time>2017-09-24T13:47:34Z</time>
      </trkpt>
      <trkpt lat="45.28579" lon="5.83012">
        <ele>847</ele>
        <time>2017-09-24T13:47:40Z</time>
      </trkpt>
      <trkpt lat="45.28574" lon="5.83008">
        <ele>847</ele>
        <time>2017-09-24T13:47:43Z</time>
      </trkpt>
      <trkpt lat="45.2857" lon="5.83008">
        <ele>846</ele>
        <time>2017-09-24T13:47:47Z</time>
      </trkpt>
      <trkpt lat="45.28565" lon="5.83009">
        <ele>844</ele>
        <time>2017-09-24T13:47:50Z</time>
      </trkpt>
      <trkpt lat="45.2856" lon="5.83007">
        <ele>843</ele>
        <time>2017-09-24T13:47:54Z</time>
      </trkpt>
      <trkpt lat="45.28564" lon="5.83003">
        <ele>845</ele>
        <time>2017-09-24T13:48:09Z</time>
      </trkpt>
      <trkpt lat="45.28564" lon="5.83007">
        <ele>844</ele>
        <time>2017-09-24T13:48:38Z</time>
      </trkpt>
      <trkpt lat="45.28559" lon="5.83009">
        <ele>842</ele>
        <time>2017-09-24T13:48:48Z</time>
      </trkpt>
      <trkpt lat="45.28553" lon="5.83008">
        <ele>841</ele>
        <time>2017-09-24T13:48:54Z</time>
      </trkpt>
      <trkpt lat="45.28548" lon="5.83003">
        <ele>841</ele>
        <time>2017-09-24T13:48:57Z</time>
      </trkpt>
      <trkpt lat="45.28543" lon="5.83">
        <ele>840</ele>
        <time>2017-09-24T13:48:59Z</time>
      </trkpt>
      <trkpt lat="45.28539" lon="5.82998">
        <ele>840</ele>
        <time>2017-09-24T13:49:01Z</time>
      </trkpt>
      <trkpt lat="45.28533" lon="5.82994">
        <ele>839</ele>
        <time>2017-09-24T13:49:04Z</time>
      </trkpt>
      <trkpt lat="45.28528" lon="5.8299">
        <ele>839</ele>
        <time>2017-09-24T13:49:08Z</time>
      </trkpt>
      <trkpt lat="45.28522" lon="5.8299">
        <ele>837</ele>
        <time>2017-09-24T13:49:11Z</time>
      </trkpt>
      <trkpt lat="45.28517" lon="5.82992">
        <ele>835</ele>
        <time>2017-09-24T13:49:15Z</time>
      </trkpt>
      <trkpt lat="45.28517" lon="5.82999">
        <ele>834</ele>
        <time>2017-09-24T13:49:24Z</time>
      </trkpt>
      <trkpt lat="45.28512" lon="5.82997">
        <ele>833</ele>
        <time>2017-09-24T13:49:32Z</time>
      </trkpt>
      <trkpt lat="45.28515" lon="5.8299">
        <ele>835</ele>
        <time>2017-09-24T13:49:37Z</time>
      </trkpt>
      <trkpt lat="45.28514" lon="5.82983">
        <ele>836</ele>
        <time>2017-09-24T13:49:42Z</time>
      </trkpt>
      <trkpt lat="45.28508" lon="5.82985">
        <ele>834</ele>
        <time>2017-09-24T13:49:46Z</time>
      </trkpt>
      <trkpt lat="45.28507" lon="5.82984">
        <ele>834</ele>
        <time>2017-09-24T13:50:10Z</time>
      </trkpt>
      <trkpt lat="45.28506" lon="5.82983">
        <ele>834</ele>
        <time>2017-09-24T13:50:30Z</time>
      </trkpt>
      <trkpt lat="45.28507" lon="5.82983">
        <ele>834</ele>
        <time>2017-09-24T13:51:23Z</time>
      </trkpt>
      <trkpt lat="45.285" lon="5.82982">
        <ele>833</ele>
        <time>2017-09-24T13:51:33Z</time>
      </trkpt>
      <trkpt lat="45.28494" lon="5.82981">
        <ele>831</ele>
        <time>2017-09-24T13:51:35Z</time>
      </trkpt>
      <trkpt lat="45.28489" lon="5.82978">
        <ele>830</ele>
        <time>2017-09-24T13:51:37Z</time>
      </trkpt>
      <trkpt lat="45.28484" lon="5.82976">
        <ele>829</ele>
        <time>2017-09-24T13:51:39Z</time>
      </trkpt>
      <trkpt lat="45.28477" lon="5.82975">
        <ele>827</ele>
        <time>2017-09-24T13:51:42Z</time>
      </trkpt>
      <trkpt lat="45.28471" lon="5.82973">
        <ele>825</ele>
        <time>2017-09-24T13:51:44Z</time>
      </trkpt>
      <trkpt lat="45.28465" lon="5.82968">
        <ele>824</ele>
        <time>2017-09-24T13:51:46Z</time>
      </trkpt>
      <trkpt lat="45.28458" lon="5.82967">
        <ele>822</ele>
        <time>2017-09-24T13:51:48Z</time>
      </trkpt>
      <trkpt lat="45.28452" lon="5.82969">
        <ele>820</ele>
        <time>2017-09-24T13:51:50Z</time>
      </trkpt>
      <trkpt lat="45.28445" lon="5.82969">
        <ele>817</ele>
        <time>2017-09-24T13:51:52Z</time>
      </trkpt>
      <trkpt lat="45.28437" lon="5.8297">
        <ele>815</ele>
        <time>2017-09-24T13:51:54Z</time>
      </trkpt>
      <trkpt lat="45.2843" lon="5.82971">
        <ele>812</ele>
        <time>2017-09-24T13:51:56Z</time>
      </trkpt>
      <trkpt lat="45.28426" lon="5.82966">
        <ele>812</ele>
        <time>2017-09-24T13:51:59Z</time>
      </trkpt>
      <trkpt lat="45.2842" lon="5.82968">
        <ele>810</ele>
        <time>2017-09-24T13:52:06Z</time>
      </trkpt>
      <trkpt lat="45.28415" lon="5.82969">
        <ele>808</ele>
        <time>2017-09-24T13:52:09Z</time>
      </trkpt>
      <trkpt lat="45.2841" lon="5.82972">
        <ele>806</ele>
        <time>2017-09-24T13:52:13Z</time>
      </trkpt>
      <trkpt lat="45.28405" lon="5.82973">
        <ele>805</ele>
        <time>2017-09-24T13:52:17Z</time>
      </trkpt>
      <trkpt lat="45.28402" lon="5.82968">
        <ele>805</ele>
        <time>2017-09-24T13:52:21Z</time>
      </trkpt>
      <trkpt lat="45.28397" lon="5.82967">
        <ele>803</ele>
        <time>2017-09-24T13:52:30Z</time>
      </trkpt>
      <trkpt lat="45.2839" lon="5.82964">
        <ele>801</ele>
        <time>2017-09-24T13:52:46Z</time>
      </trkpt>
      <trkpt lat="45.28383" lon="5.82962">
        <ele>800</ele>
        <time>2017-09-24T13:52:48Z</time>
      </trkpt>
      <trkpt lat="45.28375" lon="5.82959">
        <ele>798</ele>
        <time>2017-09-24T13:52:50Z</time>
      </trkpt>
      <trkpt lat="45.2837" lon="5.82959">
        <ele>797</ele>
        <time>2017-09-24T13:52:51Z</time>
      </trkpt>
      <trkpt lat="45.28365" lon="5.8296">
        <ele>795</ele>
        <time>2017-09-24T13:52:52Z</time>
      </trkpt>
      <trkpt lat="45.2836" lon="5.82959">
        <ele>794</ele>
        <time>2017-09-24T13:52:53Z</time>
      </trkpt>
      <trkpt lat="45.28353" lon="5.82959">
        <ele>792</ele>
        <time>2017-09-24T13:52:54Z</time>
      </trkpt>
      <trkpt lat="45.28347" lon="5.82958">
        <ele>791</ele>
        <time>2017-09-24T13:52:55Z</time>
      </trkpt>
      <trkpt lat="45.28341" lon="5.82958">
        <ele>789</ele>
        <time>2017-09-24T13:52:56Z</time>
      </trkpt>
      <trkpt lat="45.28336" lon="5.82956">
        <ele>788</ele>
        <time>2017-09-24T13:52:57Z</time>
      </trkpt>
      <trkpt lat="45.28331" lon="5.82955">
        <ele>787</ele>
        <time>2017-09-24T13:52:58Z</time>
      </trkpt>
      <trkpt lat="45.28324" lon="5.82953">
        <ele>786</ele>
        <time>2017-09-24T13:53:00Z</time>
      </trkpt>
      <trkpt lat="45.28317" lon="5.82951">
        <ele>784</ele>
        <time>2017-09-24T13:53:02Z</time>
      </trkpt>
      <trkpt lat="45.28307" lon="5.82949">
        <ele>782</ele>
        <time>2017-09-24T13:53:04Z</time>
      </trkpt>
      <trkpt lat="45.28299" lon="5.82944">
        <ele>781</ele>
        <time>2017-09-24T13:53:06Z</time>
      </trkpt>
      <trkpt lat="45.28292" lon="5.82939">
        <ele>780</ele>
        <time>2017-09-24T13:53:08Z</time>
      </trkpt>
      <trkpt lat="45.28284" lon="5.82933">
        <ele>779</ele>
        <time>2017-09-24T13:53:10Z</time>
      </trkpt>
      <trkpt lat="45.2828" lon="5.8293">
        <ele>779</ele>
        <time>2017-09-24T13:53:11Z</time>
      </trkpt>
      <trkpt lat="45.28275" lon="5.82926">
        <ele>778</ele>
        <time>2017-09-24T13:53:12Z</time>
      </trkpt>
      <trkpt lat="45.28271" lon="5.82924">
        <ele>778</ele>
        <time>2017-09-24T13:53:13Z</time>
      </trkpt>
      <trkpt lat="45.28265" lon="5.82922">
        <ele>777</ele>
        <time>2017-09-24T13:53:14Z</time>
      </trkpt>
      <trkpt lat="45.28261" lon="5.82923">
        <ele>776</ele>
        <time>2017-09-24T13:53:15Z</time>
      </trkpt>
      <trkpt lat="45.28256" lon="5.82924">
        <ele>775</ele>
        <time>2017-09-24T13:53:16Z</time>
      </trkpt>
      <trkpt lat="45.28249" lon="5.82928">
        <ele>773</ele>
        <time>2017-09-24T13:53:18Z</time>
      </trkpt>
      <trkpt lat="45.28245" lon="5.82933">
        <ele>771</ele>
        <time>2017-09-24T13:53:20Z</time>
      </trkpt>
      <trkpt lat="45.28241" lon="5.82936">
        <ele>770</ele>
        <time>2017-09-24T13:53:22Z</time>
      </trkpt>
      <trkpt lat="45.28237" lon="5.82933">
        <ele>770</ele>
        <time>2017-09-24T13:53:28Z</time>
      </trkpt>
      <trkpt lat="45.28238" lon="5.82926">
        <ele>771</ele>
        <time>2017-09-24T13:53:32Z</time>
      </trkpt>
      <trkpt lat="45.28236" lon="5.82932">
        <ele>769</ele>
        <time>2017-09-24T13:53:45Z</time>
      </trkpt>
      <trkpt lat="45.28231" lon="5.82936">
        <ele>768</ele>
        <time>2017-09-24T13:53:48Z</time>
      </trkpt>
      <trkpt lat="45.28225" lon="5.82935">
        <ele>767</ele>
        <time>2017-09-24T13:53:50Z</time>
      </trkpt>
      <trkpt lat="45.28219" lon="5.82933">
        <ele>766</ele>
        <time>2017-09-24T13:53:52Z</time>
      </trkpt>
      <trkpt lat="45.28214" lon="5.82934">
        <ele>765</ele>
        <time>2017-09-24T13:53:54Z</time>
      </trkpt>
      <trkpt lat="45.28208" lon="5.82934">
        <ele>764</ele>
        <time>2017-09-24T13:53:56Z</time>
      </trkpt>
      <trkpt lat="45.28199" lon="5.82934">
        <ele>763</ele>
        <time>2017-09-24T13:53:58Z</time>
      </trkpt>
      <trkpt lat="45.28191" lon="5.82933">
        <ele>762</ele>
        <time>2017-09-24T13:54:00Z</time>
      </trkpt>
      <trkpt lat="45.28183" lon="5.8293">
        <ele>761</ele>
        <time>2017-09-24T13:54:02Z</time>
      </trkpt>
      <trkpt lat="45.28178" lon="5.82928">
        <ele>760</ele>
        <time>2017-09-24T13:54:03Z</time>
      </trkpt>
      <trkpt lat="45.28173" lon="5.82926">
        <ele>760</ele>
        <time>2017-09-24T13:54:04Z</time>
      </trkpt>
      <trkpt lat="45.28168" lon="5.82925">
        <ele>759</ele>
        <time>2017-09-24T13:54:05Z</time>
      </trkpt>
      <trkpt lat="45.28163" lon="5.82925">
        <ele>758</ele>
        <time>2017-09-24T13:54:06Z</time>
      </trkpt>
      <trkpt lat="45.28159" lon="5.82925">
        <ele>758</ele>
        <time>2017-09-24T13:54:07Z</time>
      </trkpt>
      <trkpt lat="45.28154" lon="5.82926">
        <ele>757</ele>
        <time>2017-09-24T13:54:08Z</time>
      </trkpt>
      <trkpt lat="45.28149" lon="5.82927">
        <ele>756</ele>
        <time>2017-09-24T13:54:09Z</time>
      </trkpt>
      <trkpt lat="45.28145" lon="5.82928">
        <ele>755</ele>
        <time>2017-09-24T13:54:10Z</time>
      </trkpt>
      <trkpt lat="45.28137" lon="5.82929">
        <ele>754</ele>
        <time>2017-09-24T13:54:11Z</time>
      </trkpt>
      <trkpt lat="45.2813" lon="5.82932">
        <ele>753</ele>
        <time>2017-09-24T13:54:12Z</time>
      </trkpt>
      <trkpt lat="45.28124" lon="5.8293">
        <ele>752</ele>
        <time>2017-09-24T13:54:14Z</time>
      </trkpt>
      <trkpt lat="45.28116" lon="5.82923">
        <ele>752</ele>
        <time>2017-09-24T13:54:16Z</time>
      </trkpt>
      <trkpt lat="45.28112" lon="5.82921">
        <ele>752</ele>
        <time>2017-09-24T13:54:17Z</time>
      </trkpt>
      <trkpt lat="45.28104" lon="5.82923">
        <ele>751</ele>
        <time>2017-09-24T13:54:19Z</time>
      </trkpt>
      <trkpt lat="45.28097" lon="5.82927">
        <ele>749</ele>
        <time>2017-09-24T13:54:21Z</time>
      </trkpt>
      <trkpt lat="45.28092" lon="5.82933">
        <ele>747</ele>
        <time>2017-09-24T13:54:23Z</time>
      </trkpt>
      <trkpt lat="45.2809" lon="5.82941">
        <ele>745</ele>
        <time>2017-09-24T13:54:27Z</time>
      </trkpt>
      <trkpt lat="45.28086" lon="5.82945">
        <ele>744</ele>
        <time>2017-09-24T13:54:32Z</time>
      </trkpt>
      <trkpt lat="45.28081" lon="5.82949">
        <ele>742</ele>
        <time>2017-09-24T13:54:36Z</time>
      </trkpt>
      <trkpt lat="45.28078" lon="5.82953">
        <ele>741</ele>
        <time>2017-09-24T13:54:41Z</time>
      </trkpt>
      <trkpt lat="45.28072" lon="5.82952">
        <ele>740</ele>
        <time>2017-09-24T13:54:46Z</time>
      </trkpt>
      <trkpt lat="45.28068" lon="5.82957">
        <ele>738</ele>
        <time>2017-09-24T13:54:52Z</time>
      </trkpt>
      <trkpt lat="45.28064" lon="5.82955">
        <ele>738</ele>
        <time>2017-09-24T13:55:03Z</time>
      </trkpt>
      <trkpt lat="45.28059" lon="5.82956">
        <ele>737</ele>
        <time>2017-09-24T13:55:32Z</time>
      </trkpt>
      <trkpt lat="45.28053" lon="5.82959">
        <ele>735</ele>
        <time>2017-09-24T13:55:35Z</time>
      </trkpt>
      <trkpt lat="45.28049" lon="5.82961">
        <ele>734</ele>
        <time>2017-09-24T13:55:37Z</time>
      </trkpt>
      <trkpt lat="45.28044" lon="5.82963">
        <ele>733</ele>
        <time>2017-09-24T13:55:39Z</time>
      </trkpt>
      <trkpt lat="45.28037" lon="5.82965">
        <ele>731</ele>
        <time>2017-09-24T13:55:41Z</time>
      </trkpt>
      <trkpt lat="45.2803" lon="5.82966">
        <ele>730</ele>
        <time>2017-09-24T13:55:43Z</time>
      </trkpt>
      <trkpt lat="45.28022" lon="5.82963">
        <ele>729</ele>
        <time>2017-09-24T13:55:45Z</time>
      </trkpt>
      <trkpt lat="45.28019" lon="5.82961">
        <ele>728</ele>
        <time>2017-09-24T13:55:46Z</time>
      </trkpt>
      <trkpt lat="45.28011" lon="5.82957">
        <ele>727</ele>
        <time>2017-09-24T13:55:48Z</time>
      </trkpt>
      <trkpt lat="45.28004" lon="5.82952">
        <ele>726</ele>
        <time>2017-09-24T13:55:50Z</time>
      </trkpt>
      <trkpt lat="45.27996" lon="5.82948">
        <ele>725</ele>
        <time>2017-09-24T13:55:52Z</time>
      </trkpt>
      <trkpt lat="45.27992" lon="5.82945">
        <ele>724</ele>
        <time>2017-09-24T13:55:53Z</time>
      </trkpt>
      <trkpt lat="45.27987" lon="5.82941">
        <ele>723</ele>
        <time>2017-09-24T13:55:54Z</time>
      </trkpt>
      <trkpt lat="45.27976" lon="5.82938">
        <ele>721</ele>
        <time>2017-09-24T13:55:55Z</time>
      </trkpt>
      <trkpt lat="45.27969" lon="5.82933">
        <ele>720</ele>
        <time>2017-09-24T13:55:57Z</time>
      </trkpt>
      <trkpt lat="45.27965" lon="5.82926">
        <ele>719</ele>
        <time>2017-09-24T13:55:58Z</time>
      </trkpt>
      <trkpt lat="45.2796" lon="5.82918">
        <ele>719</ele>
        <time>2017-09-24T13:55:59Z</time>
      </trkpt>
      <trkpt lat="45.27955" lon="5.82906">
        <ele>719</ele>
        <time>2017-09-24T13:56:01Z</time>
      </trkpt>
      <trkpt lat="45.27951" lon="5.82905">
        <ele>718</ele>
        <time>2017-09-24T13:56:02Z</time>
      </trkpt>
      <trkpt lat="45.27947" lon="5.82897">
        <ele>717</ele>
        <time>2017-09-24T13:56:04Z</time>
      </trkpt>
      <trkpt lat="45.27944" lon="5.82893">
        <ele>717</ele>
        <time>2017-09-24T13:56:06Z</time>
      </trkpt>
      <trkpt lat="45.2794" lon="5.8289">
        <ele>717</ele>
        <time>2017-09-24T13:56:08Z</time>
      </trkpt>
      <trkpt lat="45.27936" lon="5.82886">
        <ele>717</ele>
        <time>2017-09-24T13:56:10Z</time>
      </trkpt>
      <trkpt lat="45.2793" lon="5.82884">
        <ele>716</ele>
        <time>2017-09-24T13:56:14Z</time>
      </trkpt>
      <trkpt lat="45.27924" lon="5.82883">
        <ele>715</ele>
        <time>2017-09-24T13:56:16Z</time>
      </trkpt>
      <trkpt lat="45.27919" lon="5.82883">
        <ele>714</ele>
        <time>2017-09-24T13:56:17Z</time>
      </trkpt>
      <trkpt lat="45.27913" lon="5.82884">
        <ele>712</ele>
        <time>2017-09-24T13:56:18Z</time>
      </trkpt>
      <trkpt lat="45.27902" lon="5.82883">
        <ele>710</ele>
        <time>2017-09-24T13:56:19Z</time>
      </trkpt>
      <trkpt lat="45.27897" lon="5.82886">
        <ele>709</ele>
        <time>2017-09-24T13:56:20Z</time>
      </trkpt>
      <trkpt lat="45.27891" lon="5.82891">
        <ele>707</ele>
        <time>2017-09-24T13:56:22Z</time>
      </trkpt>
      <trkpt lat="45.27884" lon="5.82892">
        <ele>705</ele>
        <time>2017-09-24T13:56:24Z</time>
      </trkpt>
      <trkpt lat="45.27877" lon="5.82894">
        <ele>703</ele>
        <time>2017-09-24T13:56:25Z</time>
      </trkpt>
      <trkpt lat="45.27873" lon="5.82893">
        <ele>703</ele>
        <time>2017-09-24T13:56:28Z</time>
      </trkpt>
      <trkpt lat="45.27868" lon="5.82891">
        <ele>702</ele>
        <time>2017-09-24T13:56:32Z</time>
      </trkpt>
      <trkpt lat="45.27866" lon="5.8289">
        <ele>702</ele>
        <time>2017-09-24T13:56:49Z</time>
      </trkpt>
      <trkpt lat="45.27867" lon="5.82889">
        <ele>702</ele>
        <time>2017-09-24T13:57:19Z</time>
      </trkpt>
      <trkpt lat="45.27861" lon="5.82886">
        <ele>702</ele>
        <time>2017-09-24T13:58:00Z</time>
      </trkpt>
      <trkpt lat="45.27857" lon="5.82885">
        <ele>701</ele>
        <time>2017-09-24T13:58:01Z</time>
      </trkpt>
      <trkpt lat="45.27851" lon="5.82884">
        <ele>700</ele>
        <time>2017-09-24T13:58:02Z</time>
      </trkpt>
      <trkpt lat="45.27844" lon="5.82884">
        <ele>699</ele>
        <time>2017-09-24T13:58:03Z</time>
      </trkpt>
      <trkpt lat="45.27815" lon="5.82891">
        <ele>693</ele>
        <time>2017-09-24T13:58:04Z</time>
      </trkpt>
      <trkpt lat="45.27809" lon="5.82888">
        <ele>692</ele>
        <time>2017-09-24T13:58:05Z</time>
      </trkpt>
      <trkpt lat="45.27799" lon="5.82891">
        <ele>690</ele>
        <time>2017-09-24T13:58:06Z</time>
      </trkpt>
      <trkpt lat="45.27789" lon="5.82889">
        <ele>689</ele>
        <time>2017-09-24T13:58:08Z</time>
      </trkpt>
      <trkpt lat="45.27777" lon="5.82897">
        <ele>686</ele>
        <time>2017-09-24T13:58:09Z</time>
      </trkpt>
      <trkpt lat="45.27766" lon="5.82905">
        <ele>683</ele>
        <time>2017-09-24T13:58:10Z</time>
      </trkpt>
      <trkpt lat="45.27763" lon="5.82892">
        <ele>684</ele>
        <time>2017-09-24T13:58:11Z</time>
      </trkpt>
      <trkpt lat="45.2775" lon="5.82887">
        <ele>682</ele>
        <time>2017-09-24T13:58:12Z</time>
      </trkpt>
      <trkpt lat="45.27737" lon="5.82889">
        <ele>680</ele>
        <time>2017-09-24T13:58:13Z</time>
      </trkpt>
      <trkpt lat="45.27729" lon="5.82885">
        <ele>680</ele>
        <time>2017-09-24T13:58:14Z</time>
      </trkpt>
      <trkpt lat="45.27725" lon="5.82885">
        <ele>680</ele>
        <time>2017-09-24T13:58:15Z</time>
      </trkpt>
      <trkpt lat="45.27716" lon="5.82878">
        <ele>681</ele>
        <time>2017-09-24T13:58:17Z</time>
      </trkpt>
      <trkpt lat="45.27708" lon="5.82881">
        <ele>680</ele>
        <time>2017-09-24T13:58:19Z</time>
      </trkpt>
      <trkpt lat="45.27704" lon="5.82884">
        <ele>680</ele>
        <time>2017-09-24T13:58:20Z</time>
      </trkpt>
      <trkpt lat="45.27696" lon="5.82888">
        <ele>678</ele>
        <time>2017-09-24T13:58:22Z</time>
      </trkpt>
      <trkpt lat="45.27692" lon="5.82893">
        <ele>677</ele>
        <time>2017-09-24T13:58:24Z</time>
      </trkpt>
      <trkpt lat="45.27688" lon="5.829">
        <ele>675</ele>
        <time>2017-09-24T13:58:27Z</time>
      </trkpt>
      <trkpt lat="45.27683" lon="5.82905">
        <ele>674</ele>
        <time>2017-09-24T13:58:30Z</time>
      </trkpt>
      <trkpt lat="45.27679" lon="5.82913">
        <ele>673</ele>
        <time>2017-09-24T13:58:33Z</time>
      </trkpt>
      <trkpt lat="45.27676" lon="5.82919">
        <ele>671</ele>
        <time>2017-09-24T13:58:36Z</time>
      </trkpt>
      <trkpt lat="45.27671" lon="5.82923">
        <ele>670</ele>
        <time>2017-09-24T13:58:38Z</time>
      </trkpt>
      <trkpt lat="45.27667" lon="5.82927">
        <ele>669</ele>
        <time>2017-09-24T13:58:40Z</time>
      </trkpt>
      <trkpt lat="45.27663" lon="5.8293">
        <ele>668</ele>
        <time>2017-09-24T13:58:42Z</time>
      </trkpt>
      <trkpt lat="45.27657" lon="5.82931">
        <ele>667</ele>
        <time>2017-09-24T13:58:44Z</time>
      </trkpt>
      <trkpt lat="45.2765" lon="5.82932">
        <ele>666</ele>
        <time>2017-09-24T13:58:46Z</time>
      </trkpt>
      <trkpt lat="45.27644" lon="5.82932">
        <ele>665</ele>
        <time>2017-09-24T13:58:48Z</time>
      </trkpt>
      <trkpt lat="45.27639" lon="5.82934">
        <ele>664</ele>
        <time>2017-09-24T13:58:50Z</time>
      </trkpt>
      <trkpt lat="45.27633" lon="5.82935">
        <ele>663</ele>
        <time>2017-09-24T13:58:52Z</time>
      </trkpt>
      <trkpt lat="45.27629" lon="5.82938">
        <ele>662</ele>
        <time>2017-09-24T13:58:54Z</time>
      </trkpt>
      <trkpt lat="45.27623" lon="5.82942">
        <ele>660</ele>
        <time>2017-09-24T13:58:56Z</time>
      </trkpt>
      <trkpt lat="45.27618" lon="5.82944">
        <ele>659</ele>
        <time>2017-09-24T13:58:58Z</time>
      </trkpt>
      <trkpt lat="45.27614" lon="5.82948">
        <ele>658</ele>
        <time>2017-09-24T13:59:01Z</time>
      </trkpt>
      <trkpt lat="45.2761" lon="5.8296">
        <ele>655</ele>
        <time>2017-09-24T13:59:07Z</time>
      </trkpt>
      <trkpt lat="45.27614" lon="5.82956">
        <ele>656</ele>
        <time>2017-09-24T13:59:12Z</time>
      </trkpt>
      <trkpt lat="45.27618" lon="5.82959">
        <ele>656</ele>
        <time>2017-09-24T13:59:21Z</time>
      </trkpt>
      <trkpt lat="45.27619" lon="5.82959">
        <ele>656</ele>
        <time>2017-09-24T13:59:45Z</time>
      </trkpt>
      <trkpt lat="45.27565" lon="5.82939">
        <ele>652</ele>
        <time>2017-09-24T14:00:44Z</time>
      </trkpt>
      <trkpt lat="45.27559" lon="5.82935">
        <ele>652</ele>
        <time>2017-09-24T14:00:45Z</time>
      </trkpt>
      <trkpt lat="45.27554" lon="5.82932">
        <ele>652</ele>
        <time>2017-09-24T14:00:46Z</time>
      </trkpt>
      <trkpt lat="45.27548" lon="5.82931">
        <ele>651</ele>
        <time>2017-09-24T14:00:47Z</time>
      </trkpt>
      <trkpt lat="45.27543" lon="5.82929">
        <ele>651</ele>
        <time>2017-09-24T14:00:48Z</time>
      </trkpt>
      <trkpt lat="45.27538" lon="5.82928">
        <ele>650</ele>
        <time>2017-09-24T14:00:49Z</time>
      </trkpt>
      <trkpt lat="45.27527" lon="5.82922">
        <ele>649</ele>
        <time>2017-09-24T14:00:52Z</time>
      </trkpt>
      <trkpt lat="45.27519" lon="5.82918">
        <ele>649</ele>
        <time>2017-09-24T14:00:54Z</time>
      </trkpt>
      <trkpt lat="45.27514" lon="5.82916">
        <ele>648</ele>
        <time>2017-09-24T14:00:55Z</time>
      </trkpt>
      <trkpt lat="45.27506" lon="5.82915">
        <ele>647</ele>
        <time>2017-09-24T14:00:57Z</time>
      </trkpt>
      <trkpt lat="45.27501" lon="5.82915">
        <ele>646</ele>
        <time>2017-09-24T14:00:58Z</time>
      </trkpt>
      <trkpt lat="45.27496" lon="5.82915">
        <ele>645</ele>
        <time>2017-09-24T14:00:59Z</time>
      </trkpt>
      <trkpt lat="45.2749" lon="5.82916">
        <ele>644</ele>
        <time>2017-09-24T14:01:01Z</time>
      </trkpt>
      <trkpt lat="45.27483" lon="5.82914">
        <ele>643</ele>
        <time>2017-09-24T14:01:03Z</time>
      </trkpt>
      <trkpt lat="45.27477" lon="5.82912">
        <ele>642</ele>
        <time>2017-09-24T14:01:05Z</time>
      </trkpt>
      <trkpt lat="45.2747" lon="5.8291">
        <ele>641</ele>
        <time>2017-09-24T14:01:07Z</time>
      </trkpt>
      <trkpt lat="45.27461" lon="5.82909">
        <ele>640</ele>
        <time>2017-09-24T14:01:09Z</time>
      </trkpt>
      <trkpt lat="45.27453" lon="5.82911">
        <ele>639</ele>
        <time>2017-09-24T14:01:11Z</time>
      </trkpt>
      <trkpt lat="45.27446" lon="5.82913">
        <ele>638</ele>
        <time>2017-09-24T14:01:13Z</time>
      </trkpt>
      <trkpt lat="45.2744" lon="5.82915">
        <ele>636</ele>
        <time>2017-09-24T14:01:15Z</time>
      </trkpt>
      <trkpt lat="45.27434" lon="5.82916">
        <ele>636</ele>
        <time>2017-09-24T14:01:17Z</time>
      </trkpt>
      <trkpt lat="45.27421" lon="5.82925">
        <ele>633</ele>
        <time>2017-09-24T14:01:22Z</time>
      </trkpt>
      <trkpt lat="45.27393" lon="5.82929">
        <ele>629</ele>
        <time>2017-09-24T14:01:40Z</time>
      </trkpt>
      <trkpt lat="45.27406" lon="5.82919">
        <ele>632</ele>
        <time>2017-09-24T14:01:51Z</time>
      </trkpt>
      <trkpt lat="45.27408" lon="5.82924">
        <ele>631</ele>
        <time>2017-09-24T14:02:07Z</time>
      </trkpt>
      <trkpt lat="45.27409" lon="5.82922">
        <ele>632</ele>
        <time>2017-09-24T14:02:09Z</time>
      </trkpt>
      <trkpt lat="45.27411" lon="5.82922">
        <ele>632</ele>
        <time>2017-09-24T14:02:24Z</time>
      </trkpt>
      <trkpt lat="45.2741" lon="5.82924">
        <ele>632</ele>
        <time>2017-09-24T14:02:32Z</time>
      </trkpt>
      <trkpt lat="45.27404" lon="5.82924">
        <ele>631</ele>
        <time>2017-09-24T14:02:35Z</time>
      </trkpt>
      <trkpt lat="45.27396" lon="5.82928">
        <ele>629</ele>
        <time>2017-09-24T14:02:37Z</time>
      </trkpt>
      <trkpt lat="45.27392" lon="5.8293">
        <ele>629</ele>
        <time>2017-09-24T14:02:38Z</time>
      </trkpt>
      <trkpt lat="45.27388" lon="5.82934">
        <ele>628</ele>
        <time>2017-09-24T14:02:39Z</time>
      </trkpt>
      <trkpt lat="45.27356" lon="5.82968">
        <ele>622</ele>
        <time>2017-09-24T14:02:46Z</time>
      </trkpt>
      <trkpt lat="45.27345" lon="5.82986">
        <ele>619</ele>
        <time>2017-09-24T14:02:47Z</time>
      </trkpt>
      <trkpt lat="45.27337" lon="5.82994">
        <ele>617</ele>
        <time>2017-09-24T14:02:48Z</time>
      </trkpt>
      <trkpt lat="45.27334" lon="5.82998">
        <ele>617</ele>
        <time>2017-09-24T14:02:49Z</time>
      </trkpt>
      <trkpt lat="45.2733" lon="5.83005">
        <ele>615</ele>
        <time>2017-09-24T14:02:50Z</time>
      </trkpt>
      <trkpt lat="45.27316" lon="5.83007">
        <ele>615</ele>
        <time>2017-09-24T14:02:56Z</time>
      </trkpt>
      <trkpt lat="45.27311" lon="5.83008">
        <ele>615</ele>
        <time>2017-09-24T14:02:57Z</time>
      </trkpt>
      <trkpt lat="45.2731" lon="5.83015">
        <ele>614</ele>
        <time>2017-09-24T14:03:23Z</time>
      </trkpt>
      <trkpt lat="45.27309" lon="5.83015">
        <ele>614</ele>
        <time>2017-09-24T14:03:47Z</time>
      </trkpt>
      <trkpt lat="45.27303" lon="5.83012">
        <ele>614</ele>
        <time>2017-09-24T14:03:52Z</time>
      </trkpt>
      <trkpt lat="45.27299" lon="5.83009">
        <ele>615</ele>
        <time>2017-09-24T14:04:00Z</time>
      </trkpt>
      <trkpt lat="45.273" lon="5.83011">
        <ele>615</ele>
        <time>2017-09-24T14:04:23Z</time>
      </trkpt>
      <trkpt lat="45.27307" lon="5.8288">
        <ele>645</ele>
        <time>2017-09-24T14:08:45Z</time>
      </trkpt>
      <trkpt lat="45.2731" lon="5.82888">
        <ele>642</ele>
        <time>2017-09-24T14:08:47Z</time>
      </trkpt>
      <trkpt lat="45.27306" lon="5.82883">
        <ele>645</ele>
        <time>2017-09-24T14:08:48Z</time>
      </trkpt>
      <trkpt lat="45.27301" lon="5.82875">
        <ele>649</ele>
        <time>2017-09-24T14:08:50Z</time>
      </trkpt>
      <trkpt lat="45.27296" lon="5.82872">
        <ele>652</ele>
        <time>2017-09-24T14:08:55Z</time>
      </trkpt>
      <trkpt lat="45.27302" lon="5.82864">
        <ele>652</ele>
        <time>2017-09-24T14:09:00Z</time>
      </trkpt>
      <trkpt lat="45.27322" lon="5.82845">
        <ele>649</ele>
        <time>2017-09-24T14:09:28Z</time>
      </trkpt>
      <trkpt lat="45.27317" lon="5.82847">
        <ele>651</ele>
        <time>2017-09-24T14:09:34Z</time>
      </trkpt>
      <trkpt lat="45.27313" lon="5.82844">
        <ele>653</ele>
        <time>2017-09-24T14:09:37Z</time>
      </trkpt>
      <trkpt lat="45.27317" lon="5.82841">
        <ele>652</ele>
        <time>2017-09-24T14:09:44Z</time>
      </trkpt>
      <trkpt lat="45.27314" lon="5.82837">
        <ele>654</ele>
        <time>2017-09-24T14:09:53Z</time>
      </trkpt>
      <trkpt lat="45.27315" lon="5.82831">
        <ele>656</ele>
        <time>2017-09-24T14:09:57Z</time>
      </trkpt>
      <trkpt lat="45.27315" lon="5.82824">
        <ele>657</ele>
        <time>2017-09-24T14:10:00Z</time>
      </trkpt>
      <trkpt lat="45.27313" lon="5.82818">
        <ele>661</ele>
        <time>2017-09-24T14:10:04Z</time>
      </trkpt>
      <trkpt lat="45.2731" lon="5.82811">
        <ele>664</ele>
        <time>2017-09-24T14:10:21Z</time>
      </trkpt>
      <trkpt lat="45.27312" lon="5.82804">
        <ele>665</ele>
        <time>2017-09-24T14:10:27Z</time>
      </trkpt>
      <trkpt lat="45.27314" lon="5.82803">
        <ele>664</ele>
        <time>2017-09-24T14:10:43Z</time>
      </trkpt>
      <trkpt lat="45.27314" lon="5.82803">
        <ele>664</ele>
        <time>2017-09-24T14:10:45Z</time>
      </trkpt>
      <trkpt lat="45.27314" lon="5.82803">
        <ele>664</ele>
        <time>2017-09-24T14:11:02Z</time>
      </trkpt>
      <trkpt lat="45.27312" lon="5.82804">
        <ele>665</ele>
        <time>2017-09-24T14:11:58Z</time>
      </trkpt>
      <trkpt lat="45.27311" lon="5.82804">
        <ele>665</ele>
        <time>2017-09-24T14:12:00Z</time>
      </trkpt>
      <trkpt lat="45.27306" lon="5.82795">
        <ele>670</ele>
        <time>2017-09-24T14:12:05Z</time>
      </trkpt>
      <trkpt lat="45.27305" lon="5.82789">
        <ele>673</ele>
        <time>2017-09-24T14:12:09Z</time>
      </trkpt>
      <trkpt lat="45.27303" lon="5.82783">
        <ele>675</ele>
        <time>2017-09-24T14:12:35Z</time>
      </trkpt>
      <trkpt lat="45.273" lon="5.8278">
        <ele>678</ele>
        <time>2017-09-24T14:13:10Z</time>
      </trkpt>
      <trkpt lat="45.27298" lon="5.82779">
        <ele>678</ele>
        <time>2017-09-24T14:13:12Z</time>
      </trkpt>
      <trkpt lat="45.273" lon="5.82771">
        <ele>680</ele>
        <time>2017-09-24T14:13:16Z</time>
      </trkpt>
      <trkpt lat="45.27303" lon="5.82764">
        <ele>681</ele>
        <time>2017-09-24T14:13:19Z</time>
      </trkpt>
      <trkpt lat="45.27306" lon="5.82757">
        <ele>682</ele>
        <time>2017-09-24T14:13:22Z</time>
      </trkpt>
      <trkpt lat="45.27307" lon="5.82747">
        <ele>685</ele>
        <time>2017-09-24T14:13:25Z</time>
      </trkpt>
      <trkpt lat="45.27306" lon="5.8274">
        <ele>688</ele>
        <time>2017-09-24T14:13:29Z</time>
      </trkpt>
      <trkpt lat="45.27301" lon="5.82736">
        <ele>692</ele>
        <time>2017-09-24T14:13:44Z</time>
      </trkpt>
      <trkpt lat="45.273" lon="5.82735">
        <ele>693</ele>
        <time>2017-09-24T14:18:00Z</time>
      </trkpt>
      <trkpt lat="45.273" lon="5.82733">
        <ele>693</ele>
        <time>2017-09-24T14:18:02Z</time>
      </trkpt>
      <trkpt lat="45.27297" lon="5.82728">
        <ele>696</ele>
        <time>2017-09-24T14:18:08Z</time>
      </trkpt>
      <trkpt lat="45.27295" lon="5.82722">
        <ele>699</ele>
        <time>2017-09-24T14:18:17Z</time>
      </trkpt>
      <trkpt lat="45.27293" lon="5.82722">
        <ele>700</ele>
        <time>2017-09-24T14:18:32Z</time>
      </trkpt>
      <trkpt lat="45.27291" lon="5.82721">
        <ele>701</ele>
        <time>2017-09-24T14:19:02Z</time>
      </trkpt>
      <trkpt lat="45.27287" lon="5.8272">
        <ele>703</ele>
        <time>2017-09-24T14:19:16Z</time>
      </trkpt>
      <trkpt lat="45.27286" lon="5.8271">
        <ele>707</ele>
        <time>2017-09-24T14:19:19Z</time>
      </trkpt>
      <trkpt lat="45.27286" lon="5.827">
        <ele>711</ele>
        <time>2017-09-24T14:19:21Z</time>
      </trkpt>
      <trkpt lat="45.27286" lon="5.82689">
        <ele>715</ele>
        <time>2017-09-24T14:19:23Z</time>
      </trkpt>
      <trkpt lat="45.27285" lon="5.82672">
        <ele>722</ele>
        <time>2017-09-24T14:19:28Z</time>
      </trkpt>
      <trkpt lat="45.27283" lon="5.82666">
        <ele>725</ele>
        <time>2017-09-24T14:19:34Z</time>
      </trkpt>
      <trkpt lat="45.27282" lon="5.82667">
        <ele>725</ele>
        <time>2017-09-24T14:19:54Z</time>
      </trkpt>
      <trkpt lat="45.27282" lon="5.82667">
        <ele>725</ele>
        <time>2017-09-24T14:20:28Z</time>
      </trkpt>
      <trkpt lat="45.27276" lon="5.82671">
        <ele>726</ele>
        <time>2017-09-24T14:21:18Z</time>
      </trkpt>
      <trkpt lat="45.2727" lon="5.82675">
        <ele>726</ele>
        <time>2017-09-24T14:21:21Z</time>
      </trkpt>
      <trkpt lat="45.27266" lon="5.8268">
        <ele>725</ele>
        <time>2017-09-24T14:21:26Z</time>
      </trkpt>
      <trkpt lat="45.27261" lon="5.82681">
        <ele>727</ele>
        <time>2017-09-24T14:21:28Z</time>
      </trkpt>
      <trkpt lat="45.27256" lon="5.82682">
        <ele>728</ele>
        <time>2017-09-24T14:21:31Z</time>
      </trkpt>
      <trkpt lat="45.27257" lon="5.82689">
        <ele>725</ele>
        <time>2017-09-24T14:21:38Z</time>
      </trkpt>
      <trkpt lat="45.27253" lon="5.8269">
        <ele>727</ele>
        <time>2017-09-24T14:21:48Z</time>
      </trkpt>
      <trkpt lat="45.27247" lon="5.82691">
        <ele>729</ele>
        <time>2017-09-24T14:22:06Z</time>
      </trkpt>
      <trkpt lat="45.27242" lon="5.82694">
        <ele>730</ele>
        <time>2017-09-24T14:22:10Z</time>
      </trkpt>
      <trkpt lat="45.27238" lon="5.82696">
        <ele>731</ele>
        <time>2017-09-24T14:22:14Z</time>
      </trkpt>
      <trkpt lat="45.27234" lon="5.82699">
        <ele>732</ele>
        <time>2017-09-24T14:22:17Z</time>
      </trkpt>
      <trkpt lat="45.27229" lon="5.82705">
        <ele>731</ele>
        <time>2017-09-24T14:22:21Z</time>
      </trkpt>
      <trkpt lat="45.27227" lon="5.82711">
        <ele>730</ele>
        <time>2017-09-24T14:22:28Z</time>
      </trkpt>
      <trkpt lat="45.27226" lon="5.82714">
        <ele>729</ele>
        <time>2017-09-24T14:22:51Z</time>
      </trkpt>
      <trkpt lat="45.27226" lon="5.82714">
        <ele>730</ele>
        <time>2017-09-24T14:22:54Z</time>
      </trkpt>
      <trkpt lat="45.27221" lon="5.82717">
        <ele>730</ele>
        <time>2017-09-24T14:23:04Z</time>
      </trkpt>
      <trkpt lat="45.27214" lon="5.82719">
        <ele>732</ele>
        <time>2017-09-24T14:23:06Z</time>
      </trkpt>
      <trkpt lat="45.27209" lon="5.82721">
        <ele>733</ele>
        <time>2017-09-24T14:23:11Z</time>
      </trkpt>
      <trkpt lat="45.27205" lon="5.82724">
        <ele>733</ele>
        <time>2017-09-24T14:23:25Z</time>
      </trkpt>
      <trkpt lat="45.27203" lon="5.8273">
        <ele>732</ele>
        <time>2017-09-24T14:23:44Z</time>
      </trkpt>
      <trkpt lat="45.27202" lon="5.82733">
        <ele>731</ele>
        <time>2017-09-24T14:24:05Z</time>
      </trkpt>
      <trkpt lat="45.27202" lon="5.82733">
        <ele>731</ele>
        <time>2017-09-24T14:26:06Z</time>
      </trkpt>
      <trkpt lat="45.27193" lon="5.82738">
        <ele>732</ele>
        <time>2017-09-24T14:27:32Z</time>
      </trkpt>
      <trkpt lat="45.27188" lon="5.82741">
        <ele>732</ele>
        <time>2017-09-24T14:27:34Z</time>
      </trkpt>
      <trkpt lat="45.27182" lon="5.82743">
        <ele>731</ele>
        <time>2017-09-24T14:27:37Z</time>
      </trkpt>
      <trkpt lat="45.27178" lon="5.82747">
        <ele>730</ele>
        <time>2017-09-24T14:27:40Z</time>
      </trkpt>
      <trkpt lat="45.27173" lon="5.8275">
        <ele>729</ele>
        <time>2017-09-24T14:27:45Z</time>
      </trkpt>
      <trkpt lat="45.27168" lon="5.8275">
        <ele>730</ele>
        <time>2017-09-24T14:27:49Z</time>
      </trkpt>
      <trkpt lat="45.27162" lon="5.82751">
        <ele>730</ele>
        <time>2017-09-24T14:28:03Z</time>
      </trkpt>
      <trkpt lat="45.27156" lon="5.82753">
        <ele>729</ele>
        <time>2017-09-24T14:28:07Z</time>
      </trkpt>
      <trkpt lat="45.27151" lon="5.82756">
        <ele>729</ele>
        <time>2017-09-24T14:28:11Z</time>
      </trkpt>
      <trkpt lat="45.27146" lon="5.82759">
        <ele>728</ele>
        <time>2017-09-24T14:28:20Z</time>
      </trkpt>
      <trkpt lat="45.27142" lon="5.82761">
        <ele>727</ele>
        <time>2017-09-24T14:28:22Z</time>
      </trkpt>
      <trkpt lat="45.27136" lon="5.82764">
        <ele>726</ele>
        <time>2017-09-24T14:28:24Z</time>
      </trkpt>
      <trkpt lat="45.2713" lon="5.82764">
        <ele>727</ele>
        <time>2017-09-24T14:28:27Z</time>
      </trkpt>
      <trkpt lat="45.27125" lon="5.82763">
        <ele>728</ele>
        <time>2017-09-24T14:28:30Z</time>
      </trkpt>
      <trkpt lat="45.27119" lon="5.82761">
        <ele>729</ele>
        <time>2017-09-24T14:28:33Z</time>
      </trkpt>
      <trkpt lat="45.27114" lon="5.82761">
        <ele>729</ele>
        <time>2017-09-24T14:28:35Z</time>
      </trkpt>
      <trkpt lat="45.27108" lon="5.82762">
        <ele>728</ele>
        <time>2017-09-24T14:28:37Z</time>
      </trkpt>
      <trkpt lat="45.271" lon="5.82763">
        <ele>727</ele>
        <time>2017-09-24T14:28:39Z</time>
      </trkpt>
      <trkpt lat="45.27096" lon="5.82764">
        <ele>726</ele>
        <time>2017-09-24T14:28:40Z</time>
      </trkpt>
      <trkpt lat="45.27089" lon="5.82763">
        <ele>726</ele>
        <time>2017-09-24T14:28:42Z</time>
      </trkpt>
      <trkpt lat="45.27084" lon="5.82763">
        <ele>726</ele>
        <time>2017-09-24T14:28:47Z</time>
      </trkpt>
      <trkpt lat="45.27081" lon="5.82759">
        <ele>728</ele>
        <time>2017-09-24T14:29:04Z</time>
      </trkpt>
      <trkpt lat="45.27074" lon="5.82758">
        <ele>728</ele>
        <time>2017-09-24T14:29:07Z</time>
      </trkpt>
      <trkpt lat="45.27069" lon="5.82755">
        <ele>729</ele>
        <time>2017-09-24T14:29:11Z</time>
      </trkpt>
      <trkpt lat="45.27064" lon="5.82753">
        <ele>729</ele>
        <time>2017-09-24T14:29:16Z</time>
      </trkpt>
      <trkpt lat="45.27057" lon="5.82753">
        <ele>729</ele>
        <time>2017-09-24T14:29:23Z</time>
      </trkpt>
      <trkpt lat="45.27051" lon="5.82752">
        <ele>728</ele>
        <time>2017-09-24T14:29:27Z</time>
      </trkpt>
      <trkpt lat="45.27047" lon="5.82753">
        <ele>727</ele>
        <time>2017-09-24T14:29:55Z</time>
      </trkpt>
      <trkpt lat="45.27042" lon="5.82752">
        <ele>727</ele>
        <time>2017-09-24T14:30:49Z</time>
      </trkpt>
      <trkpt lat="45.2704" lon="5.82752">
        <ele>726</ele>
        <time>2017-09-24T14:31:11Z</time>
      </trkpt>
      <trkpt lat="45.27039" lon="5.82752">
        <ele>726</ele>
        <time>2017-09-24T14:31:12Z</time>
      </trkpt>
      <trkpt lat="45.27033" lon="5.82753">
        <ele>725</ele>
        <time>2017-09-24T14:31:15Z</time>
      </trkpt>
      <trkpt lat="45.27028" lon="5.82752">
        <ele>724</ele>
        <time>2017-09-24T14:31:17Z</time>
      </trkpt>
      <trkpt lat="45.27021" lon="5.82751">
        <ele>723</ele>
        <time>2017-09-24T14:31:19Z</time>
      </trkpt>
      <trkpt lat="45.27016" lon="5.8275">
        <ele>723</ele>
        <time>2017-09-24T14:31:21Z</time>
      </trkpt>
      <trkpt lat="45.2701" lon="5.82748">
        <ele>722</ele>
        <time>2017-09-24T14:31:23Z</time>
      </trkpt>
      <trkpt lat="45.27005" lon="5.82744">
        <ele>722</ele>
        <time>2017-09-24T14:31:25Z</time>
      </trkpt>
      <trkpt lat="45.26999" lon="5.8274">
        <ele>722</ele>
        <time>2017-09-24T14:31:27Z</time>
      </trkpt>
      <trkpt lat="45.26995" lon="5.82735">
        <ele>723</ele>
        <time>2017-09-24T14:31:29Z</time>
      </trkpt>
      <trkpt lat="45.26993" lon="5.82727">
        <ele>725</ele>
        <time>2017-09-24T14:31:32Z</time>
      </trkpt>
      <trkpt lat="45.26989" lon="5.82721">
        <ele>726</ele>
        <time>2017-09-24T14:31:35Z</time>
      </trkpt>
      <trkpt lat="45.26986" lon="5.82713">
        <ele>727</ele>
        <time>2017-09-24T14:31:38Z</time>
      </trkpt>
      <trkpt lat="45.26983" lon="5.82708">
        <ele>726</ele>
        <time>2017-09-24T14:31:41Z</time>
      </trkpt>
      <trkpt lat="45.26982" lon="5.827">
        <ele>729</ele>
        <time>2017-09-24T14:31:45Z</time>
      </trkpt>
      <trkpt lat="45.26978" lon="5.82705">
        <ele>725</ele>
        <time>2017-09-24T14:32:13Z</time>
      </trkpt>
      <trkpt lat="45.26973" lon="5.82706">
        <ele>722</ele>
        <time>2017-09-24T14:32:16Z</time>
      </trkpt>
      <trkpt lat="45.26969" lon="5.82704">
        <ele>721</ele>
        <time>2017-09-24T14:32:18Z</time>
      </trkpt>
      <trkpt lat="45.26962" lon="5.82698">
        <ele>719</ele>
        <time>2017-09-24T14:32:22Z</time>
      </trkpt>
      <trkpt lat="45.26957" lon="5.82695">
        <ele>717</ele>
        <time>2017-09-24T14:32:25Z</time>
      </trkpt>
      <trkpt lat="45.2695" lon="5.82689">
        <ele>715</ele>
        <time>2017-09-24T14:32:28Z</time>
      </trkpt>
      <trkpt lat="45.26944" lon="5.82683">
        <ele>713</ele>
        <time>2017-09-24T14:32:30Z</time>
      </trkpt>
      <trkpt lat="45.2694" lon="5.82679">
        <ele>712</ele>
        <time>2017-09-24T14:32:32Z</time>
      </trkpt>
      <trkpt lat="45.26934" lon="5.82676">
        <ele>710</ele>
        <time>2017-09-24T14:32:35Z</time>
      </trkpt>
      <trkpt lat="45.2693" lon="5.82674">
        <ele>708</ele>
        <time>2017-09-24T14:32:37Z</time>
      </trkpt>
      <trkpt lat="45.26924" lon="5.82671">
        <ele>706</ele>
        <time>2017-09-24T14:32:40Z</time>
      </trkpt>
      <trkpt lat="45.26917" lon="5.82664">
        <ele>704</ele>
        <time>2017-09-24T14:32:43Z</time>
      </trkpt>
      <trkpt lat="45.26901" lon="5.8265">
        <ele>697</ele>
        <time>2017-09-24T14:32:45Z</time>
      </trkpt>
      <trkpt lat="45.26897" lon="5.82644">
        <ele>696</ele>
        <time>2017-09-24T14:32:48Z</time>
      </trkpt>
      <trkpt lat="45.26894" lon="5.82639">
        <ele>695</ele>
        <time>2017-09-24T14:32:50Z</time>
      </trkpt>
      <trkpt lat="45.26889" lon="5.82633">
        <ele>693</ele>
        <time>2017-09-24T14:32:53Z</time>
      </trkpt>
      <trkpt lat="45.26886" lon="5.82627">
        <ele>693</ele>
        <time>2017-09-24T14:32:57Z</time>
      </trkpt>
      <trkpt lat="45.26885" lon="5.82625">
        <ele>692</ele>
        <time>2017-09-24T14:33:13Z</time>
      </trkpt>
      <trkpt lat="45.26887" lon="5.82623">
        <ele>694</ele>
        <time>2017-09-24T14:33:30Z</time>
      </trkpt>
      <trkpt lat="45.26886" lon="5.82619">
        <ele>694</ele>
        <time>2017-09-24T14:33:32Z</time>
      </trkpt>
      <trkpt lat="45.26885" lon="5.82611">
        <ele>696</ele>
        <time>2017-09-24T14:33:37Z</time>
      </trkpt>
      <trkpt lat="45.26884" lon="5.82604">
        <ele>697</ele>
        <time>2017-09-24T14:33:40Z</time>
      </trkpt>
      <trkpt lat="45.26882" lon="5.82598">
        <ele>697</ele>
        <time>2017-09-24T14:33:43Z</time>
      </trkpt>
      <trkpt lat="45.26879" lon="5.82592">
        <ele>696</ele>
        <time>2017-09-24T14:33:46Z</time>
      </trkpt>
      <trkpt lat="45.26876" lon="5.82586">
        <ele>696</ele>
        <time>2017-09-24T14:33:48Z</time>
      </trkpt>
      <trkpt lat="45.26872" lon="5.8258">
        <ele>695</ele>
        <time>2017-09-24T14:33:50Z</time>
      </trkpt>
      <trkpt lat="45.26868" lon="5.82573">
        <ele>694</ele>
        <time>2017-09-24T14:33:52Z</time>
      </trkpt>
      <trkpt lat="45.26864" lon="5.82567">
        <ele>692</ele>
        <time>2017-09-24T14:33:54Z</time>
      </trkpt>
      <trkpt lat="45.26859" lon="5.82561">
        <ele>691</ele>
        <time>2017-09-24T14:33:56Z</time>
      </trkpt>
      <trkpt lat="45.26857" lon="5.82554">
        <ele>691</ele>
        <time>2017-09-24T14:33:58Z</time>
      </trkpt>
      <trkpt lat="45.26856" lon="5.82544">
        <ele>693</ele>
        <time>2017-09-24T14:34:00Z</time>
      </trkpt>
      <trkpt lat="45.26856" lon="5.82529">
        <ele>696</ele>
        <time>2017-09-24T14:34:04Z</time>
      </trkpt>
      <trkpt lat="45.26852" lon="5.82523">
        <ele>696</ele>
        <time>2017-09-24T14:34:10Z</time>
      </trkpt>
      <trkpt lat="45.26851" lon="5.82516">
        <ele>697</ele>
        <time>2017-09-24T14:34:13Z</time>
      </trkpt>
      <trkpt lat="45.2685" lon="5.82509">
        <ele>698</ele>
        <time>2017-09-24T14:34:17Z</time>
      </trkpt>
      <trkpt lat="45.26855" lon="5.82506">
        <ele>703</ele>
        <time>2017-09-24T14:34:22Z</time>
      </trkpt>
      <trkpt lat="45.26849" lon="5.82506">
        <ele>698</ele>
        <time>2017-09-24T14:34:36Z</time>
      </trkpt>
      <trkpt lat="45.26845" lon="5.825">
        <ele>698</ele>
        <time>2017-09-24T14:34:43Z</time>
      </trkpt>
      <trkpt lat="45.26841" lon="5.82494">
        <ele>698</ele>
        <time>2017-09-24T14:34:45Z</time>
      </trkpt>
      <trkpt lat="45.26836" lon="5.82492">
        <ele>696</ele>
        <time>2017-09-24T14:34:47Z</time>
      </trkpt>
      <trkpt lat="45.2683" lon="5.8249">
        <ele>694</ele>
        <time>2017-09-24T14:34:49Z</time>
      </trkpt>
      <trkpt lat="45.26823" lon="5.82486">
        <ele>691</ele>
        <time>2017-09-24T14:34:51Z</time>
      </trkpt>
      <trkpt lat="45.26816" lon="5.82484">
        <ele>688</ele>
        <time>2017-09-24T14:34:53Z</time>
      </trkpt>
      <trkpt lat="45.26808" lon="5.82479">
        <ele>686</ele>
        <time>2017-09-24T14:34:55Z</time>
      </trkpt>
      <trkpt lat="45.26803" lon="5.82476">
        <ele>684</ele>
        <time>2017-09-24T14:34:56Z</time>
      </trkpt>
      <trkpt lat="45.26799" lon="5.82473">
        <ele>683</ele>
        <time>2017-09-24T14:34:57Z</time>
      </trkpt>
      <trkpt lat="45.26794" lon="5.82471">
        <ele>681</ele>
        <time>2017-09-24T14:34:58Z</time>
      </trkpt>
      <trkpt lat="45.26787" lon="5.82465">
        <ele>680</ele>
        <time>2017-09-24T14:35:00Z</time>
      </trkpt>
      <trkpt lat="45.26783" lon="5.82458">
        <ele>680</ele>
        <time>2017-09-24T14:35:03Z</time>
      </trkpt>
      <trkpt lat="45.26779" lon="5.82456">
        <ele>679</ele>
        <time>2017-09-24T14:35:06Z</time>
      </trkpt>
      <trkpt lat="45.26775" lon="5.82453">
        <ele>679</ele>
        <time>2017-09-24T14:35:09Z</time>
      </trkpt>
      <trkpt lat="45.2677" lon="5.82446">
        <ele>680</ele>
        <time>2017-09-24T14:35:12Z</time>
      </trkpt>
      <trkpt lat="45.26768" lon="5.8244">
        <ele>681</ele>
        <time>2017-09-24T14:35:14Z</time>
      </trkpt>
      <trkpt lat="45.26764" lon="5.82436">
        <ele>681</ele>
        <time>2017-09-24T14:35:17Z</time>
      </trkpt>
      <trkpt lat="45.26759" lon="5.82433">
        <ele>681</ele>
        <time>2017-09-24T14:35:20Z</time>
      </trkpt>
      <trkpt lat="45.26754" lon="5.82432">
        <ele>680</ele>
        <time>2017-09-24T14:35:22Z</time>
      </trkpt>
      <trkpt lat="45.2675" lon="5.82432">
        <ele>679</ele>
        <time>2017-09-24T14:35:23Z</time>
      </trkpt>
      <trkpt lat="45.26745" lon="5.82432">
        <ele>677</ele>
        <time>2017-09-24T14:35:24Z</time>
      </trkpt>
      <trkpt lat="45.2674" lon="5.8243">
        <ele>676</ele>
        <time>2017-09-24T14:35:25Z</time>
      </trkpt>
      <trkpt lat="45.26735" lon="5.82428">
        <ele>676</ele>
        <time>2017-09-24T14:35:26Z</time>
      </trkpt>
      <trkpt lat="45.26729" lon="5.82426">
        <ele>674</ele>
        <time>2017-09-24T14:35:27Z</time>
      </trkpt>
      <trkpt lat="45.26724" lon="5.82423">
        <ele>674</ele>
        <time>2017-09-24T14:35:28Z</time>
      </trkpt>
      <trkpt lat="45.26719" lon="5.82421">
        <ele>673</ele>
        <time>2017-09-24T14:35:29Z</time>
      </trkpt>
      <trkpt lat="45.26713" lon="5.82418">
        <ele>672</ele>
        <time>2017-09-24T14:35:30Z</time>
      </trkpt>
      <trkpt lat="45.26704" lon="5.82418">
        <ele>671</ele>
        <time>2017-09-24T14:35:32Z</time>
      </trkpt>
      <trkpt lat="45.26695" lon="5.82421">
        <ele>669</ele>
        <time>2017-09-24T14:35:34Z</time>
      </trkpt>
      <trkpt lat="45.2669" lon="5.82423">
        <ele>667</ele>
        <time>2017-09-24T14:35:35Z</time>
      </trkpt>
      <trkpt lat="45.26678" lon="5.82426">
        <ele>665</ele>
        <time>2017-09-24T14:35:36Z</time>
      </trkpt>
      <trkpt lat="45.26669" lon="5.82432">
        <ele>662</ele>
        <time>2017-09-24T14:35:38Z</time>
      </trkpt>
      <trkpt lat="45.26664" lon="5.82429">
        <ele>662</ele>
        <time>2017-09-24T14:35:39Z</time>
      </trkpt>
      <trkpt lat="45.26658" lon="5.82427">
        <ele>662</ele>
        <time>2017-09-24T14:35:40Z</time>
      </trkpt>
      <trkpt lat="45.26652" lon="5.82432">
        <ele>659</ele>
        <time>2017-09-24T14:35:41Z</time>
      </trkpt>
      <trkpt lat="45.26648" lon="5.82436">
        <ele>658</ele>
        <time>2017-09-24T14:35:42Z</time>
      </trkpt>
      <trkpt lat="45.26642" lon="5.8244">
        <ele>655</ele>
        <time>2017-09-24T14:35:43Z</time>
      </trkpt>
      <trkpt lat="45.26634" lon="5.82442">
        <ele>654</ele>
        <time>2017-09-24T14:35:44Z</time>
      </trkpt>
      <trkpt lat="45.26627" lon="5.82441">
        <ele>654</ele>
        <time>2017-09-24T14:35:45Z</time>
      </trkpt>
      <trkpt lat="45.26616" lon="5.82441">
        <ele>653</ele>
        <time>2017-09-24T14:35:46Z</time>
      </trkpt>
      <trkpt lat="45.26608" lon="5.82445">
        <ele>651</ele>
        <time>2017-09-24T14:35:48Z</time>
      </trkpt>
      <trkpt lat="45.26602" lon="5.82443">
        <ele>652</ele>
        <time>2017-09-24T14:35:50Z</time>
      </trkpt>
      <trkpt lat="45.26597" lon="5.82442">
        <ele>652</ele>
        <time>2017-09-24T14:35:52Z</time>
      </trkpt>
      <trkpt lat="45.26592" lon="5.82446">
        <ele>650</ele>
        <time>2017-09-24T14:35:54Z</time>
      </trkpt>
      <trkpt lat="45.26586" lon="5.82445">
        <ele>650</ele>
        <time>2017-09-24T14:35:56Z</time>
      </trkpt>
      <trkpt lat="45.26578" lon="5.82442">
        <ele>650</ele>
        <time>2017-09-24T14:35:58Z</time>
      </trkpt>
      <trkpt lat="45.26571" lon="5.82438">
        <ele>651</ele>
        <time>2017-09-24T14:36:00Z</time>
      </trkpt>
      <trkpt lat="45.26563" lon="5.82433">
        <ele>651</ele>
        <time>2017-09-24T14:36:02Z</time>
      </trkpt>
      <trkpt lat="45.26558" lon="5.8243">
        <ele>651</ele>
        <time>2017-09-24T14:36:03Z</time>
      </trkpt>
      <trkpt lat="45.26553" lon="5.82427">
        <ele>650</ele>
        <time>2017-09-24T14:36:04Z</time>
      </trkpt>
      <trkpt lat="45.26548" lon="5.82424">
        <ele>650</ele>
        <time>2017-09-24T14:36:05Z</time>
      </trkpt>
      <trkpt lat="45.26543" lon="5.82423">
        <ele>650</ele>
        <time>2017-09-24T14:36:06Z</time>
      </trkpt>
      <trkpt lat="45.26535" lon="5.8242">
        <ele>649</ele>
        <time>2017-09-24T14:36:08Z</time>
      </trkpt>
      <trkpt lat="45.26528" lon="5.82416">
        <ele>648</ele>
        <time>2017-09-24T14:36:10Z</time>
      </trkpt>
      <trkpt lat="45.26524" lon="5.82413">
        <ele>648</ele>
        <time>2017-09-24T14:36:11Z</time>
      </trkpt>
      <trkpt lat="45.26519" lon="5.8241">
        <ele>648</ele>
        <time>2017-09-24T14:36:12Z</time>
      </trkpt>
      <trkpt lat="45.26515" lon="5.82407">
        <ele>648</ele>
        <time>2017-09-24T14:36:13Z</time>
      </trkpt>
      <trkpt lat="45.26504" lon="5.824">
        <ele>647</ele>
        <time>2017-09-24T14:36:15Z</time>
      </trkpt>
      <trkpt lat="45.265" lon="5.82397">
        <ele>646</ele>
        <time>2017-09-24T14:36:16Z</time>
      </trkpt>
      <trkpt lat="45.26493" lon="5.82391">
        <ele>645</ele>
        <time>2017-09-24T14:36:18Z</time>
      </trkpt>
      <trkpt lat="45.26487" lon="5.82386">
        <ele>643</ele>
        <time>2017-09-24T14:36:20Z</time>
      </trkpt>
      <trkpt lat="45.26482" lon="5.82385">
        <ele>642</ele>
        <time>2017-09-24T14:36:24Z</time>
      </trkpt>
      <trkpt lat="45.26477" lon="5.82388">
        <ele>639</ele>
        <time>2017-09-24T14:36:28Z</time>
      </trkpt>
      <trkpt lat="45.26472" lon="5.82389">
        <ele>637</ele>
        <time>2017-09-24T14:36:33Z</time>
      </trkpt>
      <trkpt lat="45.26471" lon="5.82389">
        <ele>637</ele>
        <time>2017-09-24T14:37:02Z</time>
      </trkpt>
      <trkpt lat="45.26466" lon="5.82383">
        <ele>636</ele>
        <time>2017-09-24T14:37:45Z</time>
      </trkpt>
      <trkpt lat="45.26461" lon="5.82371">
        <ele>636</ele>
        <time>2017-09-24T14:37:47Z</time>
      </trkpt>
      <trkpt lat="45.2646" lon="5.82365">
        <ele>636</ele>
        <time>2017-09-24T14:37:48Z</time>
      </trkpt>
      <trkpt lat="45.26457" lon="5.82359">
        <ele>636</ele>
        <time>2017-09-24T14:37:49Z</time>
      </trkpt>
      <trkpt lat="45.26451" lon="5.8235">
        <ele>634</ele>
        <time>2017-09-24T14:37:51Z</time>
      </trkpt>
      <trkpt lat="45.26446" lon="5.82341">
        <ele>633</ele>
        <time>2017-09-24T14:37:53Z</time>
      </trkpt>
      <trkpt lat="45.26443" lon="5.82331">
        <ele>631</ele>
        <time>2017-09-24T14:37:55Z</time>
      </trkpt>
      <trkpt lat="45.26444" lon="5.8232">
        <ele>631</ele>
        <time>2017-09-24T14:37:57Z</time>
      </trkpt>
      <trkpt lat="45.26442" lon="5.82307">
        <ele>629</ele>
        <time>2017-09-24T14:37:59Z</time>
      </trkpt>
      <trkpt lat="45.26437" lon="5.82289">
        <ele>626</ele>
        <time>2017-09-24T14:38:00Z</time>
      </trkpt>
      <trkpt lat="45.26441" lon="5.82279">
        <ele>627</ele>
        <time>2017-09-24T14:38:01Z</time>
      </trkpt>
      <trkpt lat="45.26438" lon="5.82263">
        <ele>625</ele>
        <time>2017-09-24T14:38:02Z</time>
      </trkpt>
      <trkpt lat="45.26437" lon="5.82253">
        <ele>624</ele>
        <time>2017-09-24T14:38:03Z</time>
      </trkpt>
      <trkpt lat="45.26448" lon="5.82228">
        <ele>627</ele>
        <time>2017-09-24T14:38:05Z</time>
      </trkpt>
      <trkpt lat="45.26442" lon="5.82218">
        <ele>624</ele>
        <time>2017-09-24T14:38:08Z</time>
      </trkpt>
      <trkpt lat="45.26436" lon="5.8221">
        <ele>621</ele>
        <time>2017-09-24T14:38:10Z</time>
      </trkpt>
      <trkpt lat="45.26427" lon="5.82211">
        <ele>619</ele>
        <time>2017-09-24T14:38:11Z</time>
      </trkpt>
      <trkpt lat="45.26419" lon="5.82203">
        <ele>617</ele>
        <time>2017-09-24T14:38:12Z</time>
      </trkpt>
      <trkpt lat="45.26413" lon="5.82196">
        <ele>616</ele>
        <time>2017-09-24T14:38:13Z</time>
      </trkpt>
      <trkpt lat="45.26406" lon="5.82194">
        <ele>614</ele>
        <time>2017-09-24T14:38:14Z</time>
      </trkpt>
      <trkpt lat="45.26401" lon="5.82193">
        <ele>613</ele>
        <time>2017-09-24T14:38:15Z</time>
      </trkpt>
      <trkpt lat="45.26395" lon="5.82188">
        <ele>612</ele>
        <time>2017-09-24T14:38:16Z</time>
      </trkpt>
      <trkpt lat="45.2639" lon="5.82183">
        <ele>611</ele>
        <time>2017-09-24T14:38:17Z</time>
      </trkpt>
      <trkpt lat="45.26382" lon="5.82181">
        <ele>609</ele>
        <time>2017-09-24T14:38:18Z</time>
      </trkpt>
      <trkpt lat="45.26378" lon="5.82178">
        <ele>608</ele>
        <time>2017-09-24T14:38:20Z</time>
      </trkpt>
      <trkpt lat="45.26379" lon="5.82175">
        <ele>609</ele>
        <time>2017-09-24T14:38:35Z</time>
      </trkpt>
      <trkpt lat="45.26379" lon="5.82175">
        <ele>609</ele>
        <time>2017-09-24T14:38:36Z</time>
      </trkpt>
      <trkpt lat="45.26381" lon="5.82182">
        <ele>609</ele>
        <time>2017-09-24T14:38:44Z</time>
      </trkpt>
      <trkpt lat="45.26378" lon="5.82175">
        <ele>608</ele>
        <time>2017-09-24T14:38:50Z</time>
      </trkpt>
      <trkpt lat="45.26379" lon="5.82167">
        <ele>609</ele>
        <time>2017-09-24T14:38:53Z</time>
      </trkpt>
      <trkpt lat="45.26378" lon="5.82158">
        <ele>610</ele>
        <time>2017-09-24T14:38:55Z</time>
      </trkpt>
      <trkpt lat="45.26375" lon="5.82149">
        <ele>610</ele>
        <time>2017-09-24T14:38:57Z</time>
      </trkpt>
      <trkpt lat="45.2637" lon="5.8214">
        <ele>609</ele>
        <time>2017-09-24T14:38:59Z</time>
      </trkpt>
      <trkpt lat="45.26367" lon="5.82135">
        <ele>609</ele>
        <time>2017-09-24T14:39:00Z</time>
      </trkpt>
      <trkpt lat="45.26363" lon="5.82128">
        <ele>609</ele>
        <time>2017-09-24T14:39:01Z</time>
      </trkpt>
      <trkpt lat="45.26359" lon="5.8212">
        <ele>610</ele>
        <time>2017-09-24T14:39:03Z</time>
      </trkpt>
      <trkpt lat="45.26358" lon="5.82113">
        <ele>611</ele>
        <time>2017-09-24T14:39:05Z</time>
      </trkpt>
      <trkpt lat="45.26355" lon="5.82109">
        <ele>611</ele>
        <time>2017-09-24T14:39:07Z</time>
      </trkpt>
      <trkpt lat="45.26349" lon="5.82107">
        <ele>611</ele>
        <time>2017-09-24T14:39:11Z</time>
      </trkpt>
      <trkpt lat="45.26345" lon="5.82103">
        <ele>611</ele>
        <time>2017-09-24T14:39:13Z</time>
      </trkpt>
      <trkpt lat="45.26339" lon="5.82098">
        <ele>612</ele>
        <time>2017-09-24T14:39:15Z</time>
      </trkpt>
      <trkpt lat="45.26333" lon="5.82096">
        <ele>611</ele>
        <time>2017-09-24T14:39:17Z</time>
      </trkpt>
      <trkpt lat="45.26325" lon="5.82098">
        <ele>610</ele>
        <time>2017-09-24T14:39:19Z</time>
      </trkpt>
      <trkpt lat="45.26318" lon="5.82106">
        <ele>608</ele>
        <time>2017-09-24T14:39:20Z</time>
      </trkpt>
      <trkpt lat="45.26315" lon="5.82111">
        <ele>607</ele>
        <time>2017-09-24T14:39:21Z</time>
      </trkpt>
      <trkpt lat="45.26308" lon="5.82115">
        <ele>605</ele>
        <time>2017-09-24T14:39:23Z</time>
      </trkpt>
      <trkpt lat="45.26301" lon="5.82119">
        <ele>604</ele>
        <time>2017-09-24T14:39:24Z</time>
      </trkpt>
      <trkpt lat="45.26296" lon="5.82122">
        <ele>603</ele>
        <time>2017-09-24T14:39:25Z</time>
      </trkpt>
      <trkpt lat="45.26293" lon="5.82129">
        <ele>601</ele>
        <time>2017-09-24T14:39:26Z</time>
      </trkpt>
      <trkpt lat="45.26289" lon="5.82135">
        <ele>599</ele>
        <time>2017-09-24T14:39:27Z</time>
      </trkpt>
      <trkpt lat="45.26284" lon="5.8214">
        <ele>598</ele>
        <time>2017-09-24T14:39:28Z</time>
      </trkpt>
      <trkpt lat="45.26278" lon="5.82152">
        <ele>596</ele>
        <time>2017-09-24T14:39:30Z</time>
      </trkpt>
      <trkpt lat="45.26273" lon="5.82157">
        <ele>594</ele>
        <time>2017-09-24T14:39:31Z</time>
      </trkpt>
      <trkpt lat="45.26267" lon="5.82168">
        <ele>592</ele>
        <time>2017-09-24T14:39:32Z</time>
      </trkpt>
      <trkpt lat="45.26264" lon="5.82174">
        <ele>590</ele>
        <time>2017-09-24T14:39:33Z</time>
      </trkpt>
      <trkpt lat="45.2626" lon="5.82182">
        <ele>588</ele>
        <time>2017-09-24T14:39:35Z</time>
      </trkpt>
      <trkpt lat="45.2626" lon="5.82177">
        <ele>589</ele>
        <time>2017-09-24T14:40:03Z</time>
      </trkpt>
      <trkpt lat="45.26255" lon="5.82184">
        <ele>587</ele>
        <time>2017-09-24T14:40:28Z</time>
      </trkpt>
      <trkpt lat="45.26244" lon="5.82198">
        <ele>583</ele>
        <time>2017-09-24T14:40:29Z</time>
      </trkpt>
      <trkpt lat="45.2624" lon="5.82204">
        <ele>581</ele>
        <time>2017-09-24T14:40:30Z</time>
      </trkpt>
      <trkpt lat="45.26231" lon="5.82205">
        <ele>579</ele>
        <time>2017-09-24T14:40:31Z</time>
      </trkpt>
      <trkpt lat="45.26223" lon="5.82212">
        <ele>577</ele>
        <time>2017-09-24T14:40:32Z</time>
      </trkpt>
      <trkpt lat="45.26217" lon="5.8222">
        <ele>575</ele>
        <time>2017-09-24T14:40:33Z</time>
      </trkpt>
      <trkpt lat="45.26212" lon="5.82228">
        <ele>573</ele>
        <time>2017-09-24T14:40:34Z</time>
      </trkpt>
      <trkpt lat="45.26205" lon="5.8223">
        <ele>572</ele>
        <time>2017-09-24T14:40:36Z</time>
      </trkpt>
      <trkpt lat="45.26199" lon="5.82235">
        <ele>570</ele>
        <time>2017-09-24T14:40:39Z</time>
      </trkpt>
      <trkpt lat="45.26194" lon="5.82237">
        <ele>570</ele>
        <time>2017-09-24T14:40:41Z</time>
      </trkpt>
      <trkpt lat="45.26191" lon="5.82243">
        <ele>568</ele>
        <time>2017-09-24T14:40:42Z</time>
      </trkpt>
      <trkpt lat="45.26185" lon="5.82251">
        <ele>566</ele>
        <time>2017-09-24T14:40:44Z</time>
      </trkpt>
      <trkpt lat="45.26181" lon="5.8226">
        <ele>564</ele>
        <time>2017-09-24T14:40:46Z</time>
      </trkpt>
      <trkpt lat="45.26177" lon="5.82268">
        <ele>562</ele>
        <time>2017-09-24T14:40:48Z</time>
      </trkpt>
      <trkpt lat="45.26173" lon="5.82272">
        <ele>561</ele>
        <time>2017-09-24T14:40:49Z</time>
      </trkpt>
      <trkpt lat="45.26167" lon="5.82279">
        <ele>558</ele>
        <time>2017-09-24T14:40:50Z</time>
      </trkpt>
      <trkpt lat="45.26166" lon="5.82287">
        <ele>557</ele>
        <time>2017-09-24T14:40:51Z</time>
      </trkpt>
      <trkpt lat="45.26156" lon="5.82292">
        <ele>555</ele>
        <time>2017-09-24T14:40:52Z</time>
      </trkpt>
      <trkpt lat="45.26149" lon="5.82297">
        <ele>553</ele>
        <time>2017-09-24T14:40:54Z</time>
      </trkpt>
      <trkpt lat="45.26141" lon="5.82297">
        <ele>552</ele>
        <time>2017-09-24T14:40:55Z</time>
      </trkpt>
      <trkpt lat="45.26136" lon="5.82296">
        <ele>552</ele>
        <time>2017-09-24T14:40:57Z</time>
      </trkpt>
      <trkpt lat="45.26129" lon="5.82297">
        <ele>551</ele>
        <time>2017-09-24T14:40:59Z</time>
      </trkpt>
      <trkpt lat="45.26123" lon="5.82292">
        <ele>552</ele>
        <time>2017-09-24T14:41:00Z</time>
      </trkpt>
      <trkpt lat="45.26118" lon="5.8229">
        <ele>552</ele>
        <time>2017-09-24T14:41:01Z</time>
      </trkpt>
      <trkpt lat="45.26112" lon="5.82284">
        <ele>552</ele>
        <time>2017-09-24T14:41:03Z</time>
      </trkpt>
      <trkpt lat="45.26108" lon="5.82277">
        <ele>553</ele>
        <time>2017-09-24T14:41:04Z</time>
      </trkpt>
      <trkpt lat="45.26103" lon="5.82269">
        <ele>553</ele>
        <time>2017-09-24T14:41:06Z</time>
      </trkpt>
      <trkpt lat="45.26098" lon="5.8226">
        <ele>554</ele>
        <time>2017-09-24T14:41:08Z</time>
      </trkpt>
      <trkpt lat="45.2609" lon="5.82249">
        <ele>554</ele>
        <time>2017-09-24T14:41:10Z</time>
      </trkpt>
      <trkpt lat="45.2608" lon="5.82242">
        <ele>553</ele>
        <time>2017-09-24T14:41:11Z</time>
      </trkpt>
      <trkpt lat="45.26076" lon="5.82232">
        <ele>554</ele>
        <time>2017-09-24T14:41:12Z</time>
      </trkpt>
      <trkpt lat="45.26067" lon="5.82222">
        <ele>553</ele>
        <time>2017-09-24T14:41:13Z</time>
      </trkpt>
      <trkpt lat="45.26054" lon="5.82224">
        <ele>551</ele>
        <time>2017-09-24T14:41:15Z</time>
      </trkpt>
      <trkpt lat="45.2605" lon="5.82221">
        <ele>550</ele>
        <time>2017-09-24T14:41:16Z</time>
      </trkpt>
      <trkpt lat="45.26036" lon="5.82213">
        <ele>549</ele>
        <time>2017-09-24T14:41:17Z</time>
      </trkpt>
      <trkpt lat="45.26029" lon="5.8221">
        <ele>548</ele>
        <time>2017-09-24T14:41:18Z</time>
      </trkpt>
      <trkpt lat="45.26022" lon="5.82203">
        <ele>548</ele>
        <time>2017-09-24T14:41:19Z</time>
      </trkpt>
      <trkpt lat="45.26006" lon="5.82196">
        <ele>546</ele>
        <time>2017-09-24T14:41:23Z</time>
      </trkpt>
      <trkpt lat="45.26002" lon="5.82192">
        <ele>546</ele>
        <time>2017-09-24T14:41:24Z</time>
      </trkpt>
      <trkpt lat="45.25996" lon="5.82189">
        <ele>546</ele>
        <time>2017-09-24T14:41:25Z</time>
      </trkpt>
      <trkpt lat="45.25989" lon="5.82183">
        <ele>546</ele>
        <time>2017-09-24T14:41:26Z</time>
      </trkpt>
      <trkpt lat="45.25981" lon="5.82177">
        <ele>546</ele>
        <time>2017-09-24T14:41:27Z</time>
      </trkpt>
      <trkpt lat="45.25974" lon="5.82175">
        <ele>545</ele>
        <time>2017-09-24T14:41:29Z</time>
      </trkpt>
      <trkpt lat="45.25964" lon="5.8217">
        <ele>544</ele>
        <time>2017-09-24T14:41:31Z</time>
      </trkpt>
      <trkpt lat="45.25956" lon="5.82167">
        <ele>544</ele>
        <time>2017-09-24T14:41:32Z</time>
      </trkpt>
      <trkpt lat="45.2595" lon="5.82165">
        <ele>543</ele>
        <time>2017-09-24T14:41:33Z</time>
      </trkpt>
      <trkpt lat="45.25942" lon="5.82162">
        <ele>542</ele>
        <time>2017-09-24T14:41:35Z</time>
      </trkpt>
      <trkpt lat="45.25938" lon="5.82157">
        <ele>542</ele>
        <time>2017-09-24T14:41:36Z</time>
      </trkpt>
      <trkpt lat="45.25931" lon="5.82153">
        <ele>542</ele>
        <time>2017-09-24T14:41:38Z</time>
      </trkpt>
      <trkpt lat="45.25931" lon="5.8215">
        <ele>542</ele>
        <time>2017-09-24T14:41:57Z</time>
      </trkpt>
      <trkpt lat="45.2593" lon="5.8215">
        <ele>542</ele>
        <time>2017-09-24T14:42:43Z</time>
      </trkpt>
      <trkpt lat="45.25926" lon="5.82147">
        <ele>542</ele>
        <time>2017-09-24T14:42:48Z</time>
      </trkpt>
      <trkpt lat="45.25922" lon="5.82143">
        <ele>542</ele>
        <time>2017-09-24T14:43:02Z</time>
      </trkpt>
      <trkpt lat="45.25921" lon="5.8214">
        <ele>543</ele>
        <time>2017-09-24T14:43:27Z</time>
      </trkpt>
      <trkpt lat="45.25915" lon="5.82139">
        <ele>542</ele>
        <time>2017-09-24T14:43:53Z</time>
      </trkpt>
      <trkpt lat="45.25909" lon="5.82136">
        <ele>541</ele>
        <time>2017-09-24T14:43:56Z</time>
      </trkpt>
      <trkpt lat="45.25904" lon="5.8213">
        <ele>541</ele>
        <time>2017-09-24T14:43:59Z</time>
      </trkpt>
      <trkpt lat="45.25901" lon="5.82124">
        <ele>542</ele>
        <time>2017-09-24T14:44:01Z</time>
      </trkpt>
      <trkpt lat="45.25895" lon="5.8212">
        <ele>541</ele>
        <time>2017-09-24T14:44:03Z</time>
      </trkpt>
      <trkpt lat="45.2589" lon="5.82116">
        <ele>541</ele>
        <time>2017-09-24T14:44:05Z</time>
      </trkpt>
      <trkpt lat="45.25884" lon="5.82115">
        <ele>539</ele>
        <time>2017-09-24T14:44:07Z</time>
      </trkpt>
      <trkpt lat="45.25878" lon="5.82111">
        <ele>538</ele>
        <time>2017-09-24T14:44:10Z</time>
      </trkpt>
      <trkpt lat="45.25874" lon="5.82106">
        <ele>538</ele>
        <time>2017-09-24T14:44:12Z</time>
      </trkpt>
      <trkpt lat="45.25871" lon="5.82101">
        <ele>538</ele>
        <time>2017-09-24T14:44:14Z</time>
      </trkpt>
      <trkpt lat="45.25868" lon="5.82095">
        <ele>538</ele>
        <time>2017-09-24T14:44:16Z</time>
      </trkpt>
      <trkpt lat="45.25864" lon="5.82089">
        <ele>538</ele>
        <time>2017-09-24T14:44:19Z</time>
      </trkpt>
      <trkpt lat="45.25859" lon="5.82085">
        <ele>537</ele>
        <time>2017-09-24T14:44:22Z</time>
      </trkpt>
      <trkpt lat="45.25855" lon="5.8208">
        <ele>537</ele>
        <time>2017-09-24T14:44:25Z</time>
      </trkpt>
      <trkpt lat="45.25853" lon="5.82066">
        <ele>538</ele>
        <time>2017-09-24T14:44:33Z</time>
      </trkpt>
      <trkpt lat="45.25849" lon="5.82061">
        <ele>537</ele>
        <time>2017-09-24T14:44:36Z</time>
      </trkpt>
      <trkpt lat="45.25844" lon="5.82052">
        <ele>536</ele>
        <time>2017-09-24T14:44:39Z</time>
      </trkpt>
      <trkpt lat="45.2584" lon="5.82045">
        <ele>535</ele>
        <time>2017-09-24T14:44:41Z</time>
      </trkpt>
      <trkpt lat="45.25838" lon="5.82033">
        <ele>535</ele>
        <time>2017-09-24T14:44:44Z</time>
      </trkpt>
      <trkpt lat="45.25836" lon="5.82026">
        <ele>535</ele>
        <time>2017-09-24T14:44:46Z</time>
      </trkpt>
      <trkpt lat="45.25834" lon="5.82018">
        <ele>534</ele>
        <time>2017-09-24T14:44:48Z</time>
      </trkpt>
      <trkpt lat="45.25832" lon="5.82011">
        <ele>534</ele>
        <time>2017-09-24T14:44:50Z</time>
      </trkpt>
      <trkpt lat="45.25831" lon="5.82004">
        <ele>534</ele>
        <time>2017-09-24T14:44:52Z</time>
      </trkpt>
      <trkpt lat="45.2583" lon="5.81997">
        <ele>533</ele>
        <time>2017-09-24T14:44:54Z</time>
      </trkpt>
      <trkpt lat="45.25829" lon="5.81983">
        <ele>533</ele>
        <time>2017-09-24T14:45:01Z</time>
      </trkpt>
      <trkpt lat="45.25827" lon="5.81976">
        <ele>532</ele>
        <time>2017-09-24T14:45:10Z</time>
      </trkpt>
      <trkpt lat="45.25828" lon="5.81961">
        <ele>532</ele>
        <time>2017-09-24T14:45:14Z</time>
      </trkpt>
      <trkpt lat="45.25829" lon="5.81954">
        <ele>533</ele>
        <time>2017-09-24T14:45:16Z</time>
      </trkpt>
      <trkpt lat="45.25831" lon="5.81943">
        <ele>533</ele>
        <time>2017-09-24T14:45:18Z</time>
      </trkpt>
      <trkpt lat="45.25829" lon="5.81932">
        <ele>532</ele>
        <time>2017-09-24T14:45:20Z</time>
      </trkpt>
      <trkpt lat="45.25826" lon="5.81921">
        <ele>532</ele>
        <time>2017-09-24T14:45:22Z</time>
      </trkpt>
      <trkpt lat="45.25823" lon="5.81908">
        <ele>531</ele>
        <time>2017-09-24T14:45:23Z</time>
      </trkpt>
      <trkpt lat="45.25822" lon="5.81901">
        <ele>531</ele>
        <time>2017-09-24T14:45:24Z</time>
      </trkpt>
      <trkpt lat="45.25818" lon="5.81895">
        <ele>530</ele>
        <time>2017-09-24T14:45:25Z</time>
      </trkpt>
      <trkpt lat="45.25821" lon="5.81889">
        <ele>531</ele>
        <time>2017-09-24T14:45:32Z</time>
      </trkpt>
      <trkpt lat="45.25826" lon="5.81887">
        <ele>533</ele>
        <time>2017-09-24T14:45:38Z</time>
      </trkpt>
      <trkpt lat="45.25826" lon="5.81889">
        <ele>533</ele>
        <time>2017-09-24T14:45:54Z</time>
      </trkpt>
      <trkpt lat="45.25826" lon="5.81889">
        <ele>533</ele>
        <time>2017-09-24T14:45:56Z</time>
      </trkpt>
      <trkpt lat="45.25826" lon="5.81888">
        <ele>533</ele>
        <time>2017-09-24T14:46:11Z</time>
      </trkpt>
      <trkpt lat="45.25826" lon="5.81883">
        <ele>533</ele>
        <time>2017-09-24T14:46:14Z</time>
      </trkpt>
      <trkpt lat="45.25829" lon="5.81877">
        <ele>535</ele>
        <time>2017-09-24T14:46:17Z</time>
      </trkpt>
      <trkpt lat="45.25832" lon="5.81871">
        <ele>536</ele>
        <time>2017-09-24T14:46:19Z</time>
      </trkpt>
      <trkpt lat="45.25834" lon="5.81864">
        <ele>537</ele>
        <time>2017-09-24T14:46:22Z</time>
      </trkpt>
      <trkpt lat="45.25837" lon="5.81856">
        <ele>538</ele>
        <time>2017-09-24T14:46:26Z</time>
      </trkpt>
      <trkpt lat="45.25839" lon="5.81849">
        <ele>539</ele>
        <time>2017-09-24T14:46:30Z</time>
      </trkpt>
      <trkpt lat="45.2584" lon="5.81842">
        <ele>540</ele>
        <time>2017-09-24T14:46:34Z</time>
      </trkpt>
      <trkpt lat="45.25842" lon="5.81835">
        <ele>541</ele>
        <time>2017-09-24T14:46:38Z</time>
      </trkpt>
      <trkpt lat="45.25843" lon="5.81829">
        <ele>541</ele>
        <time>2017-09-24T14:46:42Z</time>
      </trkpt>
      <trkpt lat="45.25846" lon="5.8182">
        <ele>543</ele>
        <time>2017-09-24T14:46:48Z</time>
      </trkpt>
      <trkpt lat="45.25847" lon="5.81814">
        <ele>543</ele>
        <time>2017-09-24T14:46:51Z</time>
      </trkpt>
      <trkpt lat="45.25849" lon="5.81807">
        <ele>544</ele>
        <time>2017-09-24T14:46:55Z</time>
      </trkpt>
      <trkpt lat="45.25849" lon="5.81801">
        <ele>544</ele>
        <time>2017-09-24T14:46:59Z</time>
      </trkpt>
      <trkpt lat="45.2585" lon="5.81794">
        <ele>545</ele>
        <time>2017-09-24T14:47:04Z</time>
      </trkpt>
      <trkpt lat="45.2585" lon="5.81787">
        <ele>545</ele>
        <time>2017-09-24T14:47:09Z</time>
      </trkpt>
      <trkpt lat="45.2585" lon="5.8178">
        <ele>546</ele>
        <time>2017-09-24T14:47:14Z</time>
      </trkpt>
      <trkpt lat="45.25852" lon="5.81774">
        <ele>547</ele>
        <time>2017-09-24T14:47:18Z</time>
      </trkpt>
      <trkpt lat="45.25855" lon="5.81773">
        <ele>547</ele>
        <time>2017-09-24T14:47:42Z</time>
      </trkpt>
      <trkpt lat="45.25859" lon="5.81768">
        <ele>549</ele>
        <time>2017-09-24T14:47:58Z</time>
      </trkpt>
      <trkpt lat="45.25862" lon="5.81762">
        <ele>550</ele>
        <time>2017-09-24T14:48:01Z</time>
      </trkpt>
      <trkpt lat="45.25865" lon="5.81757">
        <ele>551</ele>
        <time>2017-09-24T14:48:04Z</time>
      </trkpt>
      <trkpt lat="45.25868" lon="5.81751">
        <ele>552</ele>
        <time>2017-09-24T14:48:07Z</time>
      </trkpt>
      <trkpt lat="45.25873" lon="5.81749">
        <ele>553</ele>
        <time>2017-09-24T14:48:15Z</time>
      </trkpt>
      <trkpt lat="45.25877" lon="5.81736">
        <ele>554</ele>
        <time>2017-09-24T14:48:26Z</time>
      </trkpt>
      <trkpt lat="45.2588" lon="5.81731">
        <ele>555</ele>
        <time>2017-09-24T14:48:30Z</time>
      </trkpt>
      <trkpt lat="45.25882" lon="5.81725">
        <ele>556</ele>
        <time>2017-09-24T14:48:34Z</time>
      </trkpt>
      <trkpt lat="45.25886" lon="5.81719">
        <ele>557</ele>
        <time>2017-09-24T14:48:38Z</time>
      </trkpt>
      <trkpt lat="45.25889" lon="5.81714">
        <ele>558</ele>
        <time>2017-09-24T14:48:42Z</time>
      </trkpt>
      <trkpt lat="45.25894" lon="5.81714">
        <ele>559</ele>
        <time>2017-09-24T14:48:48Z</time>
      </trkpt>
      <trkpt lat="45.25899" lon="5.81712">
        <ele>560</ele>
        <time>2017-09-24T14:48:54Z</time>
      </trkpt>
      <trkpt lat="45.25904" lon="5.81709">
        <ele>562</ele>
        <time>2017-09-24T14:49:00Z</time>
      </trkpt>
      <trkpt lat="45.25905" lon="5.81702">
        <ele>562</ele>
        <time>2017-09-24T14:49:03Z</time>
      </trkpt>
      <trkpt lat="45.2591" lon="5.81702">
        <ele>564</ele>
        <time>2017-09-24T14:49:09Z</time>
      </trkpt>
      <trkpt lat="45.25914" lon="5.81701">
        <ele>565</ele>
        <time>2017-09-24T14:49:24Z</time>
      </trkpt>
      <trkpt lat="45.25918" lon="5.81698">
        <ele>566</ele>
        <time>2017-09-24T14:49:29Z</time>
      </trkpt>
      <trkpt lat="45.25922" lon="5.81695">
        <ele>567</ele>
        <time>2017-09-24T14:49:33Z</time>
      </trkpt>
      <trkpt lat="45.25927" lon="5.81693">
        <ele>568</ele>
        <time>2017-09-24T14:49:38Z</time>
      </trkpt>
      <trkpt lat="45.25932" lon="5.81691">
        <ele>569</ele>
        <time>2017-09-24T14:49:42Z</time>
      </trkpt>
      <trkpt lat="45.25937" lon="5.81689">
        <ele>570</ele>
        <time>2017-09-24T14:49:46Z</time>
      </trkpt>
      <trkpt lat="45.25941" lon="5.81686">
        <ele>571</ele>
        <time>2017-09-24T14:49:53Z</time>
      </trkpt>
      <trkpt lat="45.25945" lon="5.81681">
        <ele>572</ele>
        <time>2017-09-24T14:49:59Z</time>
      </trkpt>
      <trkpt lat="45.25948" lon="5.81677">
        <ele>572</ele>
        <time>2017-09-24T14:50:07Z</time>
      </trkpt>
      <trkpt lat="45.25953" lon="5.81675">
        <ele>573</ele>
        <time>2017-09-24T14:50:13Z</time>
      </trkpt>
      <trkpt lat="45.25957" lon="5.81672">
        <ele>574</ele>
        <time>2017-09-24T14:50:19Z</time>
      </trkpt>
      <trkpt lat="45.25957" lon="5.81672">
        <ele>574</ele>
        <time>2017-09-24T14:50:40Z</time>
      </trkpt>
      <trkpt lat="45.25953" lon="5.81667">
        <ele>573</ele>
        <time>2017-09-24T14:50:46Z</time>
      </trkpt>
      <trkpt lat="45.2595" lon="5.81659">
        <ele>571</ele>
        <time>2017-09-24T14:50:49Z</time>
      </trkpt>
      <trkpt lat="45.25948" lon="5.81652">
        <ele>572</ele>
        <time>2017-09-24T14:50:51Z</time>
      </trkpt>
      <trkpt lat="45.25948" lon="5.81644">
        <ele>573</ele>
        <time>2017-09-24T14:50:53Z</time>
      </trkpt>
      <trkpt lat="45.2595" lon="5.81632">
        <ele>574</ele>
        <time>2017-09-24T14:50:55Z</time>
      </trkpt>
      <trkpt lat="45.25951" lon="5.81625">
        <ele>575</ele>
        <time>2017-09-24T14:50:56Z</time>
      </trkpt>
      <trkpt lat="45.25951" lon="5.81617">
        <ele>576</ele>
        <time>2017-09-24T14:50:57Z</time>
      </trkpt>
      <trkpt lat="45.2595" lon="5.81599">
        <ele>578</ele>
        <time>2017-09-24T14:51:02Z</time>
      </trkpt>
      <trkpt lat="45.25945" lon="5.81597">
        <ele>577</ele>
        <time>2017-09-24T14:51:06Z</time>
      </trkpt>
      <trkpt lat="45.25942" lon="5.81593">
        <ele>577</ele>
        <time>2017-09-24T14:51:09Z</time>
      </trkpt>
      <trkpt lat="45.25938" lon="5.8159">
        <ele>577</ele>
        <time>2017-09-24T14:51:12Z</time>
      </trkpt>
      <trkpt lat="45.25935" lon="5.81584">
        <ele>578</ele>
        <time>2017-09-24T14:51:16Z</time>
      </trkpt>
      <trkpt lat="45.25935" lon="5.81576">
        <ele>579</ele>
        <time>2017-09-24T14:51:20Z</time>
      </trkpt>
      <trkpt lat="45.25934" lon="5.81569">
        <ele>580</ele>
        <time>2017-09-24T14:51:24Z</time>
      </trkpt>
      <trkpt lat="45.25933" lon="5.81561">
        <ele>581</ele>
        <time>2017-09-24T14:51:29Z</time>
      </trkpt>
      <trkpt lat="45.25935" lon="5.81555">
        <ele>583</ele>
        <time>2017-09-24T14:51:38Z</time>
      </trkpt>
      <trkpt lat="45.25939" lon="5.81551">
        <ele>584</ele>
        <time>2017-09-24T14:51:44Z</time>
      </trkpt>
      <trkpt lat="45.25943" lon="5.81547">
        <ele>585</ele>
        <time>2017-09-24T14:51:48Z</time>
      </trkpt>
      <trkpt lat="45.25948" lon="5.81545">
        <ele>586</ele>
        <time>2017-09-24T14:52:02Z</time>
      </trkpt>
      <trkpt lat="45.25951" lon="5.81549">
        <ele>585</ele>
        <time>2017-09-24T14:52:08Z</time>
      </trkpt>
      <trkpt lat="45.25956" lon="5.81551">
        <ele>586</ele>
        <time>2017-09-24T14:52:10Z</time>
      </trkpt>
      <trkpt lat="45.2596" lon="5.81553">
        <ele>586</ele>
        <time>2017-09-24T14:52:12Z</time>
      </trkpt>
      <trkpt lat="45.25964" lon="5.81555">
        <ele>586</ele>
        <time>2017-09-24T14:52:14Z</time>
      </trkpt>
      <trkpt lat="45.25969" lon="5.81554">
        <ele>587</ele>
        <time>2017-09-24T14:52:17Z</time>
      </trkpt>
      <trkpt lat="45.25973" lon="5.81559">
        <ele>586</ele>
        <time>2017-09-24T14:52:25Z</time>
      </trkpt>
      <trkpt lat="45.25974" lon="5.81561">
        <ele>586</ele>
        <time>2017-09-24T14:52:54Z</time>
      </trkpt>
      <trkpt lat="45.25969" lon="5.81555">
        <ele>586</ele>
        <time>2017-09-24T14:53:32Z</time>
      </trkpt>
      <trkpt lat="45.25965" lon="5.81551">
        <ele>587</ele>
        <time>2017-09-24T14:53:33Z</time>
      </trkpt>
      <trkpt lat="45.2596" lon="5.81549">
        <ele>586</ele>
        <time>2017-09-24T14:53:34Z</time>
      </trkpt>
      <trkpt lat="45.25951" lon="5.81545">
        <ele>586</ele>
        <time>2017-09-24T14:53:35Z</time>
      </trkpt>
      <trkpt lat="45.25946" lon="5.81545">
        <ele>586</ele>
        <time>2017-09-24T14:53:36Z</time>
      </trkpt>
      <trkpt lat="45.25946" lon="5.81559">
        <ele>583</ele>
        <time>2017-09-24T14:53:38Z</time>
      </trkpt>
      <trkpt lat="45.25945" lon="5.81568">
        <ele>582</ele>
        <time>2017-09-24T14:53:40Z</time>
      </trkpt>
      <trkpt lat="45.25945" lon="5.81581">
        <ele>579</ele>
        <time>2017-09-24T14:53:42Z</time>
      </trkpt>
      <trkpt lat="45.25945" lon="5.81587">
        <ele>578</ele>
        <time>2017-09-24T14:53:43Z</time>
      </trkpt>
      <trkpt lat="45.25941" lon="5.81593">
        <ele>577</ele>
        <time>2017-09-24T14:53:44Z</time>
      </trkpt>
      <trkpt lat="45.25934" lon="5.81599">
        <ele>575</ele>
        <time>2017-09-24T14:53:46Z</time>
      </trkpt>
      <trkpt lat="45.25929" lon="5.81598">
        <ele>575</ele>
        <time>2017-09-24T14:53:48Z</time>
      </trkpt>
      <trkpt lat="45.25923" lon="5.8159">
        <ele>575</ele>
        <time>2017-09-24T14:53:50Z</time>
      </trkpt>
      <trkpt lat="45.2592" lon="5.81585">
        <ele>576</ele>
        <time>2017-09-24T14:53:51Z</time>
      </trkpt>
      <trkpt lat="45.25917" lon="5.81581">
        <ele>576</ele>
        <time>2017-09-24T14:53:52Z</time>
      </trkpt>
      <trkpt lat="45.25908" lon="5.81578">
        <ele>575</ele>
        <time>2017-09-24T14:53:54Z</time>
      </trkpt>
      <trkpt lat="45.25901" lon="5.81578">
        <ele>574</ele>
        <time>2017-09-24T14:53:56Z</time>
      </trkpt>
      <trkpt lat="45.25894" lon="5.8158">
        <ele>573</ele>
        <time>2017-09-24T14:53:58Z</time>
      </trkpt>
      <trkpt lat="45.25888" lon="5.8158">
        <ele>572</ele>
        <time>2017-09-24T14:54:02Z</time>
      </trkpt>
      <trkpt lat="45.25884" lon="5.81577">
        <ele>572</ele>
        <time>2017-09-24T14:54:07Z</time>
      </trkpt>
      <trkpt lat="45.25879" lon="5.81579">
        <ele>571</ele>
        <time>2017-09-24T14:54:11Z</time>
      </trkpt>
      <trkpt lat="45.25875" lon="5.81582">
        <ele>570</ele>
        <time>2017-09-24T14:54:14Z</time>
      </trkpt>
      <trkpt lat="45.25869" lon="5.81584">
        <ele>569</ele>
        <time>2017-09-24T14:54:17Z</time>
      </trkpt>
      <trkpt lat="45.25864" lon="5.81582">
        <ele>568</ele>
        <time>2017-09-24T14:54:20Z</time>
      </trkpt>
      <trkpt lat="45.2586" lon="5.81578">
        <ele>568</ele>
        <time>2017-09-24T14:54:23Z</time>
      </trkpt>
      <trkpt lat="45.25855" lon="5.81575">
        <ele>568</ele>
        <time>2017-09-24T14:54:26Z</time>
      </trkpt>
      <trkpt lat="45.25851" lon="5.81571">
        <ele>568</ele>
        <time>2017-09-24T14:54:30Z</time>
      </trkpt>
      <trkpt lat="45.25849" lon="5.81564">
        <ele>569</ele>
        <time>2017-09-24T14:54:33Z</time>
      </trkpt>
      <trkpt lat="45.25847" lon="5.81558">
        <ele>570</ele>
        <time>2017-09-24T14:54:36Z</time>
      </trkpt>
      <trkpt lat="45.25843" lon="5.81551">
        <ele>571</ele>
        <time>2017-09-24T14:54:39Z</time>
      </trkpt>
      <trkpt lat="45.2584" lon="5.81546">
        <ele>571</ele>
        <time>2017-09-24T14:54:42Z</time>
      </trkpt>
      <trkpt lat="45.25837" lon="5.81541">
        <ele>572</ele>
        <time>2017-09-24T14:54:46Z</time>
      </trkpt>
      <trkpt lat="45.25834" lon="5.81536">
        <ele>572</ele>
        <time>2017-09-24T14:54:50Z</time>
      </trkpt>
      <trkpt lat="45.25829" lon="5.81534">
        <ele>572</ele>
        <time>2017-09-24T14:54:54Z</time>
      </trkpt>
      <trkpt lat="45.25826" lon="5.81529">
        <ele>572</ele>
        <time>2017-09-24T14:54:58Z</time>
      </trkpt>
      <trkpt lat="45.25822" lon="5.81524">
        <ele>572</ele>
        <time>2017-09-24T14:55:02Z</time>
      </trkpt>
      <trkpt lat="45.2582" lon="5.81517">
        <ele>573</ele>
        <time>2017-09-24T14:55:07Z</time>
      </trkpt>
      <trkpt lat="45.25818" lon="5.81509">
        <ele>574</ele>
        <time>2017-09-24T14:55:11Z</time>
      </trkpt>
      <trkpt lat="45.25814" lon="5.81502">
        <ele>575</ele>
        <time>2017-09-24T14:55:15Z</time>
      </trkpt>
      <trkpt lat="45.25813" lon="5.81496">
        <ele>576</ele>
        <time>2017-09-24T14:55:19Z</time>
      </trkpt>
      <trkpt lat="45.25813" lon="5.81483">
        <ele>579</ele>
        <time>2017-09-24T14:55:27Z</time>
      </trkpt>
      <trkpt lat="45.25812" lon="5.81476">
        <ele>580</ele>
        <time>2017-09-24T14:55:32Z</time>
      </trkpt>
      <trkpt lat="45.25812" lon="5.81469">
        <ele>581</ele>
        <time>2017-09-24T14:55:38Z</time>
      </trkpt>
      <trkpt lat="45.25811" lon="5.81456">
        <ele>584</ele>
        <time>2017-09-24T14:55:47Z</time>
      </trkpt>
      <trkpt lat="45.2581" lon="5.81449">
        <ele>585</ele>
        <time>2017-09-24T14:55:51Z</time>
      </trkpt>
      <trkpt lat="45.25805" lon="5.81448">
        <ele>584</ele>
        <time>2017-09-24T14:55:57Z</time>
      </trkpt>
      <trkpt lat="45.25801" lon="5.81442">
        <ele>585</ele>
        <time>2017-09-24T14:56:02Z</time>
      </trkpt>
      <trkpt lat="45.25796" lon="5.81439">
        <ele>585</ele>
        <time>2017-09-24T14:56:07Z</time>
      </trkpt>
      <trkpt lat="45.25793" lon="5.81434">
        <ele>586</ele>
        <time>2017-09-24T14:56:11Z</time>
      </trkpt>
      <trkpt lat="45.25789" lon="5.81429">
        <ele>586</ele>
        <time>2017-09-24T14:56:15Z</time>
      </trkpt>
      <trkpt lat="45.25785" lon="5.81425">
        <ele>587</ele>
        <time>2017-09-24T14:56:18Z</time>
      </trkpt>
      <trkpt lat="45.25781" lon="5.81421">
        <ele>587</ele>
        <time>2017-09-24T14:56:21Z</time>
      </trkpt>
      <trkpt lat="45.25778" lon="5.81416">
        <ele>588</ele>
        <time>2017-09-24T14:56:24Z</time>
      </trkpt>
      <trkpt lat="45.25774" lon="5.81411">
        <ele>588</ele>
        <time>2017-09-24T14:56:29Z</time>
      </trkpt>
      <trkpt lat="45.2577" lon="5.81408">
        <ele>589</ele>
        <time>2017-09-24T14:56:35Z</time>
      </trkpt>
      <trkpt lat="45.25766" lon="5.81403">
        <ele>589</ele>
        <time>2017-09-24T14:56:39Z</time>
      </trkpt>
      <trkpt lat="45.25761" lon="5.814">
        <ele>590</ele>
        <time>2017-09-24T14:56:43Z</time>
      </trkpt>
      <trkpt lat="45.25755" lon="5.81401">
        <ele>589</ele>
        <time>2017-09-24T14:56:46Z</time>
      </trkpt>
      <trkpt lat="45.2575" lon="5.81401">
        <ele>588</ele>
        <time>2017-09-24T14:56:50Z</time>
      </trkpt>
      <trkpt lat="45.25745" lon="5.81399">
        <ele>588</ele>
        <time>2017-09-24T14:56:54Z</time>
      </trkpt>
      <trkpt lat="45.2574" lon="5.81395">
        <ele>589</ele>
        <time>2017-09-24T14:56:58Z</time>
      </trkpt>
      <trkpt lat="45.25737" lon="5.8139">
        <ele>590</ele>
        <time>2017-09-24T14:57:01Z</time>
      </trkpt>
      <trkpt lat="45.25734" lon="5.81383">
        <ele>592</ele>
        <time>2017-09-24T14:57:04Z</time>
      </trkpt>
      <trkpt lat="45.25732" lon="5.81377">
        <ele>593</ele>
        <time>2017-09-24T14:57:07Z</time>
      </trkpt>
      <trkpt lat="45.2573" lon="5.8137">
        <ele>594</ele>
        <time>2017-09-24T14:57:10Z</time>
      </trkpt>
      <trkpt lat="45.25728" lon="5.81364">
        <ele>596</ele>
        <time>2017-09-24T14:57:13Z</time>
      </trkpt>
      <trkpt lat="45.25725" lon="5.81359">
        <ele>596</ele>
        <time>2017-09-24T14:57:16Z</time>
      </trkpt>
      <trkpt lat="45.25723" lon="5.81351">
        <ele>598</ele>
        <time>2017-09-24T14:57:20Z</time>
      </trkpt>
      <trkpt lat="45.2572" lon="5.81336">
        <ele>601</ele>
        <time>2017-09-24T14:57:28Z</time>
      </trkpt>
      <trkpt lat="45.25717" lon="5.81329">
        <ele>602</ele>
        <time>2017-09-24T14:57:32Z</time>
      </trkpt>
      <trkpt lat="45.25714" lon="5.81323">
        <ele>603</ele>
        <time>2017-09-24T14:57:37Z</time>
      </trkpt>
      <trkpt lat="45.25709" lon="5.8132">
        <ele>602</ele>
        <time>2017-09-24T14:57:41Z</time>
      </trkpt>
      <trkpt lat="45.25706" lon="5.81314">
        <ele>603</ele>
        <time>2017-09-24T14:57:45Z</time>
      </trkpt>
      <trkpt lat="45.25701" lon="5.8131">
        <ele>603</ele>
        <time>2017-09-24T14:57:49Z</time>
      </trkpt>
      <trkpt lat="45.25697" lon="5.81306">
        <ele>603</ele>
        <time>2017-09-24T14:57:53Z</time>
      </trkpt>
      <trkpt lat="45.25693" lon="5.81302">
        <ele>603</ele>
        <time>2017-09-24T14:57:57Z</time>
      </trkpt>
      <trkpt lat="45.25689" lon="5.813">
        <ele>602</ele>
        <time>2017-09-24T14:58:02Z</time>
      </trkpt>
      <trkpt lat="45.25686" lon="5.81295">
        <ele>602</ele>
        <time>2017-09-24T14:58:05Z</time>
      </trkpt>
      <trkpt lat="45.25681" lon="5.81289">
        <ele>602</ele>
        <time>2017-09-24T14:58:08Z</time>
      </trkpt>
      <trkpt lat="45.25676" lon="5.81287">
        <ele>601</ele>
        <time>2017-09-24T14:58:12Z</time>
      </trkpt>
      <trkpt lat="45.25671" lon="5.81283">
        <ele>601</ele>
        <time>2017-09-24T14:58:16Z</time>
      </trkpt>
      <trkpt lat="45.25666" lon="5.8128">
        <ele>600</ele>
        <time>2017-09-24T14:58:20Z</time>
      </trkpt>
      <trkpt lat="45.25663" lon="5.81276">
        <ele>600</ele>
        <time>2017-09-24T14:58:24Z</time>
      </trkpt>
      <trkpt lat="45.25658" lon="5.81272">
        <ele>599</ele>
        <time>2017-09-24T14:58:29Z</time>
      </trkpt>
      <trkpt lat="45.25654" lon="5.8127">
        <ele>599</ele>
        <time>2017-09-24T14:58:33Z</time>
      </trkpt>
      <trkpt lat="45.25651" lon="5.81265">
        <ele>599</ele>
        <time>2017-09-24T14:58:37Z</time>
      </trkpt>
      <trkpt lat="45.25648" lon="5.81259">
        <ele>599</ele>
        <time>2017-09-24T14:58:41Z</time>
      </trkpt>
      <trkpt lat="45.25646" lon="5.81253">
        <ele>599</ele>
        <time>2017-09-24T14:58:44Z</time>
      </trkpt>
      <trkpt lat="45.25645" lon="5.81243">
        <ele>600</ele>
        <time>2017-09-24T14:58:49Z</time>
      </trkpt>
      <trkpt lat="45.25644" lon="5.81236">
        <ele>601</ele>
        <time>2017-09-24T14:58:53Z</time>
      </trkpt>
      <trkpt lat="45.25646" lon="5.81212">
        <ele>605</ele>
        <time>2017-09-24T14:59:05Z</time>
      </trkpt>
      <trkpt lat="45.25647" lon="5.81206">
        <ele>606</ele>
        <time>2017-09-24T14:59:09Z</time>
      </trkpt>
      <trkpt lat="45.2565" lon="5.812">
        <ele>608</ele>
        <time>2017-09-24T14:59:14Z</time>
      </trkpt>
      <trkpt lat="45.25654" lon="5.81196">
        <ele>609</ele>
        <time>2017-09-24T14:59:18Z</time>
      </trkpt>
      <trkpt lat="45.25656" lon="5.81191">
        <ele>610</ele>
        <time>2017-09-24T14:59:22Z</time>
      </trkpt>
      <trkpt lat="45.25657" lon="5.81184">
        <ele>612</ele>
        <time>2017-09-24T14:59:26Z</time>
      </trkpt>
      <trkpt lat="45.25658" lon="5.81175">
        <ele>613</ele>
        <time>2017-09-24T14:59:30Z</time>
      </trkpt>
      <trkpt lat="45.25658" lon="5.81168">
        <ele>614</ele>
        <time>2017-09-24T14:59:34Z</time>
      </trkpt>
      <trkpt lat="45.25663" lon="5.81163">
        <ele>616</ele>
        <time>2017-09-24T14:59:38Z</time>
      </trkpt>
      <trkpt lat="45.25669" lon="5.81165">
        <ele>617</ele>
        <time>2017-09-24T14:59:42Z</time>
      </trkpt>
      <trkpt lat="45.25673" lon="5.81168">
        <ele>618</ele>
        <time>2017-09-24T14:59:45Z</time>
      </trkpt>
      <trkpt lat="45.25672" lon="5.81174">
        <ele>617</ele>
        <time>2017-09-24T14:59:48Z</time>
      </trkpt>
      <trkpt lat="45.2567" lon="5.8118">
        <ele>615</ele>
        <time>2017-09-24T14:59:51Z</time>
      </trkpt>
      <trkpt lat="45.25668" lon="5.81186">
        <ele>614</ele>
        <time>2017-09-24T14:59:54Z</time>
      </trkpt>
      <trkpt lat="45.25667" lon="5.81193">
        <ele>613</ele>
        <time>2017-09-24T14:59:57Z</time>
      </trkpt>
      <trkpt lat="45.25667" lon="5.81202">
        <ele>611</ele>
        <time>2017-09-24T15:00:00Z</time>
      </trkpt>
      <trkpt lat="45.25663" lon="5.81206">
        <ele>610</ele>
        <time>2017-09-24T15:00:04Z</time>
      </trkpt>
      <trkpt lat="45.25665" lon="5.81214">
        <ele>609</ele>
        <time>2017-09-24T15:00:10Z</time>
      </trkpt>
      <trkpt lat="45.25669" lon="5.81218">
        <ele>610</ele>
        <time>2017-09-24T15:00:13Z</time>
      </trkpt>
      <trkpt lat="45.25671" lon="5.81224">
        <ele>609</ele>
        <time>2017-09-24T15:00:17Z</time>
      </trkpt>
      <trkpt lat="45.25674" lon="5.8123">
        <ele>609</ele>
        <time>2017-09-24T15:00:22Z</time>
      </trkpt>
      <trkpt lat="45.25679" lon="5.81233">
        <ele>610</ele>
        <time>2017-09-24T15:00:26Z</time>
      </trkpt>
      <trkpt lat="45.25685" lon="5.81233">
        <ele>612</ele>
        <time>2017-09-24T15:00:30Z</time>
      </trkpt>
      <trkpt lat="45.25692" lon="5.81236">
        <ele>613</ele>
        <time>2017-09-24T15:00:35Z</time>
      </trkpt>
      <trkpt lat="45.25696" lon="5.81238">
        <ele>614</ele>
        <time>2017-09-24T15:00:40Z</time>
      </trkpt>
      <trkpt lat="45.257" lon="5.81242">
        <ele>614</ele>
        <time>2017-09-24T15:00:45Z</time>
      </trkpt>
      <trkpt lat="45.25705" lon="5.81244">
        <ele>615</ele>
        <time>2017-09-24T15:00:49Z</time>
      </trkpt>
      <trkpt lat="45.2571" lon="5.81246">
        <ele>617</ele>
        <time>2017-09-24T15:00:53Z</time>
      </trkpt>
      <trkpt lat="45.25715" lon="5.81248">
        <ele>618</ele>
        <time>2017-09-24T15:00:58Z</time>
      </trkpt>
      <trkpt lat="45.25721" lon="5.8125">
        <ele>619</ele>
        <time>2017-09-24T15:01:02Z</time>
      </trkpt>
      <trkpt lat="45.25726" lon="5.81251">
        <ele>620</ele>
        <time>2017-09-24T15:01:06Z</time>
      </trkpt>
      <trkpt lat="45.2573" lon="5.81253">
        <ele>621</ele>
        <time>2017-09-24T15:01:09Z</time>
      </trkpt>
      <trkpt lat="45.25735" lon="5.81256">
        <ele>621</ele>
        <time>2017-09-24T15:01:13Z</time>
      </trkpt>
      <trkpt lat="45.2574" lon="5.81258">
        <ele>622</ele>
        <time>2017-09-24T15:01:17Z</time>
      </trkpt>
      <trkpt lat="45.25745" lon="5.8126">
        <ele>623</ele>
        <time>2017-09-24T15:01:21Z</time>
      </trkpt>
      <trkpt lat="45.2575" lon="5.81263">
        <ele>623</ele>
        <time>2017-09-24T15:01:24Z</time>
      </trkpt>
      <trkpt lat="45.25753" lon="5.81267">
        <ele>623</ele>
        <time>2017-09-24T15:01:28Z</time>
      </trkpt>
      <trkpt lat="45.25757" lon="5.81271">
        <ele>622</ele>
        <time>2017-09-24T15:01:32Z</time>
      </trkpt>
      <trkpt lat="45.25761" lon="5.81276">
        <ele>621</ele>
        <time>2017-09-24T15:01:37Z</time>
      </trkpt>
      <trkpt lat="45.25766" lon="5.81277">
        <ele>621</ele>
        <time>2017-09-24T15:01:41Z</time>
      </trkpt>
      <trkpt lat="45.25776" lon="5.81279">
        <ele>622</ele>
        <time>2017-09-24T15:01:50Z</time>
      </trkpt>
      <trkpt lat="45.25759" lon="5.81023">
        <ele>661</ele>
        <time>2017-09-24T15:05:53Z</time>
      </trkpt>
      <trkpt lat="45.25765" lon="5.81018">
        <ele>663</ele>
        <time>2017-09-24T15:05:54Z</time>
      </trkpt>
      <trkpt lat="45.2576" lon="5.81014">
        <ele>663</ele>
        <time>2017-09-24T15:05:55Z</time>
      </trkpt>
      <trkpt lat="45.25756" lon="5.81012">
        <ele>662</ele>
        <time>2017-09-24T15:05:58Z</time>
      </trkpt>
      <trkpt lat="45.25761" lon="5.81011">
        <ele>663</ele>
        <time>2017-09-24T15:06:02Z</time>
      </trkpt>
      <trkpt lat="45.25761" lon="5.8101">
        <ele>663</ele>
        <time>2017-09-24T15:06:31Z</time>
      </trkpt>
      <trkpt lat="45.25762" lon="5.8101">
        <ele>663</ele>
        <time>2017-09-24T15:07:01Z</time>
      </trkpt>
      <trkpt lat="45.25761" lon="5.81011">
        <ele>663</ele>
        <time>2017-09-24T15:08:05Z</time>
      </trkpt>
      <trkpt lat="45.25756" lon="5.81012">
        <ele>662</ele>
        <time>2017-09-24T15:08:52Z</time>
      </trkpt>
      <trkpt lat="45.25747" lon="5.81011">
        <ele>661</ele>
        <time>2017-09-24T15:08:53Z</time>
      </trkpt>
      <trkpt lat="45.25739" lon="5.81011">
        <ele>658</ele>
        <time>2017-09-24T15:08:54Z</time>
      </trkpt>
      <trkpt lat="45.25732" lon="5.8101">
        <ele>657</ele>
        <time>2017-09-24T15:08:55Z</time>
      </trkpt>
      <trkpt lat="45.25726" lon="5.81008">
        <ele>656</ele>
        <time>2017-09-24T15:08:57Z</time>
      </trkpt>
      <trkpt lat="45.25718" lon="5.8101">
        <ele>653</ele>
        <time>2017-09-24T15:08:59Z</time>
      </trkpt>
      <trkpt lat="45.25713" lon="5.81011">
        <ele>652</ele>
        <time>2017-09-24T15:09:05Z</time>
      </trkpt>
      <trkpt lat="45.25708" lon="5.81007">
        <ele>651</ele>
        <time>2017-09-24T15:09:08Z</time>
      </trkpt>
      <trkpt lat="45.25703" lon="5.81004">
        <ele>650</ele>
        <time>2017-09-24T15:09:11Z</time>
      </trkpt>
      <trkpt lat="45.25699" lon="5.81">
        <ele>649</ele>
        <time>2017-09-24T15:09:14Z</time>
      </trkpt>
      <trkpt lat="45.25692" lon="5.81001">
        <ele>647</ele>
        <time>2017-09-24T15:09:17Z</time>
      </trkpt>
      <trkpt lat="45.25688" lon="5.81001">
        <ele>646</ele>
        <time>2017-09-24T15:09:19Z</time>
      </trkpt>
      <trkpt lat="45.25681" lon="5.80996">
        <ele>645</ele>
        <time>2017-09-24T15:09:23Z</time>
      </trkpt>
      <trkpt lat="45.25676" lon="5.80994">
        <ele>643</ele>
        <time>2017-09-24T15:09:26Z</time>
      </trkpt>
      <trkpt lat="45.25671" lon="5.80994">
        <ele>641</ele>
        <time>2017-09-24T15:09:32Z</time>
      </trkpt>
      <trkpt lat="45.25666" lon="5.80993">
        <ele>640</ele>
        <time>2017-09-24T15:09:48Z</time>
      </trkpt>
      <trkpt lat="45.2566" lon="5.8099">
        <ele>638</ele>
        <time>2017-09-24T15:09:51Z</time>
      </trkpt>
      <trkpt lat="45.25656" lon="5.80987">
        <ele>636</ele>
        <time>2017-09-24T15:09:53Z</time>
      </trkpt>
      <trkpt lat="45.25651" lon="5.80987">
        <ele>634</ele>
        <time>2017-09-24T15:09:57Z</time>
      </trkpt>
      <trkpt lat="45.25647" lon="5.80984">
        <ele>633</ele>
        <time>2017-09-24T15:09:59Z</time>
      </trkpt>
      <trkpt lat="45.25643" lon="5.80982">
        <ele>632</ele>
        <time>2017-09-24T15:10:01Z</time>
      </trkpt>
      <trkpt lat="45.25638" lon="5.80984">
        <ele>630</ele>
        <time>2017-09-24T15:10:04Z</time>
      </trkpt>
      <trkpt lat="45.25631" lon="5.80987">
        <ele>627</ele>
        <time>2017-09-24T15:10:07Z</time>
      </trkpt>
      <trkpt lat="45.25626" lon="5.8099">
        <ele>625</ele>
        <time>2017-09-24T15:10:09Z</time>
      </trkpt>
      <trkpt lat="45.25622" lon="5.80996">
        <ele>623</ele>
        <time>2017-09-24T15:10:11Z</time>
      </trkpt>
      <trkpt lat="45.25618" lon="5.81001">
        <ele>622</ele>
        <time>2017-09-24T15:10:13Z</time>
      </trkpt>
      <trkpt lat="45.25614" lon="5.81004">
        <ele>620</ele>
        <time>2017-09-24T15:10:15Z</time>
      </trkpt>
      <trkpt lat="45.2561" lon="5.81008">
        <ele>619</ele>
        <time>2017-09-24T15:10:17Z</time>
      </trkpt>
      <trkpt lat="45.25605" lon="5.8101">
        <ele>617</ele>
        <time>2017-09-24T15:10:19Z</time>
      </trkpt>
      <trkpt lat="45.256" lon="5.81011">
        <ele>615</ele>
        <time>2017-09-24T15:10:21Z</time>
      </trkpt>
      <trkpt lat="45.25593" lon="5.81012">
        <ele>613</ele>
        <time>2017-09-24T15:10:24Z</time>
      </trkpt>
      <trkpt lat="45.25589" lon="5.81015">
        <ele>611</ele>
        <time>2017-09-24T15:10:28Z</time>
      </trkpt>
      <trkpt lat="45.25584" lon="5.81017">
        <ele>610</ele>
        <time>2017-09-24T15:10:32Z</time>
      </trkpt>
      <trkpt lat="45.25578" lon="5.81019">
        <ele>608</ele>
        <time>2017-09-24T15:10:37Z</time>
      </trkpt>
      <trkpt lat="45.25574" lon="5.81023">
        <ele>606</ele>
        <time>2017-09-24T15:10:40Z</time>
      </trkpt>
      <trkpt lat="45.25571" lon="5.81029">
        <ele>605</ele>
        <time>2017-09-24T15:10:43Z</time>
      </trkpt>
      <trkpt lat="45.25567" lon="5.81033">
        <ele>603</ele>
        <time>2017-09-24T15:10:46Z</time>
      </trkpt>
      <trkpt lat="45.25561" lon="5.81035">
        <ele>602</ele>
        <time>2017-09-24T15:10:49Z</time>
      </trkpt>
      <trkpt lat="45.25556" lon="5.81036">
        <ele>600</ele>
        <time>2017-09-24T15:10:51Z</time>
      </trkpt>
      <trkpt lat="45.25552" lon="5.81041">
        <ele>598</ele>
        <time>2017-09-24T15:10:54Z</time>
      </trkpt>
      <trkpt lat="45.25549" lon="5.81048">
        <ele>597</ele>
        <time>2017-09-24T15:10:57Z</time>
      </trkpt>
      <trkpt lat="45.25546" lon="5.81053">
        <ele>596</ele>
        <time>2017-09-24T15:11:01Z</time>
      </trkpt>
      <trkpt lat="45.25541" lon="5.81056">
        <ele>594</ele>
        <time>2017-09-24T15:11:04Z</time>
      </trkpt>
      <trkpt lat="45.25538" lon="5.81062">
        <ele>592</ele>
        <time>2017-09-24T15:11:06Z</time>
      </trkpt>
      <trkpt lat="45.25532" lon="5.81065">
        <ele>591</ele>
        <time>2017-09-24T15:11:09Z</time>
      </trkpt>
      <trkpt lat="45.25528" lon="5.81071">
        <ele>589</ele>
        <time>2017-09-24T15:11:13Z</time>
      </trkpt>
      <trkpt lat="45.25529" lon="5.81078">
        <ele>589</ele>
        <time>2017-09-24T15:11:16Z</time>
      </trkpt>
      <trkpt lat="45.25531" lon="5.81085">
        <ele>589</ele>
        <time>2017-09-24T15:11:20Z</time>
      </trkpt>
      <trkpt lat="45.25532" lon="5.81093">
        <ele>589</ele>
        <time>2017-09-24T15:11:23Z</time>
      </trkpt>
      <trkpt lat="45.25532" lon="5.811">
        <ele>589</ele>
        <time>2017-09-24T15:11:26Z</time>
      </trkpt>
      <trkpt lat="45.25533" lon="5.81107">
        <ele>589</ele>
        <time>2017-09-24T15:11:31Z</time>
      </trkpt>
      <trkpt lat="45.2553" lon="5.81112">
        <ele>587</ele>
        <time>2017-09-24T15:11:36Z</time>
      </trkpt>
      <trkpt lat="45.25527" lon="5.81117">
        <ele>586</ele>
        <time>2017-09-24T15:11:42Z</time>
      </trkpt>
      <trkpt lat="45.25523" lon="5.81121">
        <ele>584</ele>
        <time>2017-09-24T15:11:45Z</time>
      </trkpt>
      <trkpt lat="45.25526" lon="5.81126">
        <ele>584</ele>
        <time>2017-09-24T15:11:49Z</time>
      </trkpt>
      <trkpt lat="45.25533" lon="5.81129">
        <ele>586</ele>
        <time>2017-09-24T15:11:52Z</time>
      </trkpt>
      <trkpt lat="45.25535" lon="5.81134">
        <ele>586</ele>
        <time>2017-09-24T15:11:54Z</time>
      </trkpt>
      <trkpt lat="45.25534" lon="5.81151">
        <ele>584</ele>
        <time>2017-09-24T15:11:59Z</time>
      </trkpt>
      <trkpt lat="45.25531" lon="5.81156">
        <ele>582</ele>
        <time>2017-09-24T15:12:02Z</time>
      </trkpt>
      <trkpt lat="45.25525" lon="5.8116">
        <ele>580</ele>
        <time>2017-09-24T15:12:05Z</time>
      </trkpt>
      <trkpt lat="45.25518" lon="5.81163">
        <ele>578</ele>
        <time>2017-09-24T15:12:07Z</time>
      </trkpt>
      <trkpt lat="45.25514" lon="5.81165">
        <ele>576</ele>
        <time>2017-09-24T15:12:09Z</time>
      </trkpt>
      <trkpt lat="45.25508" lon="5.81165">
        <ele>574</ele>
        <time>2017-09-24T15:12:12Z</time>
      </trkpt>
      <trkpt lat="45.25503" lon="5.81171">
        <ele>572</ele>
        <time>2017-09-24T15:12:15Z</time>
      </trkpt>
      <trkpt lat="45.255" lon="5.81177">
        <ele>571</ele>
        <time>2017-09-24T15:12:18Z</time>
      </trkpt>
      <trkpt lat="45.25496" lon="5.81181">
        <ele>570</ele>
        <time>2017-09-24T15:12:21Z</time>
      </trkpt>
      <trkpt lat="45.25491" lon="5.81184">
        <ele>568</ele>
        <time>2017-09-24T15:12:23Z</time>
      </trkpt>
      <trkpt lat="45.25489" lon="5.81191">
        <ele>568</ele>
        <time>2017-09-24T15:12:26Z</time>
      </trkpt>
      <trkpt lat="45.25484" lon="5.81198">
        <ele>567</ele>
        <time>2017-09-24T15:12:29Z</time>
      </trkpt>
      <trkpt lat="45.25477" lon="5.81207">
        <ele>566</ele>
        <time>2017-09-24T15:12:31Z</time>
      </trkpt>
      <trkpt lat="45.25473" lon="5.81213">
        <ele>565</ele>
        <time>2017-09-24T15:12:32Z</time>
      </trkpt>
      <trkpt lat="45.25461" lon="5.81222">
        <ele>563</ele>
        <time>2017-09-24T15:12:33Z</time>
      </trkpt>
      <trkpt lat="45.2545" lon="5.81233">
        <ele>562</ele>
        <time>2017-09-24T15:12:37Z</time>
      </trkpt>
      <trkpt lat="45.25446" lon="5.81228">
        <ele>561</ele>
        <time>2017-09-24T15:12:40Z</time>
      </trkpt>
      <trkpt lat="45.25448" lon="5.81222">
        <ele>561</ele>
        <time>2017-09-24T15:12:41Z</time>
      </trkpt>
      <trkpt lat="45.25448" lon="5.8121">
        <ele>559</ele>
        <time>2017-09-24T15:12:43Z</time>
      </trkpt>
      <trkpt lat="45.2545" lon="5.81198">
        <ele>559</ele>
        <time>2017-09-24T15:12:45Z</time>
      </trkpt>
      <trkpt lat="45.2545" lon="5.81187">
        <ele>558</ele>
        <time>2017-09-24T15:12:47Z</time>
      </trkpt>
      <trkpt lat="45.25446" lon="5.81176">
        <ele>556</ele>
        <time>2017-09-24T15:12:49Z</time>
      </trkpt>
      <trkpt lat="45.25442" lon="5.81173">
        <ele>556</ele>
        <time>2017-09-24T15:12:50Z</time>
      </trkpt>
      <trkpt lat="45.25432" lon="5.81177">
        <ele>553</ele>
        <time>2017-09-24T15:12:51Z</time>
      </trkpt>
      <trkpt lat="45.25421" lon="5.81172">
        <ele>550</ele>
        <time>2017-09-24T15:12:53Z</time>
      </trkpt>
      <trkpt lat="45.25415" lon="5.81174">
        <ele>549</ele>
        <time>2017-09-24T15:12:54Z</time>
      </trkpt>
      <trkpt lat="45.25408" lon="5.81168">
        <ele>547</ele>
        <time>2017-09-24T15:12:55Z</time>
      </trkpt>
      <trkpt lat="45.25401" lon="5.81162">
        <ele>546</ele>
        <time>2017-09-24T15:12:56Z</time>
      </trkpt>
      <trkpt lat="45.25391" lon="5.81159">
        <ele>544</ele>
        <time>2017-09-24T15:12:57Z</time>
      </trkpt>
      <trkpt lat="45.25382" lon="5.81155">
        <ele>542</ele>
        <time>2017-09-24T15:12:59Z</time>
      </trkpt>
      <trkpt lat="45.25377" lon="5.81152">
        <ele>541</ele>
        <time>2017-09-24T15:13:00Z</time>
      </trkpt>
      <trkpt lat="45.25371" lon="5.81151">
        <ele>540</ele>
        <time>2017-09-24T15:13:01Z</time>
      </trkpt>
      <trkpt lat="45.25368" lon="5.81144">
        <ele>540</ele>
        <time>2017-09-24T15:13:02Z</time>
      </trkpt>
      <trkpt lat="45.25366" lon="5.81136">
        <ele>540</ele>
        <time>2017-09-24T15:13:04Z</time>
      </trkpt>
      <trkpt lat="45.25361" lon="5.8113">
        <ele>539</ele>
        <time>2017-09-24T15:13:05Z</time>
      </trkpt>
      <trkpt lat="45.25353" lon="5.81127">
        <ele>538</ele>
        <time>2017-09-24T15:13:07Z</time>
      </trkpt>
      <trkpt lat="45.25349" lon="5.81125">
        <ele>537</ele>
        <time>2017-09-24T15:13:09Z</time>
      </trkpt>
      <trkpt lat="45.25344" lon="5.81121">
        <ele>536</ele>
        <time>2017-09-24T15:13:31Z</time>
      </trkpt>
      <trkpt lat="45.25335" lon="5.81123">
        <ele>535</ele>
        <time>2017-09-24T15:13:33Z</time>
      </trkpt>
      <trkpt lat="45.25316" lon="5.81131">
        <ele>532</ele>
        <time>2017-09-24T15:13:34Z</time>
      </trkpt>
      <trkpt lat="45.25308" lon="5.81132">
        <ele>530</ele>
        <time>2017-09-24T15:13:35Z</time>
      </trkpt>
      <trkpt lat="45.253" lon="5.81129">
        <ele>529</ele>
        <time>2017-09-24T15:13:36Z</time>
      </trkpt>
      <trkpt lat="45.25292" lon="5.81127">
        <ele>528</ele>
        <time>2017-09-24T15:13:37Z</time>
      </trkpt>
      <trkpt lat="45.25285" lon="5.81123">
        <ele>527</ele>
        <time>2017-09-24T15:13:38Z</time>
      </trkpt>
      <trkpt lat="45.25277" lon="5.81119">
        <ele>526</ele>
        <time>2017-09-24T15:13:39Z</time>
      </trkpt>
      <trkpt lat="45.25269" lon="5.81114">
        <ele>525</ele>
        <time>2017-09-24T15:13:40Z</time>
      </trkpt>
      <trkpt lat="45.25263" lon="5.81112">
        <ele>525</ele>
        <time>2017-09-24T15:13:41Z</time>
      </trkpt>
      <trkpt lat="45.25257" lon="5.81111">
        <ele>524</ele>
        <time>2017-09-24T15:13:42Z</time>
      </trkpt>
      <trkpt lat="45.25248" lon="5.81106">
        <ele>523</ele>
        <time>2017-09-24T15:13:43Z</time>
      </trkpt>
      <trkpt lat="45.2524" lon="5.81102">
        <ele>522</ele>
        <time>2017-09-24T15:13:44Z</time>
      </trkpt>
      <trkpt lat="45.25232" lon="5.81096">
        <ele>522</ele>
        <time>2017-09-24T15:13:45Z</time>
      </trkpt>
      <trkpt lat="45.25224" lon="5.81092">
        <ele>521</ele>
        <time>2017-09-24T15:13:46Z</time>
      </trkpt>
      <trkpt lat="45.25214" lon="5.81087">
        <ele>520</ele>
        <time>2017-09-24T15:13:47Z</time>
      </trkpt>
      <trkpt lat="45.25196" lon="5.81077">
        <ele>518</ele>
        <time>2017-09-24T15:13:49Z</time>
      </trkpt>
      <trkpt lat="45.25187" lon="5.81073">
        <ele>518</ele>
        <time>2017-09-24T15:13:50Z</time>
      </trkpt>
      <trkpt lat="45.25179" lon="5.81067">
        <ele>518</ele>
        <time>2017-09-24T15:13:51Z</time>
      </trkpt>
      <trkpt lat="45.25174" lon="5.81063">
        <ele>518</ele>
        <time>2017-09-24T15:13:52Z</time>
      </trkpt>
      <trkpt lat="45.25167" lon="5.81055">
        <ele>518</ele>
        <time>2017-09-24T15:13:53Z</time>
      </trkpt>
      <trkpt lat="45.25164" lon="5.8105">
        <ele>518</ele>
        <time>2017-09-24T15:13:54Z</time>
      </trkpt>
      <trkpt lat="45.2516" lon="5.81043">
        <ele>519</ele>
        <time>2017-09-24T15:13:56Z</time>
      </trkpt>
      <trkpt lat="45.25158" lon="5.81037">
        <ele>519</ele>
        <time>2017-09-24T15:13:59Z</time>
      </trkpt>
      <trkpt lat="45.25158" lon="5.81029">
        <ele>520</ele>
        <time>2017-09-24T15:14:02Z</time>
      </trkpt>
      <trkpt lat="45.25157" lon="5.8102">
        <ele>522</ele>
        <time>2017-09-24T15:14:04Z</time>
      </trkpt>
      <trkpt lat="45.25154" lon="5.81013">
        <ele>522</ele>
        <time>2017-09-24T15:14:06Z</time>
      </trkpt>
      <trkpt lat="45.25151" lon="5.81006">
        <ele>523</ele>
        <time>2017-09-24T15:14:08Z</time>
      </trkpt>
      <trkpt lat="45.25149" lon="5.81">
        <ele>524</ele>
        <time>2017-09-24T15:14:10Z</time>
      </trkpt>
      <trkpt lat="45.25145" lon="5.80994">
        <ele>525</ele>
        <time>2017-09-24T15:14:13Z</time>
      </trkpt>
      <trkpt lat="45.25141" lon="5.80993">
        <ele>525</ele>
        <time>2017-09-24T15:14:15Z</time>
      </trkpt>
      <trkpt lat="45.25135" lon="5.80993">
        <ele>524</ele>
        <time>2017-09-24T15:14:17Z</time>
      </trkpt>
      <trkpt lat="45.2513" lon="5.80992">
        <ele>524</ele>
        <time>2017-09-24T15:14:19Z</time>
      </trkpt>
      <trkpt lat="45.25123" lon="5.8099">
        <ele>525</ele>
        <time>2017-09-24T15:14:22Z</time>
      </trkpt>
      <trkpt lat="45.25117" lon="5.8099">
        <ele>525</ele>
        <time>2017-09-24T15:14:24Z</time>
      </trkpt>
      <trkpt lat="45.25111" lon="5.80992">
        <ele>525</ele>
        <time>2017-09-24T15:14:26Z</time>
      </trkpt>
      <trkpt lat="45.25103" lon="5.80999">
        <ele>525</ele>
        <time>2017-09-24T15:14:28Z</time>
      </trkpt>
      <trkpt lat="45.251" lon="5.81004">
        <ele>524</ele>
        <time>2017-09-24T15:14:29Z</time>
      </trkpt>
      <trkpt lat="45.25095" lon="5.81014">
        <ele>523</ele>
        <time>2017-09-24T15:14:31Z</time>
      </trkpt>
      <trkpt lat="45.25092" lon="5.81025">
        <ele>521</ele>
        <time>2017-09-24T15:14:33Z</time>
      </trkpt>
      <trkpt lat="45.2509" lon="5.81034">
        <ele>520</ele>
        <time>2017-09-24T15:14:35Z</time>
      </trkpt>
      <trkpt lat="45.25089" lon="5.8104">
        <ele>519</ele>
        <time>2017-09-24T15:14:42Z</time>
      </trkpt>
      <trkpt lat="45.25086" lon="5.81046">
        <ele>518</ele>
        <time>2017-09-24T15:14:44Z</time>
      </trkpt>
      <trkpt lat="45.25079" lon="5.81051">
        <ele>518</ele>
        <time>2017-09-24T15:14:46Z</time>
      </trkpt>
      <trkpt lat="45.25071" lon="5.81056">
        <ele>517</ele>
        <time>2017-09-24T15:14:48Z</time>
      </trkpt>
      <trkpt lat="45.25067" lon="5.81059">
        <ele>517</ele>
        <time>2017-09-24T15:14:49Z</time>
      </trkpt>
      <trkpt lat="45.2506" lon="5.81064">
        <ele>516</ele>
        <time>2017-09-24T15:14:51Z</time>
      </trkpt>
      <trkpt lat="45.25055" lon="5.81066">
        <ele>516</ele>
        <time>2017-09-24T15:14:53Z</time>
      </trkpt>
      <trkpt lat="45.2505" lon="5.81068">
        <ele>516</ele>
        <time>2017-09-24T15:14:56Z</time>
      </trkpt>
      <trkpt lat="45.25045" lon="5.81074">
        <ele>516</ele>
        <time>2017-09-24T15:14:59Z</time>
      </trkpt>
      <trkpt lat="45.2504" lon="5.81079">
        <ele>515</ele>
        <time>2017-09-24T15:15:02Z</time>
      </trkpt>
      <trkpt lat="45.25036" lon="5.81084">
        <ele>515</ele>
        <time>2017-09-24T15:15:06Z</time>
      </trkpt>
      <trkpt lat="45.25032" lon="5.81087">
        <ele>514</ele>
        <time>2017-09-24T15:15:09Z</time>
      </trkpt>
      <trkpt lat="45.25029" lon="5.81092">
        <ele>514</ele>
        <time>2017-09-24T15:15:12Z</time>
      </trkpt>
      <trkpt lat="45.25024" lon="5.81091">
        <ele>514</ele>
        <time>2017-09-24T15:15:18Z</time>
      </trkpt>
      <trkpt lat="45.25019" lon="5.81087">
        <ele>515</ele>
        <time>2017-09-24T15:15:21Z</time>
      </trkpt>
      <trkpt lat="45.25013" lon="5.81085">
        <ele>516</ele>
        <time>2017-09-24T15:15:24Z</time>
      </trkpt>
      <trkpt lat="45.25007" lon="5.81084">
        <ele>517</ele>
        <time>2017-09-24T15:15:29Z</time>
      </trkpt>
      <trkpt lat="45.24997" lon="5.81084">
        <ele>517</ele>
        <time>2017-09-24T15:15:31Z</time>
      </trkpt>
      <trkpt lat="45.24992" lon="5.81082">
        <ele>518</ele>
        <time>2017-09-24T15:15:32Z</time>
      </trkpt>
      <trkpt lat="45.24986" lon="5.8108">
        <ele>517</ele>
        <time>2017-09-24T15:15:33Z</time>
      </trkpt>
      <trkpt lat="45.24972" lon="5.81079">
        <ele>516</ele>
        <time>2017-09-24T15:15:34Z</time>
      </trkpt>
      <trkpt lat="45.24967" lon="5.81077">
        <ele>515</ele>
        <time>2017-09-24T15:15:35Z</time>
      </trkpt>
      <trkpt lat="45.24959" lon="5.81073">
        <ele>514</ele>
        <time>2017-09-24T15:15:36Z</time>
      </trkpt>
      <trkpt lat="45.24955" lon="5.81069">
        <ele>514</ele>
        <time>2017-09-24T15:15:37Z</time>
      </trkpt>
      <trkpt lat="45.2495" lon="5.81063">
        <ele>514</ele>
        <time>2017-09-24T15:15:38Z</time>
      </trkpt>
      <trkpt lat="45.24947" lon="5.81057">
        <ele>514</ele>
        <time>2017-09-24T15:15:39Z</time>
      </trkpt>
      <trkpt lat="45.24944" lon="5.81051">
        <ele>514</ele>
        <time>2017-09-24T15:15:40Z</time>
      </trkpt>
      <trkpt lat="45.24941" lon="5.81045">
        <ele>514</ele>
        <time>2017-09-24T15:15:41Z</time>
      </trkpt>
      <trkpt lat="45.24936" lon="5.81038">
        <ele>513</ele>
        <time>2017-09-24T15:15:42Z</time>
      </trkpt>
      <trkpt lat="45.24933" lon="5.81033">
        <ele>513</ele>
        <time>2017-09-24T15:15:43Z</time>
      </trkpt>
      <trkpt lat="45.24929" lon="5.81025">
        <ele>512</ele>
        <time>2017-09-24T15:15:44Z</time>
      </trkpt>
      <trkpt lat="45.24926" lon="5.81017">
        <ele>512</ele>
        <time>2017-09-24T15:15:45Z</time>
      </trkpt>
      <trkpt lat="45.24923" lon="5.81008">
        <ele>511</ele>
        <time>2017-09-24T15:15:46Z</time>
      </trkpt>
      <trkpt lat="45.24922" lon="5.81">
        <ele>511</ele>
        <time>2017-09-24T15:15:47Z</time>
      </trkpt>
      <trkpt lat="45.2492" lon="5.80991">
        <ele>511</ele>
        <time>2017-09-24T15:15:48Z</time>
      </trkpt>
      <trkpt lat="45.24917" lon="5.8098">
        <ele>511</ele>
        <time>2017-09-24T15:15:49Z</time>
      </trkpt>
      <trkpt lat="45.24915" lon="5.80968">
        <ele>510</ele>
        <time>2017-09-24T15:15:50Z</time>
      </trkpt>
      <trkpt lat="45.24912" lon="5.80958">
        <ele>510</ele>
        <time>2017-09-24T15:15:51Z</time>
      </trkpt>
      <trkpt lat="45.2491" lon="5.80951">
        <ele>511</ele>
        <time>2017-09-24T15:15:52Z</time>
      </trkpt>
      <trkpt lat="45.24905" lon="5.80936">
        <ele>511</ele>
        <time>2017-09-24T15:15:55Z</time>
      </trkpt>
      <trkpt lat="45.24903" lon="5.80931">
        <ele>511</ele>
        <time>2017-09-24T15:16:04Z</time>
      </trkpt>
      <trkpt lat="45.249" lon="5.80924">
        <ele>510</ele>
        <time>2017-09-24T15:16:07Z</time>
      </trkpt>
      <trkpt lat="45.24898" lon="5.80918">
        <ele>511</ele>
        <time>2017-09-24T15:16:09Z</time>
      </trkpt>
      <trkpt lat="45.24896" lon="5.8091">
        <ele>511</ele>
        <time>2017-09-24T15:16:11Z</time>
      </trkpt>
      <trkpt lat="45.24894" lon="5.80902">
        <ele>511</ele>
        <time>2017-09-24T15:16:13Z</time>
      </trkpt>
      <trkpt lat="45.24891" lon="5.80891">
        <ele>512</ele>
        <time>2017-09-24T15:16:15Z</time>
      </trkpt>
      <trkpt lat="45.24888" lon="5.80881">
        <ele>512</ele>
        <time>2017-09-24T15:16:17Z</time>
      </trkpt>
      <trkpt lat="45.24883" lon="5.80873">
        <ele>513</ele>
        <time>2017-09-24T15:16:19Z</time>
      </trkpt>
      <trkpt lat="45.24878" lon="5.80867">
        <ele>513</ele>
        <time>2017-09-24T15:16:21Z</time>
      </trkpt>
      <trkpt lat="45.24874" lon="5.80861">
        <ele>513</ele>
        <time>2017-09-24T15:16:23Z</time>
      </trkpt>
      <trkpt lat="45.24869" lon="5.80853">
        <ele>513</ele>
        <time>2017-09-24T15:16:25Z</time>
      </trkpt>
      <trkpt lat="45.24864" lon="5.80846">
        <ele>513</ele>
        <time>2017-09-24T15:16:27Z</time>
      </trkpt>
      <trkpt lat="45.2486" lon="5.80841">
        <ele>513</ele>
        <time>2017-09-24T15:16:29Z</time>
      </trkpt>
      <trkpt lat="45.24855" lon="5.80836">
        <ele>513</ele>
        <time>2017-09-24T15:16:31Z</time>
      </trkpt>
      <trkpt lat="45.24849" lon="5.8083">
        <ele>513</ele>
        <time>2017-09-24T15:16:34Z</time>
      </trkpt>
      <trkpt lat="45.24845" lon="5.80826">
        <ele>513</ele>
        <time>2017-09-24T15:16:36Z</time>
      </trkpt>
      <trkpt lat="45.24839" lon="5.8082">
        <ele>512</ele>
        <time>2017-09-24T15:16:39Z</time>
      </trkpt>
      <trkpt lat="45.24835" lon="5.80816">
        <ele>512</ele>
        <time>2017-09-24T15:16:41Z</time>
      </trkpt>
      <trkpt lat="45.24831" lon="5.80811">
        <ele>512</ele>
        <time>2017-09-24T15:16:43Z</time>
      </trkpt>
      <trkpt lat="45.24826" lon="5.80806">
        <ele>511</ele>
        <time>2017-09-24T15:16:45Z</time>
      </trkpt>
      <trkpt lat="45.2482" lon="5.808">
        <ele>510</ele>
        <time>2017-09-24T15:16:47Z</time>
      </trkpt>
      <trkpt lat="45.24815" lon="5.80793">
        <ele>510</ele>
        <time>2017-09-24T15:16:49Z</time>
      </trkpt>
      <trkpt lat="45.24811" lon="5.80786">
        <ele>509</ele>
        <time>2017-09-24T15:16:51Z</time>
      </trkpt>
      <trkpt lat="45.24808" lon="5.80777">
        <ele>509</ele>
        <time>2017-09-24T15:16:53Z</time>
      </trkpt>
      <trkpt lat="45.24805" lon="5.80768">
        <ele>509</ele>
        <time>2017-09-24T15:16:55Z</time>
      </trkpt>
      <trkpt lat="45.248" lon="5.8076">
        <ele>508</ele>
        <time>2017-09-24T15:16:57Z</time>
      </trkpt>
      <trkpt lat="45.24793" lon="5.80756">
        <ele>507</ele>
        <time>2017-09-24T15:16:59Z</time>
      </trkpt>
      <trkpt lat="45.24788" lon="5.80755">
        <ele>506</ele>
        <time>2017-09-24T15:17:00Z</time>
      </trkpt>
      <trkpt lat="45.24784" lon="5.80755">
        <ele>505</ele>
        <time>2017-09-24T15:17:01Z</time>
      </trkpt>
      <trkpt lat="45.24772" lon="5.80755">
        <ele>503</ele>
        <time>2017-09-24T15:17:02Z</time>
      </trkpt>
      <trkpt lat="45.24765" lon="5.80751">
        <ele>502</ele>
        <time>2017-09-24T15:17:03Z</time>
      </trkpt>
      <trkpt lat="45.24761" lon="5.80748">
        <ele>501</ele>
        <time>2017-09-24T15:17:04Z</time>
      </trkpt>
      <trkpt lat="45.24752" lon="5.80742">
        <ele>500</ele>
        <time>2017-09-24T15:17:05Z</time>
      </trkpt>
      <trkpt lat="45.24746" lon="5.80735">
        <ele>499</ele>
        <time>2017-09-24T15:17:06Z</time>
      </trkpt>
      <trkpt lat="45.24738" lon="5.8073">
        <ele>497</ele>
        <time>2017-09-24T15:17:07Z</time>
      </trkpt>
      <trkpt lat="45.24734" lon="5.80721">
        <ele>496</ele>
        <time>2017-09-24T15:17:08Z</time>
      </trkpt>
      <trkpt lat="45.24725" lon="5.80717">
        <ele>495</ele>
        <time>2017-09-24T15:17:09Z</time>
      </trkpt>
      <trkpt lat="45.24716" lon="5.80711">
        <ele>493</ele>
        <time>2017-09-24T15:17:10Z</time>
      </trkpt>
      <trkpt lat="45.24703" lon="5.80713">
        <ele>490</ele>
        <time>2017-09-24T15:17:12Z</time>
      </trkpt>
      <trkpt lat="45.24692" lon="5.80712">
        <ele>488</ele>
        <time>2017-09-24T15:17:13Z</time>
      </trkpt>
      <trkpt lat="45.24686" lon="5.80703">
        <ele>487</ele>
        <time>2017-09-24T15:17:14Z</time>
      </trkpt>
      <trkpt lat="45.24682" lon="5.80683">
        <ele>487</ele>
        <time>2017-09-24T15:17:15Z</time>
      </trkpt>
      <trkpt lat="45.24675" lon="5.80669">
        <ele>486</ele>
        <time>2017-09-24T15:17:17Z</time>
      </trkpt>
      <trkpt lat="45.24667" lon="5.80662">
        <ele>484</ele>
        <time>2017-09-24T15:17:18Z</time>
      </trkpt>
      <trkpt lat="45.24662" lon="5.80651">
        <ele>484</ele>
        <time>2017-09-24T15:17:19Z</time>
      </trkpt>
      <trkpt lat="45.24655" lon="5.80641">
        <ele>482</ele>
        <time>2017-09-24T15:17:20Z</time>
      </trkpt>
      <trkpt lat="45.24651" lon="5.8063">
        <ele>482</ele>
        <time>2017-09-24T15:17:21Z</time>
      </trkpt>
      <trkpt lat="45.24645" lon="5.8062">
        <ele>481</ele>
        <time>2017-09-24T15:17:22Z</time>
      </trkpt>
      <trkpt lat="45.2464" lon="5.80609">
        <ele>480</ele>
        <time>2017-09-24T15:17:23Z</time>
      </trkpt>
      <trkpt lat="45.24632" lon="5.80599">
        <ele>479</ele>
        <time>2017-09-24T15:17:24Z</time>
      </trkpt>
      <trkpt lat="45.24624" lon="5.8059">
        <ele>479</ele>
        <time>2017-09-24T15:17:25Z</time>
      </trkpt>
      <trkpt lat="45.24617" lon="5.80586">
        <ele>478</ele>
        <time>2017-09-24T15:17:26Z</time>
      </trkpt>
      <trkpt lat="45.24611" lon="5.80581">
        <ele>477</ele>
        <time>2017-09-24T15:17:27Z</time>
      </trkpt>
      <trkpt lat="45.24605" lon="5.80578">
        <ele>476</ele>
        <time>2017-09-24T15:17:28Z</time>
      </trkpt>
      <trkpt lat="45.24599" lon="5.80575">
        <ele>475</ele>
        <time>2017-09-24T15:17:29Z</time>
      </trkpt>
      <trkpt lat="45.24593" lon="5.80569">
        <ele>475</ele>
        <time>2017-09-24T15:17:30Z</time>
      </trkpt>
      <trkpt lat="45.24587" lon="5.80563">
        <ele>474</ele>
        <time>2017-09-24T15:17:31Z</time>
      </trkpt>
      <trkpt lat="45.24582" lon="5.80558">
        <ele>474</ele>
        <time>2017-09-24T15:17:32Z</time>
      </trkpt>
      <trkpt lat="45.24579" lon="5.80553">
        <ele>474</ele>
        <time>2017-09-24T15:17:33Z</time>
      </trkpt>
      <trkpt lat="45.24574" lon="5.80549">
        <ele>474</ele>
        <time>2017-09-24T15:17:34Z</time>
      </trkpt>
      <trkpt lat="45.2457" lon="5.80545">
        <ele>474</ele>
        <time>2017-09-24T15:17:35Z</time>
      </trkpt>
      <trkpt lat="45.24562" lon="5.80534">
        <ele>474</ele>
        <time>2017-09-24T15:17:38Z</time>
      </trkpt>
      <trkpt lat="45.24556" lon="5.80528">
        <ele>474</ele>
        <time>2017-09-24T15:17:41Z</time>
      </trkpt>
      <trkpt lat="45.24549" lon="5.80535">
        <ele>473</ele>
        <time>2017-09-24T15:17:44Z</time>
      </trkpt>
      <trkpt lat="45.24543" lon="5.80535">
        <ele>472</ele>
        <time>2017-09-24T15:17:45Z</time>
      </trkpt>
      <trkpt lat="45.24536" lon="5.80542">
        <ele>471</ele>
        <time>2017-09-24T15:17:47Z</time>
      </trkpt>
      <trkpt lat="45.24529" lon="5.80541">
        <ele>470</ele>
        <time>2017-09-24T15:17:49Z</time>
      </trkpt>
      <trkpt lat="45.24524" lon="5.80535">
        <ele>470</ele>
        <time>2017-09-24T15:17:51Z</time>
      </trkpt>
      <trkpt lat="45.24519" lon="5.80528">
        <ele>470</ele>
        <time>2017-09-24T15:17:53Z</time>
      </trkpt>
      <trkpt lat="45.24515" lon="5.80523">
        <ele>470</ele>
        <time>2017-09-24T15:17:55Z</time>
      </trkpt>
      <trkpt lat="45.24511" lon="5.80517">
        <ele>471</ele>
        <time>2017-09-24T15:17:57Z</time>
      </trkpt>
      <trkpt lat="45.24506" lon="5.80511">
        <ele>471</ele>
        <time>2017-09-24T15:17:59Z</time>
      </trkpt>
      <trkpt lat="45.24501" lon="5.80505">
        <ele>471</ele>
        <time>2017-09-24T15:18:01Z</time>
      </trkpt>
      <trkpt lat="45.24495" lon="5.80498">
        <ele>471</ele>
        <time>2017-09-24T15:18:03Z</time>
      </trkpt>
      <trkpt lat="45.2449" lon="5.80492">
        <ele>471</ele>
        <time>2017-09-24T15:18:05Z</time>
      </trkpt>
      <trkpt lat="45.24485" lon="5.80485">
        <ele>471</ele>
        <time>2017-09-24T15:18:07Z</time>
      </trkpt>
      <trkpt lat="45.2448" lon="5.80478">
        <ele>471</ele>
        <time>2017-09-24T15:18:09Z</time>
      </trkpt>
      <trkpt lat="45.24471" lon="5.80467">
        <ele>471</ele>
        <time>2017-09-24T15:18:12Z</time>
      </trkpt>
      <trkpt lat="45.24465" lon="5.80459">
        <ele>471</ele>
        <time>2017-09-24T15:18:14Z</time>
      </trkpt>
      <trkpt lat="45.24461" lon="5.80451">
        <ele>472</ele>
        <time>2017-09-24T15:18:16Z</time>
      </trkpt>
      <trkpt lat="45.24456" lon="5.80444">
        <ele>472</ele>
        <time>2017-09-24T15:18:18Z</time>
      </trkpt>
      <trkpt lat="45.24452" lon="5.80436">
        <ele>472</ele>
        <time>2017-09-24T15:18:20Z</time>
      </trkpt>
      <trkpt lat="45.24448" lon="5.80428">
        <ele>472</ele>
        <time>2017-09-24T15:18:22Z</time>
      </trkpt>
      <trkpt lat="45.24443" lon="5.80421">
        <ele>472</ele>
        <time>2017-09-24T15:18:24Z</time>
      </trkpt>
      <trkpt lat="45.24439" lon="5.80414">
        <ele>472</ele>
        <time>2017-09-24T15:18:26Z</time>
      </trkpt>
      <trkpt lat="45.24435" lon="5.80406">
        <ele>473</ele>
        <time>2017-09-24T15:18:28Z</time>
      </trkpt>
      <trkpt lat="45.24432" lon="5.80397">
        <ele>473</ele>
        <time>2017-09-24T15:18:30Z</time>
      </trkpt>
      <trkpt lat="45.24429" lon="5.80389">
        <ele>473</ele>
        <time>2017-09-24T15:18:32Z</time>
      </trkpt>
      <trkpt lat="45.24427" lon="5.8038">
        <ele>473</ele>
        <time>2017-09-24T15:18:34Z</time>
      </trkpt>
      <trkpt lat="45.24425" lon="5.80374">
        <ele>474</ele>
        <time>2017-09-24T15:18:36Z</time>
      </trkpt>
      <trkpt lat="45.24421" lon="5.80367">
        <ele>474</ele>
        <time>2017-09-24T15:18:38Z</time>
      </trkpt>
      <trkpt lat="45.24419" lon="5.80356">
        <ele>474</ele>
        <time>2017-09-24T15:18:42Z</time>
      </trkpt>
      <trkpt lat="45.2442" lon="5.80349">
        <ele>475</ele>
        <time>2017-09-24T15:18:45Z</time>
      </trkpt>
      <trkpt lat="45.2442" lon="5.80341">
        <ele>476</ele>
        <time>2017-09-24T15:18:48Z</time>
      </trkpt>
      <trkpt lat="45.2442" lon="5.80334">
        <ele>476</ele>
        <time>2017-09-24T15:18:50Z</time>
      </trkpt>
      <trkpt lat="45.24419" lon="5.80325">
        <ele>477</ele>
        <time>2017-09-24T15:18:52Z</time>
      </trkpt>
      <trkpt lat="45.24418" lon="5.80317">
        <ele>478</ele>
        <time>2017-09-24T15:18:54Z</time>
      </trkpt>
      <trkpt lat="45.24415" lon="5.8031">
        <ele>478</ele>
        <time>2017-09-24T15:18:56Z</time>
      </trkpt>
      <trkpt lat="45.24412" lon="5.80301">
        <ele>478</ele>
        <time>2017-09-24T15:18:58Z</time>
      </trkpt>
      <trkpt lat="45.24405" lon="5.8029">
        <ele>478</ele>
        <time>2017-09-24T15:19:00Z</time>
      </trkpt>
      <trkpt lat="45.2438" lon="5.80271">
        <ele>476</ele>
        <time>2017-09-24T15:19:02Z</time>
      </trkpt>
      <trkpt lat="45.24371" lon="5.80265">
        <ele>475</ele>
        <time>2017-09-24T15:19:03Z</time>
      </trkpt>
      <trkpt lat="45.24364" lon="5.80259">
        <ele>475</ele>
        <time>2017-09-24T15:19:04Z</time>
      </trkpt>
      <trkpt lat="45.24358" lon="5.80252">
        <ele>475</ele>
        <time>2017-09-24T15:19:05Z</time>
      </trkpt>
      <trkpt lat="45.24347" lon="5.8025">
        <ele>473</ele>
        <time>2017-09-24T15:19:06Z</time>
      </trkpt>
      <trkpt lat="45.24337" lon="5.80246">
        <ele>472</ele>
        <time>2017-09-24T15:19:07Z</time>
      </trkpt>
      <trkpt lat="45.24329" lon="5.80243">
        <ele>471</ele>
        <time>2017-09-24T15:19:08Z</time>
      </trkpt>
      <trkpt lat="45.24321" lon="5.80238">
        <ele>470</ele>
        <time>2017-09-24T15:19:09Z</time>
      </trkpt>
      <trkpt lat="45.24314" lon="5.80234">
        <ele>469</ele>
        <time>2017-09-24T15:19:10Z</time>
      </trkpt>
      <trkpt lat="45.24305" lon="5.80231">
        <ele>468</ele>
        <time>2017-09-24T15:19:11Z</time>
      </trkpt>
      <trkpt lat="45.24298" lon="5.80229">
        <ele>467</ele>
        <time>2017-09-24T15:19:12Z</time>
      </trkpt>
      <trkpt lat="45.2429" lon="5.80225">
        <ele>466</ele>
        <time>2017-09-24T15:19:13Z</time>
      </trkpt>
      <trkpt lat="45.24285" lon="5.80224">
        <ele>465</ele>
        <time>2017-09-24T15:19:14Z</time>
      </trkpt>
      <trkpt lat="45.24279" lon="5.8022">
        <ele>464</ele>
        <time>2017-09-24T15:19:15Z</time>
      </trkpt>
      <trkpt lat="45.24273" lon="5.80219">
        <ele>463</ele>
        <time>2017-09-24T15:19:16Z</time>
      </trkpt>
      <trkpt lat="45.24266" lon="5.8022">
        <ele>462</ele>
        <time>2017-09-24T15:19:18Z</time>
      </trkpt>
      <trkpt lat="45.24265" lon="5.80232">
        <ele>461</ele>
        <time>2017-09-24T15:19:22Z</time>
      </trkpt>
      <trkpt lat="45.24265" lon="5.80248">
        <ele>459</ele>
        <time>2017-09-24T15:19:24Z</time>
      </trkpt>
      <trkpt lat="45.24266" lon="5.80257">
        <ele>459</ele>
        <time>2017-09-24T15:19:25Z</time>
      </trkpt>
      <trkpt lat="45.24265" lon="5.80268">
        <ele>458</ele>
        <time>2017-09-24T15:19:26Z</time>
      </trkpt>
      <trkpt lat="45.24264" lon="5.80279">
        <ele>457</ele>
        <time>2017-09-24T15:19:27Z</time>
      </trkpt>
      <trkpt lat="45.2426" lon="5.80291">
        <ele>455</ele>
        <time>2017-09-24T15:19:28Z</time>
      </trkpt>
      <trkpt lat="45.24258" lon="5.80299">
        <ele>454</ele>
        <time>2017-09-24T15:19:29Z</time>
      </trkpt>
      <trkpt lat="45.24253" lon="5.80308">
        <ele>452</ele>
        <time>2017-09-24T15:19:30Z</time>
      </trkpt>
      <trkpt lat="45.24247" lon="5.8031">
        <ele>451</ele>
        <time>2017-09-24T15:19:31Z</time>
      </trkpt>
      <trkpt lat="45.24234" lon="5.80313">
        <ele>448</ele>
        <time>2017-09-24T15:19:34Z</time>
      </trkpt>
      <trkpt lat="45.24223" lon="5.80309">
        <ele>447</ele>
        <time>2017-09-24T15:19:36Z</time>
      </trkpt>
      <trkpt lat="45.24215" lon="5.80312">
        <ele>445</ele>
        <time>2017-09-24T15:19:38Z</time>
      </trkpt>
      <trkpt lat="45.24209" lon="5.80316">
        <ele>444</ele>
        <time>2017-09-24T15:19:39Z</time>
      </trkpt>
      <trkpt lat="45.24199" lon="5.80324">
        <ele>441</ele>
        <time>2017-09-24T15:19:41Z</time>
      </trkpt>
      <trkpt lat="45.24192" lon="5.8033">
        <ele>439</ele>
        <time>2017-09-24T15:19:43Z</time>
      </trkpt>
      <trkpt lat="45.24188" lon="5.80335">
        <ele>438</ele>
        <time>2017-09-24T15:19:44Z</time>
      </trkpt>
      <trkpt lat="45.24181" lon="5.80342">
        <ele>436</ele>
        <time>2017-09-24T15:19:45Z</time>
      </trkpt>
      <trkpt lat="45.24178" lon="5.80346">
        <ele>435</ele>
        <time>2017-09-24T15:19:46Z</time>
      </trkpt>
      <trkpt lat="45.24171" lon="5.8035">
        <ele>433</ele>
        <time>2017-09-24T15:19:48Z</time>
      </trkpt>
      <trkpt lat="45.24164" lon="5.80353">
        <ele>432</ele>
        <time>2017-09-24T15:19:50Z</time>
      </trkpt>
      <trkpt lat="45.2416" lon="5.80355">
        <ele>431</ele>
        <time>2017-09-24T15:19:52Z</time>
      </trkpt>
      <trkpt lat="45.24154" lon="5.80362">
        <ele>430</ele>
        <time>2017-09-24T15:19:54Z</time>
      </trkpt>
      <trkpt lat="45.2415" lon="5.80364">
        <ele>429</ele>
        <time>2017-09-24T15:19:55Z</time>
      </trkpt>
      <trkpt lat="45.24144" lon="5.80367">
        <ele>428</ele>
        <time>2017-09-24T15:19:57Z</time>
      </trkpt>
      <trkpt lat="45.24139" lon="5.80369">
        <ele>428</ele>
        <time>2017-09-24T15:19:59Z</time>
      </trkpt>
      <trkpt lat="45.24135" lon="5.80373">
        <ele>427</ele>
        <time>2017-09-24T15:20:01Z</time>
      </trkpt>
      <trkpt lat="45.2413" lon="5.80376">
        <ele>426</ele>
        <time>2017-09-24T15:20:03Z</time>
      </trkpt>
      <trkpt lat="45.24122" lon="5.8038">
        <ele>425</ele>
        <time>2017-09-24T15:20:05Z</time>
      </trkpt>
      <trkpt lat="45.24114" lon="5.80385">
        <ele>424</ele>
        <time>2017-09-24T15:20:07Z</time>
      </trkpt>
      <trkpt lat="45.24107" lon="5.8039">
        <ele>423</ele>
        <time>2017-09-24T15:20:08Z</time>
      </trkpt>
      <trkpt lat="45.24102" lon="5.80393">
        <ele>422</ele>
        <time>2017-09-24T15:20:09Z</time>
      </trkpt>
      <trkpt lat="45.24098" lon="5.80397">
        <ele>421</ele>
        <time>2017-09-24T15:20:10Z</time>
      </trkpt>
      <trkpt lat="45.24094" lon="5.80402">
        <ele>420</ele>
        <time>2017-09-24T15:20:11Z</time>
      </trkpt>
      <trkpt lat="45.24088" lon="5.8041">
        <ele>419</ele>
        <time>2017-09-24T15:20:12Z</time>
      </trkpt>
      <trkpt lat="45.24084" lon="5.80414">
        <ele>418</ele>
        <time>2017-09-24T15:20:13Z</time>
      </trkpt>
      <trkpt lat="45.2408" lon="5.80418">
        <ele>417</ele>
        <time>2017-09-24T15:20:14Z</time>
      </trkpt>
      <trkpt lat="45.24073" lon="5.80425">
        <ele>416</ele>
        <time>2017-09-24T15:20:15Z</time>
      </trkpt>
      <trkpt lat="45.24069" lon="5.80434">
        <ele>414</ele>
        <time>2017-09-24T15:20:16Z</time>
      </trkpt>
      <trkpt lat="45.24051" lon="5.80455">
        <ele>410</ele>
        <time>2017-09-24T15:20:19Z</time>
      </trkpt>
      <trkpt lat="45.24044" lon="5.80461">
        <ele>408</ele>
        <time>2017-09-24T15:20:20Z</time>
      </trkpt>
      <trkpt lat="45.24038" lon="5.80469">
        <ele>407</ele>
        <time>2017-09-24T15:20:21Z</time>
      </trkpt>
      <trkpt lat="45.24033" lon="5.80473">
        <ele>406</ele>
        <time>2017-09-24T15:20:22Z</time>
      </trkpt>
      <trkpt lat="45.24029" lon="5.80479">
        <ele>405</ele>
        <time>2017-09-24T15:20:23Z</time>
      </trkpt>
      <trkpt lat="45.24023" lon="5.80486">
        <ele>404</ele>
        <time>2017-09-24T15:20:25Z</time>
      </trkpt>
      <trkpt lat="45.24017" lon="5.80488">
        <ele>403</ele>
        <time>2017-09-24T15:20:27Z</time>
      </trkpt>
      <trkpt lat="45.24011" lon="5.80482">
        <ele>403</ele>
        <time>2017-09-24T15:20:28Z</time>
      </trkpt>
      <trkpt lat="45.24008" lon="5.80477">
        <ele>403</ele>
        <time>2017-09-24T15:20:29Z</time>
      </trkpt>
      <trkpt lat="45.24004" lon="5.80472">
        <ele>403</ele>
        <time>2017-09-24T15:20:30Z</time>
      </trkpt>
      <trkpt lat="45.23998" lon="5.80469">
        <ele>402</ele>
        <time>2017-09-24T15:20:33Z</time>
      </trkpt>
      <trkpt lat="45.23994" lon="5.80474">
        <ele>401</ele>
        <time>2017-09-24T15:20:34Z</time>
      </trkpt>
      <trkpt lat="45.23989" lon="5.80479">
        <ele>400</ele>
        <time>2017-09-24T15:20:35Z</time>
      </trkpt>
      <trkpt lat="45.23984" lon="5.80485">
        <ele>399</ele>
        <time>2017-09-24T15:20:36Z</time>
      </trkpt>
      <trkpt lat="45.23975" lon="5.80496">
        <ele>397</ele>
        <time>2017-09-24T15:20:38Z</time>
      </trkpt>
      <trkpt lat="45.23967" lon="5.80508">
        <ele>396</ele>
        <time>2017-09-24T15:20:40Z</time>
      </trkpt>
      <trkpt lat="45.23962" lon="5.80512">
        <ele>395</ele>
        <time>2017-09-24T15:20:41Z</time>
      </trkpt>
      <trkpt lat="45.23957" lon="5.80517">
        <ele>394</ele>
        <time>2017-09-24T15:20:42Z</time>
      </trkpt>
      <trkpt lat="45.23952" lon="5.8052">
        <ele>393</ele>
        <time>2017-09-24T15:20:43Z</time>
      </trkpt>
      <trkpt lat="45.23948" lon="5.80528">
        <ele>392</ele>
        <time>2017-09-24T15:20:44Z</time>
      </trkpt>
      <trkpt lat="45.23945" lon="5.80533">
        <ele>392</ele>
        <time>2017-09-24T15:20:45Z</time>
      </trkpt>
      <trkpt lat="45.2394" lon="5.80537">
        <ele>391</ele>
        <time>2017-09-24T15:20:46Z</time>
      </trkpt>
      <trkpt lat="45.23934" lon="5.80545">
        <ele>390</ele>
        <time>2017-09-24T15:20:47Z</time>
      </trkpt>
      <trkpt lat="45.2393" lon="5.80554">
        <ele>389</ele>
        <time>2017-09-24T15:20:48Z</time>
      </trkpt>
      <trkpt lat="45.23922" lon="5.80565">
        <ele>387</ele>
        <time>2017-09-24T15:20:50Z</time>
      </trkpt>
      <trkpt lat="45.23918" lon="5.80574">
        <ele>386</ele>
        <time>2017-09-24T15:20:51Z</time>
      </trkpt>
      <trkpt lat="45.23915" lon="5.80579">
        <ele>386</ele>
        <time>2017-09-24T15:20:52Z</time>
      </trkpt>
      <trkpt lat="45.2391" lon="5.80585">
        <ele>385</ele>
        <time>2017-09-24T15:20:53Z</time>
      </trkpt>
      <trkpt lat="45.23906" lon="5.80591">
        <ele>384</ele>
        <time>2017-09-24T15:20:54Z</time>
      </trkpt>
      <trkpt lat="45.23901" lon="5.80591">
        <ele>384</ele>
        <time>2017-09-24T15:20:57Z</time>
      </trkpt>
      <trkpt lat="45.23892" lon="5.80601">
        <ele>382</ele>
        <time>2017-09-24T15:21:00Z</time>
      </trkpt>
      <trkpt lat="45.23888" lon="5.80609">
        <ele>381</ele>
        <time>2017-09-24T15:21:01Z</time>
      </trkpt>
      <trkpt lat="45.23887" lon="5.80603">
        <ele>381</ele>
        <time>2017-09-24T15:21:02Z</time>
      </trkpt>
      <trkpt lat="45.23882" lon="5.80601">
        <ele>381</ele>
        <time>2017-09-24T15:21:04Z</time>
      </trkpt>
      <trkpt lat="45.23879" lon="5.80597">
        <ele>381</ele>
        <time>2017-09-24T15:21:06Z</time>
      </trkpt>
      <trkpt lat="45.23874" lon="5.80594">
        <ele>381</ele>
        <time>2017-09-24T15:21:07Z</time>
      </trkpt>
      <trkpt lat="45.23871" lon="5.80587">
        <ele>381</ele>
        <time>2017-09-24T15:21:08Z</time>
      </trkpt>
      <trkpt lat="45.23868" lon="5.8058">
        <ele>381</ele>
        <time>2017-09-24T15:21:09Z</time>
      </trkpt>
      <trkpt lat="45.23866" lon="5.80572">
        <ele>382</ele>
        <time>2017-09-24T15:21:10Z</time>
      </trkpt>
      <trkpt lat="45.23864" lon="5.80565">
        <ele>382</ele>
        <time>2017-09-24T15:21:11Z</time>
      </trkpt>
      <trkpt lat="45.23861" lon="5.80558">
        <ele>382</ele>
        <time>2017-09-24T15:21:12Z</time>
      </trkpt>
      <trkpt lat="45.23858" lon="5.80552">
        <ele>382</ele>
        <time>2017-09-24T15:21:13Z</time>
      </trkpt>
      <trkpt lat="45.23856" lon="5.80537">
        <ele>383</ele>
        <time>2017-09-24T15:21:14Z</time>
      </trkpt>
      <trkpt lat="45.23852" lon="5.80534">
        <ele>383</ele>
        <time>2017-09-24T15:21:15Z</time>
      </trkpt>
      <trkpt lat="45.23851" lon="5.80527">
        <ele>383</ele>
        <time>2017-09-24T15:21:16Z</time>
      </trkpt>
      <trkpt lat="45.23845" lon="5.80518">
        <ele>383</ele>
        <time>2017-09-24T15:21:18Z</time>
      </trkpt>
      <trkpt lat="45.23842" lon="5.80513">
        <ele>383</ele>
        <time>2017-09-24T15:21:19Z</time>
      </trkpt>
      <trkpt lat="45.23839" lon="5.80507">
        <ele>383</ele>
        <time>2017-09-24T15:21:20Z</time>
      </trkpt>
      <trkpt lat="45.23836" lon="5.80499">
        <ele>383</ele>
        <time>2017-09-24T15:21:22Z</time>
      </trkpt>
      <trkpt lat="45.23833" lon="5.80492">
        <ele>383</ele>
        <time>2017-09-24T15:21:24Z</time>
      </trkpt>
      <trkpt lat="45.23832" lon="5.80485">
        <ele>383</ele>
        <time>2017-09-24T15:21:25Z</time>
      </trkpt>
      <trkpt lat="45.2383" lon="5.80479">
        <ele>384</ele>
        <time>2017-09-24T15:21:26Z</time>
      </trkpt>
      <trkpt lat="45.23828" lon="5.8047">
        <ele>384</ele>
        <time>2017-09-24T15:21:28Z</time>
      </trkpt>
      <trkpt lat="45.23826" lon="5.80464">
        <ele>384</ele>
        <time>2017-09-24T15:21:29Z</time>
      </trkpt>
      <trkpt lat="45.23815" lon="5.80454">
        <ele>384</ele>
        <time>2017-09-24T15:21:31Z</time>
      </trkpt>
      <trkpt lat="45.2381" lon="5.80444">
        <ele>384</ele>
        <time>2017-09-24T15:21:33Z</time>
      </trkpt>
      <trkpt lat="45.23807" lon="5.80439">
        <ele>384</ele>
        <time>2017-09-24T15:21:34Z</time>
      </trkpt>
      <trkpt lat="45.23805" lon="5.80432">
        <ele>384</ele>
        <time>2017-09-24T15:21:35Z</time>
      </trkpt>
      <trkpt lat="45.23801" lon="5.80426">
        <ele>385</ele>
        <time>2017-09-24T15:21:36Z</time>
      </trkpt>
      <trkpt lat="45.23798" lon="5.80421">
        <ele>385</ele>
        <time>2017-09-24T15:21:37Z</time>
      </trkpt>
      <trkpt lat="45.23795" lon="5.80411">
        <ele>385</ele>
        <time>2017-09-24T15:21:39Z</time>
      </trkpt>
      <trkpt lat="45.23791" lon="5.80407">
        <ele>385</ele>
        <time>2017-09-24T15:21:40Z</time>
      </trkpt>
      <trkpt lat="45.23785" lon="5.80396">
        <ele>385</ele>
        <time>2017-09-24T15:21:42Z</time>
      </trkpt>
      <trkpt lat="45.2378" lon="5.80385">
        <ele>385</ele>
        <time>2017-09-24T15:21:44Z</time>
      </trkpt>
      <trkpt lat="45.23776" lon="5.80377">
        <ele>385</ele>
        <time>2017-09-24T15:21:46Z</time>
      </trkpt>
      <trkpt lat="45.23772" lon="5.80369">
        <ele>385</ele>
        <time>2017-09-24T15:21:48Z</time>
      </trkpt>
      <trkpt lat="45.23773" lon="5.80356">
        <ele>386</ele>
        <time>2017-09-24T15:21:50Z</time>
      </trkpt>
      <trkpt lat="45.23768" lon="5.80346">
        <ele>386</ele>
        <time>2017-09-24T15:21:52Z</time>
      </trkpt>
      <trkpt lat="45.23765" lon="5.80339">
        <ele>386</ele>
        <time>2017-09-24T15:21:53Z</time>
      </trkpt>
      <trkpt lat="45.23763" lon="5.80326">
        <ele>386</ele>
        <time>2017-09-24T15:21:55Z</time>
      </trkpt>
      <trkpt lat="45.2376" lon="5.80314">
        <ele>386</ele>
        <time>2017-09-24T15:21:57Z</time>
      </trkpt>
      <trkpt lat="45.23755" lon="5.80303">
        <ele>386</ele>
        <time>2017-09-24T15:21:59Z</time>
      </trkpt>
      <trkpt lat="45.23751" lon="5.80291">
        <ele>386</ele>
        <time>2017-09-24T15:22:01Z</time>
      </trkpt>
      <trkpt lat="45.23748" lon="5.80279">
        <ele>386</ele>
        <time>2017-09-24T15:22:03Z</time>
      </trkpt>
      <trkpt lat="45.23744" lon="5.80268">
        <ele>386</ele>
        <time>2017-09-24T15:22:05Z</time>
      </trkpt>
      <trkpt lat="45.23742" lon="5.80254">
        <ele>386</ele>
        <time>2017-09-24T15:22:07Z</time>
      </trkpt>
      <trkpt lat="45.23736" lon="5.80245">
        <ele>385</ele>
        <time>2017-09-24T15:22:09Z</time>
      </trkpt>
      <trkpt lat="45.23729" lon="5.80238">
        <ele>384</ele>
        <time>2017-09-24T15:22:10Z</time>
      </trkpt>
      <trkpt lat="45.23727" lon="5.80232">
        <ele>384</ele>
        <time>2017-09-24T15:22:11Z</time>
      </trkpt>
      <trkpt lat="45.23725" lon="5.80227">
        <ele>384</ele>
        <time>2017-09-24T15:22:12Z</time>
      </trkpt>
      <trkpt lat="45.23721" lon="5.80219">
        <ele>384</ele>
        <time>2017-09-24T15:22:14Z</time>
      </trkpt>
      <trkpt lat="45.23719" lon="5.80203">
        <ele>384</ele>
        <time>2017-09-24T15:22:16Z</time>
      </trkpt>
      <trkpt lat="45.23719" lon="5.80191">
        <ele>385</ele>
        <time>2017-09-24T15:22:18Z</time>
      </trkpt>
      <trkpt lat="45.23719" lon="5.80181">
        <ele>385</ele>
        <time>2017-09-24T15:22:20Z</time>
      </trkpt>
      <trkpt lat="45.23716" lon="5.8017">
        <ele>385</ele>
        <time>2017-09-24T15:22:22Z</time>
      </trkpt>
      <trkpt lat="45.23718" lon="5.80161">
        <ele>385</ele>
        <time>2017-09-24T15:22:24Z</time>
      </trkpt>
      <trkpt lat="45.23716" lon="5.80149">
        <ele>385</ele>
        <time>2017-09-24T15:22:26Z</time>
      </trkpt>
      <trkpt lat="45.2372" lon="5.80142">
        <ele>387</ele>
        <time>2017-09-24T15:22:28Z</time>
      </trkpt>
      <trkpt lat="45.23719" lon="5.80132">
        <ele>387</ele>
        <time>2017-09-24T15:22:30Z</time>
      </trkpt>
      <trkpt lat="45.23715" lon="5.80127">
        <ele>387</ele>
        <time>2017-09-24T15:22:31Z</time>
      </trkpt>
      <trkpt lat="45.23711" lon="5.80123">
        <ele>386</ele>
        <time>2017-09-24T15:22:32Z</time>
      </trkpt>
      <trkpt lat="45.23707" lon="5.8012">
        <ele>385</ele>
        <time>2017-09-24T15:22:33Z</time>
      </trkpt>
      <trkpt lat="45.23702" lon="5.80118">
        <ele>385</ele>
        <time>2017-09-24T15:22:34Z</time>
      </trkpt>
      <trkpt lat="45.23696" lon="5.80114">
        <ele>384</ele>
        <time>2017-09-24T15:22:35Z</time>
      </trkpt>
      <trkpt lat="45.2369" lon="5.80109">
        <ele>383</ele>
        <time>2017-09-24T15:22:36Z</time>
      </trkpt>
      <trkpt lat="45.23675" lon="5.80103">
        <ele>381</ele>
        <time>2017-09-24T15:22:37Z</time>
      </trkpt>
      <trkpt lat="45.23673" lon="5.80092">
        <ele>381</ele>
        <time>2017-09-24T15:22:39Z</time>
      </trkpt>
      <trkpt lat="45.23676" lon="5.80087">
        <ele>382</ele>
        <time>2017-09-24T15:22:45Z</time>
      </trkpt>
      <trkpt lat="45.23671" lon="5.80088">
        <ele>381</ele>
        <time>2017-09-24T15:22:58Z</time>
      </trkpt>
      <trkpt lat="45.23665" lon="5.8009">
        <ele>380</ele>
        <time>2017-09-24T15:23:03Z</time>
      </trkpt>
      <trkpt lat="45.23661" lon="5.80093">
        <ele>379</ele>
        <time>2017-09-24T15:23:07Z</time>
      </trkpt>
      <trkpt lat="45.23657" lon="5.80097">
        <ele>378</ele>
        <time>2017-09-24T15:23:11Z</time>
      </trkpt>
      <trkpt lat="45.23652" lon="5.80095">
        <ele>378</ele>
        <time>2017-09-24T15:23:20Z</time>
      </trkpt>
      <trkpt lat="45.23654" lon="5.80092">
        <ele>378</ele>
        <time>2017-09-24T15:23:39Z</time>
      </trkpt>
      <trkpt lat="45.2365" lon="5.80091">
        <ele>378</ele>
        <time>2017-09-24T15:23:55Z</time>
      </trkpt>
      <trkpt lat="45.23636" lon="5.8009">
        <ele>375</ele>
        <time>2017-09-24T15:23:58Z</time>
      </trkpt>
      <trkpt lat="45.23631" lon="5.80089">
        <ele>375</ele>
        <time>2017-09-24T15:23:59Z</time>
      </trkpt>
      <trkpt lat="45.23626" lon="5.80089">
        <ele>374</ele>
        <time>2017-09-24T15:24:00Z</time>
      </trkpt>
      <trkpt lat="45.23621" lon="5.80089">
        <ele>373</ele>
        <time>2017-09-24T15:24:01Z</time>
      </trkpt>
      <trkpt lat="45.23616" lon="5.80088">
        <ele>372</ele>
        <time>2017-09-24T15:24:02Z</time>
      </trkpt>
      <trkpt lat="45.23611" lon="5.80087">
        <ele>372</ele>
        <time>2017-09-24T15:24:03Z</time>
      </trkpt>
      <trkpt lat="45.23603" lon="5.80084">
        <ele>371</ele>
        <time>2017-09-24T15:24:05Z</time>
      </trkpt>
      <trkpt lat="45.23598" lon="5.80083">
        <ele>370</ele>
        <time>2017-09-24T15:24:06Z</time>
      </trkpt>
      <trkpt lat="45.23587" lon="5.80084">
        <ele>369</ele>
        <time>2017-09-24T15:24:07Z</time>
      </trkpt>
      <trkpt lat="45.23576" lon="5.8008">
        <ele>368</ele>
        <time>2017-09-24T15:24:10Z</time>
      </trkpt>
      <trkpt lat="45.23567" lon="5.80079">
        <ele>366</ele>
        <time>2017-09-24T15:24:12Z</time>
      </trkpt>
      <trkpt lat="45.2356" lon="5.80078">
        <ele>366</ele>
        <time>2017-09-24T15:24:14Z</time>
      </trkpt>
      <trkpt lat="45.23552" lon="5.80077">
        <ele>365</ele>
        <time>2017-09-24T15:24:16Z</time>
      </trkpt>
      <trkpt lat="45.23535" lon="5.80079">
        <ele>362</ele>
        <time>2017-09-24T15:24:22Z</time>
      </trkpt>
      <trkpt lat="45.2353" lon="5.80081">
        <ele>362</ele>
        <time>2017-09-24T15:24:24Z</time>
      </trkpt>
      <trkpt lat="45.23525" lon="5.80084">
        <ele>361</ele>
        <time>2017-09-24T15:24:26Z</time>
      </trkpt>
      <trkpt lat="45.23519" lon="5.80084">
        <ele>360</ele>
        <time>2017-09-24T15:24:28Z</time>
      </trkpt>
      <trkpt lat="45.23518" lon="5.80059">
        <ele>362</ele>
        <time>2017-09-24T15:24:35Z</time>
      </trkpt>
      <trkpt lat="45.23526" lon="5.80048">
        <ele>363</ele>
        <time>2017-09-24T15:24:40Z</time>
      </trkpt>
      <trkpt lat="45.23528" lon="5.80042">
        <ele>363</ele>
        <time>2017-09-24T15:24:43Z</time>
      </trkpt>
      <trkpt lat="45.23526" lon="5.80035">
        <ele>364</ele>
        <time>2017-09-24T15:24:47Z</time>
      </trkpt>
      <trkpt lat="45.23517" lon="5.80003">
        <ele>364</ele>
        <time>2017-09-24T15:24:57Z</time>
      </trkpt>
      <trkpt lat="45.2351" lon="5.80003">
        <ele>364</ele>
        <time>2017-09-24T15:24:59Z</time>
      </trkpt>
      <trkpt lat="45.23504" lon="5.80001">
        <ele>363</ele>
        <time>2017-09-24T15:25:01Z</time>
      </trkpt>
      <trkpt lat="45.235" lon="5.79996">
        <ele>363</ele>
        <time>2017-09-24T15:25:03Z</time>
      </trkpt>
      <trkpt lat="45.23496" lon="5.79992">
        <ele>363</ele>
        <time>2017-09-24T15:25:06Z</time>
      </trkpt>
      <trkpt lat="45.23489" lon="5.79989">
        <ele>363</ele>
        <time>2017-09-24T15:25:09Z</time>
      </trkpt>
      <trkpt lat="45.23483" lon="5.79988">
        <ele>362</ele>
        <time>2017-09-24T15:25:11Z</time>
      </trkpt>
      <trkpt lat="45.23478" lon="5.79985">
        <ele>363</ele>
        <time>2017-09-24T15:25:13Z</time>
      </trkpt>
      <trkpt lat="45.23471" lon="5.79982">
        <ele>363</ele>
        <time>2017-09-24T15:25:16Z</time>
      </trkpt>
      <trkpt lat="45.23465" lon="5.79983">
        <ele>362</ele>
        <time>2017-09-24T15:25:18Z</time>
      </trkpt>
      <trkpt lat="45.23462" lon="5.79989">
        <ele>362</ele>
        <time>2017-09-24T15:25:21Z</time>
      </trkpt>
      <trkpt lat="45.23457" lon="5.80009">
        <ele>360</ele>
        <time>2017-09-24T15:25:24Z</time>
      </trkpt>
      <trkpt lat="45.23454" lon="5.80014">
        <ele>359</ele>
        <time>2017-09-24T15:25:25Z</time>
      </trkpt>
      <trkpt lat="45.2345" lon="5.80019">
        <ele>359</ele>
        <time>2017-09-24T15:25:27Z</time>
      </trkpt>
      <trkpt lat="45.23446" lon="5.80015">
        <ele>359</ele>
        <time>2017-09-24T15:25:28Z</time>
      </trkpt>
      <trkpt lat="45.23441" lon="5.80017">
        <ele>359</ele>
        <time>2017-09-24T15:25:30Z</time>
      </trkpt>
      <trkpt lat="45.23436" lon="5.80026">
        <ele>358</ele>
        <time>2017-09-24T15:25:34Z</time>
      </trkpt>
      <trkpt lat="45.23425" lon="5.80042">
        <ele>357</ele>
        <time>2017-09-24T15:25:39Z</time>
      </trkpt>
      <trkpt lat="45.23406" lon="5.80083">
        <ele>353</ele>
        <time>2017-09-24T15:25:45Z</time>
      </trkpt>
      <trkpt lat="45.23404" lon="5.8009">
        <ele>352</ele>
        <time>2017-09-24T15:25:46Z</time>
      </trkpt>
      <trkpt lat="45.23399" lon="5.80096">
        <ele>352</ele>
        <time>2017-09-24T15:25:47Z</time>
      </trkpt>
      <trkpt lat="45.23399" lon="5.80108">
        <ele>351</ele>
        <time>2017-09-24T15:25:49Z</time>
      </trkpt>
      <trkpt lat="45.23396" lon="5.80145">
        <ele>349</ele>
        <time>2017-09-24T15:25:54Z</time>
      </trkpt>
      <trkpt lat="45.23391" lon="5.80156">
        <ele>348</ele>
        <time>2017-09-24T15:25:56Z</time>
      </trkpt>
      <trkpt lat="45.23382" lon="5.80166">
        <ele>346</ele>
        <time>2017-09-24T15:25:58Z</time>
      </trkpt>
      <trkpt lat="45.23377" lon="5.80172">
        <ele>346</ele>
        <time>2017-09-24T15:25:59Z</time>
      </trkpt>
      <trkpt lat="45.23374" lon="5.80178">
        <ele>345</ele>
        <time>2017-09-24T15:26:00Z</time>
      </trkpt>
      <trkpt lat="45.23368" lon="5.80177">
        <ele>345</ele>
        <time>2017-09-24T15:26:01Z</time>
      </trkpt>
      <trkpt lat="45.23362" lon="5.80178">
        <ele>344</ele>
        <time>2017-09-24T15:26:03Z</time>
      </trkpt>
      <trkpt lat="45.2336" lon="5.80186">
        <ele>344</ele>
        <time>2017-09-24T15:26:04Z</time>
      </trkpt>
      <trkpt lat="45.23355" lon="5.80191">
        <ele>343</ele>
        <time>2017-09-24T15:26:06Z</time>
      </trkpt>
      <trkpt lat="45.23357" lon="5.80198">
        <ele>343</ele>
        <time>2017-09-24T15:26:23Z</time>
      </trkpt>
      <trkpt lat="45.23354" lon="5.80206">
        <ele>342</ele>
        <time>2017-09-24T15:26:30Z</time>
      </trkpt>
      <trkpt lat="45.23351" lon="5.80215">
        <ele>341</ele>
        <time>2017-09-24T15:26:32Z</time>
      </trkpt>
      <trkpt lat="45.23347" lon="5.80226">
        <ele>340</ele>
        <time>2017-09-24T15:26:34Z</time>
      </trkpt>
      <trkpt lat="45.23335" lon="5.80242">
        <ele>338</ele>
        <time>2017-09-24T15:26:37Z</time>
      </trkpt>
      <trkpt lat="45.23321" lon="5.80239">
        <ele>338</ele>
        <time>2017-09-24T15:26:40Z</time>
      </trkpt>
      <trkpt lat="45.23316" lon="5.80236">
        <ele>338</ele>
        <time>2017-09-24T15:26:41Z</time>
      </trkpt>
      <trkpt lat="45.23309" lon="5.8023">
        <ele>338</ele>
        <time>2017-09-24T15:26:43Z</time>
      </trkpt>
      <trkpt lat="45.23304" lon="5.80228">
        <ele>338</ele>
        <time>2017-09-24T15:26:44Z</time>
      </trkpt>
      <trkpt lat="45.23299" lon="5.80225">
        <ele>338</ele>
        <time>2017-09-24T15:26:45Z</time>
      </trkpt>
      <trkpt lat="45.23293" lon="5.80219">
        <ele>338</ele>
        <time>2017-09-24T15:26:47Z</time>
      </trkpt>
      <trkpt lat="45.23287" lon="5.80209">
        <ele>338</ele>
        <time>2017-09-24T15:26:50Z</time>
      </trkpt>
      <trkpt lat="45.23282" lon="5.80206">
        <ele>338</ele>
        <time>2017-09-24T15:26:51Z</time>
      </trkpt>
      <trkpt lat="45.23275" lon="5.80202">
        <ele>338</ele>
        <time>2017-09-24T15:26:53Z</time>
      </trkpt>
      <trkpt lat="45.23268" lon="5.80196">
        <ele>339</ele>
        <time>2017-09-24T15:26:55Z</time>
      </trkpt>
      <trkpt lat="45.23262" lon="5.8019">
        <ele>339</ele>
        <time>2017-09-24T15:26:57Z</time>
      </trkpt>
      <trkpt lat="45.23256" lon="5.80183">
        <ele>339</ele>
        <time>2017-09-24T15:26:59Z</time>
      </trkpt>
      <trkpt lat="45.23249" lon="5.80182">
        <ele>339</ele>
        <time>2017-09-24T15:27:01Z</time>
      </trkpt>
      <trkpt lat="45.23245" lon="5.80184">
        <ele>339</ele>
        <time>2017-09-24T15:27:02Z</time>
      </trkpt>
      <trkpt lat="45.23241" lon="5.80188">
        <ele>339</ele>
        <time>2017-09-24T15:27:03Z</time>
      </trkpt>
      <trkpt lat="45.23237" lon="5.80193">
        <ele>338</ele>
        <time>2017-09-24T15:27:04Z</time>
      </trkpt>
      <trkpt lat="45.23232" lon="5.80206">
        <ele>337</ele>
        <time>2017-09-24T15:27:05Z</time>
      </trkpt>
      <trkpt lat="45.23227" lon="5.80214">
        <ele>336</ele>
        <time>2017-09-24T15:27:06Z</time>
      </trkpt>
      <trkpt lat="45.23223" lon="5.80221">
        <ele>336</ele>
        <time>2017-09-24T15:27:07Z</time>
      </trkpt>
      <trkpt lat="45.23218" lon="5.80227">
        <ele>335</ele>
        <time>2017-09-24T15:27:08Z</time>
      </trkpt>
      <trkpt lat="45.23214" lon="5.80234">
        <ele>334</ele>
        <time>2017-09-24T15:27:09Z</time>
      </trkpt>
      <trkpt lat="45.23207" lon="5.80234">
        <ele>334</ele>
        <time>2017-09-24T15:27:11Z</time>
      </trkpt>
      <trkpt lat="45.232" lon="5.8023">
        <ele>334</ele>
        <time>2017-09-24T15:27:13Z</time>
      </trkpt>
      <trkpt lat="45.23197" lon="5.80224">
        <ele>335</ele>
        <time>2017-09-24T15:27:14Z</time>
      </trkpt>
      <trkpt lat="45.23194" lon="5.80219">
        <ele>335</ele>
        <time>2017-09-24T15:27:15Z</time>
      </trkpt>
      <trkpt lat="45.23188" lon="5.80212">
        <ele>335</ele>
        <time>2017-09-24T15:27:17Z</time>
      </trkpt>
      <trkpt lat="45.23184" lon="5.80209">
        <ele>336</ele>
        <time>2017-09-24T15:27:18Z</time>
      </trkpt>
      <trkpt lat="45.23179" lon="5.80201">
        <ele>336</ele>
        <time>2017-09-24T15:27:20Z</time>
      </trkpt>
      <trkpt lat="45.23173" lon="5.80194">
        <ele>337</ele>
        <time>2017-09-24T15:27:22Z</time>
      </trkpt>
      <trkpt lat="45.23167" lon="5.80187">
        <ele>337</ele>
        <time>2017-09-24T15:27:24Z</time>
      </trkpt>
      <trkpt lat="45.23163" lon="5.8018">
        <ele>338</ele>
        <time>2017-09-24T15:27:26Z</time>
      </trkpt>
      <trkpt lat="45.23157" lon="5.80173">
        <ele>338</ele>
        <time>2017-09-24T15:27:28Z</time>
      </trkpt>
      <trkpt lat="45.23151" lon="5.80166">
        <ele>338</ele>
        <time>2017-09-24T15:27:30Z</time>
      </trkpt>
      <trkpt lat="45.23146" lon="5.80159">
        <ele>339</ele>
        <time>2017-09-24T15:27:32Z</time>
      </trkpt>
      <trkpt lat="45.2314" lon="5.80153">
        <ele>339</ele>
        <time>2017-09-24T15:27:34Z</time>
      </trkpt>
      <trkpt lat="45.23135" lon="5.80147">
        <ele>339</ele>
        <time>2017-09-24T15:27:36Z</time>
      </trkpt>
      <trkpt lat="45.23129" lon="5.80142">
        <ele>339</ele>
        <time>2017-09-24T15:27:38Z</time>
      </trkpt>
      <trkpt lat="45.23123" lon="5.80135">
        <ele>340</ele>
        <time>2017-09-24T15:27:40Z</time>
      </trkpt>
      <trkpt lat="45.23116" lon="5.80128">
        <ele>340</ele>
        <time>2017-09-24T15:27:42Z</time>
      </trkpt>
      <trkpt lat="45.23111" lon="5.8012">
        <ele>340</ele>
        <time>2017-09-24T15:27:44Z</time>
      </trkpt>
      <trkpt lat="45.23105" lon="5.80113">
        <ele>340</ele>
        <time>2017-09-24T15:27:46Z</time>
      </trkpt>
      <trkpt lat="45.23101" lon="5.80105">
        <ele>340</ele>
        <time>2017-09-24T15:27:48Z</time>
      </trkpt>
      <trkpt lat="45.23096" lon="5.80098">
        <ele>341</ele>
        <time>2017-09-24T15:27:50Z</time>
      </trkpt>
      <trkpt lat="45.23091" lon="5.80091">
        <ele>341</ele>
        <time>2017-09-24T15:27:52Z</time>
      </trkpt>
      <trkpt lat="45.23086" lon="5.80084">
        <ele>341</ele>
        <time>2017-09-24T15:27:54Z</time>
      </trkpt>
      <trkpt lat="45.2308" lon="5.80078">
        <ele>341</ele>
        <time>2017-09-24T15:27:56Z</time>
      </trkpt>
      <trkpt lat="45.23074" lon="5.80072">
        <ele>341</ele>
        <time>2017-09-24T15:27:58Z</time>
      </trkpt>
      <trkpt lat="45.23068" lon="5.80066">
        <ele>341</ele>
        <time>2017-09-24T15:28:00Z</time>
      </trkpt>
      <trkpt lat="45.23063" lon="5.80059">
        <ele>341</ele>
        <time>2017-09-24T15:28:02Z</time>
      </trkpt>
      <trkpt lat="45.23054" lon="5.8005">
        <ele>341</ele>
        <time>2017-09-24T15:28:04Z</time>
      </trkpt>
      <trkpt lat="45.23049" lon="5.80045">
        <ele>340</ele>
        <time>2017-09-24T15:28:05Z</time>
      </trkpt>
      <trkpt lat="45.23045" lon="5.80038">
        <ele>341</ele>
        <time>2017-09-24T15:28:07Z</time>
      </trkpt>
      <trkpt lat="45.2304" lon="5.80033">
        <ele>340</ele>
        <time>2017-09-24T15:28:08Z</time>
      </trkpt>
      <trkpt lat="45.23034" lon="5.80023">
        <ele>340</ele>
        <time>2017-09-24T15:28:10Z</time>
      </trkpt>
      <trkpt lat="45.23027" lon="5.80014">
        <ele>340</ele>
        <time>2017-09-24T15:28:12Z</time>
      </trkpt>
      <trkpt lat="45.23023" lon="5.80004">
        <ele>340</ele>
        <time>2017-09-24T15:28:14Z</time>
      </trkpt>
      <trkpt lat="45.23019" lon="5.79999">
        <ele>340</ele>
        <time>2017-09-24T15:28:15Z</time>
      </trkpt>
      <trkpt lat="45.23015" lon="5.79995">
        <ele>340</ele>
        <time>2017-09-24T15:28:16Z</time>
      </trkpt>
      <trkpt lat="45.23007" lon="5.79983">
        <ele>340</ele>
        <time>2017-09-24T15:28:19Z</time>
      </trkpt>
      <trkpt lat="45.23002" lon="5.79975">
        <ele>339</ele>
        <time>2017-09-24T15:28:21Z</time>
      </trkpt>
      <trkpt lat="45.22999" lon="5.79969">
        <ele>339</ele>
        <time>2017-09-24T15:28:22Z</time>
      </trkpt>
      <trkpt lat="45.22992" lon="5.79961">
        <ele>339</ele>
        <time>2017-09-24T15:28:24Z</time>
      </trkpt>
      <trkpt lat="45.22987" lon="5.79952">
        <ele>339</ele>
        <time>2017-09-24T15:28:26Z</time>
      </trkpt>
      <trkpt lat="45.22981" lon="5.79943">
        <ele>338</ele>
        <time>2017-09-24T15:28:28Z</time>
      </trkpt>
      <trkpt lat="45.22976" lon="5.79934">
        <ele>338</ele>
        <time>2017-09-24T15:28:30Z</time>
      </trkpt>
      <trkpt lat="45.22971" lon="5.79929">
        <ele>338</ele>
        <time>2017-09-24T15:28:32Z</time>
      </trkpt>
      <trkpt lat="45.22965" lon="5.79927">
        <ele>337</ele>
        <time>2017-09-24T15:28:34Z</time>
      </trkpt>
      <trkpt lat="45.22957" lon="5.79929">
        <ele>336</ele>
        <time>2017-09-24T15:28:36Z</time>
      </trkpt>
      <trkpt lat="45.22952" lon="5.79932">
        <ele>336</ele>
        <time>2017-09-24T15:28:37Z</time>
      </trkpt>
      <trkpt lat="45.22945" lon="5.7995">
        <ele>334</ele>
        <time>2017-09-24T15:28:38Z</time>
      </trkpt>
      <trkpt lat="45.22937" lon="5.79957">
        <ele>333</ele>
        <time>2017-09-24T15:28:40Z</time>
      </trkpt>
      <trkpt lat="45.22931" lon="5.79961">
        <ele>333</ele>
        <time>2017-09-24T15:28:41Z</time>
      </trkpt>
      <trkpt lat="45.22924" lon="5.79966">
        <ele>332</ele>
        <time>2017-09-24T15:28:42Z</time>
      </trkpt>
      <trkpt lat="45.22915" lon="5.7997">
        <ele>331</ele>
        <time>2017-09-24T15:28:43Z</time>
      </trkpt>
      <trkpt lat="45.22907" lon="5.79976">
        <ele>330</ele>
        <time>2017-09-24T15:28:44Z</time>
      </trkpt>
      <trkpt lat="45.22899" lon="5.79981">
        <ele>329</ele>
        <time>2017-09-24T15:28:45Z</time>
      </trkpt>
      <trkpt lat="45.22891" lon="5.79987">
        <ele>328</ele>
        <time>2017-09-24T15:28:46Z</time>
      </trkpt>
      <trkpt lat="45.22883" lon="5.79994">
        <ele>327</ele>
        <time>2017-09-24T15:28:47Z</time>
      </trkpt>
      <trkpt lat="45.22875" lon="5.79999">
        <ele>327</ele>
        <time>2017-09-24T15:28:48Z</time>
      </trkpt>
      <trkpt lat="45.22869" lon="5.80002">
        <ele>326</ele>
        <time>2017-09-24T15:28:49Z</time>
      </trkpt>
      <trkpt lat="45.22864" lon="5.80005">
        <ele>326</ele>
        <time>2017-09-24T15:28:50Z</time>
      </trkpt>
      <trkpt lat="45.22859" lon="5.8001">
        <ele>325</ele>
        <time>2017-09-24T15:28:51Z</time>
      </trkpt>
      <trkpt lat="45.22855" lon="5.80013">
        <ele>325</ele>
        <time>2017-09-24T15:28:53Z</time>
      </trkpt>
      <trkpt lat="45.22847" lon="5.80021">
        <ele>324</ele>
        <time>2017-09-24T15:28:55Z</time>
      </trkpt>
      <trkpt lat="45.22842" lon="5.80025">
        <ele>323</ele>
        <time>2017-09-24T15:28:56Z</time>
      </trkpt>
      <trkpt lat="45.22836" lon="5.80028">
        <ele>323</ele>
        <time>2017-09-24T15:28:57Z</time>
      </trkpt>
      <trkpt lat="45.22828" lon="5.80034">
        <ele>322</ele>
        <time>2017-09-24T15:28:59Z</time>
      </trkpt>
      <trkpt lat="45.22824" lon="5.80037">
        <ele>322</ele>
        <time>2017-09-24T15:29:00Z</time>
      </trkpt>
      <trkpt lat="45.2282" lon="5.80042">
        <ele>322</ele>
        <time>2017-09-24T15:29:01Z</time>
      </trkpt>
      <trkpt lat="45.22812" lon="5.80053">
        <ele>321</ele>
        <time>2017-09-24T15:29:03Z</time>
      </trkpt>
      <trkpt lat="45.22808" lon="5.80059">
        <ele>320</ele>
        <time>2017-09-24T15:29:04Z</time>
      </trkpt>
      <trkpt lat="45.22801" lon="5.80072">
        <ele>320</ele>
        <time>2017-09-24T15:29:06Z</time>
      </trkpt>
      <trkpt lat="45.22796" lon="5.80078">
        <ele>319</ele>
        <time>2017-09-24T15:29:07Z</time>
      </trkpt>
      <trkpt lat="45.22792" lon="5.80084">
        <ele>319</ele>
        <time>2017-09-24T15:29:08Z</time>
      </trkpt>
      <trkpt lat="45.22787" lon="5.80087">
        <ele>319</ele>
        <time>2017-09-24T15:29:09Z</time>
      </trkpt>
      <trkpt lat="45.22781" lon="5.80094">
        <ele>318</ele>
        <time>2017-09-24T15:29:10Z</time>
      </trkpt>
      <trkpt lat="45.22777" lon="5.801">
        <ele>318</ele>
        <time>2017-09-24T15:29:11Z</time>
      </trkpt>
      <trkpt lat="45.2277" lon="5.80105">
        <ele>317</ele>
        <time>2017-09-24T15:29:12Z</time>
      </trkpt>
      <trkpt lat="45.22765" lon="5.80109">
        <ele>317</ele>
        <time>2017-09-24T15:29:13Z</time>
      </trkpt>
      <trkpt lat="45.22759" lon="5.80115">
        <ele>316</ele>
        <time>2017-09-24T15:29:14Z</time>
      </trkpt>
      <trkpt lat="45.2275" lon="5.80121">
        <ele>315</ele>
        <time>2017-09-24T15:29:16Z</time>
      </trkpt>
      <trkpt lat="45.22738" lon="5.80135">
        <ele>314</ele>
        <time>2017-09-24T15:29:18Z</time>
      </trkpt>
      <trkpt lat="45.22733" lon="5.80142">
        <ele>313</ele>
        <time>2017-09-24T15:29:19Z</time>
      </trkpt>
      <trkpt lat="45.22726" lon="5.80147">
        <ele>312</ele>
        <time>2017-09-24T15:29:20Z</time>
      </trkpt>
      <trkpt lat="45.22722" lon="5.80154">
        <ele>312</ele>
        <time>2017-09-24T15:29:21Z</time>
      </trkpt>
      <trkpt lat="45.22714" lon="5.80163">
        <ele>311</ele>
        <time>2017-09-24T15:29:23Z</time>
      </trkpt>
      <trkpt lat="45.22707" lon="5.80168">
        <ele>311</ele>
        <time>2017-09-24T15:29:25Z</time>
      </trkpt>
      <trkpt lat="45.227" lon="5.80173">
        <ele>310</ele>
        <time>2017-09-24T15:29:27Z</time>
      </trkpt>
      <trkpt lat="45.22694" lon="5.80179">
        <ele>310</ele>
        <time>2017-09-24T15:29:28Z</time>
      </trkpt>
      <trkpt lat="45.22689" lon="5.80184">
        <ele>309</ele>
        <time>2017-09-24T15:29:29Z</time>
      </trkpt>
      <trkpt lat="45.22684" lon="5.80195">
        <ele>309</ele>
        <time>2017-09-24T15:29:31Z</time>
      </trkpt>
      <trkpt lat="45.2268" lon="5.80207">
        <ele>308</ele>
        <time>2017-09-24T15:29:33Z</time>
      </trkpt>
      <trkpt lat="45.22676" lon="5.80215">
        <ele>307</ele>
        <time>2017-09-24T15:29:35Z</time>
      </trkpt>
      <trkpt lat="45.2267" lon="5.8022">
        <ele>307</ele>
        <time>2017-09-24T15:29:37Z</time>
      </trkpt>
      <trkpt lat="45.22666" lon="5.80222">
        <ele>307</ele>
        <time>2017-09-24T15:29:38Z</time>
      </trkpt>
      <trkpt lat="45.2266" lon="5.80227">
        <ele>306</ele>
        <time>2017-09-24T15:29:40Z</time>
      </trkpt>
      <trkpt lat="45.22653" lon="5.80229">
        <ele>306</ele>
        <time>2017-09-24T15:29:42Z</time>
      </trkpt>
      <trkpt lat="45.22649" lon="5.80229">
        <ele>306</ele>
        <time>2017-09-24T15:29:48Z</time>
      </trkpt>
      <trkpt lat="45.22645" lon="5.80233">
        <ele>306</ele>
        <time>2017-09-24T15:29:51Z</time>
      </trkpt>
      <trkpt lat="45.2264" lon="5.80239">
        <ele>305</ele>
        <time>2017-09-24T15:29:53Z</time>
      </trkpt>
      <trkpt lat="45.22635" lon="5.80242">
        <ele>305</ele>
        <time>2017-09-24T15:29:55Z</time>
      </trkpt>
      <trkpt lat="45.22631" lon="5.80246">
        <ele>305</ele>
        <time>2017-09-24T15:30:01Z</time>
      </trkpt>
      <trkpt lat="45.22629" lon="5.80249">
        <ele>304</ele>
        <time>2017-09-24T15:30:26Z</time>
      </trkpt>
      <trkpt lat="45.22625" lon="5.80253">
        <ele>304</ele>
        <time>2017-09-24T15:30:30Z</time>
      </trkpt>
      <trkpt lat="45.22619" lon="5.80262">
        <ele>304</ele>
        <time>2017-09-24T15:30:32Z</time>
      </trkpt>
      <trkpt lat="45.22615" lon="5.80267">
        <ele>303</ele>
        <time>2017-09-24T15:30:33Z</time>
      </trkpt>
      <trkpt lat="45.22611" lon="5.80271">
        <ele>303</ele>
        <time>2017-09-24T15:30:34Z</time>
      </trkpt>
      <trkpt lat="45.22605" lon="5.80281">
        <ele>302</ele>
        <time>2017-09-24T15:30:36Z</time>
      </trkpt>
      <trkpt lat="45.22601" lon="5.8029">
        <ele>301</ele>
        <time>2017-09-24T15:30:38Z</time>
      </trkpt>
      <trkpt lat="45.22599" lon="5.80301">
        <ele>300</ele>
        <time>2017-09-24T15:30:40Z</time>
      </trkpt>
      <trkpt lat="45.22595" lon="5.8032">
        <ele>299</ele>
        <time>2017-09-24T15:30:44Z</time>
      </trkpt>
      <trkpt lat="45.22588" lon="5.80326">
        <ele>297</ele>
        <time>2017-09-24T15:30:46Z</time>
      </trkpt>
      <trkpt lat="45.22582" lon="5.8033">
        <ele>295</ele>
        <time>2017-09-24T15:30:48Z</time>
      </trkpt>
      <trkpt lat="45.22577" lon="5.80333">
        <ele>293</ele>
        <time>2017-09-24T15:30:53Z</time>
      </trkpt>
      <trkpt lat="45.22582" lon="5.80335">
        <ele>294</ele>
        <time>2017-09-24T15:30:59Z</time>
      </trkpt>
      <trkpt lat="45.22585" lon="5.80336">
        <ele>295</ele>
        <time>2017-09-24T15:31:29Z</time>
      </trkpt>
    </trkseg>
  </trk>
</gpx>